# Wetter Temperatur Luftdruck Luftfeuchtigkeit Sichtweite Windgeschwindigkeit Windrichtung Zeit
1 Clouds 17 1017 29 16093 1.5 70 22:26 24.01.2020
2 Clear 17 1017 33 16093 2.1 0 21:57 24.01.2020
3 Clear 17 1017 33 16093 2.1 0 21:39 24.01.2020
4 Clouds 16 1018 27 16093 1.44 17 21:18 24.01.2020
5 Clear 15 1019 36 16093 1.5 0 20:43 24.01.2020
6 Clouds 15 1019 33 16093 1.44 17 20:22 24.01.2020
7 Clear 14 1020 43 16093 1.5 270 19:58 24.01.2020
8 Clear 13 1020 43 16093 1.5 270 19:39 24.01.2020
9 Clouds 13 1020 35 16093 1.5 50 19:21 24.01.2020
10 Clear 12 1020 39 16093 1.18 324 18:44 24.01.2020
11 Clouds 11 1020 50 16093 1.18 324 18:25 24.01.2020
12 Clear 9 1020 65 16093 1.5 190 17:59 24.01.2020
13 Clear 8 1020 65 16093 1.5 190 17:41 24.01.2020
14 Clouds 7 1020 56 16093 0.79 339 17:20 24.01.2020
15 Clear 6 1019 56 16093 2.6 320 16:40 24.01.2020
16 Clouds 6 1019 52 16093 0.79 339 16:21 24.01.2020
17 Clear 6 1019 56 16093 0.79 339 15:56 24.01.2020
18 Clear 6 1019 56 16093 0.79 339 15:38 24.01.2020
19 Clouds 5 1019 56 16093 1.5 230 15:19 24.01.2020
20 Clear 6 1019 56 16093 0.79 339 14:41 24.01.2020
21 Clouds 6 1019 56 16093 0.79 339 14:23 24.01.2020
22 Clear 6 1019 52 16093 0.82 344 13:45 24.01.2020
23 Clouds 6 1019 52 16093 1.5 180 13:24 24.01.2020
24 Clear 6 1019 53 16093 0.79 358 12:55 24.01.2020
25 Clouds 6 1019 56 16093 0.79 358 12:36 24.01.2020
26 Clouds 6 1019 56 16093 0.79 358 12:18 24.01.2020
27 Clear 7 1019 53 16093 0.79 358 11:42 24.01.2020
28 Clouds 7 1019 50 16093 0.44 312 11:18 24.01.2020
29 Clear 8 1019 50 16093 0.44 312 10:43 24.01.2020
30 Clouds 8 1019 57 16093 2.1 240 10:22 24.01.2020
31 Clear 8 1019 57 16093 0.44 312 09:56 24.01.2020
32 Clouds 8 1020 50 16093 2.1 240 09:37 24.01.2020
33 Clouds 9 1020 50 16093 2.1 240 09:18 24.01.2020
34 Clear 9 1020 50 16093 0.44 312 08:40 24.01.2020
35 Clouds 9 1020 50 16093 2.1 200 08:19 24.01.2020
36 Clear 9 1020 49 16093 0.43 239 07:49 24.01.2020
37 Clouds 9 1020 50 16093 2.1 210 07:28 24.01.2020
38 Clear 10 1020 50 16093 0.43 239 06:48 24.01.2020
39 Clouds 10 1020 46 16093 0.43 239 06:28 24.01.2020
40 Clear 11 1020 53 16093 0.43 239 05:57 24.01.2020
41 Clear 11 1020 44 16093 1.5 260 04:52 24.01.2020
42 Clear 16 1019 43 16093 1.17 268 02:53 24.01.2020
43 Clouds 17 1019 44 16093 1.17 268 02:23 24.01.2020
44 Clear 17 1019 33 16093 1.34 4 01:40 24.01.2020
45 Clouds 18 1019 27 16093 1.69 3 01:19 24.01.2020
46 Clouds 18 1020 25 16093 2.1 70 00:19 24.01.2020
47 Clear 17 1020 34 16093 1.69 3 23:45 23.01.2020
48 Clouds 17 1021 33 16093 1.5 210 23:27 23.01.2020
49 Clear 17 1020 35 16093 2.1 120 22:59 23.01.2020
50 Clouds 17 1021 33 16093 1.5 90 22:37 23.01.2020
51 Clouds 17 1021 33 16093 1.5 90 22:19 23.01.2020
52 Clear 16 1022 33 16093 3.1 0 21:56 23.01.2020
53 Clouds 16 1023 33 16093 2.1 50 21:38 23.01.2020
54 Clouds 16 1023 33 16093 2.1 50 21:19 23.01.2020
55 Clear 15 1023 38 16093 2.6 0 20:57 23.01.2020
56 Clear 15 1023 38 16093 2.6 0 20:38 23.01.2020
57 Clouds 14 1024 36 16093 1.5 0 20:19 23.01.2020
58 Clear 13 1024 50 16093 2.1 0 19:44 23.01.2020
59 Clouds 12 1025 41 16093 1.5 50 19:24 23.01.2020
60 Clear 12 1025 66 16093 1.45 326 18:59 23.01.2020
61 Clear 11 1025 66 16093 1.45 326 18:40 23.01.2020
62 Clouds 11 1025 50 16093 1.5 230 18:20 23.01.2020
63 Clear 9 1025 75 16093 1.45 326 17:57 23.01.2020
64 Clear 9 1025 75 16093 1.45 326 17:39 23.01.2020
65 Clear 7 1025 81 16093 1.16 305 17:19 23.01.2020
66 Clouds 6 1024 57 16093 2.1 310 16:39 23.01.2020
67 Clouds 6 1024 57 16093 2.1 310 16:20 23.01.2020
68 Clear 5 1024 80 16093 1.16 305 15:58 23.01.2020
69 Clear 5 1024 80 16093 1.16 305 15:40 23.01.2020
70 Clouds 5 1024 65 16093 2.1 300 15:19 23.01.2020
71 Clouds 5 1024 65 16093 2.1 300 15:19 23.01.2020
72 Clear 5 1023 86 16093 1.16 305 14:59 23.01.2020
73 Clear 5 1023 86 16093 1.16 305 14:41 23.01.2020
74 Clouds 6 1023 70 16093 2.6 210 14:23 23.01.2020
75 Clear 6 1023 80 16093 0.83 327 13:59 23.01.2020
76 Clear 6 1023 80 16093 0.83 327 13:38 23.01.2020
77 Clear 6 1024 70 16093 2.1 200 13:19 23.01.2020
78 Clear 6 1023 75 16093 0.92 324 12:46 23.01.2020
79 Clear 6 1023 70 16093 1.5 210 12:25 23.01.2020
80 Clear 6 1023 80 16093 0.83 318 11:57 23.01.2020
81 Clear 6 1023 80 16093 0.92 324 11:38 23.01.2020
82 Clear 6 1023 66 16093 4.6 350 11:19 23.01.2020
83 Clear 6 1023 81 16093 0.58 309 10:44 23.01.2020
84 Clear 6 1023 81 16093 0.46 295 10:22 23.01.2020
85 Clear 7 1023 70 16093 0.58 309 09:57 23.01.2020
86 Clear 7 1023 75 16093 0.46 295 09:36 23.01.2020
87 Clear 7 1023 75 16093 0.58 309 09:18 23.01.2020
88 Clear 7 1023 75 16093 0.58 309 08:41 23.01.2020
89 Clouds 7 1023 66 16093 1.5 200 08:22 23.01.2020
90 Clear 8 1023 81 16093 0.71 311 07:45 23.01.2020
91 Clouds 8 1023 66 16093 1.5 220 07:26 23.01.2020
92 Clear 8 1023 70 16093 0.71 311 06:52 23.01.2020
93 Clouds 8 1023 57 16093 2.1 240 06:23 23.01.2020
94 Clear 9 1022 66 16093 1.5 290 05:57 23.01.2020
95 Clear 9 1022 57 16093 1.5 0 04:24 23.01.2020
96 Clouds 13 1021 47 16093 2.6 100 02:34 23.01.2020
97 Clouds 14 1021 44 16093 1.5 0 01:33 23.01.2020
98 Clouds 14 1021 44 16093 2.1 70 00:27 23.01.2020
99 Clear 15 1021 44 16093 3.1 0 23:48 22.01.2020
100 Clouds 15 1021 44 16093 1.72 28 23:30 22.01.2020
101 Clear 15 1021 41 16093 3.6 310 22:59 22.01.2020
102 Clear 14 1021 41 16093 3.6 310 22:40 22.01.2020
103 Clouds 14 1022 47 16093 1.14 54 22:22 22.01.2020
104 Clear 14 1022 50 16093 2.1 30 21:40 22.01.2020
105 Clouds 13 1022 50 16093 2.1 100 21:22 22.01.2020
106 Clear 13 1022 54 16093 1.14 54 20:57 22.01.2020
107 Clear 13 1022 54 16093 1.14 54 20:57 22.01.2020
108 Clear 13 1022 54 16093 1.14 54 20:38 22.01.2020
109 Clear 13 1022 54 16093 1.14 54 20:38 22.01.2020
110 Clouds 12 1023 50 16093 0.68 341 20:20 22.01.2020
111 Clear 12 1023 62 16093 0.68 341 19:56 22.01.2020
112 Clear 12 1023 62 16093 0.68 341 19:38 22.01.2020
113 Clouds 11 1023 58 16093 0.68 341 19:18 22.01.2020
114 Clear 10 1023 70 16093 1.5 180 18:56 22.01.2020
115 Clear 10 1023 70 16093 1.5 180 18:38 22.01.2020
116 Clouds 10 1023 61 16093 0.68 341 18:19 22.01.2020
117 Clouds 10 1023 61 16093 0.68 341 18:19 22.01.2020
118 Clear 8 1022 81 16093 0.68 341 17:54 22.01.2020
119 Clouds 8 1022 65 16093 1.5 270 17:36 22.01.2020
120 Clouds 6 1022 65 16093 1.5 270 17:18 22.01.2020
121 Clear 5 1022 86 16093 0.39 326 16:42 22.01.2020
122 Clouds 4 1021 70 16093 1.5 260 16:22 22.01.2020
123 Clear 4 1021 93 16093 0.39 326 15:58 22.01.2020
124 Clear 4 1021 93 16093 0.39 326 15:38 22.01.2020
125 Clouds 4 1021 70 16093 1.5 270 15:20 22.01.2020
126 Clear 5 1020 86 16093 0.39 326 14:40 22.01.2020
127 Clear 5 1020 86 16093 0.39 326 14:40 22.01.2020
128 Clouds 5 1020 70 16093 2.1 240 14:21 22.01.2020
129 Clear 5 1020 86 16093 2.6 60 13:59 22.01.2020
130 Clear 5 1020 86 16093 2.6 60 13:38 22.01.2020
131 Clouds 5 1020 70 16093 1.5 280 13:19 22.01.2020
132 Clear 5 1020 86 16093 0.24 105 12:57 22.01.2020
133 Clear 5 1020 86 16093 0.24 105 12:39 22.01.2020
134 Clear 6 1020 93 16093 0.24 105 12:20 22.01.2020
135 Clear 6 1020 81 16093 0.24 105 11:58 22.01.2020
136 Clear 5 1020 81 16093 0.24 105 11:40 22.01.2020
137 Clouds 5 1020 70 16093 2.6 260 11:19 22.01.2020
138 Clouds 5 1020 70 16093 2.6 260 11:19 22.01.2020
139 Clear 6 1020 87 16093 1.18 217 10:54 22.01.2020
140 Clouds 6 1020 65 16093 2.1 210 10:36 22.01.2020
141 Clouds 6 1020 65 16093 2.1 210 10:18 22.01.2020
142 Clear 7 1019 87 16093 1.5 360 09:41 22.01.2020
143 Clear 7 1020 81 16093 2.1 40 09:23 22.01.2020
144 Clear 7 1020 81 16093 1.18 217 08:57 22.01.2020
145 Clear 7 1020 81 16093 1.18 217 08:38 22.01.2020
146 Clouds 7 1020 61 16093 2.1 200 08:20 22.01.2020
147 Clear 8 1020 75 16093 2.1 310 07:46 22.01.2020
148 Clouds 8 1020 57 16093 2.1 270 07:27 22.01.2020
149 Clear 9 1020 70 16093 1.73 199 06:38 22.01.2020
150 Clouds 9 1019 57 16093 2.1 250 06:20 22.01.2020
151 Clouds 9 1019 57 16093 2.1 250 06:20 22.01.2020
152 Clouds 12 1019 54 16093 2.1 110 04:27 22.01.2020
153 Clouds 12 1018 44 16093 1.5 220 03:29 22.01.2020
154 Clouds 13 1018 54 16093 2.1 70 02:49 22.01.2020
155 Clouds 14 1018 36 16093 2.6 210 01:35 22.01.2020
156 Clear 15 1017 47 16093 4.1 140 00:42 22.01.2020
157 Clouds 15 1017 31 16093 3.1 180 00:23 22.01.2020
158 Clouds 15 1017 31 16093 1.5 100 23:37 21.01.2020
159 Clouds 15 1017 31 16093 1.5 100 23:19 21.01.2020
160 Clouds 15 1017 44 16093 3.6 110 22:42 21.01.2020
161 Clouds 15 1017 31 16093 0.87 274 22:24 21.01.2020
162 Clouds 14 1018 44 16093 4.1 140 21:59 21.01.2020
163 Clouds 14 1018 44 16093 4.1 140 21:40 21.01.2020
164 Clouds 14 1018 29 16093 2.1 50 21:21 21.01.2020
165 Clouds 14 1019 35 16093 3.1 170 20:59 21.01.2020
166 Clouds 14 1019 35 16093 3.1 170 20:39 21.01.2020
167 Clouds 14 1019 35 16093 2.1 140 20:20 21.01.2020
168 Clouds 13 1019 49 16093 2.1 190 19:58 21.01.2020
169 Clouds 14 1019 49 16093 2.1 190 19:39 21.01.2020
170 Clouds 13 1019 37 16093 3.6 60 19:21 21.01.2020
171 Clouds 13 1019 46 16093 2.43 160 18:57 21.01.2020
172 Clouds 12 1019 32 16093 2.6 30 18:39 21.01.2020
173 Clouds 13 1019 46 16093 2.43 160 18:39 21.01.2020
174 Clouds 12 1019 32 16093 2.6 30 18:20 21.01.2020
175 Clouds 12 1019 53 16093 2.1 90 17:56 21.01.2020
176 Clouds 11 1018 34 16093 2.43 160 17:38 21.01.2020
177 Clouds 11 1018 34 16093 1.82 188 17:18 21.01.2020
178 Clouds 10 1018 66 16093 3.1 30 16:38 21.01.2020
179 Clouds 10 1018 40 16093 1.82 188 16:19 21.01.2020
180 Clouds 10 1018 40 16093 1.82 188 16:19 21.01.2020
181 Clouds 10 1017 66 16093 1.82 188 15:59 21.01.2020
182 Clouds 10 1017 66 16093 1.82 188 15:38 21.01.2020
183 Clouds 10 1017 37 16093 1.82 188 15:19 21.01.2020
184 Clouds 10 1017 61 16093 1.82 188 14:39 21.01.2020
185 Clouds 10 1017 61 16093 1.82 188 14:39 21.01.2020
186 Clouds 10 1016 37 16093 3.1 310 14:21 21.01.2020
187 Clouds 10 1016 57 16093 2.1 130 13:43 21.01.2020
188 Rain 10 1016 32 16093 3.1 180 13:20 21.01.2020
189 Rain 10 1017 65 16093 1.5 140 12:58 21.01.2020
190 Rain 10 1017 65 16093 1.5 140 12:39 21.01.2020
191 Rain 10 1017 37 16093 1.5 200 12:21 21.01.2020
192 Clouds 10 1017 49 16093 2.6 180 11:55 21.01.2020
193 Clouds 10 1017 40 16093 1.5 170 11:36 21.01.2020
194 Clouds 10 1017 40 16093 1.5 170 11:18 21.01.2020
195 Clouds 10 1017 43 16093 0.97 292 10:42 21.01.2020
196 Rain 10 1017 34 16093 1.5 240 10:22 21.01.2020
197 Clouds 10 1017 43 16093 0.97 292 09:43 21.01.2020
198 Clouds 10 1017 34 16093 2.1 220 09:24 21.01.2020
199 Clouds 10 1017 46 16093 0.97 292 08:58 21.01.2020
200 Clouds 10 1017 46 16093 0.97 292 08:40 21.01.2020
201 Clouds 10 1018 32 16093 0.7 330 08:19 21.01.2020
202 Clouds 11 1017 46 16093 1.19 301 07:42 21.01.2020
203 Clouds 11 1017 46 16093 1.19 301 07:42 21.01.2020
204 Clouds 10 1017 34 16093 1.5 220 07:23 21.01.2020
205 Clouds 10 1017 34 16093 1.5 220 07:23 21.01.2020
206 Clouds 11 1018 34 16093 1.19 301 06:56 21.01.2020
207 Clouds 11 1019 34 16093 2.6 220 06:37 21.01.2020
208 Clouds 11 1018 40 16093 1.19 301 05:50 21.01.2020
209 Clouds 11 1018 32 16093 0.25 311 04:41 21.01.2020
210 Clear 12 1018 28 16093 0.25 311 03:40 21.01.2020
211 Clouds 13 1018 22 16093 3.1 290 02:26 21.01.2020
212 Clouds 14 1018 19 16093 2.1 300 01:31 21.01.2020
213 Clear 15 1017 22 16093 2.6 340 00:41 21.01.2020
214 Clouds 15 1018 21 16093 0.93 84 00:21 21.01.2020
215 Clear 15 1018 22 16093 2.6 360 23:41 20.01.2020
216 Clouds 15 1019 19 16093 1.5 90 23:19 20.01.2020
217 Clear 15 1019 22 16093 4.6 30 22:59 20.01.2020
218 Clear 15 1019 22 16093 4.6 30 22:38 20.01.2020
219 Clear 15 1019 22 16093 4.6 30 22:38 20.01.2020
220 Clouds 15 1020 21 16093 1.5 60 22:20 20.01.2020
221 Clouds 15 1020 21 16093 1.5 60 22:20 20.01.2020
222 Clear 15 1020 19 16093 4.1 20 21:58 20.01.2020
223 Clouds 15 1021 21 16093 2.6 40 21:37 20.01.2020
224 Clouds 15 1021 21 16093 2.6 40 21:19 20.01.2020
225 Clear 14 1021 26 16093 2.08 349 20:57 20.01.2020
226 Clear 14 1021 26 16093 2.08 349 20:38 20.01.2020
227 Clouds 14 1022 24 16093 1.5 10 20:19 20.01.2020
228 Clear 14 1022 28 16093 1.37 334 19:56 20.01.2020
229 Clear 13 1022 28 16093 1.37 334 19:38 20.01.2020
230 Clouds 13 1023 24 16093 3.1 70 19:18 20.01.2020
231 Clear 12 1023 34 16093 1.37 334 18:44 20.01.2020
232 Clouds 12 1023 26 16093 3.1 320 18:22 20.01.2020
233 Clear 11 1023 37 16093 1.37 334 17:58 20.01.2020
234 Clouds 11 1022 27 16093 3.1 30 17:36 20.01.2020
235 Clouds 10 1022 27 16093 3.1 30 17:18 20.01.2020
236 Clear 9 1022 36 16093 2.1 0 16:39 20.01.2020
237 Clouds 9 1022 27 16093 1.68 308 16:19 20.01.2020
238 Clear 9 1022 36 16093 1.68 308 15:57 20.01.2020
239 Clear 9 1022 36 16093 1.68 308 15:39 20.01.2020
240 Clouds 9 1022 29 16093 1.5 20 15:20 20.01.2020
241 Clear 9 1022 36 16093 1.68 308 14:41 20.01.2020
242 Clouds 9 1022 25 16093 2.6 360 14:22 20.01.2020
243 Clear 9 1022 36 16093 1.52 340 13:58 20.01.2020
244 Clear 9 1022 36 16093 1.52 340 13:40 20.01.2020
245 Clouds 10 1022 25 16093 2.1 350 13:21 20.01.2020
246 Clear 10 1021 31 16093 1.29 346 12:46 20.01.2020
247 Clouds 10 1022 29 16093 1.29 346 12:28 20.01.2020
248 Clear 10 1022 29 16093 1.29 346 11:58 20.01.2020
249 Clear 10 1022 29 16093 1.29 346 11:39 20.01.2020
250 Clouds 10 1022 27 16093 1.35 353 11:20 20.01.2020
251 Clear 10 1022 25 16093 1.35 353 10:48 20.01.2020
252 -273 0 0 0 0 0 10:22 20.01.2020
253 Clear 11 1023 27 16093 2.6 270 09:57 20.01.2020
254 Clear 11 1023 27 16093 2.6 270 09:39 20.01.2020
255 Clouds 11 1023 24 16093 3.1 40 09:20 20.01.2020
256 Clear 11 1023 27 16093 2.6 310 08:44 20.01.2020
257 Clouds 11 1024 22 16093 3.6 10 08:26 20.01.2020
258 Clear 11 1023 25 16093 1.75 344 07:45 20.01.2020
259 Clouds 11 1024 30 16093 1.75 344 07:25 20.01.2020
260 Clear 12 1023 21 16093 6.2 20 06:48 20.01.2020
261 Clouds 12 1024 30 16093 1.75 344 06:27 20.01.2020
262 Clear 12 1024 21 16093 4.1 360 05:42 20.01.2020
263 Clouds 12 1024 24 16093 2.1 270 05:22 20.01.2020
264 Clear 13 1023 21 16093 1.5 0 04:42 20.01.2020
265 Clear 15 1024 21 16093 1.05 319 02:57 20.01.2020
266 Clear 15 1023 19 16093 2.6 360 01:54 20.01.2020
267 Clouds 16 1024 18 16093 5.1 40 01:35 20.01.2020
268 Clear 17 1024 18 16093 3.6 320 00:44 20.01.2020
269 Clouds 17 1024 17 16093 5.1 40 00:23 20.01.2020
270 Clear 17 1024 18 16093 4.1 10 23:39 19.01.2020
271 Clouds 17 1025 18 16093 2.6 20 23:20 19.01.2020
272 Clear 17 1025 17 16093 6.2 30 22:56 19.01.2020
273 Clear 16 1025 17 16093 6.2 30 22:38 19.01.2020
274 Clouds 16 1026 18 16093 2.6 40 22:20 19.01.2020
275 Clear 16 1025 17 16093 5.1 30 21:56 19.01.2020
276 Clear 16 1025 17 16093 5.1 30 21:38 19.01.2020
277 Clouds 15 1027 18 16093 1.5 0 21:20 19.01.2020
278 Clear 14 1027 21 16093 4.1 30 20:57 19.01.2020
279 Clear 14 1027 21 16093 4.1 30 20:38 19.01.2020
280 Clouds 14 1028 20 16093 1.99 3 20:20 19.01.2020
281 Clear 12 1028 22 16093 3.1 20 19:57 19.01.2020
282 Clear 12 1028 22 16093 3.1 20 19:38 19.01.2020
283 Clouds 12 1029 25 16093 2.1 180 19:20 19.01.2020
284 Clear 11 1028 29 16093 2.1 150 18:56 19.01.2020
285 Clouds 11 1028 29 16093 1.99 3 18:37 19.01.2020
286 Clouds 10 1028 29 16093 1.99 3 18:19 19.01.2020
287 Clear 9 1028 25 16093 3.6 360 17:58 19.01.2020
288 Clear 8 1028 25 16093 3.6 360 17:39 19.01.2020
289 Clouds 5 1028 41 16093 2.1 210 17:20 19.01.2020
290 Clear 5 1027 31 16093 3.6 300 16:58 19.01.2020
291 Clear 4 1027 31 16093 3.6 300 16:38 19.01.2020
292 Clouds 4 1028 41 16093 2.1 280 16:19 19.01.2020
293 Clear 4 1027 35 16093 2.1 320 15:58 19.01.2020
294 Clear 4 1027 35 16093 2.6 320 15:37 19.01.2020
295 Clear 4 1027 35 16093 2.6 320 15:19 19.01.2020
296 Clear 4 1027 33 16093 3.6 310 14:57 19.01.2020
297 Clear 4 1027 33 16093 3.6 310 14:38 19.01.2020
298 Clouds 4 1027 38 16093 1.5 230 14:18 19.01.2020
299 Clouds 4 1027 38 16093 1.5 230 14:18 19.01.2020
300 Clear 4 1027 35 16093 3.1 310 13:56 19.01.2020
301 Clear 4 1026 28 16093 2.6 350 13:37 19.01.2020
302 Clear 4 1026 28 16093 2.6 350 13:19 19.01.2020
303 Clear 4 1027 30 16093 4.1 320 12:54 19.01.2020
304 Clouds 4 1027 38 16093 2.6 220 12:36 19.01.2020
305 Clouds 4 1027 38 16093 2.6 220 12:18 19.01.2020
306 Clear 5 1027 30 16093 4.6 320 11:39 19.01.2020
307 Clouds 5 1027 36 16093 2.1 250 11:20 19.01.2020
308 Clear 5 1027 30 16093 3.1 350 10:56 19.01.2020
309 Clear 5 1027 30 16093 3.1 350 10:56 19.01.2020
310 Clouds 5 1027 36 16093 2.6 290 10:37 19.01.2020
311 Clouds 5 1027 36 16093 2.6 290 10:19 19.01.2020
312 Clear 5 1027 30 16093 3.1 330 09:45 19.01.2020
313 Clear 5 1027 30 16093 3.1 330 09:45 19.01.2020
314 Clouds 5 1027 36 16093 1.5 250 09:27 19.01.2020
315 Clear 5 1027 30 16093 3.6 310 08:58 19.01.2020
316 Clear 5 1027 30 16093 3.6 310 08:39 19.01.2020
317 Clouds 6 1027 39 16093 2.6 200 08:21 19.01.2020
318 Clear 6 1027 28 16093 4.1 340 07:42 19.01.2020
319 Clouds 6 1027 36 16093 2.6 200 07:22 19.01.2020
320 Clear 6 1027 30 16093 4.6 310 06:51 19.01.2020
321 Clear 7 1027 21 16093 1.3 314 05:41 19.01.2020
322 Clear 11 1026 23 16093 2.1 340 02:44 19.01.2020
323 Clouds 11 1026 19 16093 2.65 355 02:21 19.01.2020
324 Clouds 13 1026 16 16093 2.54 360 01:25 19.01.2020
325 Clear 13 1026 14 16093 5.7 340 00:46 19.01.2020
326 Clouds 13 1027 16 16093 2.1 340 00:28 19.01.2020
327 Clear 13 1026 15 16093 5.1 350 23:56 18.01.2020
328 Clouds 13 1027 16 16093 2.1 40 23:38 18.01.2020
329 Clear 13 1026 15 16093 5.1 350 23:38 18.01.2020
330 Clouds 13 1027 16 16093 2.1 40 23:18 18.01.2020
331 Clear 13 1026 17 16093 2.1 0 22:55 18.01.2020
332 Clouds 13 1027 19 16093 3.41 1 22:36 18.01.2020
333 Clouds 13 1027 19 16093 3.41 1 22:18 18.01.2020
334 Clear 12 1027 19 16093 3.1 0 21:56 18.01.2020
335 Clouds 12 1028 22 16093 3.41 1 21:36 18.01.2020
336 Clouds 12 1028 22 16093 3.41 1 21:18 18.01.2020
337 Clear 12 1028 18 16093 3.6 350 20:42 18.01.2020
338 Clouds 11 1029 23 16093 2.09 343 20:20 18.01.2020
339 Clear 10 1029 21 16093 6.7 360 19:55 18.01.2020
340 Clouds 10 1030 27 16093 1.5 100 19:37 18.01.2020
341 Clouds 10 1030 27 16093 1.5 100 19:37 18.01.2020
342 Clouds 10 1030 27 16093 1.5 100 19:37 18.01.2020
343 Clouds 10 1030 27 16093 1.5 100 19:18 18.01.2020
344 Clear 9 1029 23 16093 4.6 350 18:41 18.01.2020
345 Clouds 8 1029 36 16093 2.09 343 18:21 18.01.2020
346 Clear 6 1029 26 16093 5.1 340 17:41 18.01.2020
347 Clouds 4 1029 41 16093 2.6 280 17:21 18.01.2020
348 Clear 3 1028 30 16093 3.6 340 16:59 18.01.2020
349 Clear 3 1028 30 16093 3.6 340 16:41 18.01.2020
350 Clouds 2 1028 47 16093 1.11 329 16:22 18.01.2020
351 Clouds 2 1028 47 16093 1.11 329 16:22 18.01.2020
352 Clear 2 1028 35 16093 1.11 329 15:58 18.01.2020
353 Clear 2 1028 35 16093 1.11 329 15:40 18.01.2020
354 Clouds 2 1028 41 16093 2.1 200 15:21 18.01.2020
355 Clear 2 1027 40 16093 1.11 329 14:44 18.01.2020
356 Clouds 2 1027 47 16093 1.5 210 14:21 18.01.2020
357 Clear 3 1027 26 16093 5.7 360 13:59 18.01.2020
358 Clear 3 1027 26 16093 5.7 360 13:41 18.01.2020
359 Clouds 3 1027 44 16093 2.1 280 13:20 18.01.2020
360 Clear 3 1027 28 16093 4.1 340 12:55 18.01.2020
361 Clouds 3 1027 44 16093 2.1 210 12:36 18.01.2020
362 Clouds 3 1027 44 16093 2.1 210 12:18 18.01.2020
363 Clear 3 1027 41 16093 1.17 326 11:43 18.01.2020
364 Clouds 3 1027 38 16093 1.49 6 11:21 18.01.2020
365 Clear 4 1027 32 16093 4.6 350 10:45 18.01.2020
366 Clouds 4 1027 38 16093 1.49 6 10:22 18.01.2020
367 Clear 4 1027 41 16093 1.49 6 09:59 18.01.2020
368 Clear 4 1027 41 16093 1.49 6 09:41 18.01.2020
369 Clouds 5 1027 36 16093 1.49 6 09:19 18.01.2020
370 Clear 5 1027 38 16093 2.6 30 08:42 18.01.2020
371 Clouds 5 1027 31 16093 1.5 250 08:20 18.01.2020
372 Clear 5 1026 28 16093 1.1 331 07:59 18.01.2020
373 Clear 6 1026 28 16093 1.1 331 07:40 18.01.2020
374 Clouds 6 1026 26 16093 1.1 331 07:18 18.01.2020
375 Clear 6 1026 30 16093 1.1 331 06:44 18.01.2020
376 Clear 7 1025 30 16093 3.1 350 05:52 18.01.2020
377 Clouds 8 1025 23 16093 1.5 200 04:25 18.01.2020
378 Clear 11 1025 26 16093 2.1 70 02:38 18.01.2020
379 Clear 12 1024 17 16093 3.23 26 01:40 18.01.2020
380 Clear 13 1023 16 16093 3.6 50 00:39 18.01.2020
381 Clear 13 1024 17 16093 2.1 0 00:20 18.01.2020
382 Clear 13 1023 20 16093 2.6 80 23:58 17.01.2020
383 Clear 13 1023 20 16093 2.6 80 23:39 17.01.2020
384 Clouds 13 1023 16 16093 2.1 0 23:18 17.01.2020
385 Clear 13 1023 24 16093 3.6 30 22:41 17.01.2020
386 Clouds 13 1023 19 16093 4.6 50 22:20 17.01.2020
387 Clear 13 1023 27 16093 5.1 40 21:56 17.01.2020
388 Clouds 12 1024 19 16093 4.1 30 21:37 17.01.2020
389 Clouds 12 1024 19 16093 4.1 30 21:19 17.01.2020
390 Clear 12 1024 30 16093 5.1 30 20:41 17.01.2020
391 Clouds 12 1025 22 16093 5.1 360 20:21 17.01.2020
392 Clear 11 1025 32 16093 5.1 320 19:58 17.01.2020
393 Clear 11 1025 32 16093 5.1 320 19:38 17.01.2020
394 Clear 10 1024 34 16093 6.7 320 19:20 17.01.2020
395 Clear 10 1024 37 16093 5.1 340 18:58 17.01.2020
396 Clear 10 1024 37 16093 5.1 340 18:39 17.01.2020
397 Clouds 10 1023 39 16093 2.58 342 18:21 17.01.2020
398 Clear 8 1022 45 16093 2.58 342 17:40 17.01.2020
399 Clouds 7 1021 45 16093 3.1 220 17:22 17.01.2020
400 Clear 7 1021 48 16093 2.52 289 16:57 17.01.2020
401 Clear 6 1021 48 16093 2.52 289 16:38 17.01.2020
402 Clouds 6 1020 45 16093 2.52 289 16:19 17.01.2020
403 Clear 5 1020 52 16093 2.52 289 15:45 17.01.2020
404 Clouds 6 1018 45 16093 4.1 230 15:26 17.01.2020
405 Clear 6 1018 45 16093 4.1 270 14:45 17.01.2020
406 Clouds 7 1017 42 16093 5.1 240 14:27 17.01.2020
407 Clear 7 1017 69 16093 3.1 220 13:58 17.01.2020
408 Clouds 7 1016 39 16093 7.7 270 13:37 17.01.2020
409 Clouds 7 1016 39 16093 7.7 270 13:19 17.01.2020
410 Clouds 7 1016 61 16093 8.7 220 12:44 17.01.2020
411 Clouds 7 1014 67 16093 7.2 190 12:21 17.01.2020
412 Clouds 8 1017 61 16093 4.6 250 11:38 17.01.2020
413 Clouds 7 1015 65 16093 5.1 170 11:18 17.01.2020
414 Clouds 8 1016 61 16093 9.3 250 10:44 17.01.2020
415 Rain 8 1015 61 16093 5.1 200 10:23 17.01.2020
416 Clouds 8 1015 45 16093 4.6 240 09:58 17.01.2020
417 Clouds 9 1015 45 16093 4.6 240 09:39 17.01.2020
418 Clouds 9 1015 45 16093 4.6 240 09:39 17.01.2020
419 Rain 9 1014 43 16093 6.7 210 09:19 17.01.2020
420 Clouds 10 1014 37 16093 5.7 200 08:43 17.01.2020
421 Clouds 11 1014 34 16093 2.1 210 08:25 17.01.2020
422 Clear 11 1014 34 16093 2.6 0 07:54 17.01.2020
423 Clouds 11 1013 27 16093 2.6 210 07:31 17.01.2020
424 Clear 11 1013 37 16093 8.2 160 06:58 17.01.2020
425 Clear 11 1013 37 16093 8.2 160 06:58 17.01.2020
426 Clear 11 1013 37 16093 8.2 160 06:40 17.01.2020
427 Clear 11 1012 34 16093 6.2 170 05:53 17.01.2020
428 Clouds 11 1011 40 16093 2.6 260 03:39 17.01.2020
429 Clouds 12 1011 35 16093 7.54 171 02:52 17.01.2020
430 Clear 12 1013 35 16093 2.1 20 01:47 17.01.2020
431 Clear 13 1013 35 16093 2.1 20 01:29 17.01.2020
432 Clear 13 1013 35 16093 2.1 30 00:49 17.01.2020
433 Clouds 14 1013 33 16093 1.5 40 00:23 17.01.2020
434 Clouds 14 1013 33 16093 1.5 40 23:44 16.01.2020
435 Clouds 14 1013 33 16093 1.5 40 23:25 16.01.2020
436 Clouds 14 1014 35 16093 3.1 60 22:56 16.01.2020
437 Clear 14 1013 29 16093 6.2 130 22:38 16.01.2020
438 Clouds 13 1014 35 16093 3.1 60 22:19 16.01.2020
439 Clear 13 1014 35 16093 4.1 90 21:54 16.01.2020
440 Clouds 13 1015 37 16093 2.1 90 21:36 16.01.2020
441 Clouds 13 1015 37 16093 2.1 90 21:18 16.01.2020
442 Clear 12 1016 40 16093 2.1 70 20:40 16.01.2020
443 Clouds 11 1017 37 16093 2.6 90 20:21 16.01.2020
444 Clear 10 1017 45 16093 0.16 338 19:58 16.01.2020
445 Clear 10 1017 45 16093 0.16 338 19:40 16.01.2020
446 Clouds 10 1018 40 16093 1.5 80 19:22 16.01.2020
447 Clear 9 1018 52 16093 0.16 338 18:57 16.01.2020
448 Clouds 9 1017 49 16093 0.16 338 18:37 16.01.2020
449 Clouds 8 1017 49 16093 0.16 338 18:18 16.01.2020
450 Clear 7 1017 69 16093 0.16 338 17:58 16.01.2020
451 Clear 5 1017 69 16093 0.16 338 17:39 16.01.2020
452 Clouds 4 1017 56 16093 0.56 197 17:20 16.01.2020
453 Clear 3 1017 74 16093 0.56 197 16:41 16.01.2020
454 Clouds 3 1017 60 16093 0.56 197 16:23 16.01.2020
455 Clear 2 1017 80 16093 0.56 197 15:57 16.01.2020
456 Clear 2 1017 80 16093 0.56 197 15:38 16.01.2020
457 Clouds 2 1017 60 16093 1.5 240 15:20 16.01.2020
458 Clear 2 1017 80 16093 0.56 197 14:42 16.01.2020
459 Clouds 2 1017 64 16093 2.6 210 14:24 16.01.2020
460 Clear 2 1017 80 16093 1.5 60 13:49 16.01.2020
461 Clouds 2 1017 60 16093 0.44 309 13:30 16.01.2020
462 Clear 3 1017 80 16093 0.28 306 12:59 16.01.2020
463 Clear 3 1017 80 16093 0.28 306 12:40 16.01.2020
464 Clouds 3 1017 60 16093 2.1 280 12:21 16.01.2020
465 Clear 3 1017 74 16093 0.28 306 11:42 16.01.2020
466 Clear 3 1017 74 16093 0.28 306 11:42 16.01.2020
467 Clouds 4 1017 60 16093 2.6 200 11:24 16.01.2020
468 Clear 4 1017 74 16093 0.39 263 10:57 16.01.2020
469 Clouds 4 1017 60 16093 2.1 220 10:37 16.01.2020
470 Clouds 4 1017 60 16093 2.1 220 10:19 16.01.2020
471 Clear 4 1017 69 16093 0.39 263 09:43 16.01.2020
472 Clouds 4 1017 56 16093 2.1 220 09:24 16.01.2020
473 Clear 4 1017 69 16093 0.39 263 08:58 16.01.2020
474 Clear 5 1017 69 16093 0.39 263 08:40 16.01.2020
475 Clouds 5 1018 52 16093 2.1 230 08:20 16.01.2020
476 Clear 5 1018 69 16093 0.55 227 07:43 16.01.2020
477 Clouds 5 1018 48 16093 1.5 220 07:24 16.01.2020
478 Clear 6 1018 47 16093 2.1 20 06:54 16.01.2020
479 Clouds 6 1018 45 16093 2.1 220 06:34 16.01.2020
480 Clear 6 1018 60 16093 2.6 320 05:51 16.01.2020
481 Clear 8 1017 52 16093 0.99 254 04:51 16.01.2020
482 Clouds 8 1017 40 16093 2.1 210 04:21 16.01.2020
483 Clouds 9 1017 37 16093 0.99 254 03:27 16.01.2020
484 Clouds 10 1017 34 16093 1.5 90 02:21 16.01.2020
485 Clear 13 1017 32 16093 2.1 40 00:44 16.01.2020
486 Clouds 13 1017 30 16093 2.1 50 00:23 16.01.2020
487 Rain 13 1017 32 16093 2.1 40 23:45 15.01.2020
488 Rain 13 1017 32 16093 0.64 345 23:22 15.01.2020
489 Clear 13 1017 35 16093 2.6 50 22:57 15.01.2020
490 Clear 13 1017 35 16093 2.6 50 22:38 15.01.2020
491 Clouds 13 1017 32 16093 1.5 70 22:18 15.01.2020
492 Clear 12 1017 35 16093 0.78 345 21:56 15.01.2020
493 Clear 12 1017 35 16093 0.78 345 21:56 15.01.2020
494 Clouds 12 1018 34 16093 0.78 345 21:37 15.01.2020
495 Clouds 12 1018 34 16093 0.78 345 21:18 15.01.2020
496 Clear 12 1019 40 16093 0.78 345 20:55 15.01.2020
497 Clouds 12 1020 37 16093 1.5 60 20:37 15.01.2020
498 Clouds 11 1020 37 16093 1.5 60 20:18 15.01.2020
499 Clear 10 1020 45 16093 1.33 332 19:54 15.01.2020
500 Clouds 9 1020 43 16093 2.1 0 19:36 15.01.2020
501 Clouds 9 1020 43 16093 2.1 0 19:18 15.01.2020
502 Clear 8 1020 56 16093 1.33 332 18:55 15.01.2020
503 Clear 8 1020 56 16093 1.33 332 18:55 15.01.2020
504 Clear 8 1020 56 16093 1.33 332 18:55 15.01.2020
505 Clouds 8 1020 52 16093 1.33 332 18:37 15.01.2020
506 Clouds 8 1020 52 16093 1.33 332 18:37 15.01.2020
507 Clouds 7 1020 52 16093 1.33 332 18:19 15.01.2020
508 Clear 5 1019 64 16093 1.33 332 17:41 15.01.2020
509 Clouds 4 1019 64 16093 1.5 210 17:23 15.01.2020
510 Clear 2 1018 74 16093 1.21 296 16:59 15.01.2020
511 Clear 1 1018 74 16093 1.21 296 16:39 15.01.2020
512 Clouds 2 1018 69 16093 1.21 296 16:21 15.01.2020
513 Clear 1 1018 74 16093 1.21 296 15:43 15.01.2020
514 Clouds 1 1018 64 16093 2.1 230 15:21 15.01.2020
515 Clouds 1 1018 64 16093 2.1 230 15:21 15.01.2020
516 Clear 2 1017 80 16093 1.21 296 14:58 15.01.2020
517 Clear 1 1017 80 16093 1.21 296 14:39 15.01.2020
518 Clouds 2 1017 64 16093 2.1 220 14:18 15.01.2020
519 Clouds 2 1017 64 16093 2.1 220 14:18 15.01.2020
520 Clear 2 1017 74 16093 1.5 10 13:45 15.01.2020
521 Clouds 2 1017 64 16093 1.5 220 13:24 15.01.2020
522 Clear 2 1017 69 16093 0.71 329 12:57 15.01.2020
523 Clear 2 1017 69 16093 0.71 329 12:39 15.01.2020
524 Clouds 2 1017 64 16093 2.6 220 12:19 15.01.2020
525 Clear 3 1017 64 16093 0.71 329 11:55 15.01.2020
526 Clouds 3 1017 60 16093 0.71 329 11:36 15.01.2020
527 Clouds 3 1017 60 16093 0.71 329 11:36 15.01.2020
528 Clouds 3 1017 60 16093 0.41 330 11:18 15.01.2020
529 Clouds 3 1017 60 16093 0.41 330 11:18 15.01.2020
530 Clear 3 1017 60 16093 1.5 360 10:41 15.01.2020
531 Clouds 3 1017 56 16093 2.1 240 10:21 15.01.2020
532 Clear 4 1017 60 16093 0.41 330 09:42 15.01.2020
533 Clear 3 1017 60 16093 2.1 350 09:22 15.01.2020
534 Clear 4 1017 65 16093 2.1 60 08:46 15.01.2020
535 Clouds 4 1017 52 16093 2.1 200 08:28 15.01.2020
536 Clear 5 1017 65 16093 2.6 20 07:59 15.01.2020
537 Clear 5 1017 65 16093 2.6 20 07:40 15.01.2020
538 Clouds 5 1017 52 16093 2.6 200 07:21 15.01.2020
539 Clear 6 1017 52 16093 2.1 60 06:43 15.01.2020
540 Clear 6 1016 49 16093 2.1 60 05:52 15.01.2020
541 Clear 9 1016 39 16093 3.6 40 03:44 15.01.2020
542 Clouds 12 1015 30 16093 2.6 30 01:50 15.01.2020
543 Clouds 13 1015 30 16093 2.53 313 01:22 15.01.2020
544 Clear 13 1014 25 16093 5.1 160 00:44 15.01.2020
545 Clouds 13 1015 33 16093 1.5 0 00:25 15.01.2020
546 Clear 13 1014 26 16093 6.2 190 23:47 14.01.2020
547 Clouds 13 1015 35 16093 3.1 40 23:29 14.01.2020
548 Clear 13 1014 25 16093 6.7 170 22:58 14.01.2020
549 Clouds 12 1015 35 16093 2.1 40 22:40 14.01.2020
550 Clouds 12 1015 35 16093 2.1 40 22:19 14.01.2020
551 Clouds 11 1016 37 16093 2.1 40 21:58 14.01.2020
552 Clouds 11 1016 37 16093 2.1 40 21:39 14.01.2020
553 Clouds 11 1016 37 16093 2.1 40 21:20 14.01.2020
554 Clear 11 1016 33 16093 1.5 0 20:56 14.01.2020
555 Clouds 10 1018 39 16093 1.5 30 20:38 14.01.2020
556 Clear 9 1017 37 16093 2.6 180 20:18 14.01.2020
557 Clear 9 1017 37 16093 2.6 180 19:55 14.01.2020
558 Clouds 8 1018 49 16093 0.48 131 19:37 14.01.2020
559 Clouds 8 1018 49 16093 0.48 131 19:18 14.01.2020
560 Clear 7 1018 43 16093 2.1 60 18:41 14.01.2020
561 Clear 6 1018 56 16093 1.5 340 18:20 14.01.2020
562 Clear 5 1017 52 16093 1.5 40 17:58 14.01.2020
563 Clouds 5 1017 60 16093 0.48 131 17:37 14.01.2020
564 Clouds 3 1017 60 16093 0.15 185 17:18 14.01.2020
565 Clear 2 1017 60 16093 2.1 320 16:43 14.01.2020
566 Clouds 2 1016 64 16093 0.15 185 16:23 14.01.2020
567 Clouds 2 1016 64 16093 0.15 185 16:23 14.01.2020
568 Clear 2 1017 69 16093 1.5 30 15:58 14.01.2020
569 Clear 2 1017 69 16093 1.5 30 15:40 14.01.2020
570 Clear 2 1017 64 16093 1.5 210 15:19 14.01.2020
571 Clear 2 1017 60 16093 0.15 185 14:44 14.01.2020
572 Clear 3 1017 56 16093 3.1 120 14:21 14.01.2020
573 Clear 3 1017 64 16093 2.1 30 13:57 14.01.2020
574 Clear 3 1017 64 16093 2.1 30 13:38 14.01.2020
575 Clear 3 1017 60 16093 1.5 250 13:18 14.01.2020
576 Clear 3 1017 60 16093 1.5 250 13:18 14.01.2020
577 Clear 3 1017 52 16093 3.1 90 12:42 14.01.2020
578 Clear 3 1017 52 16093 4.1 80 12:21 14.01.2020
579 Clear 4 1017 56 16093 3.1 60 11:55 14.01.2020
580 Clear 4 1017 52 16093 2.1 250 11:36 14.01.2020
581 Clear 4 1017 52 16093 2.1 250 11:18 14.01.2020
582 Clear 4 1017 48 16093 2.6 90 10:40 14.01.2020
583 Clear 4 1016 52 16093 2.1 280 10:20 14.01.2020
584 Clear 4 1017 56 16093 2.6 60 09:58 14.01.2020
585 Clear 5 1017 56 16093 2.6 60 09:40 14.01.2020
586 Clear 5 1017 52 16093 2.6 280 09:21 14.01.2020
587 Clear 5 1017 64 16093 2.6 40 08:48 14.01.2020
588 Clear 5 1017 52 16093 2.6 270 08:26 14.01.2020
589 Clear 6 1017 48 16093 2.1 360 07:56 14.01.2020
590 Clear 6 1017 48 16093 2.6 280 07:34 14.01.2020
591 Clear 6 1017 65 16093 2.1 10 06:57 14.01.2020
592 Clear 6 1017 65 16093 2.1 10 06:39 14.01.2020
593 Clear 7 1017 42 16093 2.48 181 05:28 14.01.2020
594 Clear 8 1017 37 16093 4.1 140 03:57 14.01.2020
595 Clear 8 1017 37 16093 1.31 110 03:35 14.01.2020
596 Clear 11 1017 28 16093 3.1 130 01:58 14.01.2020
597 Clear 12 1017 28 16093 3.6 170 00:53 14.01.2020
598 Clear 12 1017 28 16093 4.6 170 00:35 14.01.2020
599 Clear 12 1017 28 16093 2.1 80 23:56 13.01.2020
600 Clear 12 1018 30 16093 3.1 90 23:37 13.01.2020
601 Clear 12 1018 30 16093 3.1 90 23:18 13.01.2020
602 Clear 12 1018 30 16093 3.1 90 23:18 13.01.2020
603 Clear 11 1018 30 16093 2.1 120 22:43 13.01.2020
604 Clear 11 1019 27 16093 2.1 70 22:22 13.01.2020
605 Clear 11 1019 34 16093 2.6 0 21:57 13.01.2020
606 Clear 11 1019 34 16093 2.6 0 21:38 13.01.2020
607 Clear 11 1019 29 16093 2.1 50 21:19 13.01.2020
608 Clear 10 1019 34 16093 0.34 117 20:59 13.01.2020
609 Clear 10 1019 34 16093 0.34 117 20:59 13.01.2020
610 Clear 10 1019 34 16093 0.34 117 20:59 13.01.2020
611 Clear 10 1019 34 16093 0.34 117 20:41 13.01.2020
612 Clear 9 1020 31 16093 1.5 20 20:22 13.01.2020
613 Clear 9 1020 31 16093 1.5 20 20:22 13.01.2020
614 Clear 8 1020 42 16093 0.37 272 19:59 13.01.2020
615 Clear 8 1020 42 16093 0.37 272 19:40 13.01.2020
616 Clear 8 1020 34 16093 0.37 272 19:20 13.01.2020
617 Clear 8 1020 34 16093 0.37 272 19:20 13.01.2020
618 Clear 7 1020 52 16093 0.37 272 18:56 13.01.2020
619 Clear 7 1020 48 16093 0.37 272 18:37 13.01.2020
620 Clear 7 1020 48 16093 0.37 272 18:19 13.01.2020
621 Clear 5 1019 52 16093 0.37 272 17:43 13.01.2020
622 Clear 3 1018 55 16093 0.37 272 17:25 13.01.2020
623 Clear 2 1018 64 16093 0.66 312 16:57 13.01.2020
624 Clear 1 1017 59 16093 2.1 210 16:38 13.01.2020
625 Clear 1 1017 80 16093 3.6 160 16:20 13.01.2020
626 Clouds 1 1007 64 0 0.66 312 15:44 13.01.2020
627 Clouds 1 1007 64 0 0.66 312 15:24 13.01.2020
628 Clouds 1 1018 70 0 0.45 217 14:59 13.01.2020
629 Clouds 1 1018 71 0 0.45 217 14:39 13.01.2020
630 Clouds 1 1018 71 0 0.45 217 14:39 13.01.2020
631 Clouds 1 1018 71 0 0.45 217 14:39 13.01.2020
632 Clear 1 1018 72 0 0.26 228 14:20 13.01.2020
633 Clear 1 1005 58 0 0.26 228 13:55 13.01.2020
634 Clear 2 1005 59 0 0.26 228 13:37 13.01.2020
635 Clear 2 1017 69 0 0.32 355 13:19 13.01.2020
636 Clear 2 1015 55 16093 3.6 50 12:43 13.01.2020
637 Clear 2 1015 55 16093 3.6 50 12:23 13.01.2020
638 Clear 2 1015 55 16093 3.6 50 11:58 13.01.2020
639 Clear 3 1015 55 16093 2.1 230 11:38 13.01.2020
640 Clear 2 1015 55 16093 2.1 230 11:19 13.01.2020
641 Clear 3 1015 55 16093 3.6 30 10:56 13.01.2020
642 Clear 3 1014 55 16093 2.1 200 10:38 13.01.2020
643 Clear 2 1014 55 16093 2.1 200 10:19 13.01.2020
644 Clear 3 1014 55 16093 2.6 20 09:44 13.01.2020
645 Clear 3 1014 55 16093 2.1 320 09:24 13.01.2020
646 Clear 3 1015 55 16093 2.1 10 08:57 13.01.2020
647 Clouds 3 1014 48 16093 2.1 200 08:37 13.01.2020
648 Clouds 3 1014 48 16093 2.1 200 08:18 13.01.2020
649 Clear 4 1015 55 16093 0.8 5 07:44 13.01.2020
650 Clouds 4 1015 48 16093 2.1 240 07:26 13.01.2020
651 Clear 5 1015 42 16093 2.1 100 06:39 13.01.2020
652 Clear 6 1015 42 16093 2.1 60 05:42 13.01.2020
653 Clouds 6 1015 39 16093 1.1 359 05:19 13.01.2020
654 Clear 8 1016 31 16093 2.1 90 03:44 13.01.2020
655 Clear 9 1016 31 16093 2.1 80 02:51 13.01.2020
656 Clouds 9 1016 34 16093 1.5 120 02:30 13.01.2020
657 Clouds 10 1016 29 16093 1.19 34 01:33 13.01.2020
658 Clear 11 1016 32 16093 3.1 30 00:46 13.01.2020
659 Clouds 11 1016 27 16093 1.5 60 00:26 13.01.2020
660 Clear 11 1016 32 16093 3.1 20 23:58 12.01.2020
661 Clear 11 1016 32 16093 3.1 20 23:40 12.01.2020
662 Clouds 11 1016 29 16093 2.6 80 23:21 12.01.2020
663 Clouds 11 1016 29 16093 2.6 80 23:21 12.01.2020
664 Clear 10 1016 29 16093 2.6 60 22:56 12.01.2020
665 Clouds 10 1017 29 16093 3.1 100 22:37 12.01.2020
666 Clouds 10 1017 29 16093 3.1 100 22:18 12.01.2020
667 Clear 9 1017 31 16093 2.6 70 21:42 12.01.2020
668 Clouds 9 1018 31 16093 2.1 70 21:20 12.01.2020
669 Clear 9 1018 34 16093 3.6 40 20:59 12.01.2020
670 Clear 9 1018 34 16093 3.6 40 20:59 12.01.2020
671 Clear 9 1018 34 16093 3.6 40 20:40 12.01.2020
672 Clouds 8 1019 36 16093 0.9 94 20:21 12.01.2020
673 Clear 8 1020 36 16093 3.6 40 19:57 12.01.2020
674 Clear 8 1020 36 16093 3.6 40 19:38 12.01.2020
675 Clouds 7 1020 39 16093 1.5 60 19:19 12.01.2020
676 Clouds 7 1020 39 16093 1.5 60 19:19 12.01.2020
677 Clouds 7 1020 39 16093 1.5 60 19:19 12.01.2020
678 Clear 7 1020 48 16093 0.9 94 18:58 12.01.2020
679 Clear 6 1020 48 16093 0.9 94 18:40 12.01.2020
680 Clouds 6 1020 41 16093 0.9 94 18:22 12.01.2020
681 Clear 4 1020 55 16093 0.9 94 17:59 12.01.2020
682 Clear 4 1020 55 16093 0.9 94 17:41 12.01.2020
683 Clouds 2 1019 48 16093 0.68 108 17:19 12.01.2020
684 Clear 1 1019 59 16093 1.5 170 16:56 12.01.2020
685 Clear 1 1019 59 16093 1.5 170 16:56 12.01.2020
686 Clouds 1 1019 55 16093 0.68 108 16:37 12.01.2020
687 Clouds 0 1019 55 16093 0.68 108 16:19 12.01.2020
688 Clear 0 1018 64 16093 2.6 10 15:43 12.01.2020
689 Clouds 0 1018 51 16093 2.1 300 15:24 12.01.2020
690 Clear 0 1019 74 16093 2.1 360 14:57 12.01.2020
691 Clear 0 1019 74 16093 2.1 360 14:38 12.01.2020
692 Clouds 1 1019 55 16093 2.6 210 14:20 12.01.2020
693 Clear 1 1019 59 16093 2.1 280 13:54 12.01.2020
694 Clouds 1 1019 51 16093 0.72 252 13:36 12.01.2020
695 Clouds 1 1019 51 16093 0.72 252 13:18 12.01.2020
696 Clear 1 1018 64 16093 2.1 360 12:42 12.01.2020
697 Clouds 1 1018 51 16093 0.72 252 12:20 12.01.2020
698 Clear 2 1019 64 16093 1.5 300 11:59 12.01.2020
699 Clear 2 1019 64 16093 1.5 300 11:59 12.01.2020
700 Clear 2 1019 64 16093 1.5 300 11:39 12.01.2020
701 Clouds 2 1019 51 16093 2.6 200 11:20 12.01.2020
702 Clear 2 1019 64 16093 2.6 300 10:42 12.01.2020
703 Clouds 2 1019 48 16093 2.6 250 10:22 12.01.2020
704 Clear 3 1019 55 16093 0.32 332 09:57 12.01.2020
705 Clear 3 1019 55 16093 0.32 332 09:39 12.01.2020
706 Clouds 3 1019 38 16093 0.32 332 09:20 12.01.2020
707 Clear 3 1019 60 16093 0.32 332 08:45 12.01.2020
708 Clear 4 1019 48 16093 3.6 100 08:21 12.01.2020
709 Clear 3 1019 59 16093 3.1 20 07:42 12.01.2020
710 Clear 3 1018 41 16093 1.5 250 07:24 12.01.2020
711 Clear 4 1018 55 16093 1.2 266 06:49 12.01.2020
712 Clouds 4 1018 38 16093 1.5 230 06:30 12.01.2020
713 Clouds 4 1017 36 16093 2.6 220 05:37 12.01.2020
714 Clear 5 1017 41 16093 3.1 350 04:51 12.01.2020
715 Clear 6 1016 29 16093 0.67 342 03:27 12.01.2020
716 Clear 8 1015 27 16093 3.1 30 02:34 12.01.2020
717 Clear 9 1014 25 16093 3.6 160 01:55 12.01.2020
718 Clear 10 1015 25 16093 3.6 30 01:29 12.01.2020
719 Clear 10 1015 23 16093 3.1 190 00:42 12.01.2020
720 Clear 10 1015 23 16093 2.1 70 00:20 12.01.2020
721 Clear 10 1015 23 16093 3.1 180 23:42 11.01.2020
722 Clear 10 1015 23 16093 3.1 180 23:42 11.01.2020
723 Clear 10 1015 25 16093 0.61 354 23:20 11.01.2020
724 Clear 10 1015 25 16093 0.61 354 22:59 11.01.2020
725 Clear 10 1015 25 16093 0.61 354 22:41 11.01.2020
726 Clear 9 1016 26 16093 0.61 354 22:21 11.01.2020
727 Clear 9 1016 25 16093 0.61 354 21:58 11.01.2020
728 Clear 9 1016 25 16093 0.61 354 21:40 11.01.2020
729 Clear 8 1017 29 16093 1.5 0 21:18 11.01.2020
730 Clear 8 1017 26 16093 0.61 354 20:42 11.01.2020
731 Clouds 7 1019 33 16093 1.5 140 20:22 11.01.2020
732 Clear 7 1019 36 16093 2.1 80 19:59 11.01.2020
733 Clear 7 1019 36 16093 2.1 80 19:39 11.01.2020
734 Clear 7 1019 36 16093 2.1 80 19:39 11.01.2020
735 Clear 7 1020 33 16093 3.1 30 19:21 11.01.2020
736 Clouds 6 1021 33 16093 4.6 10 18:59 11.01.2020
737 Clouds 6 1021 33 16093 4.6 10 18:39 11.01.2020
738 Clouds 5 1020 38 16093 2.1 0 18:20 11.01.2020
739 Clear 4 1019 41 16093 3.1 50 17:58 11.01.2020
740 Clouds 3 1018 47 16093 1.91 27 17:39 11.01.2020
741 Clouds 3 1018 47 16093 1.1 56 17:19 11.01.2020
742 Clear 1 1019 47 16093 4.1 60 16:46 11.01.2020
743 Clear 1 1019 47 16093 4.1 60 16:46 11.01.2020
744 Clouds 1 1019 47 16093 2.1 260 16:27 11.01.2020
745 Clear 0 1019 39 16093 1.5 60 15:59 11.01.2020
746 Clear 0 1019 39 16093 1.5 60 15:41 11.01.2020
747 Clear 0 1019 51 16093 1.5 250 15:22 11.01.2020
748 Clear 0 1019 39 16093 1.1 56 14:58 11.01.2020
749 Clear 0 1019 39 16093 1.1 56 14:39 11.01.2020
750 Clear 0 1019 59 16093 0.86 124 14:20 11.01.2020
751 Clear 1 1020 37 16093 2.1 30 13:41 11.01.2020
752 Clear 1 1020 44 16093 0.88 104 13:20 11.01.2020
753 Clear 1 1021 37 16093 1.5 60 12:59 11.01.2020
754 Clear 1 1021 37 16093 1.5 60 12:41 11.01.2020
755 Clear 2 1021 50 16093 0.88 104 12:23 11.01.2020
756 Clear 2 1021 47 16093 0.88 104 11:48 11.01.2020
757 Clouds 2 1022 44 16093 2.1 210 11:26 11.01.2020
758 Clear 2 1022 55 16093 3.1 20 10:55 11.01.2020
759 Clouds 3 1022 38 16093 1.5 230 10:36 11.01.2020
760 Clouds 2 1022 38 16093 1.5 230 10:18 11.01.2020
761 Clear 2 1022 47 16093 1.43 166 09:39 11.01.2020
762 Clouds 2 1023 38 16093 2.1 240 09:20 11.01.2020
763 Clear 3 1023 51 16093 1.43 166 08:42 11.01.2020
764 Clear 3 1023 47 16093 1.45 148 08:22 11.01.2020
765 Clear 4 1024 51 16093 0.9 153 07:44 11.01.2020
766 Clouds 4 1024 35 16093 1.5 200 07:25 11.01.2020
767 Clear 5 1024 51 16093 2.1 20 06:51 11.01.2020
768 Clear 5 1025 44 16093 0.9 153 05:48 11.01.2020
769 Clear 6 1025 41 16093 2.6 360 04:47 11.01.2020
770 Clear 6 1025 44 16093 2.6 350 04:28 11.01.2020
771 Clear 9 1025 33 16093 0.66 171 02:49 11.01.2020
772 Clouds 9 1025 18 16093 2.1 70 02:27 11.01.2020
773 Clear 10 1025 23 16093 1.5 40 01:43 11.01.2020
774 Clouds 10 1024 17 16093 3.1 60 01:19 11.01.2020
775 Clear 11 1024 20 16093 4.1 30 00:40 11.01.2020
776 Clouds 11 1024 17 16093 4.6 70 23:59 10.01.2020
777 Clouds 11 1024 17 16093 4.6 70 23:40 10.01.2020
778 Clouds 11 1024 16 16093 3.6 20 23:22 10.01.2020
779 Clear 11 1025 15 16093 5.7 360 22:58 10.01.2020
780 Clear 11 1025 15 16093 5.7 360 22:40 10.01.2020
781 Clouds 11 1025 16 16093 2.1 0 22:20 10.01.2020
782 Clear 10 1025 17 16093 6.2 10 21:57 10.01.2020
783 Clouds 10 1025 18 16093 4.1 50 21:37 10.01.2020
784 Clouds 10 1025 18 16093 4.1 50 21:19 10.01.2020
785 Clear 9 1025 23 16093 6.7 10 20:43 10.01.2020
786 Clouds 9 1026 18 16093 5.7 10 20:24 10.01.2020
787 Clear 8 1025 19 16093 7.7 20 19:58 10.01.2020
788 Clouds 8 1026 23 16093 3.1 40 19:38 10.01.2020
789 Clouds 8 1026 23 16093 3.1 40 19:19 10.01.2020
790 Clear 8 1026 18 16093 7.2 10 18:43 10.01.2020
791 Clear 7 1025 24 16093 7.2 360 18:19 10.01.2020
792 Clear 6 1024 22 16093 9.8 350 17:57 10.01.2020
793 Clear 6 1024 24 16093 5.7 360 17:39 10.01.2020
794 Clear 5 1024 24 16093 5.7 360 17:20 10.01.2020
795 Clear 5 1023 24 16093 7.7 350 16:58 10.01.2020
796 Clouds 5 1023 28 16093 8.2 10 16:38 10.01.2020
797 Clouds 4 1023 28 16093 8.2 10 16:19 10.01.2020
798 Clear 4 1022 30 16093 2.6 40 15:56 10.01.2020
799 Clouds 4 1021 22 16093 5.7 10 15:37 10.01.2020
800 Clouds 4 1021 22 16093 5.7 10 15:18 10.01.2020
801 Clear 5 1021 33 16093 5.1 360 14:55 10.01.2020
802 Clear 4 1021 35 16093 2.6 40 14:37 10.01.2020
803 Clear 5 1021 35 16093 2.6 40 14:18 10.01.2020
804 Clear 7 1020 33 16093 7.2 340 13:43 10.01.2020
805 Clear 6 1020 33 16093 7.7 340 13:25 10.01.2020
806 Clear 7 1019 33 16093 7.7 330 12:58 10.01.2020
807 Clear 6 1019 33 16093 7.7 330 12:39 10.01.2020
808 Clear 6 1019 29 16093 6.2 350 12:19 10.01.2020
809 Clear 7 1018 36 16093 12.3 320 11:55 10.01.2020
810 Clear 7 1018 31 16093 4.1 330 11:37 10.01.2020
811 Clear 6 1018 31 16093 4.1 330 11:18 10.01.2020
812 Clear 7 1017 36 16093 9.3 330 10:57 10.01.2020
813 Clear 7 1017 31 16093 5.7 310 10:36 10.01.2020
814 Clear 8 1017 31 16093 5.7 310 10:18 10.01.2020
815 Clear 8 1016 33 16093 6.2 340 09:42 10.01.2020
816 Clouds 8 1017 29 16093 5.7 320 09:23 10.01.2020
817 Clear 7 1016 29 16093 7.2 330 08:43 10.01.2020
818 Clouds 7 1016 27 16093 5.7 320 08:24 10.01.2020
819 Clear 8 1016 33 16093 5.7 330 07:48 10.01.2020
820 Clouds 8 1016 25 16093 5.1 330 07:30 10.01.2020
821 Clear 8 1015 36 16093 5.1 330 06:56 10.01.2020
822 Clouds 8 1015 23 16093 6.2 320 06:27 10.01.2020
823 Clouds 8 1014 45 16093 4.13 317 05:52 10.01.2020
824 Clouds 9 1012 34 16093 2.1 200 03:47 10.01.2020
825 Clouds 9 1012 27 16093 1.9 291 03:28 10.01.2020
826 Clouds 11 1012 42 16093 2.1 20 02:51 10.01.2020
827 Clouds 11 1011 32 16093 3.1 30 01:52 10.01.2020
828 Clouds 12 1011 24 16093 3.1 100 01:28 10.01.2020
829 Clouds 13 1011 19 16093 2.58 19 00:48 10.01.2020
830 Clouds 13 1010 22 16093 1.5 100 00:30 10.01.2020
831 Clear 13 1010 20 16093 2.6 140 23:39 09.01.2020
832 Clear 13 1010 20 16093 2.6 140 23:39 09.01.2020
833 Clear 13 1010 20 16093 2.6 140 23:39 09.01.2020
834 Clear 13 1010 20 16093 2.6 140 23:39 09.01.2020
835 Clouds 13 1009 24 16093 1.5 80 23:21 09.01.2020
836 Clear 13 1009 20 16093 1.04 69 22:58 09.01.2020
837 Clear 13 1009 20 16093 1.04 69 22:58 09.01.2020
838 Clear 13 1009 20 16093 1.04 69 22:39 09.01.2020
839 Clouds 12 1009 24 16093 2.6 360 22:19 09.01.2020
840 Clear 12 1009 23 16093 3.1 170 21:57 09.01.2020
841 Clear 12 1009 23 16093 3.1 170 21:57 09.01.2020
842 Clear 12 1009 23 16093 3.1 170 21:38 09.01.2020
843 Clouds 12 1010 23 16093 1.5 50 21:20 09.01.2020
844 Clear 11 1011 27 16093 2.1 160 20:58 09.01.2020
845 Clear 11 1011 27 16093 2.1 160 20:39 09.01.2020
846 Clouds 11 1011 23 16093 3.1 50 20:20 09.01.2020
847 Clear 10 1011 34 16093 2.1 130 19:58 09.01.2020
848 Clear 10 1012 43 16093 1.25 220 19:39 09.01.2020
849 Clouds 10 1012 27 16093 3.6 330 19:20 09.01.2020
850 Clear 9 1012 34 16093 2.1 120 18:56 09.01.2020
851 Clear 8 1012 49 16093 2.6 40 18:37 09.01.2020
852 Clouds 8 1012 39 16093 1.25 220 18:19 09.01.2020
853 Clear 6 1012 45 16093 1.25 220 17:41 09.01.2020
854 Clear 7 1012 45 16093 1.25 220 17:41 09.01.2020
855 Clouds 6 1011 39 16093 2.1 220 17:19 09.01.2020
856 Clear 5 1012 52 16093 2.02 203 16:56 09.01.2020
857 Clear 4 1011 56 16093 2.1 40 16:36 09.01.2020
858 Clouds 4 1011 41 16093 1.5 230 16:18 09.01.2020
859 Clouds 5 1011 48 16093 2.6 50 15:41 09.01.2020
860 Clouds 5 1011 48 16093 2.6 50 15:41 09.01.2020
861 Clouds 5 1011 36 16093 2.02 203 15:20 09.01.2020
862 Clear 5 1011 48 16093 3.1 40 14:55 09.01.2020
863 Clouds 5 1011 56 16093 2.1 30 14:36 09.01.2020
864 Clouds 5 1011 56 16093 2.1 30 14:36 09.01.2020
865 Clouds 6 1011 36 16093 1.14 227 14:18 09.01.2020
866 Clouds 5 1011 52 16093 1.14 227 13:54 09.01.2020
867 Clouds 6 1011 60 16093 1.14 227 13:36 09.01.2020
868 Clouds 6 1011 36 16093 1.17 237 13:18 09.01.2020
869 Clouds 6 1011 52 16093 1.17 237 12:41 09.01.2020
870 Clouds 6 1011 36 16093 1.17 237 12:22 09.01.2020
871 Clear 6 1011 39 16093 2.6 80 11:58 09.01.2020
872 Clear 6 1012 45 16093 2.1 70 11:40 09.01.2020
873 Clouds 6 1012 33 16093 1.17 237 11:22 09.01.2020
874 Clear 6 1012 48 16093 2.1 360 10:44 09.01.2020
875 Clouds 7 1012 36 16093 2.1 210 10:23 09.01.2020
876 Clear 6 1012 42 16093 2.47 204 09:59 09.01.2020
877 Clear 7 1012 48 16093 2.47 204 09:39 09.01.2020
878 Clouds 7 1012 33 16093 1.5 230 09:21 09.01.2020
879 Clear 7 1012 41 16093 2.47 204 08:55 09.01.2020
880 Clear 7 1012 39 16093 2.47 204 08:37 09.01.2020
881 Clouds 7 1012 33 16093 2.1 220 08:19 09.01.2020
882 Clear 7 1012 52 16093 1.46 215 07:42 09.01.2020
883 Clear 7 1012 52 16093 1.46 215 07:23 09.01.2020
884 Clear 8 1012 56 16093 1.46 215 06:39 09.01.2020
885 Clouds 9 1012 27 16093 1.5 240 06:20 09.01.2020
886 Clear 10 1013 39 16093 1.5 40 05:48 09.01.2020
887 Clear 11 1012 34 16093 1.5 110 04:44 09.01.2020
888 Clear 12 1013 37 16093 2.28 305 03:38 09.01.2020
889 Clear 12 1012 37 16093 2.1 50 02:53 09.01.2020
890 Clear 13 1012 34 16093 2.28 305 02:24 09.01.2020
891 Clear 14 1012 24 16093 3.14 336 01:39 09.01.2020
892 Clear 15 1011 17 16093 3.1 200 00:43 09.01.2020
893 Clouds 15 1011 18 16093 2.6 180 00:21 09.01.2020
894 Clouds 15 1011 18 16093 2.6 180 00:21 09.01.2020
895 Clear 16 1011 17 16093 3.1 330 23:42 08.01.2020
896 Clear 16 1011 17 16093 3.1 330 23:24 08.01.2020
897 Clear 16 1011 17 16093 3.6 300 22:59 08.01.2020
898 Clear 15 1012 15 16093 5.1 300 22:39 08.01.2020
899 Clouds 15 1012 17 16093 3.1 50 22:20 08.01.2020
900 Clear 15 1012 17 16093 4.6 260 21:57 08.01.2020
901 Clear 14 1013 21 16093 3.6 300 21:38 08.01.2020
902 Clouds 14 1013 22 16093 3.1 200 21:19 08.01.2020
903 Clear 14 1013 22 16093 3.1 310 20:58 08.01.2020
904 Clear 13 1013 24 16093 6.7 340 20:38 08.01.2020
905 Clear 13 1013 24 16093 6.7 340 20:38 08.01.2020
906 Clear 13 1014 30 16093 1.85 320 20:20 08.01.2020
907 Clear 12 1014 24 16093 5.7 310 19:56 08.01.2020
908 Clear 12 1014 24 16093 5.7 310 19:56 08.01.2020
909 Clear 12 1014 26 16093 1.85 320 19:36 08.01.2020
910 Clear 12 1014 26 16093 1.85 320 19:36 08.01.2020
911 Clear 11 1014 37 16093 2.6 0 19:18 08.01.2020
912 Clear 10 1014 30 16093 7.7 330 18:55 08.01.2020
913 Clear 10 1014 30 16093 7.7 330 18:55 08.01.2020
914 Clear 10 1014 30 16093 7.7 330 18:55 08.01.2020
915 Clear 10 1014 30 16093 4.1 330 18:36 08.01.2020
916 Clear 9 1014 52 16093 1.85 320 18:18 08.01.2020
917 Clear 8 1012 37 16093 2.6 240 17:45 08.01.2020
918 Clear 7 1012 37 16093 2.6 240 17:24 08.01.2020
919 Clear 5 1012 42 16093 1.89 183 16:57 08.01.2020
920 Clear 5 1011 39 16093 3.1 120 16:39 08.01.2020
921 Clouds 4 1012 60 16093 3.1 330 16:19 08.01.2020
922 Clouds 4 1012 60 16093 3.1 330 16:19 08.01.2020
923 Clear 4 1012 39 16093 2.1 90 15:57 08.01.2020
924 Clear 4 1012 52 16093 2.6 70 15:39 08.01.2020
925 Clouds 5 1012 60 16093 3.6 300 15:18 08.01.2020
926 Clear 5 1012 52 16093 3.6 70 14:55 08.01.2020
927 Clear 5 1012 39 16093 3.1 90 14:36 08.01.2020
928 Clouds 5 1012 56 16093 1.5 280 14:18 08.01.2020
929 Clear 5 1012 60 16093 1.41 156 13:38 08.01.2020
930 Clouds 5 1012 60 16093 2.1 300 13:18 08.01.2020
931 Clear 5 1013 48 16093 4.6 30 12:41 08.01.2020
932 Clouds 6 1013 52 16093 1.5 220 12:18 08.01.2020
933 Clear 5 1013 48 16093 4.6 40 11:55 08.01.2020
934 Clear 5 1014 52 16093 4.1 50 11:36 08.01.2020
935 Clouds 5 1014 52 16093 2.1 310 11:18 08.01.2020
936 Clear 6 1015 56 16093 0.38 139 10:41 08.01.2020
937 Clouds 6 1015 52 16093 0.38 139 10:22 08.01.2020
938 Clear 6 1015 48 16093 2.6 80 09:58 08.01.2020
939 Clear 6 1016 48 16093 2.1 120 09:38 08.01.2020
940 Clouds 6 1016 48 16093 2.1 200 09:18 08.01.2020
941 Clear 6 1017 56 16093 0.38 139 08:42 08.01.2020
942 Clear 7 1017 56 16093 0.9 141 08:24 08.01.2020
943 Clear 7 1017 65 16093 2.1 320 07:59 08.01.2020
944 Clear 7 1017 60 16093 0.46 238 07:41 08.01.2020
945 Clear 7 1017 60 16093 0.46 238 07:23 08.01.2020
946 Clear 7 1018 60 16093 0.46 238 06:44 08.01.2020
947 Clear 7 1018 60 16093 0.46 238 05:57 08.01.2020
948 Clear 8 1018 52 16093 0.46 238 05:27 08.01.2020
949 Clear 8 1019 48 16093 2.1 350 04:39 08.01.2020
950 Clear 9 1019 39 16093 0.78 273 03:32 08.01.2020
951 Clear 12 1019 34 16093 2.6 20 02:44 08.01.2020
952 Clouds 11 1020 24 16093 2.1 130 02:18 08.01.2020
953 Clear 13 1020 28 16093 3.1 40 01:39 08.01.2020
954 Clear 14 1020 32 16093 2.6 30 00:53 08.01.2020
955 Clear 14 1021 28 16093 3.1 30 00:26 08.01.2020
956 Clear 14 1021 22 16093 0.7 3 23:46 07.01.2020
957 Clouds 14 1022 21 16093 1.32 354 23:22 07.01.2020
958 Clear 14 1022 22 16093 2.1 280 22:58 07.01.2020
959 Clear 14 1022 22 16093 2.1 0 22:38 07.01.2020
960 Clouds 14 1023 22 16093 1.32 354 22:19 07.01.2020
961 Clouds 14 1023 22 16093 1.32 354 22:19 07.01.2020
962 Clear 13 1023 22 16093 3.1 290 21:42 07.01.2020
963 Clouds 13 1024 22 16093 3.1 80 21:23 07.01.2020
964 Clear 13 1024 26 16093 3.1 300 20:59 07.01.2020
965 Clear 12 1025 26 16093 2.6 0 20:41 07.01.2020
966 Clouds 12 1026 27 16093 1.5 70 20:22 07.01.2020
967 Clear 11 1025 27 16093 4.1 310 19:58 07.01.2020
968 Clear 10 1027 42 16093 1.33 334 19:38 07.01.2020
969 Clouds 10 1027 29 16093 1.33 334 19:19 07.01.2020
970 Clear 9 1027 45 16093 1.5 160 18:56 07.01.2020
971 Clear 9 1028 48 16093 1.33 334 18:38 07.01.2020
972 Clouds 8 1028 34 16093 1.5 220 18:18 07.01.2020
973 Clear 5 1028 56 16093 2.1 210 17:56 07.01.2020
974 Clear 4 1028 59 16093 1.33 334 17:37 07.01.2020
975 Clouds 4 1028 45 16093 1.5 210 17:18 07.01.2020
976 Clear 2 1028 59 16093 0.81 315 16:55 07.01.2020
977 Clear 2 1028 59 16093 0.81 315 16:37 07.01.2020
978 Clouds 2 1028 48 16093 1.5 230 16:18 07.01.2020
979 Clear 2 1028 44 16093 2.1 250 15:43 07.01.2020
980 Clear 2 1028 44 16093 2.1 250 15:24 07.01.2020
981 Clear 2 1027 36 16093 4.1 340 14:58 07.01.2020
982 Clear 2 1028 55 16093 0.81 315 14:40 07.01.2020
983 Clear 3 1028 55 16093 2.1 220 14:20 07.01.2020
984 Clear 3 1028 44 16093 0.89 329 13:46 07.01.2020
985 Clear 3 1028 64 16093 3.6 200 13:21 07.01.2020
986 Clear 3 1028 55 16093 0.85 320 12:56 07.01.2020
987 Clear 3 1028 55 16093 2.1 290 12:37 07.01.2020
988 Clear 4 1028 48 16093 2.1 250 12:19 07.01.2020
989 Clear 4 1028 36 16093 4.1 340 11:41 07.01.2020
990 Clear 4 1029 41 16093 0.85 320 11:23 07.01.2020
991 Clear 4 1028 36 16093 4.1 350 10:57 07.01.2020
992 Clear 4 1028 36 16093 4.1 350 10:57 07.01.2020
993 Clear 4 1029 44 16093 2.1 320 10:39 07.01.2020
994 Clear 4 1029 45 16093 2.6 220 10:20 07.01.2020
995 Clear 4 1029 45 16093 1.13 333 09:39 07.01.2020
996 Clear 4 1029 48 16093 2.1 230 09:21 07.01.2020
997 Clear 4 1029 48 16093 2.1 230 09:21 07.01.2020
998 Clear 4 1029 48 16093 1.13 333 08:57 07.01.2020
999 Clear 5 1029 39 16093 2.1 340 08:38 07.01.2020
1000 Clear 5 1030 48 16093 2.6 200 08:18 07.01.2020
1001 Clear 5 1030 39 16093 1.06 305 07:42 07.01.2020
1002 Clear 6 1030 45 16093 1.5 240 07:18 07.01.2020
1003 Clear 6 1030 39 16093 3.6 330 06:36 07.01.2020
1004 Clear 6 1030 39 16093 1.06 305 05:59 07.01.2020
1005 Clear 6 1030 33 16093 1.06 305 05:40 07.01.2020
1006 Clear 9 1030 31 16093 1.14 304 03:46 07.01.2020
1007 Clear 9 1030 31 16093 1.14 304 03:24 07.01.2020
1008 Clear 11 1030 24 16093 1.56 15 02:18 07.01.2020
1009 Clear 13 1030 19 16093 2.6 330 01:40 07.01.2020
1010 Clear 14 1030 24 16093 2.1 30 00:57 07.01.2020
1011 Clear 14 1030 19 16093 1.5 14 00:21 07.01.2020
1012 Clear 14 1030 20 16093 3.1 50 23:57 06.01.2020
1013 Clear 14 1030 20 16093 2.6 40 23:37 06.01.2020
1014 Clear 14 1030 18 16093 1.5 0 23:19 06.01.2020
1015 Clear 14 1030 20 16093 3.1 330 22:44 06.01.2020
1016 Clear 14 1030 20 16093 3.1 330 22:24 06.01.2020
1017 Clear 13 1031 20 16093 3.1 0 21:58 06.01.2020
1018 Clear 13 1031 20 16093 3.6 350 21:39 06.01.2020
1019 Clear 13 1032 19 16093 2.27 1 21:20 06.01.2020
1020 Clear 13 1032 19 16093 2.27 1 21:20 06.01.2020
1021 Clear 13 1032 19 16093 2.27 1 21:20 06.01.2020
1022 Clear 13 1031 24 16093 2.6 0 20:57 06.01.2020
1023 Clear 12 1032 24 16093 2.1 0 20:39 06.01.2020
1024 Clear 12 1033 24 16093 3.1 80 20:20 06.01.2020
1025 Clear 12 1033 24 16093 3.1 80 20:20 06.01.2020
1026 Clear 11 1033 24 16093 3.1 330 19:57 06.01.2020
1027 Clear 11 1033 25 16093 3.1 30 19:38 06.01.2020
1028 Clear 10 1034 31 16093 2.1 50 19:20 06.01.2020
1029 Clear 9 1033 27 16093 4.6 350 18:48 06.01.2020
1030 Clear 9 1034 34 16093 1.5 60 18:23 06.01.2020
1031 Clear 8 1034 36 16093 1.76 337 17:59 06.01.2020
1032 Clear 7 1033 34 16093 2.6 350 17:38 06.01.2020
1033 Clear 5 1033 42 16093 2.1 190 17:18 06.01.2020
1034 Clear 4 1032 44 16093 0.92 311 16:46 06.01.2020
1035 Clear 4 1032 44 16093 0.92 311 16:46 06.01.2020
1036 Clear 3 1032 44 16093 0.92 311 16:27 06.01.2020
1037 Clear 4 1031 48 16093 3.6 350 15:59 06.01.2020
1038 Clear 3 1031 51 16093 0.92 311 15:39 06.01.2020
1039 Clear 4 1031 51 16093 1.5 200 15:20 06.01.2020
1040 Clear 4 1031 51 16093 0.92 311 14:58 06.01.2020
1041 Clear 4 1031 41 16093 1.5 340 14:40 06.01.2020
1042 Clear 4 1031 59 16093 1.96 310 14:20 06.01.2020
1043 Clear 4 1031 41 16093 2.6 360 13:55 06.01.2020
1044 Clear 4 1030 41 16093 2.1 10 13:37 06.01.2020
1045 Clear 5 1031 55 16093 1.5 190 13:19 06.01.2020
1046 Clear 5 1031 60 16093 1.83 304 12:42 06.01.2020
1047 Clear 6 1031 36 16093 1.5 90 12:20 06.01.2020
1048 Clear 6 1030 36 16093 2.6 360 11:57 06.01.2020
1049 Clear 6 1030 42 16093 5.1 360 11:38 06.01.2020
1050 Clear 6 1031 36 16093 3.1 340 11:20 06.01.2020
1051 Clear 6 1030 56 16093 1.5 30 10:45 06.01.2020
1052 Clear 6 1030 56 16093 1.5 30 10:27 06.01.2020
1053 Clear 6 1030 52 16093 3.1 30 09:59 06.01.2020
1054 Clear 7 1029 42 16093 4.6 10 09:37 06.01.2020
1055 Clear 7 1030 34 16093 3.6 290 09:19 06.01.2020
1056 Clear 8 1029 65 16093 1.5 20 08:42 06.01.2020
1057 Clear 8 1029 65 16093 1.5 20 08:23 06.01.2020
1058 Clear 8 1029 39 16093 4.6 340 07:48 06.01.2020
1059 Clear 8 1029 39 16093 4.6 340 07:23 06.01.2020
1060 Clear 8 1029 34 16093 6.7 330 06:44 06.01.2020
1061 Clear 8 1028 45 16093 2.01 340 05:52 06.01.2020
1062 Clear 8 1028 45 16093 2.01 340 05:33 06.01.2020
1063 Clear 8 1028 52 16093 1.68 322 04:26 06.01.2020
1064 Clear 9 1028 48 16093 1.68 322 03:53 06.01.2020
1065 Clear 11 1026 53 16093 2.6 10 02:32 06.01.2020
1066 Clear 12 1027 53 16093 3.1 20 01:56 06.01.2020
1067 Clear 13 1026 46 16093 2.6 20 01:32 06.01.2020
1068 Clear 13 1026 45 16093 1.5 60 00:57 06.01.2020
1069 Clear 14 1026 35 16093 2.1 300 00:39 06.01.2020
1070 Clouds 14 1026 35 16093 3.1 100 00:18 06.01.2020
1071 Clouds 14 1026 35 16093 2.1 160 23:40 05.01.2020
1072 Clouds 14 1026 35 16093 2.1 160 23:21 05.01.2020
1073 Clear 14 1026 38 16093 4.1 40 22:54 05.01.2020
1074 Clouds 14 1026 37 16093 2.1 160 22:36 05.01.2020
1075 Clouds 14 1026 37 16093 2.1 160 22:18 05.01.2020
1076 Clouds 13 1027 40 16093 0.88 351 21:41 05.01.2020
1077 Clouds 13 1027 40 16093 0.88 351 21:20 05.01.2020
1078 Clouds 12 1028 40 16093 2.6 70 20:58 05.01.2020
1079 Clouds 12 1028 40 16093 2.6 70 20:39 05.01.2020
1080 Clear 10 1028 46 16093 1.23 26 20:19 05.01.2020
1081 Clouds 10 1028 49 16093 1.23 26 19:59 05.01.2020
1082 Clouds 10 1028 49 16093 1.23 26 19:39 05.01.2020
1083 Clouds 9 1028 49 16093 1.23 26 19:20 05.01.2020
1084 Clouds 9 1027 56 16093 1.5 60 18:56 05.01.2020
1085 Clouds 8 1027 56 16093 1.5 60 18:38 05.01.2020
1086 Clouds 7 1027 56 16093 1.5 60 18:19 05.01.2020
1087 Clouds 5 1026 65 16093 1.5 190 17:58 05.01.2020
1088 Clouds 5 1026 65 16093 1.5 190 17:39 05.01.2020
1089 Clouds 4 1026 65 16093 1.5 190 17:20 05.01.2020
1090 Clouds 3 1026 69 16093 1.5 250 16:56 05.01.2020
1091 Clouds 3 1026 69 16093 1.5 250 16:38 05.01.2020
1092 Clouds 3 1026 69 16093 1.5 250 16:19 05.01.2020
1093 Clouds 3 1026 69 16093 0.88 170 15:39 05.01.2020
1094 Clouds 3 1026 69 16093 0.88 170 15:20 05.01.2020
1095 Clouds 3 1026 69 16093 0.88 170 14:56 05.01.2020
1096 Clouds 3 1026 69 16093 0.88 170 14:38 05.01.2020
1097 Clouds 3 1026 69 16093 0.66 240 14:20 05.01.2020
1098 Clouds 3 1026 69 16093 1.5 220 13:56 05.01.2020
1099 Clouds 3 1026 69 16093 1.5 220 13:38 05.01.2020
1100 Clouds 3 1026 69 16093 1.5 220 13:19 05.01.2020
1101 Clouds 3 1026 69 16093 1.5 220 13:19 05.01.2020
1102 Clouds 3 1027 65 16093 1.5 250 12:55 05.01.2020
1103 Clouds 4 1027 65 16093 1.5 250 12:37 05.01.2020
1104 Clouds 3 1027 65 16093 1.5 250 12:18 05.01.2020
1105 Clear 4 1027 58 16093 0.75 248 11:44 05.01.2020
1106 Clouds 4 1027 60 16093 2.6 200 11:20 05.01.2020
1107 Clear 4 1027 56 16093 1.06 260 10:58 05.01.2020
1108 Clear 4 1027 56 16093 1.06 260 10:40 05.01.2020
1109 Clouds 4 1027 60 16093 1.06 260 10:19 05.01.2020
1110 Clear 4 1027 56 16093 1.5 310 09:42 05.01.2020
1111 Clouds 5 1028 60 16093 2.1 230 09:22 05.01.2020
1112 Clear 5 1028 56 16093 1.5 360 08:51 05.01.2020
1113 Clear 5 1028 56 16093 1.5 360 08:32 05.01.2020
1114 Clear 6 1028 54 16093 0.8 278 07:59 05.01.2020
1115 Clear 6 1029 54 16093 1.5 280 07:39 05.01.2020
1116 Clear 6 1029 54 16093 3.1 160 07:20 05.01.2020
1117 Clouds 6 1028 54 16093 0.8 278 06:21 05.01.2020
1118 Clear 7 1028 54 16093 0.8 278 05:34 05.01.2020
1119 Clear 8 1028 49 16093 2.1 310 04:48 05.01.2020
1120 Clouds 8 1028 49 16093 3.1 230 04:18 05.01.2020
1121 Clouds 8 1028 49 16093 3.1 230 04:18 05.01.2020
1122 Clear 11 1027 53 16093 1.39 272 02:50 05.01.2020
1123 Clear 11 1027 53 16093 1.39 272 02:32 05.01.2020
1124 Clear 12 1027 50 16093 3.1 20 01:49 05.01.2020
1125 Clear 12 1027 40 16093 2.6 30 01:19 05.01.2020
1126 Clear 13 1027 43 16093 4.6 30 00:55 05.01.2020
1127 Clear 13 1026 35 16093 3.1 20 00:36 05.01.2020
1128 Clouds 13 1026 33 16093 1.5 80 00:18 05.01.2020
1129 Clear 13 1026 36 16093 2.6 70 23:40 04.01.2020
1130 Clouds 13 1026 33 16093 1.75 12 23:20 04.01.2020
1131 Clear 13 1026 31 16093 2.1 0 22:40 04.01.2020
1132 Clouds 13 1026 35 16093 2.1 80 22:22 04.01.2020
1133 Clouds 13 1026 35 16093 2.1 80 22:22 04.01.2020
1134 Clear 12 1026 31 16093 2.1 10 21:58 04.01.2020
1135 Clear 12 1026 43 16093 3.1 50 21:40 04.01.2020
1136 Clear 11 1027 43 16093 2.6 30 21:20 04.01.2020
1137 Clear 12 1027 31 16093 3.1 80 20:59 04.01.2020
1138 Clear 11 1027 31 16093 1.75 12 20:40 04.01.2020
1139 Clouds 11 1027 40 16093 0.66 13 20:22 04.01.2020
1140 Clear 11 1027 34 16093 2.1 0 19:57 04.01.2020
1141 Clear 10 1028 53 16093 2.6 160 19:38 04.01.2020
1142 Clouds 10 1028 43 16093 0.66 13 19:20 04.01.2020
1143 Clear 9 1028 57 16093 0.66 13 18:56 04.01.2020
1144 Clear 9 1028 34 16093 0.66 13 18:37 04.01.2020
1145 Clouds 9 1028 49 16093 0.66 13 18:18 04.01.2020
1146 Clear 7 1027 34 16093 0.66 13 17:41 04.01.2020
1147 Clouds 5 1027 60 16093 1.5 210 17:23 04.01.2020
1148 Clear 4 1027 50 16093 0.38 39 16:58 04.01.2020
1149 Clear 4 1027 74 16093 1.5 30 16:39 04.01.2020
1150 Clouds 3 1026 69 16093 2.1 210 16:21 04.01.2020
1151 Clear 3 1027 74 16093 1.5 10 15:55 04.01.2020
1152 Clear 3 1027 69 16093 0.38 39 15:37 04.01.2020
1153 Clouds 3 1027 69 16093 3.1 220 15:18 04.01.2020
1154 Clear 3 1027 74 16093 0.38 39 14:42 04.01.2020
1155 Clouds 3 1026 65 16093 0.89 87 14:20 04.01.2020
1156 Clear 3 1026 80 16093 2.1 350 13:59 04.01.2020
1157 Clear 3 1026 80 16093 0.89 87 13:38 04.01.2020
1158 Clouds 3 1026 69 16093 0.51 43 13:19 04.01.2020
1159 Clear 3 1026 74 16093 0.51 43 12:57 04.01.2020
1160 Clear 4 1026 69 16093 0.51 43 12:39 04.01.2020
1161 Clear 4 1026 69 16093 0.51 43 12:39 04.01.2020
1162 Clouds 4 1026 60 16093 1.5 260 12:18 04.01.2020
1163 Clouds 4 1026 60 16093 1.5 260 12:18 04.01.2020
1164 Clear 4 1027 74 16093 2.6 360 11:56 04.01.2020
1165 Clear 5 1027 69 16093 0.51 43 11:37 04.01.2020
1166 Clouds 5 1027 60 16093 2.1 250 11:18 04.01.2020
1167 Clear 5 1027 69 16093 0.28 129 10:40 04.01.2020
1168 Clouds 5 1027 56 16093 2.1 260 10:21 04.01.2020
1169 Clear 5 1027 65 16093 2.1 350 09:47 04.01.2020
1170 Clear 5 1027 65 16093 2.1 350 09:26 04.01.2020
1171 Clear 6 1028 60 16093 1.5 330 08:49 04.01.2020
1172 Clear 6 1028 60 16093 1.5 330 08:29 04.01.2020
1173 Clear 6 1028 60 16093 2.6 320 07:57 04.01.2020
1174 Clear 6 1028 56 16093 3.1 40 07:39 04.01.2020
1175 Clear 7 1028 60 16093 0.17 257 06:44 04.01.2020
1176 Clear 7 1028 56 16093 0.17 257 05:59 04.01.2020
1177 Clear 8 1027 49 16093 2.6 290 04:52 04.01.2020
1178 Clear 9 1027 49 16093 2.6 290 04:31 04.01.2020
1179 Clear 10 1027 49 16093 2.6 20 03:29 04.01.2020
1180 Clear 12 1027 43 16093 2.6 20 02:52 04.01.2020
1181 Clear 11 1026 46 16093 0.58 3 02:18 04.01.2020
1182 Clear 12 1026 37 16093 3.1 40 01:45 04.01.2020
1183 Clear 13 1026 37 16093 3.1 40 01:27 04.01.2020
1184 Clear 14 1026 33 16093 2.6 40 00:29 04.01.2020
1185 Clear 14 1026 33 16093 2.6 40 23:59 03.01.2020
1186 Clear 14 1026 33 16093 1.5 40 23:37 03.01.2020
1187 Clear 14 1026 28 16093 1.5 0 23:18 03.01.2020
1188 Clear 14 1026 30 16093 2.1 0 22:40 03.01.2020
1189 Clouds 14 1026 30 16093 1.44 16 22:19 03.01.2020
1190 Clear 14 1026 30 16093 2.6 40 21:57 03.01.2020
1191 Clear 14 1026 33 16093 1.44 16 21:38 03.01.2020
1192 Clouds 14 1027 30 16093 1.44 16 21:19 03.01.2020
1193 Clear 13 1027 35 16093 2.6 50 20:55 03.01.2020
1194 Clear 13 1027 35 16093 2.6 70 20:37 03.01.2020
1195 Clouds 12 1028 32 16093 1.5 80 20:18 03.01.2020
1196 Clear 11 1027 32 16093 3.1 0 19:54 03.01.2020
1197 Clear 10 1028 30 16093 2.1 0 19:36 03.01.2020
1198 Clouds 10 1028 37 16093 1.25 347 19:18 03.01.2020
1199 Clear 9 1028 43 16093 2.1 260 18:39 03.01.2020
1200 Clear 9 1028 43 16093 2.1 260 18:39 03.01.2020
1201 Clouds 8 1028 45 16093 1.25 347 18:20 03.01.2020
1202 Clear 6 1027 60 16093 1.25 347 17:42 03.01.2020
1203 Clouds 5 1027 48 16093 2.1 220 17:22 03.01.2020
1204 Clear 5 1027 56 16093 0.73 293 16:59 03.01.2020
1205 Clear 4 1026 60 16093 0.73 293 16:40 03.01.2020
1206 Clouds 4 1026 52 16093 0.73 293 16:21 03.01.2020
1207 Clear 4 1025 45 16093 0.73 293 15:42 03.01.2020
1208 Clouds 4 1025 52 16093 2.1 260 15:19 03.01.2020
1209 Clear 4 1024 56 16093 0.73 293 14:40 03.01.2020
1210 Clear 4 1024 56 16093 0.73 293 14:40 03.01.2020
1211 Clouds 4 1025 60 16093 2.1 270 14:21 03.01.2020
1212 Clear 5 1024 45 16093 2.1 20 13:59 03.01.2020
1213 Clear 5 1024 52 16093 2.1 300 13:40 03.01.2020
1214 Clouds 5 1024 56 16093 2.6 220 13:22 03.01.2020
1215 Clear 5 1023 42 16093 5.7 20 12:41 03.01.2020
1216 Clouds 5 1024 52 16093 2.1 210 12:22 03.01.2020
1217 Clear 5 1023 52 16093 2.1 30 11:57 03.01.2020
1218 Clear 5 1023 52 16093 2.1 30 11:57 03.01.2020
1219 Clear 5 1023 52 16093 1.4 319 11:39 03.01.2020
1220 Clear 5 1023 52 16093 3.1 260 10:59 03.01.2020
1221 Clear 6 1023 52 16093 3.1 260 10:59 03.01.2020
1222 Clear 6 1022 45 16093 2.1 30 10:40 03.01.2020
1223 Clouds 6 1022 48 16093 1.5 190 10:22 03.01.2020
1224 Clear 7 1022 45 16093 1.13 333 09:56 03.01.2020
1225 Clouds 7 1022 37 16093 3.6 30 09:38 03.01.2020
1226 Clouds 7 1022 37 16093 3.6 30 09:20 03.01.2020
1227 Clear 7 1022 39 16093 1.13 333 08:45 03.01.2020
1228 Clouds 7 1022 32 16093 3.6 40 08:23 03.01.2020
1229 Clear 7 1022 36 16093 0.65 289 07:57 03.01.2020
1230 Clear 7 1022 48 16093 0.65 289 07:38 03.01.2020
1231 Clear 7 1022 60 16093 4.1 160 07:18 03.01.2020
1232 Clear 8 1021 52 16093 0.65 289 06:42 03.01.2020
1233 Clouds 8 1021 32 16093 2.6 340 06:22 03.01.2020
1234 Clear 9 1021 52 16093 3.6 170 05:20 03.01.2020
1235 Clouds 10 1018 26 16093 1.5 30 03:42 03.01.2020
1236 Clear 12 1018 31 16093 2.6 20 02:53 03.01.2020
1237 Clear 13 1017 28 16093 3.1 40 01:51 03.01.2020
1238 Clear 14 1017 28 16093 3.1 40 01:33 03.01.2020
1239 Clear 15 1017 21 16093 4.1 30 00:43 03.01.2020
1240 Clear 15 1017 21 16093 4.1 30 00:24 03.01.2020
1241 Clear 15 1016 22 16093 4.6 30 23:39 02.01.2020
1242 Clouds 14 1016 19 16093 6.2 10 23:20 02.01.2020
1243 Clear 14 1016 22 16093 5.1 30 22:59 02.01.2020
1244 Clear 14 1016 24 16093 4.1 40 22:41 02.01.2020
1245 Clouds 15 1016 19 16093 5.7 350 22:20 02.01.2020
1246 Clear 15 1016 22 16093 5.7 360 21:56 02.01.2020
1247 Clear 14 1017 26 16093 4.6 40 21:38 02.01.2020
1248 Clear 14 1017 28 16093 5.7 20 21:19 02.01.2020
1249 Clear 14 1017 26 16093 5.1 360 20:56 02.01.2020
1250 Clear 14 1018 26 16093 5.7 30 20:37 02.01.2020
1251 Clouds 14 1017 26 16093 8.7 10 20:18 02.01.2020
1252 Clear 13 1018 26 16093 4.6 30 19:54 02.01.2020
1253 Clear 13 1018 30 16093 5.1 30 19:36 02.01.2020
1254 Clouds 12 1018 30 16093 5.7 40 19:18 02.01.2020
1255 Clear 12 1018 27 16093 3.6 30 18:43 02.01.2020
1256 Clear 11 1018 27 16093 3.6 30 18:24 02.01.2020
1257 Clear 9 1018 37 16093 4.6 30 17:58 02.01.2020
1258 Clear 9 1017 29 16093 8.2 360 17:39 02.01.2020
1259 Clouds 8 1016 37 16093 6.2 330 17:20 02.01.2020
1260 Clear 8 1016 29 16093 7.2 350 16:58 02.01.2020
1261 Clear 8 1015 34 16093 8.2 350 16:40 02.01.2020
1262 Clouds 8 1015 39 16093 7.7 340 16:20 02.01.2020
1263 Clear 7 1015 36 16093 7.2 340 15:57 02.01.2020
1264 Clear 7 1015 34 16093 7.7 350 15:39 02.01.2020
1265 Clear 7 1015 60 16093 2.6 30 15:20 02.01.2020
1266 Clear 6 1014 49 16093 5.1 320 14:57 02.01.2020
1267 Clear 5 1014 49 16093 5.1 320 14:36 02.01.2020
1268 Clear 4 1015 80 16093 1.5 90 14:18 02.01.2020
1269 Clear 5 1014 74 16093 3.1 0 13:48 02.01.2020
1270 Clear 5 1014 74 16093 3.1 0 13:48 02.01.2020
1271 Clear 5 1014 74 16093 3.1 0 13:30 02.01.2020
1272 Clear 4 1013 80 16093 4.48 315 12:46 02.01.2020
1273 Clear 4 1013 80 16093 4.48 315 12:26 02.01.2020
1274 Clear 4 1013 51 16093 1.5 120 11:59 02.01.2020
1275 Clear 4 1013 51 16093 1.5 120 11:40 02.01.2020
1276 Clouds 4 1013 65 16093 2.1 200 11:20 02.01.2020
1277 Clouds 4 1012 56 16093 2.1 180 10:44 02.01.2020
1278 Clouds 4 1012 56 16093 2.1 180 10:44 02.01.2020
1279 Clouds 4 1012 56 16093 2.1 180 10:25 02.01.2020
1280 Clear 5 1012 54 16093 2.1 320 09:48 02.01.2020
1281 Clear 5 1012 54 16093 2.1 320 09:29 02.01.2020
1282 Clear 6 1012 60 16093 2.1 270 08:47 02.01.2020
1283 Clear 6 1012 60 16093 2.1 270 08:27 02.01.2020
1284 Clear 6 1012 60 16093 2.1 270 08:27 02.01.2020
1285 Clear 6 1012 70 16093 2.1 50 07:53 02.01.2020
1286 Clear 6 1012 70 16093 2.1 50 07:30 02.01.2020
1287 Clear 7 1011 49 16093 6.2 30 06:46 02.01.2020
1288 Clear 7 1011 49 16093 6.2 30 06:27 02.01.2020
1289 -273 0 0 0 0 0 05:29 02.01.2020
1290 Clear 7 1010 60 16093 2.1 340 04:32 02.01.2020
1291 Clear 8 1013 52 16093 2.6 350 02:48 02.01.2020
1292 Clear 9 1013 45 16093 3.1 30 01:59 02.01.2020
1293 Clear 9 1013 42 16093 3.6 30 01:37 02.01.2020
1294 Clear 10 1014 39 16093 4.6 30 00:58 02.01.2020
1295 Clear 11 1013 37 16093 3.1 30 00:33 02.01.2020
1296 Clear 11 1014 38 16093 4.6 50 23:52 01.01.2020
1297 Clear 11 1014 38 16093 4.6 50 23:28 01.01.2020
1298 Clear 10 1014 43 16093 2.6 0 22:56 01.01.2020
1299 Clear 10 1015 43 16093 0.93 98 22:38 01.01.2020
1300 Clouds 10 1015 39 16093 0.93 98 22:19 01.01.2020
1301 Clear 9 1015 45 16093 0.93 98 21:56 01.01.2020
1302 Clear 9 1016 49 16093 0.93 98 21:37 01.01.2020
1303 Clouds 9 1016 42 16093 0.93 98 21:18 01.01.2020
1304 Clear 8 1017 49 16093 1.5 220 20:42 01.01.2020
1305 Clouds 8 1017 45 16093 1.38 124 20:22 01.01.2020
1306 Clear 8 1018 52 16093 1.5 260 19:58 01.01.2020
1307 Clear 8 1018 52 16093 2.6 190 19:40 01.01.2020
1308 Clouds 8 1018 45 16093 2.1 80 19:21 01.01.2020
1309 Clear 7 1019 48 16093 0.57 67 18:59 01.01.2020
1310 Clear 6 1019 60 16093 1.5 290 18:39 01.01.2020
1311 Clouds 6 1018 56 16093 0.57 67 18:20 01.01.2020
1312 Clear 5 1019 69 16093 0.57 67 17:59 01.01.2020
1313 Clear 4 1019 64 16093 0.57 67 17:40 01.01.2020
1314 Clear 4 1019 64 16093 0.57 67 17:40 01.01.2020
1315 Clouds 4 1018 60 16093 2.1 210 17:20 01.01.2020
1316 Clear 3 1019 69 16093 0.45 54 16:59 01.01.2020
1317 Clear 2 1019 64 16093 2.1 240 16:38 01.01.2020
1318 Clouds 2 1018 60 16093 1.5 200 16:20 01.01.2020
1319 Clear 2 1019 64 16093 0.45 54 15:57 01.01.2020
1320 Clear 2 1019 69 16093 0.45 54 15:38 01.01.2020
1321 Clouds 2 1018 60 16093 1.5 210 15:20 01.01.2020
1322 Clear 3 1019 69 16093 0.45 54 14:56 01.01.2020
1323 Clear 3 1019 64 16093 0.45 54 14:38 01.01.2020
1324 Clouds 3 1019 60 16093 2.1 230 14:19 01.01.2020
1325 Clouds 3 1019 60 16093 2.1 230 14:19 01.01.2020
1326 Clear 2 1019 69 16093 0.48 71 13:55 01.01.2020
1327 Clear 2 1019 74 16093 0.48 71 13:37 01.01.2020
1328 Smoke 2 1019 64 16093 2.6 210 13:18 01.01.2020
1329 Clear 2 1019 69 16093 0.38 359 12:54 01.01.2020
1330 Clear 2 1019 69 16093 0.38 359 12:54 01.01.2020
1331 Clear 3 1020 48 16093 0.38 359 12:36 01.01.2020
1332 Smoke 2 1020 60 16093 2.1 220 12:18 01.01.2020
1333 Clear 2 1020 52 16093 0.38 359 11:42 01.01.2020
1334 Smoke 2 1019 60 16093 1.5 210 11:21 01.01.2020
1335 Smoke 2 1019 60 16093 1.5 210 11:21 01.01.2020
1336 Clear 3 1020 52 16093 0.86 322 10:56 01.01.2020
1337 Clear 3 1020 69 16093 0.86 322 10:38 01.01.2020
1338 Smoke 3 1019 60 16093 0.86 322 10:19 01.01.2020
1339 Smoke 3 1020 60 16093 1.5 210 09:40 01.01.2020
1340 Smoke 3 1020 60 16093 1.5 210 09:22 01.01.2020
1341 Clear 4 1021 60 16093 0.86 322 08:57 01.01.2020
1342 Clear 4 1021 52 16093 1.5 230 08:38 01.01.2020
1343 Clear 4 1021 52 16093 1.5 230 08:38 01.01.2020
1344 Clouds 4 1021 56 16093 3.6 200 08:20 01.01.2020
1345 Clear 4 1022 48 16093 1.4 287 07:58 01.01.2020
1346 Clear 4 1022 48 16093 3.6 340 07:39 01.01.2020
1347 Clouds 5 1021 52 16093 1.5 200 07:19 01.01.2020
1348 Clear 5 1021 60 16093 2.1 10 06:36 01.01.2020
1349 Clear 5 1021 52 16093 1.4 287 05:51 01.01.2020
1350 Clear 6 1020 52 16093 3.6 10 04:28 01.01.2020
1351 Clear 7 1020 48 16093 2.1 30 03:39 01.01.2020
1352 Clouds 7 1020 34 16093 2.6 50 03:21 01.01.2020
1353 Clear 9 1021 39 16093 2.6 20 02:42 01.01.2020
1354 Clear 9 1021 39 16093 2.6 20 02:23 01.01.2020
1355 Clear 10 1020 32 16093 5.7 10 01:42 01.01.2020
1356 Clouds 11 1020 30 16093 4.1 60 01:22 01.01.2020
1357 Clear 12 1020 30 16093 5.1 30 00:45 01.01.2020
1358 Clear 12 1020 30 16093 5.1 30 00:26 01.01.2020
1359 Clear 12 1020 30 16093 4.1 10 23:56 31.12.2019
1360 Clear 12 1020 30 16093 3.1 40 23:36 31.12.2019
1361 Clouds 12 1020 30 16093 4.6 60 23:18 31.12.2019
1362 Clear 12 1020 30 16093 5.1 30 22:55 31.12.2019
1363 Clear 12 1020 30 16093 4.6 30 22:36 31.12.2019
1364 Clouds 12 1020 32 16093 2.6 60 22:18 31.12.2019
1365 Clear 12 1021 30 16093 7.7 20 21:43 31.12.2019
1366 Clear 11 1021 30 16093 7.7 20 21:25 31.12.2019
1367 Clear 11 1021 32 16093 9.3 20 20:57 31.12.2019
1368 Clear 11 1021 32 16093 9.3 20 20:57 31.12.2019
1369 Clear 11 1022 34 16093 6.2 340 20:38 31.12.2019
1370 Clear 10 1022 34 16093 6.2 340 20:20 31.12.2019
1371 Clear 10 1022 32 16093 6.7 10 19:57 31.12.2019
1372 Clear 9 1023 37 16093 6.7 340 19:39 31.12.2019
1373 Clouds 9 1023 37 16093 4.1 40 19:20 31.12.2019
1374 Clear 9 1023 34 16093 6.7 340 18:56 31.12.2019
1375 Clear 8 1023 36 16093 6.7 360 18:38 31.12.2019
1376 Clouds 8 1023 39 16093 4.1 70 18:19 31.12.2019
1377 Clear 7 1023 36 16093 4.6 10 17:55 31.12.2019
1378 Clear 7 1023 42 16093 3.1 360 17:36 31.12.2019
1379 Clear 7 1023 42 16093 3.1 360 17:36 31.12.2019
1380 Clouds 6 1023 45 16093 3.6 60 17:18 31.12.2019
1381 Clear 5 1023 45 16093 6.2 30 16:56 31.12.2019
1382 Clear 5 1022 52 16093 4.6 350 16:37 31.12.2019
1383 Clouds 5 1022 48 16093 4.1 60 16:18 31.12.2019
1384 Clear 5 1022 48 16093 5.7 340 15:55 31.12.2019
1385 Clear 5 1022 48 16093 5.1 350 15:37 31.12.2019
1386 Clear 5 1022 60 16093 3.1 70 15:19 31.12.2019
1387 Clear 5 1022 48 16093 3.6 10 14:55 31.12.2019
1388 Clear 5 1021 45 16093 2.6 0 14:37 31.12.2019
1389 Clear 5 1021 45 16093 2.6 0 14:37 31.12.2019
1390 Clouds 5 1021 56 16093 4.1 80 14:18 31.12.2019
1391 Clear 5 1021 45 16093 4.1 360 13:55 31.12.2019
1392 Clear 5 1021 42 16093 7.7 10 13:37 31.12.2019
1393 Clouds 4 1021 52 16093 3.6 40 13:19 31.12.2019
1394 Clear 4 1021 42 16093 8.2 10 12:55 31.12.2019
1395 Clear 4 1021 48 16093 3.6 10 12:37 31.12.2019
1396 Clear 4 1021 48 16093 3.6 10 12:37 31.12.2019
1397 Clouds 5 1021 56 16093 4.1 40 12:18 31.12.2019
1398 Clear 5 1021 48 16093 2.1 0 11:54 31.12.2019
1399 Clear 5 1021 48 16093 3.27 23 11:36 31.12.2019
1400 Clouds 5 1021 56 16093 3.48 13 11:18 31.12.2019
1401 Clear 6 1021 45 16093 2.6 280 10:55 31.12.2019
1402 Clear 5 1021 48 16093 1.5 210 10:37 31.12.2019
1403 Clouds 5 1021 52 16093 2.1 20 10:19 31.12.2019
1404 Clear 5 1021 48 16093 3.48 13 09:55 31.12.2019
1405 Clear 5 1020 45 16093 3.6 30 09:37 31.12.2019
1406 Clear 5 1020 45 16093 3.6 30 09:37 31.12.2019
1407 Clouds 5 1021 52 16093 3.48 13 09:18 31.12.2019
1408 Clear 5 1020 49 16093 3.48 13 08:42 31.12.2019
1409 Clear 5 1020 49 16093 3.48 13 08:42 31.12.2019
1410 Clouds 5 1020 56 16093 2.82 356 08:22 31.12.2019
1411 Clear 6 1020 45 16093 3.6 360 07:45 31.12.2019
1412 Clouds 5 1020 49 16093 2.82 356 07:22 31.12.2019
1413 Clear 5 1020 45 16093 2.1 360 06:51 31.12.2019
1414 Clouds 5 1020 49 16093 1.5 0 06:27 31.12.2019
1415 Clear 6 1019 52 16093 2.94 2 04:54 31.12.2019
1416 Clear 6 1019 42 16093 2.1 130 04:24 31.12.2019
1417 Clear 8 1019 45 16093 2.94 2 02:57 31.12.2019
1418 Clouds 8 1019 39 16093 1.5 60 02:20 31.12.2019
1419 Clear 9 1019 37 16093 3.1 30 01:49 31.12.2019
1420 Clear 10 1019 37 16093 3.1 30 01:31 31.12.2019
1421 Clear 10 1018 37 16093 5.1 30 00:48 31.12.2019
1422 Clear 11 1018 37 16093 5.1 30 00:24 31.12.2019
1423 Clear 11 1018 34 16093 4.1 30 23:58 30.12.2019
1424 Clear 10 1019 37 16093 5.1 40 23:39 30.12.2019
1425 Clouds 11 1018 29 16093 4.1 10 23:21 30.12.2019
1426 Clear 10 1019 37 16093 5.1 30 22:59 30.12.2019
1427 Clear 10 1019 34 16093 5.7 20 22:41 30.12.2019
1428 Clouds 10 1019 32 16093 3.1 30 22:21 30.12.2019
1429 Clear 10 1019 32 16093 6.2 340 21:57 30.12.2019
1430 Clear 10 1020 37 16093 5.1 350 21:39 30.12.2019
1431 Clouds 9 1020 31 16093 4.1 40 21:20 30.12.2019
1432 Clear 9 1020 34 16093 5.1 360 20:58 30.12.2019
1433 Clear 9 1021 36 16093 3.6 320 20:40 30.12.2019
1434 Clouds 8 1021 34 16093 2.24 2 20:20 30.12.2019
1435 Clear 7 1021 36 16093 1.5 360 19:58 30.12.2019
1436 Clear 7 1022 39 16093 3.6 330 19:39 30.12.2019
1437 Clouds 7 1022 39 16093 2.21 359 19:19 30.12.2019
1438 Clear 6 1022 39 16093 3.1 340 18:58 30.12.2019
1439 Clear 6 1022 45 16093 4.1 320 18:40 30.12.2019
1440 Clouds 6 1022 45 16093 2.21 359 18:20 30.12.2019
1441 Clear 5 1022 45 16093 4.6 320 17:56 30.12.2019
1442 Clear 4 1022 48 16093 3.6 320 17:38 30.12.2019
1443 Clouds 4 1021 55 16093 0.89 352 17:19 30.12.2019
1444 Clear 3 1022 51 16093 4.1 330 16:58 30.12.2019
1445 Clear 2 1021 51 16093 0.89 352 16:37 30.12.2019
1446 Clear 2 1021 51 16093 0.89 352 16:37 30.12.2019
1447 Clouds 1 1021 59 16093 1.5 280 16:18 30.12.2019
1448 Clouds 1 1021 51 16093 0.89 352 15:55 30.12.2019
1449 Clouds 1 1021 51 16093 2.1 360 15:37 30.12.2019
1450 Clouds 2 1020 64 16093 1.5 280 15:18 30.12.2019
1451 Clouds 2 1021 51 16093 3.1 340 14:43 30.12.2019
1452 Clouds 2 1020 55 16093 1.5 210 14:20 30.12.2019
1453 Clouds 2 1020 48 16093 4.6 340 13:57 30.12.2019
1454 Clouds 2 1020 55 16093 2.1 290 13:39 30.12.2019
1455 Clouds 2 1020 59 16093 1.5 220 13:21 30.12.2019
1456 Clouds 2 1020 51 16093 2.1 320 12:56 30.12.2019
1457 Clouds 2 1020 64 16093 1.43 348 12:36 30.12.2019
1458 Clouds 2 1020 64 16093 1.43 348 12:18 30.12.2019
1459 Clouds 2 1020 55 16093 2.6 360 11:40 30.12.2019
1460 Clouds 2 1020 59 16093 1.06 4 11:19 30.12.2019
1461 Clouds 2 1020 69 16093 1.5 30 10:57 30.12.2019
1462 Clouds 2 1020 64 16093 1.06 4 10:38 30.12.2019
1463 Clouds 2 1020 55 16093 2.1 260 10:18 30.12.2019
1464 Clouds 2 1020 51 16093 1.06 4 09:41 30.12.2019
1465 Clouds 2 1020 44 16093 2.1 290 09:20 30.12.2019
1466 Clouds 2 1020 51 16093 1.06 4 08:55 30.12.2019
1467 Clouds 3 1020 51 16093 2.1 40 08:36 30.12.2019
1468 Clouds 3 1020 52 16093 0.73 62 08:18 30.12.2019
1469 Clouds 3 1020 52 16093 0.73 62 08:18 30.12.2019
1470 Clouds 3 1021 60 16093 0.73 62 07:40 30.12.2019
1471 Clouds 3 1021 56 16093 2.1 10 06:55 30.12.2019
1472 Clouds 4 1020 41 16093 0.73 62 06:23 30.12.2019
1473 Clouds 5 1021 41 16093 2.1 30 03:58 30.12.2019
1474 Clouds 6 1021 38 16093 2.6 30 03:32 30.12.2019
1475 Clouds 6 1021 41 16093 3.1 30 02:40 30.12.2019
1476 Clouds 6 1021 41 16093 2.6 30 01:56 30.12.2019
1477 Clouds 6 1021 41 16093 2.1 40 01:25 30.12.2019
1478 Clear 7 1021 36 16093 3.1 40 00:45 30.12.2019
1479 Clear 7 1021 36 16093 3.1 40 00:23 30.12.2019
1480 Clear 7 1021 36 16093 2.1 50 23:40 29.12.2019
1481 Clouds 7 1021 28 16093 1.2 10 23:21 29.12.2019
1482 Clear 7 1021 36 16093 3.1 20 22:56 29.12.2019
1483 Clear 7 1022 30 16093 1.2 10 22:37 29.12.2019
1484 Clouds 7 1021 28 16093 2.1 60 22:18 29.12.2019
1485 Clear 7 1022 30 16093 3.1 300 21:43 29.12.2019
1486 Clouds 7 1022 30 16093 1.2 10 21:21 29.12.2019
1487 Clear 7 1023 33 16093 1.2 10 20:58 29.12.2019
1488 Clear 7 1023 38 16093 1.5 180 20:39 29.12.2019
1489 Clouds 6 1023 33 16093 0.95 33 20:21 29.12.2019
1490 Clear 6 1024 38 16093 1.5 200 19:59 29.12.2019
1491 Clear 5 1025 51 16093 0.95 33 19:40 29.12.2019
1492 Clear 5 1025 51 16093 0.95 33 19:40 29.12.2019
1493 Clouds 5 1024 35 16093 2.1 200 19:21 29.12.2019
1494 Clear 4 1025 55 16093 2.1 210 18:58 29.12.2019
1495 Clear 4 1025 55 16093 0.95 33 18:39 29.12.2019
1496 Clouds 4 1024 44 16093 0.95 33 18:20 29.12.2019
1497 Clear 3 1025 59 16093 0.95 33 17:58 29.12.2019
1498 Clear 3 1024 51 16093 0.95 33 17:39 29.12.2019
1499 Clear 2 1024 59 16093 3.6 190 17:20 29.12.2019
1500 Clear 0 1024 50 16093 0.63 41 16:57 29.12.2019
1501 Clear 0 1024 50 16093 0.63 41 16:38 29.12.2019
1502 Clouds 0 1023 59 16093 0.63 41 16:20 29.12.2019
1503 Clear 0 1023 48 16093 0.63 41 15:58 29.12.2019
1504 Clear -1 1023 48 16093 0.63 41 15:58 29.12.2019
1505 Clear -1 1023 48 16093 3.6 360 15:39 29.12.2019
1506 Clear 0 1023 59 16093 1.5 280 15:20 29.12.2019
1507 Clear 0 1023 48 16093 0.63 41 14:58 29.12.2019
1508 Clear 0 1023 50 16093 2.6 10 14:39 29.12.2019
1509 Clouds 0 1022 59 16093 0.8 286 14:18 29.12.2019
1510 Clear 0 1023 46 16093 2.6 10 13:57 29.12.2019
1511 Clear 0 1023 46 16093 0.8 286 13:38 29.12.2019
1512 Clouds 0 1022 59 16093 0.51 282 13:20 29.12.2019
1513 Clear 0 1023 55 16093 0.51 282 12:45 29.12.2019
1514 Clear 0 1023 55 16093 0.51 282 12:27 29.12.2019
1515 Clear 0 1023 51 16093 3.1 10 11:58 29.12.2019
1516 Clear 1 1023 47 16093 3.6 350 11:39 29.12.2019
1517 Clear 1 1023 44 16093 2.6 140 11:20 29.12.2019
1518 Clear 1 1023 59 16093 2.1 250 10:43 29.12.2019
1519 Clear 1 1023 59 16093 2.1 250 10:25 29.12.2019
1520 Clear 1 1022 55 16093 0.96 326 09:58 29.12.2019
1521 Clear 1 1022 51 16093 0.96 326 09:39 29.12.2019
1522 Clouds 1 1022 47 16093 0.96 326 09:21 29.12.2019
1523 Clear 2 1022 47 16093 3.1 330 08:48 29.12.2019
1524 Clear 2 1022 47 16093 3.1 330 08:28 29.12.2019
1525 Clear 3 1022 47 16093 1.5 330 07:56 29.12.2019
1526 Clear 2 1022 41 16093 2.56 73 07:28 29.12.2019
1527 Clear 2 1022 41 16093 2.56 73 07:28 29.12.2019
1528 Clear 3 1022 44 16093 1.5 10 06:56 29.12.2019
1529 Clear 3 1021 38 16093 3.6 30 06:26 29.12.2019
1530 Clear 4 1021 33 16093 5.1 20 05:53 29.12.2019
1531 Clear 4 1021 30 16093 5.7 350 04:36 29.12.2019
1532 Clear 5 1020 30 16093 4.6 340 03:58 29.12.2019
1533 Clear 5 1020 33 16093 4.1 30 03:21 29.12.2019
1534 Clouds 6 1019 26 16093 5.1 10 02:21 29.12.2019
1535 Clear 7 1019 24 16093 5.7 10 01:38 29.12.2019
1536 Clouds 8 1019 24 16093 7.7 350 01:19 29.12.2019
1537 Clear 8 1019 23 16093 7.2 360 00:40 29.12.2019
1538 Clouds 9 1018 24 16093 7.2 340 00:22 29.12.2019
1539 Clear 9 1018 21 16093 8.7 10 23:44 28.12.2019
1540 Clouds 8 1018 23 16093 5.1 340 23:18 28.12.2019
1541 Clear 9 1018 21 16093 8.2 360 22:39 28.12.2019
1542 Clouds 9 1018 23 16093 7.2 340 22:21 28.12.2019
1543 Clear 9 1018 21 16093 8.2 10 21:58 28.12.2019
1544 Clear 9 1018 21 16093 8.2 10 21:58 28.12.2019
1545 Clear 8 1019 23 16093 6.2 300 21:39 28.12.2019
1546 Clear 8 1019 23 16093 6.2 300 21:21 28.12.2019
1547 Clear 8 1019 23 16093 6.2 300 21:21 28.12.2019
1548 Clear 8 1019 23 16093 8.7 340 20:57 28.12.2019
1549 Clear 8 1019 26 16093 8.2 360 20:37 28.12.2019
1550 Clear 8 1019 26 16093 8.2 360 20:37 28.12.2019
1551 Clouds 8 1019 24 16093 7.2 340 20:19 28.12.2019
1552 Clear 7 1019 26 16093 7.2 340 19:57 28.12.2019
1553 Clear 7 1019 26 16093 7.2 340 19:57 28.12.2019
1554 Clear 7 1019 26 16093 9.8 340 19:39 28.12.2019
1555 Clear 7 1020 33 16093 7.7 360 19:20 28.12.2019
1556 Clear 7 1019 26 16093 11.8 350 18:57 28.12.2019
1557 Clear 6 1020 30 16093 10.8 350 18:39 28.12.2019
1558 Clear 6 1020 30 16093 8.7 350 18:18 28.12.2019
1559 Clear 6 1020 30 16093 8.7 350 18:18 28.12.2019
1560 Clear 5 1020 30 16093 7.7 350 17:54 28.12.2019
1561 Clear 5 1019 32 16093 7.7 330 17:36 28.12.2019
1562 Clouds 5 1019 33 16093 5.7 360 17:18 28.12.2019
1563 Clear 4 1019 38 16093 7.7 340 16:45 28.12.2019
1564 Clear 3 1019 38 16093 7.7 340 16:24 28.12.2019
1565 Clear 4 1018 38 16093 6.7 340 15:44 28.12.2019
1566 Clear 3 1018 38 16093 6.7 340 15:24 28.12.2019
1567 Clear 3 1018 38 16093 7.2 340 14:58 28.12.2019
1568 Clear 4 1017 35 16093 8.2 340 14:38 28.12.2019
1569 Clear 3 1017 33 16093 7.2 360 14:20 28.12.2019
1570 Clear 4 1017 41 16093 6.2 330 13:43 28.12.2019
1571 Clear 4 1016 35 16093 11.8 340 13:23 28.12.2019
1572 Clear 4 1017 44 16093 6.2 330 12:59 28.12.2019
1573 Clear 4 1016 48 16093 4.1 350 12:41 28.12.2019
1574 Clear 4 1016 33 16093 11.3 350 12:22 28.12.2019
1575 Clear 4 1016 48 16093 4.6 360 11:55 28.12.2019
1576 Clear 4 1016 59 16093 3.1 20 11:37 28.12.2019
1577 Clear 4 1016 64 16093 2.1 140 11:18 28.12.2019
1578 Clear 4 1016 51 16093 4.6 340 10:43 28.12.2019
1579 Clear 4 1015 33 16093 7.7 340 10:20 28.12.2019
1580 Clear 4 1016 48 16093 5.1 340 09:56 28.12.2019
1581 Clear 4 1015 55 16093 4.1 350 09:38 28.12.2019
1582 Clear 4 1015 60 16093 2.6 80 09:18 28.12.2019
1583 Clear 4 1015 52 16093 5.7 320 08:43 28.12.2019
1584 Clear 4 1015 52 16093 5.7 320 08:25 28.12.2019
1585 Clear 5 1015 45 16093 7.2 330 07:49 28.12.2019
1586 Clear 5 1015 45 16093 7.2 330 07:27 28.12.2019
1587 Clear 5 1014 56 16093 5.1 330 05:53 28.12.2019
1588 Clear 6 1013 40 16093 2.1 340 03:52 28.12.2019
1589 Clear 6 1013 40 16093 2.1 340 03:33 28.12.2019
1590 Clear 7 1013 70 16093 2.6 10 02:43 28.12.2019
1591 Clear 7 1013 70 16093 1.5 30 01:59 28.12.2019
1592 Clear 8 1013 49 16093 3.64 348 01:25 28.12.2019
1593 Clear 10 1012 49 16093 3.1 50 00:51 28.12.2019
1594 Clear 10 1012 49 16093 3.1 50 00:32 28.12.2019
1595 Clear 10 1012 49 16093 3.1 40 23:59 27.12.2019
1596 Clear 10 1012 49 16093 3.1 50 23:41 27.12.2019
1597 Clouds 10 1011 34 16093 6.2 360 23:19 27.12.2019
1598 Clear 10 1012 46 16093 2.6 0 22:57 27.12.2019
1599 Clear 10 1012 46 16093 2.6 0 22:57 27.12.2019
1600 Clouds 10 1011 37 16093 6.2 340 22:38 27.12.2019
1601 Clouds 10 1011 37 16093 6.2 340 22:20 27.12.2019
1602 Clear 9 1012 52 16093 3.6 40 21:44 27.12.2019
1603 Clear 9 1012 52 16093 3.6 40 21:25 27.12.2019
1604 Clear 9 1012 52 16093 3.1 10 20:58 27.12.2019
1605 Clouds 9 1013 34 16093 3.1 20 20:40 27.12.2019
1606 Clouds 9 1012 45 16093 5.7 40 20:21 27.12.2019
1607 Rain 8 1013 70 16093 3.1 310 19:42 27.12.2019
1608 Rain 8 1013 42 16093 5.1 20 19:20 27.12.2019
1609 Rain 8 1013 42 16093 5.1 20 19:20 27.12.2019
1610 Clouds 7 1013 81 16093 2.6 230 18:58 27.12.2019
1611 Clouds 6 1013 93 16093 2.6 250 18:37 27.12.2019
1612 Clouds 6 1013 70 16093 4.84 321 18:19 27.12.2019
1613 Clouds 6 1013 86 16093 4.84 321 17:56 27.12.2019
1614 Clouds 5 1013 80 16093 3.1 20 17:38 27.12.2019
1615 Clouds 5 1012 81 16093 3.51 305 17:18 27.12.2019
1616 Clouds 5 1012 60 16093 2.6 200 16:44 27.12.2019
1617 Clouds 5 1012 60 16093 2.6 200 16:26 27.12.2019
1618 Clouds 5 1013 93 14484 3.51 305 15:59 27.12.2019
1619 Clouds 5 1013 93 16093 2.1 270 15:40 27.12.2019
1620 Clouds 5 1012 81 16093 3.51 305 15:20 27.12.2019
1621 Clouds 5 1012 100 16093 2.6 190 14:56 27.12.2019
1622 Clouds 4 1012 93 16093 2.1 240 14:38 27.12.2019
1623 Rain 5 1011 81 16093 1.5 220 14:20 27.12.2019
1624 Rain 5 1011 81 16093 1.5 220 14:20 27.12.2019
1625 Clouds 5 1012 86 16093 1.5 320 13:48 27.12.2019
1626 Clouds 5 1012 86 16093 1.5 320 13:25 27.12.2019
1627 Clouds 5 1012 86 16093 1.5 320 13:25 27.12.2019
1628 Rain 5 1012 86 16093 5.23 351 12:56 27.12.2019
1629 Rain 5 1012 86 16093 4.1 350 12:38 27.12.2019
1630 Rain 4 1012 100 16093 2.1 130 12:20 27.12.2019
1631 Rain 5 1013 93 16093 2.6 90 11:43 27.12.2019
1632 Rain 5 1012 100 16093 1.5 200 11:23 27.12.2019
1633 Rain 5 1012 100 16093 2.6 140 10:55 27.12.2019
1634 Rain 5 1013 100 16093 1.5 170 10:36 27.12.2019
1635 Rain 5 1013 100 16093 1.5 170 10:18 27.12.2019
1636 Rain 5 1013 93 16093 1.5 190 09:42 27.12.2019
1637 Rain 5 1013 93 16093 1.5 190 09:21 27.12.2019
1638 Rain 5 1012 86 9656 7.7 360 08:55 27.12.2019
1639 Rain 5 1013 86 6437 7.2 350 08:35 27.12.2019
1640 Rain 5 1013 93 14484 4.6 10 07:50 27.12.2019
1641 Rain 5 1013 86 14484 7.2 350 07:31 27.12.2019
1642 Rain 5 1013 81 12874 7.7 10 06:36 27.12.2019
1643 Rain 5 1013 87 16093 8.2 350 04:59 27.12.2019
1644 Rain 5 1013 81 6437 7.2 10 03:26 27.12.2019
1645 Rain 5 1013 81 11265 5.7 10 01:59 27.12.2019
1646 Rain 6 1013 75 8047 7.2 30 01:24 27.12.2019
1647 Rain 6 1013 70 12874 5.7 20 00:58 27.12.2019
1648 Rain 6 1013 75 16093 6.7 10 00:40 27.12.2019
1649 Rain 6 1012 70 16093 4.6 320 00:21 27.12.2019
1650 Rain 6 1012 70 11265 7.7 30 23:41 26.12.2019
1651 Clouds 6 1012 61 16093 8.7 40 23:22 26.12.2019
1652 Clouds 7 1012 61 16093 7.2 20 22:45 26.12.2019
1653 Clouds 7 1012 61 16093 7.2 20 22:23 26.12.2019
1654 Clouds 7 1012 61 16093 6.2 20 21:59 26.12.2019
1655 Rain 6 1013 61 16093 7.7 20 21:38 26.12.2019
1656 Rain 6 1013 65 16093 5.7 30 21:20 26.12.2019
1657 Clear 6 1014 61 16093 6.2 20 20:46 26.12.2019
1658 Rain 6 1014 61 16093 6.2 20 20:23 26.12.2019
1659 Rain 6 1014 65 16093 6.2 20 19:59 26.12.2019
1660 Rain 6 1016 86 16093 1.5 350 19:40 26.12.2019
1661 Rain 6 1016 86 16093 1.5 350 19:21 26.12.2019
1662 Rain 6 1015 70 16093 5.7 20 18:58 26.12.2019
1663 Rain 6 1015 100 16093 3.1 50 18:39 26.12.2019
1664 Rain 6 1015 100 16093 3.1 50 18:19 26.12.2019
1665 Rain 5 1015 70 16093 6.7 20 17:55 26.12.2019
1666 Rain 5 1015 100 16093 5.1 20 17:37 26.12.2019
1667 Rain 5 1014 75 16093 3.6 60 17:18 26.12.2019
1668 Clouds 5 1014 70 16093 6.2 20 16:41 26.12.2019
1669 Clouds 5 1014 75 16093 4.1 60 16:22 26.12.2019
1670 Clouds 5 1014 75 16093 6.2 20 15:56 26.12.2019
1671 Clouds 5 1013 75 16093 5.7 20 15:37 26.12.2019
1672 Clouds 5 1014 86 16093 2.07 350 15:18 26.12.2019
1673 Clouds 5 1013 81 16093 5.7 30 14:40 26.12.2019
1674 Clouds 5 1013 75 16093 4.1 30 14:21 26.12.2019
1675 Clouds 5 1014 86 16093 1.5 350 13:43 26.12.2019
1676 Clouds 5 1014 86 16093 1.5 350 13:22 26.12.2019
1677 Clouds 5 1014 81 16093 5.7 30 12:58 26.12.2019
1678 Clouds 5 1014 81 16093 5.7 30 12:58 26.12.2019
1679 Clouds 5 1014 86 16093 1.33 5 12:39 26.12.2019
1680 Clouds 5 1014 75 16093 3.1 10 12:20 26.12.2019
1681 Clouds 5 1014 65 16093 2.6 50 11:57 26.12.2019
1682 Clouds 5 1015 86 16093 1.33 5 11:39 26.12.2019
1683 Clouds 5 1015 86 16093 1.56 6 11:20 26.12.2019
1684 Clouds 5 1014 81 16093 3.1 40 10:47 26.12.2019
1685 Clouds 5 1014 81 16093 1.56 6 10:19 26.12.2019
1686 Clouds 5 1014 81 16093 1.56 6 10:19 26.12.2019
1687 Clouds 5 1014 75 16093 3.6 50 09:50 26.12.2019
1688 Clouds 5 1014 75 16093 3.6 50 09:32 26.12.2019
1689 Clouds 5 1014 70 16093 3.6 50 08:55 26.12.2019
1690 Clouds 5 1014 70 16093 3.1 60 08:36 26.12.2019
1691 Clouds 5 1014 81 16093 2.6 360 08:18 26.12.2019
1692 Clouds 5 1014 81 16093 3.1 40 07:30 26.12.2019
1693 Clouds 5 1014 81 16093 3.1 40 07:30 26.12.2019
1694 Clouds 5 1014 75 16093 3.1 30 06:54 26.12.2019
1695 Clouds 5 1013 75 16093 2.6 30 06:32 26.12.2019
1696 Clouds 6 1014 70 16093 0.53 81 05:46 26.12.2019
1697 Clouds 6 1013 75 16093 2.6 110 04:59 26.12.2019
1698 Clouds 6 1013 81 16093 4.1 100 04:30 26.12.2019
1699 Clouds 7 1012 52 16093 3.52 208 03:18 26.12.2019
1700 Clouds 8 1013 70 16093 2.6 140 02:38 26.12.2019
1701 Clouds 8 1012 45 16093 7.99 224 02:19 26.12.2019
1702 Clear 8 1012 45 16093 3.1 230 01:41 26.12.2019
1703 Clouds 9 1011 43 16093 4.1 230 01:22 26.12.2019
1704 Clouds 9 1012 37 16093 6.2 220 00:41 26.12.2019
1705 Clouds 10 1011 34 16093 3.6 210 00:22 26.12.2019
1706 Clouds 10 1011 66 16093 4.6 120 23:42 25.12.2019
1707 Clouds 10 1011 37 16093 7.7 220 23:21 25.12.2019
1708 Clear 10 1011 66 16093 6.7 120 22:59 25.12.2019
1709 Clouds 10 1011 70 16093 6.7 120 22:40 25.12.2019
1710 Clouds 10 1010 37 16093 5.1 260 22:22 25.12.2019
1711 Clear 9 1011 70 16093 6.7 130 21:59 25.12.2019
1712 Clouds 10 1011 76 16093 5.1 90 21:39 25.12.2019
1713 Clouds 10 1012 45 16093 6.2 220 21:20 25.12.2019
1714 Clouds 9 1011 70 16093 5.7 90 20:56 25.12.2019
1715 Clouds 9 1012 75 16093 5.1 130 20:38 25.12.2019
1716 Clouds 9 1011 46 16093 3.1 0 20:18 25.12.2019
1717 Clouds 9 1013 87 16093 4.1 110 19:43 25.12.2019
1718 Clouds 9 1013 87 16093 4.1 110 19:25 25.12.2019
1719 Clouds 8 1013 75 16093 3.1 110 18:58 25.12.2019
1720 Clouds 8 1013 75 16093 2.6 160 18:37 25.12.2019
1721 Rain 7 1011 52 16093 4.1 190 18:18 25.12.2019
1722 Clouds 6 1012 81 16093 3.1 140 17:41 25.12.2019
1723 Clouds 6 1011 52 16093 3.1 190 17:19 25.12.2019
1724 Clouds 6 1012 81 16093 4.1 120 16:58 25.12.2019
1725 Clouds 5 1011 61 16093 2.1 90 16:37 25.12.2019
1726 Clouds 5 1010 56 16093 2.1 200 16:18 25.12.2019
1727 Clouds 5 1011 61 16093 3.55 204 15:57 25.12.2019
1728 Clouds 5 1011 61 16093 3.55 204 15:57 25.12.2019
1729 Clouds 5 1011 61 16093 2.1 100 15:38 25.12.2019
1730 Clouds 5 1010 56 16093 2.1 160 15:20 25.12.2019
1731 Clouds 5 1011 61 16093 3.1 90 14:57 25.12.2019
1732 Clouds 5 1011 61 16093 1.5 30 14:39 25.12.2019
1733 Clouds 5 1011 61 16093 1.5 30 14:39 25.12.2019
1734 Clouds 5 1009 52 16093 1.5 200 14:20 25.12.2019
1735 Clouds 5 1010 58 16093 4.27 208 13:44 25.12.2019
1736 Clouds 5 1009 56 16093 2.1 240 13:21 25.12.2019
1737 Clear 5 1010 75 16093 2.1 160 12:57 25.12.2019
1738 Clear 5 1010 75 16093 2.6 170 12:38 25.12.2019
1739 Clouds 5 1009 65 16093 2.1 190 12:19 25.12.2019
1740 Clouds 6 1010 75 16093 4.18 211 11:43 25.12.2019
1741 Clouds 5 1009 65 16093 2.6 190 11:22 25.12.2019
1742 Clear 5 1010 80 16093 3.32 209 10:58 25.12.2019
1743 Clouds 6 1009 70 16093 2.1 120 10:36 25.12.2019
1744 Clouds 6 1008 65 16093 3.1 200 10:18 25.12.2019
1745 Clouds 6 1009 80 16093 3.32 209 09:43 25.12.2019
1746 Clouds 6 1009 80 16093 3.32 209 09:25 25.12.2019
1747 Clouds 6 1009 80 16093 3.32 209 09:25 25.12.2019
1748 Clouds 6 1009 86 16093 3.32 209 08:45 25.12.2019
1749 Clouds 6 1009 86 16093 3.32 209 08:25 25.12.2019
1750 Clouds 6 1009 86 16093 3.32 209 08:25 25.12.2019
1751 Clear 6 1009 86 16093 2.1 40 07:45 25.12.2019
1752 Clear 6 1009 86 16093 2.1 40 07:23 25.12.2019
1753 Clear 7 1009 75 16093 2.1 60 06:47 25.12.2019
1754 Clouds 7 1008 60 16093 1.5 160 06:22 25.12.2019
1755 Clear 7 1009 65 16093 2.1 220 04:49 25.12.2019
1756 Clear 8 1009 65 16093 2.1 220 04:25 25.12.2019
1757 Clear 8 1009 70 16093 2.1 220 03:58 25.12.2019
1758 Clear 8 1008 65 16093 4.6 230 03:39 25.12.2019
1759 Clear 9 1008 87 16093 2.1 30 02:32 25.12.2019
1760 Clear 10 1008 71 16093 3.1 110 01:55 25.12.2019
1761 Clear 10 1008 71 16093 3.1 110 01:24 25.12.2019
1762 Clouds 11 1007 76 16093 4.1 110 00:48 25.12.2019
1763 Clouds 11 1007 76 16093 4.1 110 00:28 25.12.2019
1764 Clouds 12 1007 66 16093 3.1 130 23:55 24.12.2019
1765 Clouds 11 1007 66 16093 3.1 130 23:37 24.12.2019
1766 Clear 11 1007 62 16093 3.16 235 23:19 24.12.2019
1767 Clouds 11 1007 71 16093 3.16 235 22:39 24.12.2019
1768 Clouds 11 1007 71 16093 3.16 235 22:20 24.12.2019
1769 Clouds 11 1007 71 16093 3.16 235 22:20 24.12.2019
1770 Clouds 10 1008 87 16093 3.16 235 21:42 24.12.2019
1771 Clouds 10 1007 76 16093 3.16 235 21:22 24.12.2019
1772 Clouds 10 1007 76 16093 3.16 235 21:22 24.12.2019
1773 Mist 9 1009 93 9656 3.16 235 20:45 24.12.2019
1774 Mist 9 1009 93 9656 3.32 242 20:24 24.12.2019
1775 Rain 8 1009 93 11265 1.5 50 19:57 24.12.2019
1776 Rain 8 1010 93 16093 2.1 30 19:39 24.12.2019
1777 Clouds 8 1010 87 16093 1.5 280 19:18 24.12.2019
1778 Mist 8 1011 93 8047 1.5 280 18:42 24.12.2019
1779 Mist 8 1011 93 8047 1.5 280 18:20 24.12.2019
1780 Mist 7 1010 93 8047 1.5 220 17:50 24.12.2019
1781 Mist 7 1010 93 8047 1.46 178 17:24 24.12.2019
1782 Clouds 7 1010 87 12874 1.5 110 16:59 24.12.2019
1783 Clouds 7 1010 87 12874 1.5 110 16:59 24.12.2019
1784 Mist 7 1010 93 4023 1.14 158 16:41 24.12.2019
1785 Clouds 6 1009 93 16093 1.14 158 16:22 24.12.2019
1786 Clouds 6 1009 93 16093 1.14 158 16:22 24.12.2019
1787 Clouds 6 1010 93 16093 1.5 260 15:58 24.12.2019
1788 Rain 6 1010 93 16093 1.14 158 15:38 24.12.2019
1789 Fog 6 1009 93 14484 1.14 158 15:20 24.12.2019
1790 Clouds 6 1010 87 16093 2.1 70 14:59 24.12.2019
1791 Clouds 6 1010 87 16093 2.1 70 14:59 24.12.2019
1792 Clouds 6 1010 87 16093 1.5 40 14:41 24.12.2019
1793 Fog 6 1009 93 16093 1.27 109 14:22 24.12.2019
1794 Clouds 6 1010 81 16093 1.27 109 13:57 24.12.2019
1795 Clouds 7 1010 87 16093 2.1 70 13:39 24.12.2019
1796 Fog 7 1009 93 12874 0.72 306 13:20 24.12.2019
1797 Fog 7 1009 93 12874 0.72 306 13:20 24.12.2019
1798 Fog 7 1010 93 12874 0.72 306 12:57 24.12.2019
1799 Clouds 7 1011 87 16093 3.1 70 12:38 24.12.2019
1800 Fog 7 1010 93 12874 2.1 290 12:19 24.12.2019
1801 Clouds 7 1011 81 16093 2.6 70 11:58 24.12.2019
1802 Clouds 7 1011 87 16093 2.1 30 11:38 24.12.2019
1803 Clouds 7 1011 87 16093 2.1 30 11:38 24.12.2019
1804 Fog 7 1010 93 11265 1.23 68 11:20 24.12.2019
1805 Clouds 7 1011 87 16093 1.23 68 10:57 24.12.2019
1806 Clouds 7 1011 87 16093 3.6 110 10:38 24.12.2019
1807 Clouds 7 1010 93 16093 1.23 68 10:20 24.12.2019
1808 Clouds 7 1011 81 16093 3.6 100 09:58 24.12.2019
1809 Clouds 7 1011 76 16093 3.1 90 09:40 24.12.2019
1810 Clouds 7 1011 93 16093 1.23 68 09:21 24.12.2019
1811 Clouds 7 1012 87 16093 2.1 70 08:47 24.12.2019
1812 Clouds 7 1012 87 16093 2.1 70 08:24 24.12.2019
1813 Clouds 7 1012 87 16093 2.1 70 07:59 24.12.2019
1814 Clouds 7 1012 81 16093 1.9 130 07:39 24.12.2019
1815 Clouds 7 1011 93 16093 2.6 320 07:20 24.12.2019
1816 Clouds 7 1012 76 16093 1.9 130 06:40 24.12.2019
1817 Rain 7 1011 93 16093 2.1 290 06:19 24.12.2019
1818 Rain 7 1009 87 16093 3.1 230 05:51 24.12.2019
1819 Rain 7 1011 93 16093 2.1 300 05:19 24.12.2019
1820 Rain 7 1011 87 16093 2.58 122 04:21 24.12.2019
1821 Rain 8 1009 81 16093 3.1 190 03:46 24.12.2019
1822 Rain 8 1011 76 16093 3.1 90 02:29 24.12.2019
1823 Rain 8 1011 81 14484 2.6 30 01:54 24.12.2019
1824 Rain 8 1011 81 14484 2.6 30 01:26 24.12.2019
1825 Rain 9 1012 71 16093 3.1 100 00:58 24.12.2019
1826 Rain 9 1011 62 16093 2.6 100 00:39 24.12.2019
1827 Rain 9 1011 71 11265 1.5 280 00:19 24.12.2019
1828 Rain 10 1012 54 12874 6.7 160 23:42 23.12.2019
1829 Rain 10 1012 54 12874 6.7 160 23:42 23.12.2019
1830 Rain 10 1012 54 12874 6.7 160 23:24 23.12.2019
1831 Rain 11 1011 62 16093 2.6 360 22:57 23.12.2019
1832 Clouds 11 1011 43 16093 1.5 260 22:38 23.12.2019
1833 Rain 11 1010 40 16093 2.04 36 22:20 23.12.2019
1834 Clouds 11 1011 43 16093 2.1 270 21:56 23.12.2019
1835 Clouds 12 1011 40 16093 1.5 220 21:37 23.12.2019
1836 Clouds 11 1011 37 16093 2.04 36 21:19 23.12.2019
1837 Clouds 11 1012 40 16093 2.04 36 21:19 23.12.2019
1838 Clouds 11 1011 40 16093 2.04 36 20:58 23.12.2019
1839 Clouds 11 1012 37 16093 2.6 230 20:40 23.12.2019
1840 Clouds 11 1012 34 16093 1.5 90 20:19 23.12.2019
1841 Clouds 11 1012 34 16093 1.5 90 20:19 23.12.2019
1842 Clouds 11 1012 34 16093 1.5 90 20:19 23.12.2019
1843 Clouds 11 1012 40 16093 0.73 308 19:57 23.12.2019
1844 Clouds 11 1013 43 16093 0.73 308 19:38 23.12.2019
1845 Clouds 11 1014 37 16093 0.73 308 19:20 23.12.2019
1846 Clear 10 1013 32 16093 0.73 308 18:58 23.12.2019
1847 Clear 10 1013 32 16093 0.73 308 18:58 23.12.2019
1848 Clouds 9 1014 43 16093 1.5 90 18:39 23.12.2019
1849 Clouds 9 1013 46 16093 2.6 190 18:20 23.12.2019
1850 Clouds 8 1014 49 16093 1.5 50 17:58 23.12.2019
1851 Clouds 8 1014 52 16093 0.73 308 17:39 23.12.2019
1852 Clouds 7 1013 49 16093 1.5 230 17:19 23.12.2019
1853 Clouds 7 1013 56 16093 2.6 10 16:57 23.12.2019
1854 Clouds 6 1013 60 16093 0.8 325 16:39 23.12.2019
1855 Clouds 6 1012 49 16093 2.1 200 16:18 23.12.2019
1856 Clouds 6 1013 47 16093 0.8 325 15:56 23.12.2019
1857 Clouds 6 1013 47 16093 0.8 325 15:36 23.12.2019
1858 Clouds 6 1013 49 16093 1.5 210 15:18 23.12.2019
1859 Clouds 6 1013 47 16093 0.8 325 14:56 23.12.2019
1860 Clouds 7 1013 60 16093 0.8 325 14:37 23.12.2019
1861 Clouds 7 1012 49 16093 0.76 302 14:18 23.12.2019
1862 Clouds 7 1013 56 16093 1.5 310 13:55 23.12.2019
1863 Clouds 7 1013 45 16093 3.6 20 13:37 23.12.2019
1864 Clouds 7 1012 52 16093 2.1 220 13:19 23.12.2019
1865 Clear 7 1013 45 16093 4.1 30 12:41 23.12.2019
1866 Clouds 7 1013 52 16093 2.1 200 12:21 23.12.2019
1867 Clear 7 1013 52 16093 4.6 40 11:57 23.12.2019
1868 Clear 7 1013 45 16093 3.1 50 11:38 23.12.2019
1869 Clouds 7 1013 52 16093 3.6 280 11:20 23.12.2019
1870 Clear 7 1013 45 16093 3.1 20 10:55 23.12.2019
1871 Clear 7 1014 45 16093 1.5 30 10:37 23.12.2019
1872 Clouds 7 1013 49 16093 2.1 280 10:18 23.12.2019
1873 Clear 8 1014 45 16093 2.1 20 09:54 23.12.2019
1874 Clear 8 1014 42 16093 3.1 50 09:36 23.12.2019
1875 Clouds 7 1013 49 16093 0.54 97 09:18 23.12.2019
1876 Clear 7 1014 48 16093 0.54 97 08:41 23.12.2019
1877 Clouds 7 1014 49 16093 0.31 346 08:22 23.12.2019
1878 Clear 8 1014 37 16093 0.31 346 07:55 23.12.2019
1879 Clear 8 1014 37 16093 3.6 90 07:37 23.12.2019
1880 Clouds 8 1014 49 16093 2.1 20 07:18 23.12.2019
1881 Clear 7 1014 37 16093 3.1 70 06:32 23.12.2019
1882 Clear 7 1015 39 16093 2.1 60 05:56 23.12.2019
1883 Clouds 7 1014 45 16093 0.31 346 05:33 23.12.2019
1884 Clear 8 1015 45 16093 1.5 20 04:40 23.12.2019
1885 Clear 8 1015 39 16093 1.5 70 03:58 23.12.2019
1886 Clear 9 1014 39 16093 3.1 40 02:46 23.12.2019
1887 Clouds 9 1014 40 16093 0.78 352 02:19 23.12.2019
1888 Clear 10 1015 34 16093 0.78 352 01:46 23.12.2019
1889 Clear 10 1015 34 16093 1.05 6 01:27 23.12.2019
1890 Clear 11 1015 40 16093 3.1 60 00:46 23.12.2019
1891 Clear 11 1015 40 16093 3.1 60 00:25 23.12.2019
1892 Clear 11 1015 53 16093 1.05 6 23:56 22.12.2019
1893 Clear 11 1015 38 16093 1.5 80 23:37 22.12.2019
1894 Clouds 11 1015 34 16093 1.52 28 23:18 22.12.2019
1895 Clear 11 1015 30 16093 1.52 28 22:41 22.12.2019
1896 Clouds 11 1015 34 16093 1.52 28 22:22 22.12.2019
1897 Clear 11 1015 30 16093 1.52 28 21:59 22.12.2019
1898 Clouds 11 1016 40 16093 1.52 28 21:40 22.12.2019
1899 Clouds 11 1016 40 16093 1.52 28 21:22 22.12.2019
1900 Clouds 11 1014 45 16093 4.1 220 20:59 22.12.2019
1901 Clouds 10 1017 43 16093 1.52 28 20:40 22.12.2019
1902 Clouds 10 1017 43 16093 1.33 307 20:19 22.12.2019
1903 Clear 9 1018 65 16093 1.33 307 19:57 22.12.2019
1904 Clear 9 1018 65 16093 1.33 307 19:39 22.12.2019
1905 Clear 9 1019 49 16093 1.5 150 19:20 22.12.2019
1906 Clear 8 1019 34 16093 1.33 307 18:43 22.12.2019
1907 Clear 8 1019 34 16093 1.33 307 18:25 22.12.2019
1908 Clear 7 1019 56 16093 1.33 307 17:57 22.12.2019
1909 Clear 7 1019 56 16093 1.33 307 17:57 22.12.2019
1910 Clear 7 1019 34 16093 1.33 307 17:39 22.12.2019
1911 Clear 6 1019 52 16093 3.1 160 17:19 22.12.2019
1912 Clear 6 1019 65 16093 1.5 70 16:58 22.12.2019
1913 Clear 6 1019 74 16093 0.54 10 16:40 22.12.2019
1914 Clear 6 1019 74 16093 0.54 10 16:40 22.12.2019
1915 Clouds 6 1018 48 16093 2.6 210 16:22 22.12.2019
1916 Clear 5 1019 74 16093 0.54 10 15:57 22.12.2019
1917 Clear 6 1019 69 16093 0.54 10 15:38 22.12.2019
1918 Clouds 6 1018 48 16093 2.6 220 15:20 22.12.2019
1919 Clear 6 1019 69 16093 0.54 10 14:55 22.12.2019
1920 Clear 6 1018 74 16093 1.5 320 14:37 22.12.2019
1921 Clouds 6 1018 48 16093 2.1 220 14:18 22.12.2019
1922 Clouds 6 1018 48 16093 2.1 220 14:18 22.12.2019
1923 Clear 6 1018 69 16093 1.14 314 13:55 22.12.2019
1924 Clear 6 1018 69 16093 1.14 314 13:37 22.12.2019
1925 Clouds 6 1018 48 16093 2.6 220 13:19 22.12.2019
1926 Clear 6 1019 69 16093 0.86 315 12:56 22.12.2019
1927 Clear 6 1019 69 16093 0.86 315 12:37 22.12.2019
1928 Clouds 6 1019 48 16093 2.6 220 12:18 22.12.2019
1929 Clear 6 1019 65 16093 0.86 315 11:56 22.12.2019
1930 Clear 6 1020 69 16093 0.86 315 11:38 22.12.2019
1931 Clouds 6 1019 48 16093 3.1 200 11:18 22.12.2019
1932 Clear 6 1020 65 16093 0.81 321 10:55 22.12.2019
1933 Clear 6 1020 65 16093 0.81 321 10:36 22.12.2019
1934 Clouds 6 1020 48 16093 2.1 220 10:18 22.12.2019
1935 Clear 6 1020 65 16093 0.81 321 09:56 22.12.2019
1936 Clear 6 1021 65 16093 0.81 321 09:37 22.12.2019
1937 Clear 6 1021 65 16093 0.81 321 09:37 22.12.2019
1938 Clouds 6 1020 45 16093 2.6 200 09:19 22.12.2019
1939 Clear 7 1021 60 16093 0.81 321 08:39 22.12.2019
1940 Clouds 7 1021 45 16093 2.6 210 08:21 22.12.2019
1941 Clear 7 1022 60 16093 0.42 310 07:40 22.12.2019
1942 Clouds 7 1022 45 16093 2.6 230 07:21 22.12.2019
1943 Clear 7 1022 60 16093 0.42 310 06:42 22.12.2019
1944 Clouds 7 1022 49 16093 2.1 210 06:21 22.12.2019
1945 Clear 7 1022 56 16093 0.42 310 05:29 22.12.2019
1946 Clear 7 1023 56 16093 1.02 317 04:45 22.12.2019
1947 Clouds 8 1022 43 16093 1.5 220 04:22 22.12.2019
1948 Clear 9 1022 41 16093 2.6 20 02:43 22.12.2019
1949 Clear 9 1022 41 16093 2.6 20 02:43 22.12.2019
1950 Clear 9 1022 41 16093 2.6 20 02:43 22.12.2019
1951 Clear 10 1022 37 16093 2.6 40 01:57 22.12.2019
1952 Clear 11 1023 43 16093 0.99 345 01:31 22.12.2019
1953 Clear 12 1022 32 16093 0.99 345 00:48 22.12.2019
1954 Clear 12 1022 32 16093 0.99 345 00:28 22.12.2019
1955 Clear 13 1023 32 16093 2.1 20 23:57 21.12.2019
1956 Clear 13 1023 32 16093 2.1 20 23:57 21.12.2019
1957 Clear 13 1023 30 16093 2.1 80 23:39 21.12.2019
1958 Clouds 13 1022 26 16093 1.23 5 23:20 21.12.2019
1959 Clear 12 1023 34 16093 1.23 5 22:46 21.12.2019
1960 Clear 12 1023 34 16093 1.23 5 22:46 21.12.2019
1961 Clouds 12 1023 30 16093 1.5 320 22:20 21.12.2019
1962 Clear 12 1023 34 16093 1.23 5 21:58 21.12.2019
1963 Clear 12 1024 37 16093 1.23 5 21:39 21.12.2019
1964 Clouds 12 1024 30 16093 1.5 0 21:20 21.12.2019
1965 Clear 11 1025 37 16093 1.23 5 20:59 21.12.2019
1966 Clear 11 1026 39 16093 1.23 5 20:41 21.12.2019
1967 Clouds 11 1026 34 16093 1.23 333 20:22 21.12.2019
1968 Clear 10 1026 45 16093 1.23 333 19:58 21.12.2019
1969 Clear 10 1027 56 16093 1.23 333 19:40 21.12.2019
1970 Clear 9 1027 34 16093 1.23 333 19:20 21.12.2019
1971 Clear 9 1027 52 16093 1.23 333 18:56 21.12.2019
1972 Clear 9 1027 60 16093 1.23 333 18:37 21.12.2019
1973 Clouds 9 1027 42 16093 1.23 333 18:19 21.12.2019
1974 Clear 7 1027 56 16093 1.23 333 17:55 21.12.2019
1975 Clear 7 1027 60 16093 1.23 333 17:36 21.12.2019
1976 Clouds 6 1027 48 16093 1.5 280 17:18 21.12.2019
1977 Clouds 6 1027 48 16093 1.5 280 17:18 21.12.2019
1978 Clouds 6 1027 48 16093 1.5 280 17:18 21.12.2019
1979 Clear 4 1027 69 16093 0.56 322 16:41 21.12.2019
1980 Clouds 4 1026 56 16093 2.1 220 16:19 21.12.2019
1981 Clear 4 1027 60 16093 1.5 270 15:57 21.12.2019
1982 Clear 4 1027 69 16093 0.56 322 15:39 21.12.2019
1983 Clouds 4 1026 56 16093 1.5 210 15:20 21.12.2019
1984 Clear 3 1026 69 16093 1.5 10 14:57 21.12.2019
1985 Clear 3 1026 69 16093 0.56 322 14:38 21.12.2019
1986 Clouds 3 1026 56 16093 2.6 220 14:19 21.12.2019
1987 Clear 4 1026 64 16093 0.69 348 13:56 21.12.2019
1988 Clear 4 1026 60 16093 0.69 348 13:38 21.12.2019
1989 Clouds 4 1026 52 16093 0.63 342 13:18 21.12.2019
1990 Clear 4 1026 69 16093 1.5 30 12:55 21.12.2019
1991 Clear 4 1027 69 16093 0.63 342 12:37 21.12.2019
1992 Clouds 5 1026 52 16093 1.5 240 12:18 21.12.2019
1993 Clear 5 1027 48 16093 0.63 342 11:43 21.12.2019
1994 Clear 5 1027 48 16093 0.63 342 11:25 21.12.2019
1995 Clouds 5 1027 56 16093 0.69 317 10:56 21.12.2019
1996 Clear 5 1027 64 16093 0.69 317 10:38 21.12.2019
1997 Clouds 5 1026 48 16093 2.1 220 10:19 21.12.2019
1998 Clear 5 1027 52 16093 0.69 317 09:43 21.12.2019
1999 Clouds 5 1027 48 16093 1.5 210 09:21 21.12.2019
2000 Clear 6 1027 52 16093 0.69 317 08:57 21.12.2019
2001 Clear 6 1027 60 16093 0.69 317 08:37 21.12.2019
2002 Clouds 6 1027 45 16093 1.5 240 08:19 21.12.2019
2003 Clear 6 1028 60 16093 0.51 297 07:44 21.12.2019
2004 Clouds 6 1027 45 16093 2.6 210 07:22 21.12.2019
2005 Clear 6 1028 48 16093 1.5 140 06:44 21.12.2019
2006 Clear 6 1028 48 16093 1.5 140 06:25 21.12.2019
2007 Clear 7 1027 42 16093 0.51 297 05:49 21.12.2019
2008 Clear 7 1027 42 16093 2.6 310 04:58 21.12.2019
2009 Clear 8 1027 39 16093 2.6 280 03:57 21.12.2019
2010 Clear 10 1027 42 16093 2.6 10 02:52 21.12.2019
2011 Clear 10 1027 39 16093 2.6 340 01:59 21.12.2019
2012 Clear 11 1027 40 16093 2.1 360 01:28 21.12.2019
2013 Clear 12 1027 30 16093 2.1 60 00:53 21.12.2019
2014 Clear 13 1027 30 16093 2.1 60 00:33 21.12.2019
2015 Clear 13 1027 28 16093 3.6 310 23:59 20.12.2019
2016 Clear 13 1027 30 16093 2.6 40 23:38 20.12.2019
2017 Clouds 13 1026 22 16093 1.5 0 23:18 20.12.2019
2018 Clouds 13 1027 26 16093 1.5 110 22:40 20.12.2019
2019 Clouds 13 1027 26 16093 1.5 110 22:21 20.12.2019
2020 Clear 12 1027 28 16093 1.94 8 21:58 20.12.2019
2021 Clear 13 1028 30 16093 2.1 0 21:39 20.12.2019
2022 Clouds 12 1028 27 16093 1.5 0 21:20 20.12.2019
2023 Clear 11 1029 34 16093 1.94 8 20:41 20.12.2019
2024 Clouds 11 1029 29 16093 1.5 110 20:21 20.12.2019
2025 Clear 10 1029 39 16093 1.63 327 19:59 20.12.2019
2026 Clear 9 1030 52 16093 1.63 327 19:40 20.12.2019
2027 Clouds 8 1030 29 16093 1.63 327 19:20 20.12.2019
2028 Clear 8 1030 56 16093 1.63 327 18:54 20.12.2019
2029 Clear 9 1030 48 16093 1.63 327 18:36 20.12.2019
2030 Clear 9 1030 48 16093 1.63 327 18:36 20.12.2019
2031 Clouds 8 1029 34 16093 1.63 327 18:18 20.12.2019
2032 Clouds 5 1029 41 16093 1.63 327 17:42 20.12.2019
2033 Clouds 4 1029 41 16093 0.79 339 17:21 20.12.2019
2034 Clear 3 1029 48 16093 2.6 340 16:59 20.12.2019
2035 Clear 3 1029 48 16093 2.6 340 16:39 20.12.2019
2036 Clouds 1 1028 48 16093 2.1 210 16:20 20.12.2019
2037 Clear 2 1028 46 16093 0.79 339 15:57 20.12.2019
2038 Clear 1 1028 46 16093 0.79 339 15:38 20.12.2019
2039 Clouds 2 1028 48 16093 0.79 339 15:19 20.12.2019
2040 Clear 2 1028 46 16093 0.79 339 14:55 20.12.2019
2041 Clouds 2 1027 51 16093 2.1 290 14:37 20.12.2019
2042 Clouds 2 1027 51 16093 2.1 290 14:18 20.12.2019
2043 Clear 2 1027 59 16093 0.46 334 13:41 20.12.2019
2044 Clouds 2 1027 48 16093 2.6 200 13:20 20.12.2019
2045 Clear 2 1027 59 16093 0.68 340 12:58 20.12.2019
2046 Clouds 2 1027 51 16093 2.6 230 12:38 20.12.2019
2047 Clouds 2 1027 51 16093 2.6 230 12:19 20.12.2019
2048 Clear 2 1027 48 16093 2.6 140 11:59 20.12.2019
2049 Clear 2 1027 48 16093 2.6 140 11:59 20.12.2019
2050 Clear 3 1027 48 16093 2.6 140 11:39 20.12.2019
2051 Clouds 3 1027 48 16093 2.6 200 11:19 20.12.2019
2052 Clear 3 1027 44 16093 1.08 316 10:58 20.12.2019
2053 Clear 3 1027 44 16093 1.08 316 10:39 20.12.2019
2054 Clouds 3 1027 41 16093 2.1 290 10:20 20.12.2019
2055 Clear 3 1027 55 16093 1.08 316 09:54 20.12.2019
2056 Clouds 3 1026 48 16093 1.08 316 09:36 20.12.2019
2057 Clouds 3 1026 48 16093 1.08 316 09:18 20.12.2019
2058 Clear 3 1026 38 16093 3.1 210 08:42 20.12.2019
2059 Clear 4 1026 38 16093 3.1 210 08:22 20.12.2019
2060 Clear 4 1026 39 16093 0.16 24 07:58 20.12.2019
2061 Clear 4 1026 39 16093 0.16 24 07:39 20.12.2019
2062 Clear 4 1026 41 16093 2.1 210 07:18 20.12.2019
2063 Clear 5 1026 55 16093 0.16 24 06:49 20.12.2019
2064 Clear 5 1025 33 16093 2.1 250 06:30 20.12.2019
2065 Clear 5 1025 52 16093 1.5 350 05:52 20.12.2019
2066 Clear 5 1024 33 16093 2.6 260 05:34 20.12.2019
2067 Clear 7 1024 36 16093 3.1 30 03:57 20.12.2019
2068 Clouds 7 1023 23 16093 0.61 314 03:29 20.12.2019
2069 Clear 9 1023 25 16093 3.1 350 02:41 20.12.2019
2070 Clear 10 1022 25 16093 2.6 330 01:44 20.12.2019
2071 Clear 10 1022 25 16093 2.6 330 01:44 20.12.2019
2072 Clouds 11 1021 17 16093 0.23 352 01:18 20.12.2019
2073 Clear 12 1022 25 16093 0.4 44 00:41 20.12.2019
2074 Clear 12 1021 16 16093 0.4 44 00:19 20.12.2019
2075 Clear 12 1021 19 16093 4.1 350 23:42 19.12.2019
2076 Clear 12 1021 17 16093 1.5 290 23:23 19.12.2019
2077 Clear 12 1021 25 16093 1.31 358 22:56 19.12.2019
2078 Clear 11 1021 19 16093 1.31 358 22:36 19.12.2019
2079 Clear 11 1021 19 16093 1.31 358 22:18 19.12.2019
2080 Clear 11 1021 19 16093 1.31 358 22:18 19.12.2019
2081 Clear 11 1021 23 16093 2.1 40 21:42 19.12.2019
2082 Clear 11 1021 20 16093 1.31 358 21:20 19.12.2019
2083 Rain 10 1022 29 16093 1.5 0 20:58 19.12.2019
2084 Rain 10 1022 29 16093 1.5 0 20:38 19.12.2019
2085 Rain 9 1022 23 16093 1.5 20 20:20 19.12.2019
2086 Rain 9 1022 23 16093 1.5 20 20:20 19.12.2019
2087 Rain 7 1023 29 16093 1.23 325 19:59 19.12.2019
2088 Rain 8 1023 29 16093 1.23 325 19:40 19.12.2019
2089 Rain 8 1023 26 14484 2.6 200 19:20 19.12.2019
2090 Clouds 7 1023 26 16093 3.6 210 18:59 19.12.2019
2091 Clouds 7 1023 26 16093 3.6 210 18:40 19.12.2019
2092 Clouds 7 1023 26 16093 3.6 210 18:40 19.12.2019
2093 Clear 6 1022 33 16093 1.5 190 18:20 19.12.2019
2094 Clear 4 1022 47 16093 1.23 325 17:57 19.12.2019
2095 Clear 4 1021 38 16093 1.5 280 17:38 19.12.2019
2096 Clear 3 1021 38 16093 1.5 280 17:18 19.12.2019
2097 Clear 2 1021 59 16093 0.73 328 16:57 19.12.2019
2098 Clear 2 1020 43 16093 2.1 210 16:38 19.12.2019
2099 Clear 1 1020 43 16093 2.1 210 16:20 19.12.2019
2100 Clear 1 1021 63 16093 0.73 328 15:58 19.12.2019
2101 Clear 1 1021 63 16093 0.73 328 15:38 19.12.2019
2102 Clear 1 1021 63 16093 0.73 328 15:38 19.12.2019
2103 Clear 1 1020 43 16093 2.6 210 15:19 19.12.2019
2104 Clear 1 1020 50 16093 0.73 328 14:57 19.12.2019
2105 Clear 1 1020 50 16093 0.73 328 14:39 19.12.2019
2106 Clear 1 1019 43 16093 3.1 220 14:18 19.12.2019
2107 Clear 1 1019 43 16093 0.49 261 13:39 19.12.2019
2108 Clear 1 1019 43 16093 1.5 210 13:20 19.12.2019
2109 Clear 1 1019 50 16093 1.5 310 12:58 19.12.2019
2110 Clear 2 1019 50 16093 1.5 310 12:40 19.12.2019
2111 Clear 2 1019 40 16093 2.6 210 12:19 19.12.2019
2112 Clouds 2 1019 35 16093 0.6 282 11:59 19.12.2019
2113 Clouds 2 1019 35 16093 0.6 282 11:41 19.12.2019
2114 Clouds 2 1019 38 16093 1.5 260 11:19 19.12.2019
2115 Clear 2 1019 55 16093 1.12 261 10:59 19.12.2019
2116 Clear 2 1019 47 16093 1.5 280 10:38 19.12.2019
2117 Clear 2 1019 47 16093 1.5 280 10:38 19.12.2019
2118 Clear 2 1019 47 16093 1.5 280 10:20 19.12.2019
2119 Clear 3 1018 34 16093 1.12 261 09:56 19.12.2019
2120 Clear 3 1018 51 16093 1.12 261 09:37 19.12.2019
2121 Clear 3 1018 51 16093 1.12 261 09:19 19.12.2019
2122 Clear 3 1018 59 16093 1.12 261 08:55 19.12.2019
2123 Clear 3 1018 51 16093 1.12 261 08:37 19.12.2019
2124 Clear 4 1018 51 16093 1.07 285 08:18 19.12.2019
2125 Clear 4 1018 47 16093 2.1 240 07:41 19.12.2019
2126 Clear 4 1018 47 16093 2.1 240 07:41 19.12.2019
2127 Clear 4 1018 51 16093 1.5 300 07:23 19.12.2019
2128 Clear 5 1018 48 16093 0.57 295 06:58 19.12.2019
2129 Clear 5 1018 48 16093 0.57 295 06:39 19.12.2019
2130 Clouds 5 1018 44 16093 0.57 295 06:21 19.12.2019
2131 Clouds 5 1019 48 16093 0.57 295 05:42 19.12.2019
2132 Clouds 6 1019 52 16093 1.42 318 05:19 19.12.2019
2133 Clouds 6 1018 38 16093 1.42 318 03:51 19.12.2019
2134 Clear 7 1018 48 16093 2.1 300 02:28 19.12.2019
2135 Clear 7 1017 33 16093 1.12 345 01:24 19.12.2019
2136 Clear 8 1018 31 16093 1.12 345 00:57 19.12.2019
2137 Clear 8 1018 31 16093 1.12 345 00:38 19.12.2019
2138 Clear 8 1018 31 16093 1.12 345 00:19 19.12.2019
2139 Clear 8 1018 31 16093 1.12 345 00:19 19.12.2019
2140 Clear 8 1018 28 16093 1.12 345 23:44 18.12.2019
2141 Clear 9 1018 28 16093 1.37 350 23:19 18.12.2019
2142 Clear 9 1018 30 16093 1.37 350 22:56 18.12.2019
2143 Clear 8 1019 33 16093 1.37 350 22:38 18.12.2019
2144 Clear 8 1019 33 16093 1.37 350 22:20 18.12.2019
2145 Clear 8 1019 33 16093 1.37 350 21:58 18.12.2019
2146 Clear 8 1019 33 16093 1.37 350 21:58 18.12.2019
2147 Clear 8 1020 33 16093 2.1 250 21:39 18.12.2019
2148 Clear 8 1020 33 16093 2.1 250 21:20 18.12.2019
2149 Clear 8 1020 33 16093 1.37 350 20:56 18.12.2019
2150 Clear 8 1021 35 16093 1.37 350 20:38 18.12.2019
2151 Clear 7 1021 35 16093 1.32 338 20:19 18.12.2019
2152 Clear 7 1022 38 16093 1.32 338 19:56 18.12.2019
2153 Clear 7 1022 44 16093 1.32 338 19:37 18.12.2019
2154 Clear 6 1022 44 16093 1.32 338 19:18 18.12.2019
2155 Clouds 6 1022 33 16093 1.32 338 18:45 18.12.2019
2156 Clouds 6 1022 33 16093 1.32 338 18:25 18.12.2019
2157 Clear 4 1022 55 16093 1.32 338 17:58 18.12.2019
2158 Clear 4 1023 47 11265 1.5 260 17:39 18.12.2019
2159 Clear 4 1023 47 11265 1.5 260 17:39 18.12.2019
2160 Clear 3 1023 47 11265 1.5 260 17:20 18.12.2019
2161 Clear 2 1023 51 16093 0.96 334 16:58 18.12.2019
2162 Clear 2 1023 50 16093 0.96 334 16:40 18.12.2019
2163 Clear 2 1023 50 16093 0.96 334 16:40 18.12.2019
2164 Clouds 1 1022 43 16093 2.1 210 16:21 18.12.2019
2165 Clear 1 1023 39 16093 0.96 334 15:56 18.12.2019
2166 Clear 1 1023 63 16093 0.96 334 15:38 18.12.2019
2167 Clouds 1 1022 43 16093 2.6 200 15:20 18.12.2019
2168 Clear 2 1023 47 16093 0.96 334 14:43 18.12.2019
2169 Clouds 1 1022 43 16093 1.5 240 14:22 18.12.2019
2170 Clear 2 1023 47 16093 2.6 280 13:58 18.12.2019
2171 Clear 2 1023 34 16093 1.49 349 13:39 18.12.2019
2172 Clouds 2 1022 40 16093 2.6 250 13:21 18.12.2019
2173 Clear 2 1023 43 16093 1.5 0 12:59 18.12.2019
2174 Clear 2 1023 43 16093 1.5 0 12:40 18.12.2019
2175 Clouds 2 1023 44 16093 2.1 210 12:20 18.12.2019
2176 Clear 3 1024 37 16093 1.3 354 11:56 18.12.2019
2177 Clear 3 1024 37 16093 2.6 300 11:38 18.12.2019
2178 Clouds 4 1024 28 16093 2.6 250 11:19 18.12.2019
2179 Clear 4 1025 35 16093 2.1 320 10:57 18.12.2019
2180 Clear 4 1025 38 16093 0.98 58 10:39 18.12.2019
2181 Clouds 4 1025 30 16093 0.98 58 10:20 18.12.2019
2182 Clear 3 1026 38 16093 2.6 350 09:52 18.12.2019
2183 Clouds 3 1025 26 16093 0.98 58 09:19 18.12.2019
2184 Clear 3 1026 44 16093 0.98 58 08:42 18.12.2019
2185 Clear 3 1026 55 16093 0.84 331 08:24 18.12.2019
2186 Clear 3 1027 40 16093 1.17 315 07:55 18.12.2019
2187 Clear 3 1027 32 16093 1.17 315 07:37 18.12.2019
2188 Clear 3 1027 51 16093 2.6 160 07:19 18.12.2019
2189 Clear 3 1027 35 16093 1.5 260 06:50 18.12.2019
2190 Clouds 3 1027 33 16093 1.17 315 06:22 18.12.2019
2191 Clear 3 1027 37 16093 1.5 280 05:27 18.12.2019
2192 Clear 4 1028 35 16093 2.6 360 03:31 18.12.2019
2193 Clear 5 1028 30 16093 2.6 300 02:41 18.12.2019
2194 Clouds 5 1028 24 16093 2.6 20 02:23 18.12.2019
2195 Clear 7 1029 24 16093 2.1 350 01:42 18.12.2019
2196 Clear 7 1029 24 16093 2.1 350 01:24 18.12.2019
2197 Clear 8 1029 18 16093 3.6 30 00:42 18.12.2019
2198 Clouds 8 1029 19 16093 4.1 30 00:23 18.12.2019
2199 Clear 8 1029 18 16093 4.1 30 23:58 17.12.2019
2200 Clear 8 1030 18 16093 4.6 20 23:39 17.12.2019
2201 Clouds 8 1030 16 16093 2.6 20 23:20 17.12.2019
2202 Clear 8 1030 18 16093 4.6 40 22:56 17.12.2019
2203 Clear 8 1030 19 16093 4.6 20 22:38 17.12.2019
2204 Clouds 8 1030 18 16093 2.6 60 22:19 17.12.2019
2205 Clear 8 1031 18 16093 3.6 40 21:55 17.12.2019
2206 Clear 8 1032 20 16093 2.6 40 21:37 17.12.2019
2207 Clear 8 1033 22 16093 2.6 30 21:19 17.12.2019
2208 Clear 7 1032 20 16093 3.6 330 20:57 17.12.2019
2209 Clear 7 1033 24 16093 2.1 0 20:38 17.12.2019
2210 Clouds 6 1034 24 16093 2.6 60 20:18 17.12.2019
2211 Clouds 6 1034 24 16093 2.6 60 20:18 17.12.2019
2212 Clear 6 1034 26 16093 4.1 270 19:56 17.12.2019
2213 Clear 6 1035 28 16093 3.6 310 19:38 17.12.2019
2214 Clouds 5 1035 28 16093 1.97 25 19:18 17.12.2019
2215 Clouds 5 1035 28 16093 1.97 25 19:18 17.12.2019
2216 Clear 5 1035 30 16093 4.6 320 18:54 17.12.2019
2217 Clear 5 1035 30 16093 4.6 320 18:36 17.12.2019
2218 Clouds 4 1034 32 16093 1.97 25 18:18 17.12.2019
2219 Clear 3 1034 29 16093 4.1 350 17:42 17.12.2019
2220 Clear 1 1034 43 16093 1.5 270 17:20 17.12.2019
2221 Clear 0 1034 32 16093 5.1 350 16:56 17.12.2019
2222 Clear 0 1034 32 16093 5.1 350 16:56 17.12.2019
2223 Clear 0 1034 43 16093 4.1 320 16:38 17.12.2019
2224 Clouds -1 1034 50 16093 1.5 290 16:19 17.12.2019
2225 Clear -1 1034 40 16093 4.1 330 15:58 17.12.2019
2226 Clear -1 1034 37 16093 4.1 350 15:37 17.12.2019
2227 Clouds -1 1034 47 16093 1.5 230 15:19 17.12.2019
2228 Clear 0 1034 40 16093 3.6 310 14:55 17.12.2019
2229 Clear 0 1033 40 16093 3.1 310 14:37 17.12.2019
2230 Clouds 0 1033 50 16093 2.1 240 14:18 17.12.2019
2231 Clouds 0 1033 50 16093 2.1 240 14:18 17.12.2019
2232 Clear 0 1033 37 16093 2.6 300 13:55 17.12.2019
2233 Clear 0 1033 34 16093 3.1 20 13:37 17.12.2019
2234 Clouds 0 1033 43 16093 2.1 230 13:18 17.12.2019
2235 Clear 1 1033 32 16093 3.6 30 12:41 17.12.2019
2236 Clear 1 1033 34 16093 3.04 16 12:19 17.12.2019
2237 Clear 1 1033 32 16093 4.1 10 11:59 17.12.2019
2238 Clear 1 1033 32 16093 4.1 10 11:59 17.12.2019
2239 Clear 1 1033 32 16093 5.7 360 11:38 17.12.2019
2240 Clear 1 1034 43 16093 2.6 50 11:19 17.12.2019
2241 Clear 2 1033 32 16093 4.1 20 10:59 17.12.2019
2242 Clear 2 1033 32 16093 4.1 20 10:41 17.12.2019
2243 Clear 2 1033 32 16093 4.1 20 10:41 17.12.2019
2244 Clear 2 1033 38 16093 3.51 11 10:22 17.12.2019
2245 Clear 2 1033 37 16093 5.1 360 09:59 17.12.2019
2246 Clear 2 1033 34 16093 3.6 350 09:41 17.12.2019
2247 Clear 2 1033 43 16093 3.6 70 09:20 17.12.2019
2248 Clear 2 1033 34 16093 4.1 350 08:56 17.12.2019
2249 Clear 2 1033 34 16093 4.1 350 08:56 17.12.2019
2250 Clear 2 1033 35 16093 5.1 350 08:38 17.12.2019
2251 Clear 2 1033 38 16093 3.1 40 08:20 17.12.2019
2252 Clear 2 1033 30 16093 4.6 10 07:54 17.12.2019
2253 Clear 2 1033 30 16093 4.6 10 07:36 17.12.2019
2254 Clear 2 1033 74 16093 1.5 140 07:18 17.12.2019
2255 Clear 3 1033 30 16093 5.1 10 06:35 17.12.2019
2256 Clear 3 1032 26 16093 5.7 10 05:54 17.12.2019
2257 Clear 4 1032 26 16093 5.7 10 05:36 17.12.2019
2258 Clear 4 1031 28 16093 4.1 10 04:31 17.12.2019
2259 Clear 6 1030 33 16093 3.1 20 02:34 17.12.2019
2260 Clear 7 1030 28 16093 2.6 20 01:55 17.12.2019
2261 Clear 8 1029 24 16093 4.6 10 00:59 17.12.2019
2262 Clear 8 1029 23 16093 6.7 30 00:38 17.12.2019
2263 Clear 8 1029 21 16093 5.7 70 00:19 17.12.2019
2264 Clear 9 1028 24 16093 6.2 40 23:42 16.12.2019
2265 Clear 9 1029 26 16093 6.7 50 23:19 16.12.2019
2266 Clear 9 1029 26 16093 6.7 50 23:19 16.12.2019
2267 Clear 9 1029 26 16093 6.7 50 23:19 16.12.2019
2268 Clear 9 1029 26 16093 6.7 50 23:19 16.12.2019
2269 Clear 9 1029 24 16093 6.2 20 22:56 16.12.2019
2270 Clear 9 1029 24 16093 6.2 20 22:37 16.12.2019
2271 Clear 8 1028 21 16093 7.7 60 22:19 16.12.2019
2272 Clear 8 1028 21 16093 7.7 60 22:19 16.12.2019
2273 Clear 8 1028 21 16093 7.7 60 22:19 16.12.2019
2274 Clear 9 1029 23 16093 7.7 30 21:55 16.12.2019
2275 Clear 9 1029 23 16093 7.7 30 21:55 16.12.2019
2276 Clear 9 1029 24 16093 6.7 20 21:37 16.12.2019
2277 Clouds 8 1029 23 16093 7.2 50 21:19 16.12.2019
2278 Clear 9 1029 23 16093 6.7 30 20:57 16.12.2019
2279 Clear 8 1029 26 16093 6.2 360 20:37 16.12.2019
2280 Clouds 8 1030 23 16093 8.2 40 20:19 16.12.2019
2281 Clear 8 1030 26 16093 6.7 360 19:56 16.12.2019
2282 Clear 8 1030 26 16093 6.7 360 19:56 16.12.2019
2283 Clear 8 1030 26 16093 6.7 10 19:37 16.12.2019
2284 Clouds 7 1030 31 16093 4.6 20 19:18 16.12.2019
2285 Clear 7 1030 28 16093 7.2 360 18:56 16.12.2019
2286 Clear 7 1030 28 16093 7.2 360 18:37 16.12.2019
2287 Clear 6 1030 38 16093 4.1 40 18:19 16.12.2019
2288 Clear 6 1030 28 16093 7.2 360 17:57 16.12.2019
2289 Clear 5 1029 33 16093 7.2 360 17:38 16.12.2019
2290 Clear 5 1029 44 16093 3.1 50 17:19 16.12.2019
2291 Clear 4 1028 32 16093 4.6 20 16:55 16.12.2019
2292 Clear 4 1028 32 16093 4.6 20 16:37 16.12.2019
2293 Clouds 3 1028 44 16093 2.1 130 16:19 16.12.2019
2294 Clear 3 1028 32 16093 5.7 10 15:57 16.12.2019
2295 Clear 3 1027 35 16093 5.7 20 15:38 16.12.2019
2296 Clouds 3 1027 44 16093 2.6 40 15:20 16.12.2019
2297 Clear 4 1026 30 16093 5.7 30 14:55 16.12.2019
2298 Clear 4 1026 30 16093 5.7 30 14:36 16.12.2019
2299 Clouds 4 1025 48 16093 1.5 70 14:18 16.12.2019
2300 Clear 4 1025 30 16093 5.1 20 13:55 16.12.2019
2301 Clear 4 1025 33 16093 5.1 30 13:36 16.12.2019
2302 Clouds 5 1025 38 16093 3.1 20 13:18 16.12.2019
2303 Clear 5 1024 33 16093 6.7 20 12:54 16.12.2019
2304 Clear 5 1024 33 16093 6.7 20 12:36 16.12.2019
2305 Clear 5 1025 44 16093 2.6 50 12:18 16.12.2019
2306 Clear 5 1024 35 16093 5.7 10 11:55 16.12.2019
2307 Clear 5 1024 35 16093 5.7 10 11:37 16.12.2019
2308 Clear 5 1024 41 16093 3.6 50 11:19 16.12.2019
2309 Clear 5 1023 35 16093 6.7 350 10:40 16.12.2019
2310 Clear 6 1023 39 16093 5.1 10 10:21 16.12.2019
2311 Clear 5 1023 33 16093 5.1 350 09:56 16.12.2019
2312 Clear 6 1022 30 16093 5.1 10 09:37 16.12.2019
2313 Clear 6 1022 39 16093 4.6 60 09:19 16.12.2019
2314 Clear 6 1022 39 16093 6.7 360 08:39 16.12.2019
2315 Clear 7 1021 36 16093 3.6 40 08:19 16.12.2019
2316 Clear 7 1021 36 16093 3.6 40 08:19 16.12.2019
2317 Clear 7 1021 52 16093 3.1 350 07:51 16.12.2019
2318 Clear 7 1021 52 16093 3.1 350 07:31 16.12.2019
2319 Clear 7 1021 52 16093 3.1 350 07:31 16.12.2019
2320 Clear 7 1020 52 16093 4.6 330 06:48 16.12.2019
2321 Clouds 7 1020 39 16093 3.6 60 06:27 16.12.2019
2322 Clear 8 1019 45 16093 4.1 30 05:58 16.12.2019
2323 Clear 8 1019 45 16093 4.1 30 05:39 16.12.2019
2324 Clouds 8 1019 42 16093 3.1 60 05:21 16.12.2019
2325 Clouds 10 1017 61 16093 2.6 30 02:50 16.12.2019
2326 Clear 11 1016 32 16093 3.6 50 01:45 16.12.2019
2327 Clear 12 1016 25 16093 3.1 40 00:55 16.12.2019
2328 Clear 12 1015 28 16093 7.7 320 00:36 16.12.2019
2329 Clear 12 1015 30 16093 5.7 340 00:18 16.12.2019
2330 Clear 13 1015 28 16093 7.7 330 23:40 15.12.2019
2331 Clouds 13 1014 26 16093 8.7 310 23:21 15.12.2019
2332 Clear 13 1014 28 16093 10.3 330 22:56 15.12.2019
2333 Clear 13 1014 28 16093 10.3 330 22:38 15.12.2019
2334 Clouds 13 1014 28 16093 10.3 320 22:18 15.12.2019
2335 Clear 13 1014 28 16093 10.3 320 21:57 15.12.2019
2336 Clear 12 1014 30 16093 7.2 310 21:38 15.12.2019
2337 Clouds 12 1014 30 16093 9.8 350 21:19 15.12.2019
2338 Clouds 12 1014 24 16093 5.1 310 20:56 15.12.2019
2339 Clear 12 1014 46 16093 5.1 310 20:37 15.12.2019
2340 Clouds 12 1014 50 16093 2.22 314 20:19 15.12.2019
2341 Clear 11 1014 53 16093 3.1 290 19:57 15.12.2019
2342 Clear 10 1014 57 16093 2.1 190 19:39 15.12.2019
2343 Clouds 10 1014 57 16093 3.72 296 19:18 15.12.2019
2344 Clear 9 1014 61 16093 3.72 296 18:56 15.12.2019
2345 Clear 9 1014 61 16093 3.72 296 18:56 15.12.2019
2346 Clear 9 1014 66 16093 3.72 296 18:38 15.12.2019
2347 Clear 9 1014 66 16093 3.72 296 18:38 15.12.2019
2348 Clear 9 1014 49 16093 1.5 200 18:18 15.12.2019
2349 Clouds 8 1013 75 16093 3.72 296 17:56 15.12.2019
2350 Clouds 8 1013 75 16093 3.72 296 17:37 15.12.2019
2351 Rain 7 1013 65 16093 2.6 190 17:18 15.12.2019
2352 Rain 7 1012 93 16093 0.81 6 16:55 15.12.2019
2353 Rain 6 1012 93 16093 0.86 124 16:55 15.12.2019
2354 Rain 7 1012 93 16093 0.81 6 16:55 15.12.2019
2355 Rain 6 1012 93 16093 0.81 6 16:37 15.12.2019
2356 Rain 6 1011 81 16093 3.6 200 16:19 15.12.2019
2357 Rain 6 1012 93 16093 2.6 270 15:54 15.12.2019
2358 Rain 6 1012 93 16093 2.6 270 15:54 15.12.2019
2359 Rain 7 1010 81 16093 2.1 200 15:36 15.12.2019
2360 Rain 6 1010 81 16093 2.1 200 15:18 15.12.2019
2361 Rain 7 1009 100 16093 4.1 100 14:55 15.12.2019
2362 Rain 7 1009 75 16093 6.2 310 14:36 15.12.2019
2363 Rain 7 1009 75 16093 6.2 310 14:18 15.12.2019
2364 Rain 8 1009 57 16093 6.2 290 13:54 15.12.2019
2365 Rain 8 1008 87 8047 3.6 110 13:36 15.12.2019
2366 Clouds 8 1007 75 16093 2.1 250 13:18 15.12.2019
2367 Clouds 8 1007 100 16093 4.6 70 12:55 15.12.2019
2368 Clouds 8 1007 70 16093 1.1 262 12:37 15.12.2019
2369 Clouds 8 1007 70 16093 1.1 262 12:37 15.12.2019
2370 Clouds 8 1008 59 16093 4.6 190 12:19 15.12.2019
2371 Clouds 8 1008 66 16093 1.1 262 11:38 15.12.2019
2372 Clear 9 1008 61 16093 7.7 190 11:19 15.12.2019
2373 Clouds 8 1007 70 16093 2.6 320 10:56 15.12.2019
2374 Clouds 8 1007 70 16093 2.6 320 10:38 15.12.2019
2375 Clouds 9 1006 81 16093 2.1 220 10:19 15.12.2019
2376 Clouds 8 1007 61 16093 1.63 222 09:58 15.12.2019
2377 Clouds 8 1007 81 16093 4.1 50 09:37 15.12.2019
2378 Clouds 8 1007 81 16093 1.63 222 09:19 15.12.2019
2379 Rain 9 1007 81 6437 1.5 360 08:54 15.12.2019
2380 Clear 9 1007 71 16093 3.6 30 08:36 15.12.2019
2381 Clear 9 1008 70 16093 2.1 160 08:18 15.12.2019
2382 Rain 10 1008 71 16093 2.6 20 07:43 15.12.2019
2383 Rain 10 1007 71 16093 4.6 60 07:25 15.12.2019
2384 Rain 11 1008 76 8047 4.6 300 06:26 15.12.2019
2385 Rain 11 1007 76 16093 3.6 50 05:42 15.12.2019
2386 Clear 11 1008 62 16093 2.1 190 05:21 15.12.2019
2387 Clouds 11 1007 62 16093 1.5 170 04:20 15.12.2019
2388 Clouds 13 1008 58 16093 3.6 30 02:50 15.12.2019
2389 Clouds 13 1008 58 16093 3.6 30 02:31 15.12.2019
2390 Clouds 14 1008 58 16093 3.1 30 01:40 15.12.2019
2391 Clouds 14 1008 48 16093 2.1 100 01:18 15.12.2019
2392 Clouds 16 1008 48 16093 2.6 30 00:49 15.12.2019
2393 Clouds 16 1008 48 16093 2.6 30 00:31 15.12.2019
2394 Clear 15 1009 51 16093 1.76 35 23:41 14.12.2019
2395 Clouds 15 1008 51 16093 1.5 90 23:22 14.12.2019
2396 Clouds 15 1009 51 16093 2.1 0 22:59 14.12.2019
2397 Clear 15 1009 51 16093 3.1 70 22:41 14.12.2019
2398 Clouds 15 1009 47 16093 1.34 346 22:22 14.12.2019
2399 Clear 14 1009 51 16093 2.1 0 21:57 14.12.2019
2400 Clear 14 1010 51 16093 3.1 40 21:38 14.12.2019
2401 Clouds 14 1010 54 16093 1.34 346 21:19 14.12.2019
2402 Clouds 14 1010 54 16093 1.34 346 21:19 14.12.2019
2403 Clear 14 1010 54 16093 3.1 360 20:59 14.12.2019
2404 Clear 13 1011 58 16093 4.6 30 20:40 14.12.2019
2405 Clouds 13 1011 50 16093 2.1 40 20:20 14.12.2019
2406 Clouds 13 1011 50 16093 2.1 40 20:20 14.12.2019
2407 Clear 12 1011 54 16093 4.1 30 19:57 14.12.2019
2408 Clear 12 1011 54 16093 4.1 30 19:57 14.12.2019
2409 Clear 12 1012 58 16093 2.1 60 19:37 14.12.2019
2410 Clouds 11 1012 54 16093 2.1 320 19:19 14.12.2019
2411 Clear 11 1012 62 16093 3.1 60 18:56 14.12.2019
2412 Clear 11 1012 66 16093 3.1 70 18:38 14.12.2019
2413 Clouds 11 1012 58 16093 1.16 351 18:19 14.12.2019
2414 Clear 9 1011 71 16093 3.6 50 17:44 14.12.2019
2415 Clouds 8 1011 70 16093 1.5 310 17:24 14.12.2019
2416 Clear 7 1011 71 16093 3.1 30 16:58 14.12.2019
2417 Clear 6 1011 81 16093 2.6 50 16:39 14.12.2019
2418 Clouds 6 1010 75 16093 2.1 290 16:18 14.12.2019
2419 Clear 6 1011 81 16093 0.34 14 15:43 14.12.2019
2420 Clouds 6 1010 75 16093 2.6 280 15:22 14.12.2019
2421 Clear 6 1011 81 16093 2.6 60 14:59 14.12.2019
2422 Clear 6 1011 81 16093 2.1 70 14:38 14.12.2019
2423 Clouds 6 1010 75 16093 0.82 37 14:19 14.12.2019
2424 Clear 6 1011 75 16093 2.6 70 13:55 14.12.2019
2425 Clear 6 1011 81 16093 0.82 37 13:37 14.12.2019
2426 Clouds 6 1010 70 16093 0.79 79 13:18 14.12.2019
2427 Clear 6 1012 81 16093 2.1 20 12:54 14.12.2019
2428 Clear 6 1012 81 16093 2.1 20 12:36 14.12.2019
2429 Clear 7 1012 81 16093 3.6 180 12:18 14.12.2019
2430 Clear 7 1012 81 16093 2.6 330 11:54 14.12.2019
2431 Clear 7 1012 81 16093 2.6 330 11:36 14.12.2019
2432 Clear 7 1013 81 16093 2.6 180 11:18 14.12.2019
2433 Clear 7 1013 81 16093 2.1 300 10:55 14.12.2019
2434 Clear 7 1013 81 16093 2.1 300 10:36 14.12.2019
2435 Clear 8 1013 81 16093 3.6 160 10:18 14.12.2019
2436 Clear 8 1013 71 16093 2.1 50 09:40 14.12.2019
2437 Clouds 8 1013 61 16093 1.5 210 09:20 14.12.2019
2438 Clear 9 1014 71 16093 3.1 20 08:43 14.12.2019
2439 Clouds 9 1014 61 16093 2.6 270 08:20 14.12.2019
2440 Clear 9 1014 66 16093 3.6 30 07:55 14.12.2019
2441 Clear 9 1014 66 16093 4.1 40 07:36 14.12.2019
2442 Clouds 9 1014 66 16093 2.6 290 07:18 14.12.2019
2443 Clear 9 1014 62 16093 3.6 50 06:39 14.12.2019
2444 Clear 9 1015 75 16093 1.5 180 06:18 14.12.2019
2445 Clear 10 1014 58 16093 0.91 35 04:48 14.12.2019
2446 Clear 11 1015 54 16093 3.1 50 02:41 14.12.2019
2447 Clouds 12 1014 54 16093 2.1 110 02:19 14.12.2019
2448 Clear 13 1015 50 16093 2.6 80 01:37 14.12.2019
2449 Clear 14 1016 44 16093 6.2 160 00:49 14.12.2019
2450 Clouds 14 1015 44 16093 3.1 50 00:28 14.12.2019
2451 Clear 15 1016 41 16093 4.6 160 23:57 13.12.2019
2452 Clear 15 1016 41 16093 4.6 160 23:57 13.12.2019
2453 Clear 15 1016 41 16093 2.6 150 23:37 13.12.2019
2454 Clear 15 1017 47 16093 2.6 10 23:18 13.12.2019
2455 Clear 15 1018 47 16093 2.1 0 22:41 13.12.2019
2456 Clouds 14 1018 41 16093 4.1 80 22:19 13.12.2019
2457 Clear 14 1018 44 16093 2.6 140 21:56 13.12.2019
2458 Clear 14 1020 54 16093 1.38 88 21:38 13.12.2019
2459 Clear 14 1020 47 16093 3.1 30 21:20 13.12.2019
2460 Clear 13 1020 58 16093 1.38 88 20:42 13.12.2019
2461 Clouds 13 1020 50 16093 3.1 70 20:23 13.12.2019
2462 Clear 12 1022 62 16093 2.1 200 19:59 13.12.2019
2463 Clear 12 1022 62 16093 2.1 200 19:41 13.12.2019
2464 Clear 12 1022 62 16093 1.02 44 19:22 13.12.2019
2465 Clear 11 1023 70 16093 1.02 44 18:59 13.12.2019
2466 Clear 10 1023 70 16093 1.02 44 18:40 13.12.2019
2467 Clear 10 1023 81 16093 1.02 44 18:19 13.12.2019
2468 Clear 8 1023 81 16093 1.02 44 17:55 13.12.2019
2469 Clear 7 1023 81 16093 1.02 44 17:37 13.12.2019
2470 Clear 7 1023 81 16093 0.5 341 17:18 13.12.2019
2471 Clear 7 1023 81 16093 0.5 341 17:18 13.12.2019
2472 Clear 6 1023 86 16093 2.1 260 16:54 13.12.2019
2473 Clear 5 1023 81 16093 2.1 360 16:36 13.12.2019
2474 Clear 5 1023 81 16093 2.1 360 16:18 13.12.2019
2475 Clear 5 1023 93 16093 0.5 341 15:38 13.12.2019
2476 Clear 5 1023 93 16093 0.5 341 15:20 13.12.2019
2477 Clear 5 1023 86 16093 0.5 341 14:41 13.12.2019
2478 Clouds 5 1022 70 16093 1.12 271 14:21 13.12.2019
2479 Clear 5 1023 93 16093 3.6 330 13:58 13.12.2019
2480 Clear 5 1023 93 16093 3.6 330 13:58 13.12.2019
2481 Clear 5 1023 93 16093 3.6 330 13:39 13.12.2019
2482 Clear 5 1023 86 16093 0.48 300 13:21 13.12.2019
2483 Clear 5 1024 75 16093 0.48 300 12:42 13.12.2019
2484 Clouds 5 1024 70 16093 1.5 330 12:20 13.12.2019
2485 Clear 5 1023 86 16093 0.48 300 11:57 13.12.2019
2486 Clear 5 1023 86 16093 0.48 300 11:57 13.12.2019
2487 Clear 6 1023 81 16093 0.48 300 11:39 13.12.2019
2488 Clear 6 1023 81 16093 0.52 354 11:21 13.12.2019
2489 Clear 5 1023 86 16093 2.6 340 10:43 13.12.2019
2490 Clear 5 1023 86 16093 1.5 320 10:23 13.12.2019
2491 Clear 6 1024 81 16093 0.52 354 09:56 13.12.2019
2492 Clear 6 1023 81 16093 0.52 354 09:38 13.12.2019
2493 Clear 6 1023 81 16093 0.52 354 09:18 13.12.2019
2494 Clear 6 1023 81 16093 0.52 354 09:18 13.12.2019
2495 Clear 7 1024 81 16093 2.1 320 08:41 13.12.2019
2496 Clear 7 1023 81 16093 0.52 354 08:23 13.12.2019
2497 Clear 7 1023 75 16093 0.41 321 07:46 13.12.2019
2498 Clear 7 1024 75 16093 0.41 321 07:21 13.12.2019
2499 Clear 7 1024 75 16093 3.1 320 06:54 13.12.2019
2500 Clear 7 1023 70 16093 3.1 310 06:28 13.12.2019
2501 Clear 8 1023 66 16093 2.1 10 05:46 13.12.2019
2502 Clear 8 1024 70 16093 3.1 20 05:26 13.12.2019
2503 Clear 9 1023 66 16093 3.1 20 04:35 13.12.2019
2504 Clouds 9 1022 50 16093 2.6 210 03:39 13.12.2019
2505 Clouds 11 1023 50 16093 1.5 160 02:33 13.12.2019
2506 Clear 12 1024 57 16093 2.1 50 01:43 13.12.2019
2507 Clear 13 1024 54 16093 2.1 30 00:55 13.12.2019
2508 Clear 13 1023 50 16093 0.82 42 00:36 13.12.2019
2509 Clear 13 1023 50 16093 1.5 110 23:57 12.12.2019
2510 Clear 13 1023 50 16093 3.1 130 23:37 12.12.2019
2511 Clear 13 1023 50 16093 3.1 130 23:19 12.12.2019
2512 Clear 13 1024 47 16093 0.77 49 22:54 12.12.2019
2513 Clear 13 1024 47 16093 0.77 49 22:36 12.12.2019
2514 Clear 13 1024 47 16093 0.77 49 22:18 12.12.2019
2515 Clear 13 1024 47 16093 0.77 49 21:54 12.12.2019
2516 Clear 13 1025 47 16093 0.77 49 21:36 12.12.2019
2517 Clear 13 1025 47 16093 0.77 49 21:18 12.12.2019
2518 Clear 13 1025 50 16093 0.77 49 20:55 12.12.2019
2519 Clear 13 1025 54 16093 0.77 49 20:37 12.12.2019
2520 Clear 13 1025 54 16093 0.3 338 20:19 12.12.2019
2521 Clear 12 1026 57 16093 0.3 338 19:42 12.12.2019
2522 Clear 11 1026 61 16093 0.3 338 19:22 12.12.2019
2523 Clear 10 1026 70 16093 0.3 338 18:58 12.12.2019
2524 Clear 10 1026 70 16093 0.3 338 18:39 12.12.2019
2525 Clear 10 1026 70 16093 0.3 338 18:20 12.12.2019
2526 Clear 9 1026 70 16093 0.3 338 17:57 12.12.2019
2527 Clear 8 1026 81 16093 0.3 338 17:39 12.12.2019
2528 Clear 7 1026 81 16093 0.4 316 17:20 12.12.2019
2529 Clear 6 1025 75 16093 0.4 316 16:57 12.12.2019
2530 Clear 5 1025 80 16093 0.4 316 16:39 12.12.2019
2531 Clear 5 1025 80 16093 0.4 316 16:20 12.12.2019
2532 Clear 5 1025 86 16093 0.4 316 15:56 12.12.2019
2533 Clear 5 1025 86 16093 0.4 316 15:37 12.12.2019
2534 Clear 5 1025 86 16093 0.4 316 15:18 12.12.2019
2535 Clear 5 1024 86 16093 0.4 316 14:38 12.12.2019
2536 Clear 5 1024 86 16093 0.4 301 14:20 12.12.2019
2537 Clear 5 1024 86 16093 0.4 301 13:58 12.12.2019
2538 Clear 6 1024 86 16093 0.4 301 13:39 12.12.2019
2539 Clear 6 1024 80 16093 0.69 351 13:21 12.12.2019
2540 Clear 6 1024 80 16093 0.69 351 13:21 12.12.2019
2541 Clear 6 1024 80 16093 1.5 120 12:58 12.12.2019
2542 Clear 6 1024 80 16093 1.5 120 12:40 12.12.2019
2543 Clear 6 1024 75 16093 0.69 351 12:21 12.12.2019
2544 Clear 5 1024 80 16093 0.69 351 11:56 12.12.2019
2545 Clear 5 1024 80 16093 0.69 351 11:38 12.12.2019
2546 Clear 5 1024 80 16093 0.58 36 11:19 12.12.2019
2547 Clear 5 1024 80 16093 0.58 36 10:55 12.12.2019
2548 Clear 6 1024 75 16093 0.58 36 10:37 12.12.2019
2549 Clear 6 1024 75 16093 0.58 36 10:19 12.12.2019
2550 Clear 6 1024 75 16093 0.58 36 09:42 12.12.2019
2551 Clear 6 1024 75 16093 0.58 36 09:24 12.12.2019
2552 Clear 6 1024 70 16093 0.58 36 08:59 12.12.2019
2553 Clear 6 1024 70 16093 0.58 36 08:40 12.12.2019
2554 Haze 6 1023 57 16093 0.35 213 08:22 12.12.2019
2555 Clear 7 1024 75 16093 0.35 213 07:47 12.12.2019
2556 Haze 7 1023 61 16093 2.1 210 07:25 12.12.2019
2557 Clear 7 1024 61 16093 0.35 213 06:54 12.12.2019
2558 Clear 7 1024 70 16093 0.35 213 06:34 12.12.2019
2559 Clear 7 1024 61 16093 0.35 213 05:41 12.12.2019
2560 Clear 8 1023 61 16093 0.25 286 04:54 12.12.2019
2561 Clear 9 1023 53 16093 3.6 30 03:37 12.12.2019
2562 Clear 10 1022 61 16093 2.1 30 02:39 12.12.2019
2563 Clear 11 1022 61 16093 2.1 30 02:20 12.12.2019
2564 Clear 12 1022 53 16093 3.1 30 01:43 12.12.2019
2565 Clouds 12 1022 35 16093 2.1 60 01:24 12.12.2019
2566 Clear 13 1022 43 16093 1.06 5 00:47 12.12.2019
2567 Clear 13 1022 43 16093 2.1 50 00:20 12.12.2019
2568 Clear 14 1022 43 16093 1.5 30 23:44 11.12.2019
2569 Clouds 14 1022 35 16093 2.1 100 23:21 11.12.2019
2570 Clear 14 1022 34 16093 1.41 21 22:58 11.12.2019
2571 Clouds 14 1022 33 16093 2.1 0 22:39 11.12.2019
2572 Clouds 14 1022 33 16093 2.1 0 22:20 11.12.2019
2573 Clear 14 1023 43 16093 1.5 0 21:57 11.12.2019
2574 Clear 14 1023 34 16093 1.5 150 21:38 11.12.2019
2575 Clear 13 1023 34 16093 1.5 150 21:20 11.12.2019
2576 Clear 13 1024 46 16093 1.41 21 20:56 11.12.2019
2577 Clouds 13 1024 37 16093 2.1 130 20:37 11.12.2019
2578 Clouds 12 1024 37 16093 2.1 130 20:19 11.12.2019
2579 Clear 11 1025 57 16093 1.5 230 19:58 11.12.2019
2580 Clear 11 1025 61 16093 1.08 290 19:39 11.12.2019
2581 Clear 11 1025 61 16093 1.08 290 19:19 11.12.2019
2582 Clear 10 1025 61 16093 1.5 190 18:42 11.12.2019
2583 Clear 9 1025 61 14484 1.08 290 18:21 11.12.2019
2584 Clear 8 1024 75 16093 1.08 290 17:57 11.12.2019
2585 Clear 8 1024 75 16093 1.08 290 17:57 11.12.2019
2586 Clear 8 1024 80 16093 1.08 290 17:39 11.12.2019
2587 Clear 7 1024 80 16093 1.04 328 17:18 11.12.2019
2588 Clear 6 1024 80 16093 1.04 328 16:57 11.12.2019
2589 Clouds 6 1024 65 16093 1.5 210 16:38 11.12.2019
2590 Clouds 5 1024 65 16093 1.5 210 16:20 11.12.2019
2591 Clear 5 1024 80 16093 1.04 328 15:59 11.12.2019
2592 Clear 5 1024 80 16093 1.04 328 15:39 11.12.2019
2593 Clouds 5 1023 65 16093 1.04 328 15:21 11.12.2019
2594 Clear 5 1023 80 16093 1.04 328 14:56 11.12.2019
2595 Clear 5 1023 80 16093 1.04 328 14:37 11.12.2019
2596 Clear 5 1023 80 16093 0.35 56 14:19 11.12.2019
2597 Clear 5 1023 80 16093 0.35 56 13:54 11.12.2019
2598 Clear 5 1023 80 16093 2.1 300 13:36 11.12.2019
2599 Clear 5 1023 80 16093 2.1 300 13:36 11.12.2019
2600 Clear 5 1023 80 16093 2.1 300 13:18 11.12.2019
2601 Clear 5 1023 80 16093 2.1 300 13:18 11.12.2019
2602 Clear 5 1023 80 16093 0.69 351 12:54 11.12.2019
2603 Clear 5 1023 80 16093 0.69 351 12:36 11.12.2019
2604 Clear 5 1023 80 16093 0.69 351 12:18 11.12.2019
2605 Clear 5 1024 80 16093 0.69 351 11:55 11.12.2019
2606 Clear 4 1023 86 16093 0.69 351 11:37 11.12.2019
2607 Clear 5 1023 86 16093 0.3 342 11:18 11.12.2019
2608 Clear 5 1024 51 16093 0.3 342 10:41 11.12.2019
2609 Clear 5 1024 80 16093 0.3 342 10:23 11.12.2019
2610 Clear 5 1024 75 16093 0.3 342 09:58 11.12.2019
2611 Clear 5 1024 80 16093 1.5 50 09:38 11.12.2019
2612 Clear 5 1024 80 16093 1.5 50 09:20 11.12.2019
2613 Clear 5 1024 75 16093 0.3 342 08:56 11.12.2019
2614 Clear 5 1025 75 16093 0.3 342 08:37 11.12.2019
2615 Clear 6 1025 75 16093 0.19 254 08:18 11.12.2019
2616 Clear 6 1025 50 16093 0.19 254 07:44 11.12.2019
2617 Clear 6 1025 50 16093 0.19 254 07:25 11.12.2019
2618 Clear 7 1024 65 16093 2.1 30 06:46 11.12.2019
2619 Clouds 7 1024 53 16093 0.19 254 06:25 11.12.2019
2620 Clear 8 1025 65 16093 2.1 340 05:56 11.12.2019
2621 Clouds 8 1024 53 16093 1.5 210 05:36 11.12.2019
2622 Clear 8 1025 61 16093 0.37 173 04:53 11.12.2019
2623 Clouds 9 1024 40 16093 1.5 170 03:37 11.12.2019
2624 Clouds 10 1024 37 16093 2.1 50 02:38 11.12.2019
2625 Clear 11 1024 42 16093 3.1 30 01:22 11.12.2019
2626 Clear 13 1024 42 16093 3.1 40 00:43 11.12.2019
2627 Clouds 13 1023 33 16093 1.5 70 00:19 11.12.2019
2628 Clear 13 1024 37 16093 3.1 50 23:46 10.12.2019
2629 Clouds 13 1024 33 16093 0.99 37 23:26 10.12.2019
2630 Clear 13 1024 35 16093 1.92 353 22:57 10.12.2019
2631 Clouds 13 1024 35 16093 1.92 353 22:39 10.12.2019
2632 Clouds 13 1024 35 16093 1.92 353 22:20 10.12.2019
2633 Clear 13 1025 37 16093 1.92 353 21:54 10.12.2019
2634 Clouds 13 1025 35 16093 2.1 90 21:36 10.12.2019
2635 Clouds 13 1025 35 16093 2.1 90 21:18 10.12.2019
2636 Clear 13 1026 37 16093 2.6 310 20:55 10.12.2019
2637 Clouds 12 1026 35 16093 2.1 70 20:36 10.12.2019
2638 Clouds 12 1026 35 16093 2.1 70 20:18 10.12.2019
2639 Clear 11 1027 50 16093 1.29 353 19:44 10.12.2019
2640 Clear 11 1027 50 16093 1.29 353 19:44 10.12.2019
2641 Clouds 11 1027 43 16093 1.29 353 19:26 10.12.2019
2642 Clouds 11 1027 43 16093 1.29 353 19:26 10.12.2019
2643 Clear 10 1027 53 16093 1.29 353 18:59 10.12.2019
2644 Clear 10 1027 53 16093 1.29 353 18:39 10.12.2019
2645 Clouds 9 1026 43 16093 1.29 353 18:19 10.12.2019
2646 Clear 8 1026 65 16093 1.5 150 17:55 10.12.2019
2647 Clear 8 1026 43 14484 1.29 353 17:36 10.12.2019
2648 Clear 7 1026 61 14484 1.2 307 17:18 10.12.2019
2649 Clear 5 1026 61 16093 1.2 307 16:42 10.12.2019
2650 Clouds 4 1025 61 16093 1.5 220 16:20 10.12.2019
2651 Clear 4 1025 61 16093 1.2 307 15:54 10.12.2019
2652 Clouds 4 1024 61 16093 2.6 200 15:36 10.12.2019
2653 Clouds 4 1024 61 16093 2.6 200 15:18 10.12.2019
2654 Clouds 4 1024 61 16093 2.6 200 15:18 10.12.2019
2655 Clear 4 1024 61 16093 3.6 280 14:54 10.12.2019
2656 Clouds 4 1023 70 16093 1.5 250 14:36 10.12.2019
2657 Clouds 4 1023 70 16093 1.5 250 14:18 10.12.2019
2658 Clouds 4 1023 70 16093 1.5 250 14:18 10.12.2019
2659 Clear 4 1024 55 16093 1.62 351 13:54 10.12.2019
2660 Clear 5 1024 75 16093 1.62 351 13:36 10.12.2019
2661 Clear 5 1024 75 16093 0.99 341 13:18 10.12.2019
2662 Clear 5 1023 65 16093 1.5 230 12:38 10.12.2019
2663 Clear 5 1023 65 16093 1.5 230 12:20 10.12.2019
2664 Clear 5 1023 53 16093 0.99 341 11:42 10.12.2019
2665 Clear 6 1023 53 16093 2.1 10 11:23 10.12.2019
2666 Clear 6 1023 75 16093 0.76 342 10:56 10.12.2019
2667 Clear 6 1023 75 16093 0.76 342 10:56 10.12.2019
2668 Clear 7 1022 61 16093 0.76 342 10:37 10.12.2019
2669 Clear 7 1022 61 16093 0.76 342 10:19 10.12.2019
2670 Clear 7 1023 50 16093 3.6 10 09:55 10.12.2019
2671 Clear 7 1023 61 16093 3.1 360 09:37 10.12.2019
2672 Clear 7 1023 61 16093 3.1 360 09:18 10.12.2019
2673 Clear 7 1022 57 16093 0.76 342 08:42 10.12.2019
2674 Clouds 8 1022 53 16093 2.6 220 08:23 10.12.2019
2675 Clear 8 1022 53 16093 1.5 170 07:58 10.12.2019
2676 Clear 8 1022 53 16093 1.5 170 07:40 10.12.2019
2677 Clouds 8 1022 50 16093 1.5 200 07:22 10.12.2019
2678 Clear 8 1022 57 16093 2.6 340 06:46 10.12.2019
2679 Clouds 9 1021 45 16093 3.1 20 06:19 10.12.2019
2680 Clear 10 1021 45 16093 4.1 50 05:52 10.12.2019
2681 Clear 10 1020 46 16093 4.1 40 04:52 10.12.2019
2682 Clear 12 1020 54 16093 3.1 40 03:36 10.12.2019
2683 Clear 13 1019 47 16093 2.6 40 02:44 10.12.2019
2684 Clear 14 1019 47 16093 2.6 360 01:44 10.12.2019
2685 Clouds 14 1018 29 16093 4.1 10 01:20 10.12.2019
2686 Clear 15 1018 38 16093 4.6 360 00:41 10.12.2019
2687 Clear 15 1018 38 16093 5.1 10 00:20 10.12.2019
2688 Clear 15 1018 36 16093 4.6 10 23:41 09.12.2019
2689 Clouds 16 1017 33 16093 3.6 50 23:22 09.12.2019
2690 Clear 16 1017 41 16093 2.1 0 22:58 09.12.2019
2691 Clear 15 1017 41 16093 2.1 0 22:40 09.12.2019
2692 Clouds 16 1017 33 16093 5.1 40 22:19 09.12.2019
2693 Clear 15 1018 36 16093 7.7 360 21:56 09.12.2019
2694 Clouds 15 1018 33 16093 4.6 20 21:38 09.12.2019
2695 Clouds 15 1018 33 16093 4.6 20 21:19 09.12.2019
2696 Clear 15 1018 41 16093 6.2 350 20:56 09.12.2019
2697 Clouds 14 1018 41 16093 4.6 70 20:38 09.12.2019
2698 Clouds 14 1018 41 16093 4.6 70 20:20 09.12.2019
2699 Clear 14 1019 47 16093 3.1 30 19:55 09.12.2019
2700 Clear 14 1019 47 16093 3.1 50 19:37 09.12.2019
2701 Clear 13 1019 47 16093 3.1 50 19:19 09.12.2019
2702 Clear 13 1019 54 16093 3.6 340 18:56 09.12.2019
2703 Clouds 12 1018 54 16093 1.5 90 18:37 09.12.2019
2704 Clouds 12 1018 54 16093 1.5 90 18:19 09.12.2019
2705 Clear 11 1018 66 16093 2.1 140 17:57 09.12.2019
2706 Clouds 10 1018 57 16093 1.5 0 17:38 09.12.2019
2707 Clouds 10 1018 57 16093 1.5 0 17:20 09.12.2019
2708 Clouds 10 1018 57 16093 1.5 0 17:20 09.12.2019
2709 Clear 9 1018 66 16093 3.1 0 16:56 09.12.2019
2710 Clouds 8 1017 75 16093 1.5 30 16:37 09.12.2019
2711 Clouds 7 1017 75 16093 1.5 30 16:18 09.12.2019
2712 Clear 7 1017 81 16093 2.1 0 15:55 09.12.2019
2713 Clouds 7 1017 75 16093 1.32 305 15:37 09.12.2019
2714 Clouds 7 1017 75 16093 1.32 305 15:18 09.12.2019
2715 Clear 7 1017 76 16093 2.1 350 14:42 09.12.2019
2716 Clouds 8 1016 70 16093 1.08 276 14:19 09.12.2019
2717 Clear 8 1016 87 16093 1.08 276 13:58 09.12.2019
2718 Clouds 8 1016 70 16093 2.1 230 13:38 09.12.2019
2719 Clouds 8 1016 70 16093 2.1 230 13:19 09.12.2019
2720 Clear 8 1016 76 16093 3.1 30 12:57 09.12.2019
2721 Clouds 8 1016 62 16093 4.1 10 12:38 09.12.2019
2722 Clouds 8 1016 62 16093 4.1 10 12:19 09.12.2019
2723 Clear 8 1016 71 16093 4.1 350 11:56 09.12.2019
2724 Clouds 9 1016 81 16093 2.6 250 11:37 09.12.2019
2725 Clouds 9 1016 81 16093 2.6 250 11:18 09.12.2019
2726 Clouds 10 1015 76 16093 1.5 240 10:41 09.12.2019
2727 Clouds 10 1015 76 16093 1.5 240 10:20 09.12.2019
2728 Clouds 10 1016 81 16093 2.1 320 09:59 09.12.2019
2729 Clouds 10 1016 81 16093 2.1 320 09:40 09.12.2019
2730 Rain 10 1017 71 16093 1.09 327 09:21 09.12.2019
2731 Clouds 11 1016 93 16093 1.09 327 08:44 09.12.2019
2732 Rain 11 1015 58 16093 2.1 290 08:26 09.12.2019
2733 Drizzle 11 1016 87 14484 4.6 260 07:56 09.12.2019
2734 Clouds 11 1015 62 16093 2.1 300 07:38 09.12.2019
2735 Clouds 11 1015 62 16093 2.1 300 07:20 09.12.2019
2736 Clouds 11 1015 66 16093 5.1 320 06:43 09.12.2019
2737 Clouds 12 1014 58 16093 3.6 360 06:24 09.12.2019
2738 Clouds 12 1014 58 16093 3.6 360 06:24 09.12.2019
2739 Clouds 12 1014 62 16093 7.2 20 05:26 09.12.2019
2740 Clouds 12 1014 58 16093 2.6 90 04:33 09.12.2019
2741 Clouds 13 1013 54 16093 3.1 300 03:19 09.12.2019
2742 Clouds 13 1013 51 16093 2.6 310 02:19 09.12.2019
2743 Clouds 14 1013 54 16093 4.6 330 01:41 09.12.2019
2744 Clouds 15 1013 51 16093 4.1 260 00:45 09.12.2019
2745 Clouds 16 1013 42 16093 3.6 250 00:25 09.12.2019
2746 Clouds 16 1013 59 16093 4.6 150 23:40 08.12.2019
2747 Clouds 16 1013 55 16093 4.1 190 23:22 08.12.2019
2748 Clouds 16 1013 55 16093 3.6 160 22:57 08.12.2019
2749 Clouds 16 1013 45 16093 3.6 230 22:38 08.12.2019
2750 Clouds 16 1013 45 16093 3.6 230 22:19 08.12.2019
2751 Clouds 15 1014 59 16093 3.1 210 21:58 08.12.2019
2752 Clouds 15 1014 59 16093 3.1 210 21:40 08.12.2019
2753 Clouds 15 1014 63 16093 3.1 320 21:19 08.12.2019
2754 Clouds 15 1015 62 16093 4.1 180 20:57 08.12.2019
2755 Clouds 14 1014 71 16093 4.1 310 20:38 08.12.2019
2756 Clouds 14 1014 71 16093 4.1 310 20:38 08.12.2019
2757 Clouds 14 1014 71 16093 4.1 310 20:20 08.12.2019
2758 Clear 14 1015 67 16093 4.6 160 19:57 08.12.2019
2759 Clear 14 1015 67 16093 4.6 160 19:39 08.12.2019
2760 Clouds 13 1014 51 16093 6.7 200 19:21 08.12.2019
2761 Clouds 13 1016 76 16093 5.1 170 18:55 08.12.2019
2762 Clouds 13 1015 100 16093 8.63 237 18:37 08.12.2019
2763 Clouds 13 1014 54 16093 3.6 200 18:18 08.12.2019
2764 Clouds 12 1016 82 16093 8.63 237 17:56 08.12.2019
2765 Clouds 12 1014 62 16093 4.6 190 17:37 08.12.2019
2766 Clouds 12 1014 62 16093 4.6 190 17:19 08.12.2019
2767 Clouds 12 1014 87 16093 2.6 310 16:55 08.12.2019
2768 Clouds 12 1014 87 16093 2.6 310 16:55 08.12.2019
2769 Clouds 12 1014 87 16093 2.6 310 16:37 08.12.2019
2770 Clouds 12 1014 62 16093 3.1 200 16:19 08.12.2019
2771 Clouds 12 1014 62 16093 3.1 220 15:38 08.12.2019
2772 Clouds 12 1014 62 16093 3.1 220 15:19 08.12.2019
2773 Clear 12 1015 87 16093 3.6 150 14:59 08.12.2019
2774 Clear 13 1015 87 16093 3.6 150 14:39 08.12.2019
2775 Clouds 11 1013 67 16093 2.6 210 14:21 08.12.2019
2776 Clouds 12 1015 87 16093 2.1 180 13:57 08.12.2019
2777 Clouds 12 1015 87 16093 2.1 180 13:57 08.12.2019
2778 Clouds 12 1013 81 16093 4.35 179 13:38 08.12.2019
2779 Clouds 12 1013 81 16093 4.26 172 13:19 08.12.2019
2780 Clouds 12 1015 87 16093 1.5 160 12:54 08.12.2019
2781 Clouds 12 1015 87 16093 1.5 160 12:54 08.12.2019
2782 Clouds 12 1014 81 16093 1.5 10 12:36 08.12.2019
2783 Clouds 12 1014 81 16093 1.5 10 12:18 08.12.2019
2784 Clouds 12 1015 81 16093 2.1 60 11:38 08.12.2019
2785 Clouds 12 1015 81 16093 2.1 60 11:38 08.12.2019
2786 Clouds 12 1015 81 16093 2.1 60 11:20 08.12.2019
2787 Clear 11 1016 87 16093 3.6 160 10:58 08.12.2019
2788 Clouds 11 1015 87 16093 2.1 290 10:38 08.12.2019
2789 Clouds 12 1015 87 16093 2.1 290 10:20 08.12.2019
2790 Clouds 12 1016 87 16093 2.6 130 09:56 08.12.2019
2791 Clouds 12 1016 76 16093 3.1 320 09:37 08.12.2019
2792 Clouds 12 1016 76 16093 3.1 320 09:19 08.12.2019
2793 Clouds 12 1017 81 16093 3.44 159 08:57 08.12.2019
2794 Clouds 12 1016 76 16093 3.44 159 08:37 08.12.2019
2795 Clouds 12 1016 76 16093 3.31 166 08:18 08.12.2019
2796 Clouds 12 1017 76 16093 2.6 150 07:42 08.12.2019
2797 Clouds 12 1016 76 16093 2.8 170 07:19 08.12.2019
2798 Clouds 13 1017 81 16093 3.1 0 06:50 08.12.2019
2799 Clouds 13 1016 71 16093 1.5 270 06:22 08.12.2019
2800 Clear 13 1017 76 16093 3.1 160 05:43 08.12.2019
2801 Clear 13 1018 71 16093 3.6 130 04:59 08.12.2019
2802 Clouds 13 1018 67 16093 1.92 174 03:49 08.12.2019
2803 Clouds 13 1017 71 16093 2.6 290 03:21 08.12.2019
2804 Clouds 14 1017 71 16093 1.92 174 02:34 08.12.2019
2805 Clouds 14 1018 67 16093 4.6 140 01:48 08.12.2019
2806 Clouds 14 1018 62 16093 4.1 130 00:59 08.12.2019
2807 Clouds 14 1018 62 16093 4.1 130 00:39 08.12.2019
2808 Clouds 14 1018 62 16093 4.1 130 00:39 08.12.2019
2809 Clouds 15 1017 67 16093 3.6 30 00:19 08.12.2019
2810 Clouds 15 1017 67 16093 3.6 30 00:19 08.12.2019
2811 Clouds 15 1019 67 16093 3.6 120 23:40 07.12.2019
2812 Clouds 15 1018 62 16093 4.1 80 23:20 07.12.2019
2813 Clouds 15 1019 59 16093 3.6 110 22:56 07.12.2019
2814 Clouds 15 1018 67 16093 3.1 60 22:38 07.12.2019
2815 Clouds 14 1018 67 16093 3.1 60 22:20 07.12.2019
2816 Clear 14 1019 67 16093 3.1 60 21:56 07.12.2019
2817 Clear 14 1019 67 16093 3.1 60 21:56 07.12.2019
2818 Clouds 14 1020 82 16093 2.6 20 21:38 07.12.2019
2819 Clouds 14 1020 67 16093 3.4 151 21:19 07.12.2019
2820 Clouds 14 1021 67 16093 2.1 90 20:55 07.12.2019
2821 Clouds 14 1021 67 16093 3.4 151 20:36 07.12.2019
2822 Clouds 14 1021 67 16093 1.49 128 20:18 07.12.2019
2823 Clouds 13 1022 67 16093 2.1 110 19:55 07.12.2019
2824 Clouds 13 1022 66 16093 1.49 128 19:37 07.12.2019
2825 Clouds 13 1022 66 16093 1.49 128 19:18 07.12.2019
2826 Clouds 12 1022 76 16093 1.49 128 18:44 07.12.2019
2827 Clouds 12 1022 76 16093 1.49 128 18:19 07.12.2019
2828 Clouds 11 1022 81 16093 1.49 128 17:58 07.12.2019
2829 Clouds 11 1022 81 16093 1.49 128 17:39 07.12.2019
2830 Clouds 10 1022 76 16093 1.5 110 17:21 07.12.2019
2831 Clouds 10 1022 87 16093 0.34 191 16:56 07.12.2019
2832 Clouds 9 1021 76 16093 0.34 191 16:38 07.12.2019
2833 Clouds 9 1021 76 16093 0.34 191 16:19 07.12.2019
2834 Clouds 9 1022 87 16093 0.34 191 15:42 07.12.2019
2835 Clouds 9 1021 81 16093 0.34 191 15:23 07.12.2019
2836 Clouds 9 1021 93 16093 2.1 350 14:58 07.12.2019
2837 Clouds 9 1021 93 16093 2.1 350 14:40 07.12.2019
2838 Clouds 9 1021 81 16093 0.75 141 14:18 07.12.2019
2839 Clouds 9 1021 87 16093 2.6 40 13:41 07.12.2019
2840 Clouds 9 1021 87 16093 2.6 40 13:41 07.12.2019
2841 Clouds 9 1021 76 16093 0.75 141 13:21 07.12.2019
2842 Rain 10 1022 81 16093 0.9 138 12:59 07.12.2019
2843 Rain 10 1022 81 16093 0.9 138 12:40 07.12.2019
2844 Rain 10 1021 76 16093 0.9 138 12:22 07.12.2019
2845 Clouds 10 1022 87 16093 0.9 138 11:57 07.12.2019
2846 Clouds 10 1022 87 16093 0.9 138 11:39 07.12.2019
2847 Clouds 10 1021 71 16093 0.91 146 11:20 07.12.2019
2848 Rain 10 1021 100 16093 0.91 146 10:38 07.12.2019
2849 Clouds 10 1022 87 16093 0.91 146 10:19 07.12.2019
2850 Clouds 10 1022 87 16093 0.91 146 09:42 07.12.2019
2851 Clouds 10 1022 87 16093 1.5 280 09:22 07.12.2019
2852 Clouds 10 1022 81 16093 2.1 40 08:59 07.12.2019
2853 Clouds 10 1022 81 16093 2.1 40 08:39 07.12.2019
2854 Clouds 10 1022 71 16093 0.86 157 08:21 07.12.2019
2855 Clouds 10 1023 81 16093 0.86 157 07:45 07.12.2019
2856 Clouds 10 1022 71 16093 0.86 157 07:25 07.12.2019
2857 Clear 10 1023 81 16093 2.1 30 06:48 07.12.2019
2858 Clear 11 1022 81 16093 1.5 10 06:25 07.12.2019
2859 Clouds 11 1022 66 16093 0.86 157 05:30 07.12.2019
2860 Clear 11 1023 71 16093 4.1 70 03:56 07.12.2019
2861 Clear 11 1023 100 16093 2.1 360 03:18 07.12.2019
2862 Clouds 12 1022 58 16093 0.2 274 02:21 07.12.2019
2863 Clouds 13 1022 54 16093 2.1 90 01:34 07.12.2019
2864 Clear 14 1022 62 16093 2.1 30 00:52 07.12.2019
2865 Clouds 15 1022 54 16093 1.5 110 00:19 07.12.2019
2866 Clear 15 1022 54 16093 0.16 82 23:55 06.12.2019
2867 Clouds 15 1022 51 16093 1.5 0 23:36 06.12.2019
2868 Clouds 15 1022 51 16093 1.5 0 23:18 06.12.2019
2869 Clouds 15 1022 54 16093 1.05 47 22:37 06.12.2019
2870 Clouds 15 1022 54 16093 1.05 47 22:19 06.12.2019
2871 Clear 15 1023 58 16093 2.1 50 21:57 06.12.2019
2872 Clouds 14 1023 54 16093 2.1 90 21:38 06.12.2019
2873 Clouds 15 1023 54 16093 2.1 90 21:19 06.12.2019
2874 Clear 14 1024 67 16093 2.1 270 20:42 06.12.2019
2875 Clear 14 1024 67 16093 2.1 270 20:42 06.12.2019
2876 Clear 14 1024 67 16093 2.1 270 20:42 06.12.2019
2877 Clouds 13 1024 58 16093 2.1 350 20:23 06.12.2019
2878 Clear 13 1025 76 16093 1.49 332 19:59 06.12.2019
2879 Clear 13 1025 76 16093 1.49 332 19:40 06.12.2019
2880 Clouds 12 1025 62 16093 1.49 332 19:21 06.12.2019
2881 Clouds 12 1025 62 16093 1.49 332 19:21 06.12.2019
2882 Clear 11 1025 81 16093 1.49 332 18:55 06.12.2019
2883 Clouds 11 1025 66 16093 1.49 332 18:37 06.12.2019
2884 Clouds 11 1025 66 16093 1.49 332 18:19 06.12.2019
2885 Clear 10 1025 87 16093 1.49 332 17:55 06.12.2019
2886 Clouds 9 1024 76 16093 1.49 332 17:37 06.12.2019
2887 Clouds 8 1024 76 16093 0.94 33 17:19 06.12.2019
2888 Clear 7 1025 93 16093 0.94 33 16:42 06.12.2019
2889 Clouds 7 1024 81 16093 1.5 210 16:24 06.12.2019
2890 Clear 7 1024 93 12874 0.94 33 15:57 06.12.2019
2891 Clear 7 1024 93 12874 0.94 33 15:39 06.12.2019
2892 Clouds 7 1023 81 16093 0.94 33 15:18 06.12.2019
2893 Clear 7 1024 93 16093 0.94 33 14:55 06.12.2019
2894 Clouds 7 1023 81 16093 1.5 190 14:37 06.12.2019
2895 Clouds 7 1023 81 16093 1.5 190 14:18 06.12.2019
2896 Clear 7 1023 93 16093 0.3 291 13:42 06.12.2019
2897 Clouds 7 1023 81 16093 0.59 316 13:23 06.12.2019
2898 Clear 7 1023 87 16093 0.59 316 12:42 06.12.2019
2899 Clouds 7 1023 81 16093 1.5 230 12:22 06.12.2019
2900 Clear 7 1023 93 16093 0.59 316 11:56 06.12.2019
2901 Clouds 8 1022 81 16093 1.5 230 11:37 06.12.2019
2902 Clouds 8 1022 81 16093 1.5 230 11:19 06.12.2019
2903 Clear 8 1023 93 16093 0.78 320 10:42 06.12.2019
2904 Clouds 8 1022 87 16093 1.5 280 10:21 06.12.2019
2905 Clear 9 1023 93 16093 0.78 320 09:57 06.12.2019
2906 Clouds 8 1023 76 16093 0.78 320 09:37 06.12.2019
2907 Clouds 8 1023 76 16093 0.78 320 09:19 06.12.2019
2908 Clear 9 1023 87 16093 0.78 320 08:45 06.12.2019
2909 Clouds 9 1023 76 16093 0.78 320 08:26 06.12.2019
2910 Clear 9 1024 87 16093 2.1 170 07:44 06.12.2019
2911 Clouds 9 1023 71 16093 1.14 337 07:23 06.12.2019
2912 Clear 9 1023 81 16093 1.5 50 06:58 06.12.2019
2913 Clear 9 1024 81 16093 1.14 337 06:26 06.12.2019
2914 Clear 10 1023 81 16093 2.6 10 05:52 06.12.2019
2915 Clear 10 1023 76 16093 2.6 350 04:52 06.12.2019
2916 Clear 10 1023 76 16093 2.6 350 04:52 06.12.2019
2917 Clear 13 1022 76 16093 2.1 20 01:49 06.12.2019
2918 Clouds 13 1021 62 16093 3.6 50 01:22 06.12.2019
2919 Clear 14 1021 66 16093 3.6 30 00:39 06.12.2019
2920 Clear 14 1021 71 16093 3.6 40 00:20 06.12.2019
2921 Clouds 15 1020 51 16093 2.6 70 23:38 05.12.2019
2922 Clouds 14 1020 51 16093 2.6 70 23:18 05.12.2019
2923 Clouds 14 1020 62 16093 4.1 50 22:55 05.12.2019
2924 Clouds 14 1020 51 16093 2.6 0 22:37 05.12.2019
2925 Clouds 14 1020 51 16093 2.6 0 22:18 05.12.2019
2926 Clear 14 1021 54 16093 1.62 23 21:42 05.12.2019
2927 Clouds 15 1021 58 16093 2.1 30 21:24 05.12.2019
2928 Clear 14 1021 58 16093 1.62 23 20:59 05.12.2019
2929 Clear 14 1021 62 16093 2.1 0 20:40 05.12.2019
2930 Clear 14 1021 58 16093 1.62 23 20:40 05.12.2019
2931 Clouds 13 1021 58 16093 1.5 340 20:20 05.12.2019
2932 Clouds 12 1021 100 16093 2.6 340 19:55 05.12.2019
2933 Clear 13 1022 76 16093 0.78 184 19:36 05.12.2019
2934 Clouds 12 1021 58 16093 0.78 184 19:18 05.12.2019
2935 Clear 11 1022 81 16093 2.1 0 18:39 05.12.2019
2936 Clear 11 1022 81 16093 2.1 0 18:39 05.12.2019
2937 Clouds 11 1020 66 16093 2.6 130 18:21 05.12.2019
2938 Clouds 11 1020 66 16093 2.6 130 18:21 05.12.2019
2939 Clouds 11 1020 66 16093 2.6 130 18:21 05.12.2019
2940 Clear 11 1021 81 16093 2.6 90 17:59 05.12.2019
2941 Clear 10 1021 87 16093 2.6 70 17:38 05.12.2019
2942 Clouds 10 1020 76 16093 1.11 216 17:19 05.12.2019
2943 Clear 8 1020 93 16093 3.1 60 16:55 05.12.2019
2944 Clear 7 1020 93 16093 3.6 50 16:37 05.12.2019
2945 Clouds 7 1019 87 16093 2.1 210 16:18 05.12.2019
2946 Clear 7 1020 100 16093 3.6 60 15:55 05.12.2019
2947 Clear 7 1019 93 16093 2.1 60 15:37 05.12.2019
2948 Clouds 7 1018 87 16093 1.5 270 15:18 05.12.2019
2949 Clear 7 1019 93 16093 3.1 50 14:54 05.12.2019
2950 Clear 7 1018 100 16093 3.1 60 14:36 05.12.2019
2951 Clouds 7 1017 93 16093 2.1 270 14:18 05.12.2019
2952 Clear 7 1018 93 16093 2.84 211 13:55 05.12.2019
2953 Clear 7 1018 93 16093 2.84 211 13:36 05.12.2019
2954 Clouds 7 1016 87 16093 2.11 209 13:18 05.12.2019
2955 Clouds 8 1017 87 16093 2.11 209 12:42 05.12.2019
2956 Clouds 8 1016 87 16093 2.11 209 12:23 05.12.2019
2957 Clouds 9 1017 87 16093 4.1 70 11:56 05.12.2019
2958 Clouds 9 1017 87 16093 4.1 70 11:38 05.12.2019
2959 Clear 7 1017 71 16093 6.7 220 11:19 05.12.2019
2960 Clouds 7 1017 87 16093 3.1 170 10:55 05.12.2019
2961 Clouds 7 1017 87 16093 3.1 170 10:55 05.12.2019
2962 Clouds 8 1016 87 16093 1.5 100 10:37 05.12.2019
2963 Clouds 7 1014 71 16093 5.1 190 10:18 05.12.2019
2964 Clouds 7 1014 71 16093 5.1 190 10:18 05.12.2019
2965 Clouds 7 1015 93 16093 3.6 200 09:43 05.12.2019
2966 Clouds 8 1014 66 16093 7.2 200 09:21 05.12.2019
2967 Clouds 7 1016 93 16093 2.1 0 08:58 05.12.2019
2968 Clouds 7 1016 87 16093 2.1 230 08:37 05.12.2019
2969 Clouds 8 1015 93 16093 2.1 100 08:19 05.12.2019
2970 Clouds 8 1015 93 16093 2.1 100 08:19 05.12.2019
2971 Mist 8 1014 100 4828 1.5 280 07:49 05.12.2019
2972 Mist 8 1014 100 4828 1.5 280 07:49 05.12.2019
2973 Clouds 8 1016 100 16093 3.6 30 07:31 05.12.2019
2974 Clouds 7 1016 100 16093 2.1 340 06:57 05.12.2019
2975 Clouds 7 1015 93 16093 2.1 220 06:38 05.12.2019
2976 Clouds 7 1014 93 14484 0.54 106 06:18 05.12.2019
2977 Mist 9 1015 100 2414 2.1 20 05:47 05.12.2019
2978 Clouds 9 1013 93 14484 1.09 134 05:21 05.12.2019
2979 Rain 9 1013 93 16093 1.5 70 03:52 05.12.2019
2980 Rain 9 1013 93 16093 1.5 70 03:52 05.12.2019
2981 Mist 9 1014 93 4828 1.09 134 02:43 05.12.2019
2982 Clouds 9 1013 93 16093 1.09 134 02:23 05.12.2019
2983 Clouds 9 1013 93 16093 1.94 144 01:52 05.12.2019
2984 Clouds 9 1013 93 16093 1.85 168 01:24 05.12.2019
2985 Rain 9 1013 93 12874 3.1 90 00:50 05.12.2019
2986 Rain 9 1012 93 12874 5.7 80 00:24 05.12.2019
2987 Rain 9 1014 100 4828 2.1 60 23:57 04.12.2019
2988 Rain 9 1013 93 4828 3.1 130 23:38 04.12.2019
2989 Rain 9 1013 93 4828 3.1 130 23:19 04.12.2019
2990 Rain 9 1013 93 4828 1.5 120 22:39 04.12.2019
2991 Rain 9 1013 93 4828 1.5 120 22:20 04.12.2019
2992 Rain 9 1014 93 2816 2.5 284 21:58 04.12.2019
2993 Rain 10 1014 93 4828 2.1 260 21:39 04.12.2019
2994 Rain 10 1013 81 9656 2.5 284 21:21 04.12.2019
2995 Rain 10 1014 81 4828 2.5 284 20:59 04.12.2019
2996 Drizzle 10 1015 81 8047 3.1 30 20:40 04.12.2019
2997 Rain 10 1015 71 11265 1.4 4 20:22 04.12.2019
2998 Rain 10 1015 81 4828 4.1 40 19:59 04.12.2019
2999 Rain 10 1016 76 14484 3.6 40 19:38 04.12.2019
3000 Rain 10 1016 71 16093 1.5 60 19:20 04.12.2019
3001 Rain 10 1016 76 12874 2.6 50 18:56 04.12.2019
3002 Rain 10 1017 66 14484 1.5 60 18:38 04.12.2019
3003 Rain 10 1016 71 16093 1.5 80 18:20 04.12.2019
3004 Clouds 9 1016 76 16093 0.69 84 17:40 04.12.2019
3005 Clouds 9 1016 66 16093 0.93 129 17:21 04.12.2019
3006 Clouds 9 1017 76 16093 0.93 129 16:59 04.12.2019
3007 Clouds 9 1017 81 16093 0.93 129 16:39 04.12.2019
3008 Rain 9 1016 71 16093 0.93 129 16:19 04.12.2019
3009 Clouds 9 1017 81 16093 0.93 129 15:55 04.12.2019
3010 Clouds 9 1017 76 16093 0.93 129 15:37 04.12.2019
3011 Clouds 9 1016 71 16093 0.93 129 15:19 04.12.2019
3012 Clouds 9 1016 76 16093 0.93 129 14:44 04.12.2019
3013 Clouds 9 1016 76 16093 0.93 129 14:23 04.12.2019
3014 Clouds 9 1016 76 16093 1.32 142 13:58 04.12.2019
3015 Clouds 9 1016 71 16093 1.32 142 13:38 04.12.2019
3016 Clouds 9 1016 71 16093 1.32 142 13:38 04.12.2019
3017 Clouds 9 1016 66 16093 1.5 200 13:20 04.12.2019
3018 Clouds 9 1017 71 16093 0.24 219 12:45 04.12.2019
3019 Clouds 9 1017 71 16093 0.24 219 12:25 04.12.2019
3020 Clouds 9 1017 71 16093 2.1 40 11:56 04.12.2019
3021 Clouds 10 1017 66 16093 2.1 60 11:38 04.12.2019
3022 Clouds 10 1017 66 16093 2.1 60 11:38 04.12.2019
3023 Clouds 10 1017 66 16093 0.79 342 11:20 04.12.2019
3024 Clouds 10 1018 62 16093 0.79 342 10:44 04.12.2019
3025 Clouds 10 1017 66 16093 0.79 342 10:23 04.12.2019
3026 Clouds 10 1018 66 16093 2.1 40 09:57 04.12.2019
3027 Clouds 10 1017 66 16093 1.5 250 09:37 04.12.2019
3028 Clouds 10 1017 66 16093 1.5 250 09:19 04.12.2019
3029 Clouds 10 1019 62 16093 0.79 342 08:40 04.12.2019
3030 Clouds 10 1018 58 16093 2.1 180 08:21 04.12.2019
3031 Clouds 10 1019 54 16093 0.6 267 07:48 04.12.2019
3032 Clouds 10 1019 54 16093 0.6 267 07:30 04.12.2019
3033 Clear 10 1019 50 16093 2.6 360 06:36 04.12.2019
3034 Clear 10 1019 66 16093 1.5 320 05:48 04.12.2019
3035 Clear 10 1019 66 16093 1.5 320 05:29 04.12.2019
3036 Clear 11 1019 62 16093 0.71 278 04:25 04.12.2019
3037 Clear 12 1019 54 16093 0.71 278 02:55 04.12.2019
3038 Clear 13 1020 44 16093 3.1 310 00:52 04.12.2019
3039 Clear 13 1020 44 16093 3.1 310 00:28 04.12.2019
3040 Clear 14 1020 44 16093 3.1 330 23:59 03.12.2019
3041 Clear 14 1020 44 16093 1.5 40 23:40 03.12.2019
3042 Clouds 13 1020 41 16093 2.01 0 23:19 03.12.2019
3043 Clear 14 1021 44 16093 2.1 40 22:41 03.12.2019
3044 Clouds 13 1021 41 16093 2.01 0 22:19 03.12.2019
3045 Clear 13 1021 44 16093 2.01 0 21:59 03.12.2019
3046 Clear 13 1022 41 16093 3.1 320 21:38 03.12.2019
3047 Clouds 13 1022 43 16093 2.01 0 21:19 03.12.2019
3048 Clear 13 1022 43 16093 3.1 0 20:58 03.12.2019
3049 Clear 13 1023 43 16093 3.1 340 20:39 03.12.2019
3050 Clouds 12 1022 43 16093 1.73 336 20:18 03.12.2019
3051 Clear 12 1023 43 16093 3.1 330 19:55 03.12.2019
3052 Clear 12 1023 43 16093 3.1 330 19:55 03.12.2019
3053 Clear 12 1024 53 16093 1.73 336 19:37 03.12.2019
3054 Clouds 11 1023 46 16093 1.73 336 19:18 03.12.2019
3055 Clear 11 1024 57 16093 1.73 336 18:56 03.12.2019
3056 Clear 10 1024 61 16093 1.73 336 18:38 03.12.2019
3057 Clouds 9 1024 57 16093 1.73 336 18:19 03.12.2019
3058 Clear 9 1024 61 16093 1.73 336 17:55 03.12.2019
3059 Clear 8 1024 65 16093 1.73 336 17:36 03.12.2019
3060 Clear 8 1024 65 16093 1.73 336 17:36 03.12.2019
3061 Clouds 6 1023 61 16093 1.09 309 17:18 03.12.2019
3062 Clear 6 1024 70 16093 1.09 309 16:56 03.12.2019
3063 Clear 6 1023 75 16093 1.09 309 16:36 03.12.2019
3064 Clouds 6 1022 65 16093 2.1 210 16:18 03.12.2019
3065 Clear 6 1023 65 16093 1.09 309 15:41 03.12.2019
3066 Clouds 6 1022 70 16093 1.5 210 15:20 03.12.2019
3067 Clear 6 1023 57 16093 2.6 360 14:59 03.12.2019
3068 Clear 6 1023 80 16093 1.09 309 14:41 03.12.2019
3069 Clouds 6 1022 65 16093 2.1 200 14:19 03.12.2019
3070 Clear 6 1022 75 16093 0.9 291 13:39 03.12.2019
3071 Clouds 6 1022 65 16093 1.5 220 13:21 03.12.2019
3072 Clear 6 1022 53 16093 2.6 340 12:59 03.12.2019
3073 Clear 6 1022 53 16093 2.6 340 12:59 03.12.2019
3074 Clear 6 1023 65 16093 0.59 300 12:38 03.12.2019
3075 Clouds 6 1022 65 16093 0.59 300 12:18 03.12.2019
3076 Clear 6 1022 65 16093 0.59 300 11:58 03.12.2019
3077 Clear 6 1022 65 16093 0.59 300 11:58 03.12.2019
3078 Clear 6 1023 53 16093 2.6 300 11:38 03.12.2019
3079 Clouds 6 1022 65 16093 1.5 260 11:20 03.12.2019
3080 Clouds 6 1022 65 16093 1.5 260 11:20 03.12.2019
3081 Clear 6 1023 50 16093 2.1 310 10:56 03.12.2019
3082 Clear 7 1023 50 16093 0.98 308 10:38 03.12.2019
3083 Clouds 6 1022 65 16093 0.98 308 10:19 03.12.2019
3084 Clear 6 1023 65 16093 2.6 290 09:45 03.12.2019
3085 Clear 6 1023 65 16093 2.6 290 09:25 03.12.2019
3086 Clear 6 1023 70 16093 0.98 308 08:57 03.12.2019
3087 Clear 6 1023 70 16093 0.98 308 08:57 03.12.2019
3088 Clear 6 1023 65 16093 0.98 308 08:38 03.12.2019
3089 Clouds 6 1022 61 16093 1.5 210 08:20 03.12.2019
3090 Clear 7 1023 65 16093 1.04 288 07:51 03.12.2019
3091 Clear 7 1023 65 16093 1.04 288 07:28 03.12.2019
3092 Clear 7 1023 65 16093 1.04 288 06:45 03.12.2019
3093 Clear 7 1023 65 16093 1.04 288 06:45 03.12.2019
3094 Clouds 7 1023 57 16093 2.1 200 06:20 03.12.2019
3095 Clouds 8 1023 86 16093 2.6 270 05:53 03.12.2019
3096 Clear 9 1023 57 16093 1.27 324 03:42 03.12.2019
3097 Clouds 9 1022 37 16093 1.5 210 03:22 03.12.2019
3098 Clear 11 1023 53 16093 2.1 290 02:53 03.12.2019
3099 Clear 11 1023 53 16093 2.1 290 02:53 03.12.2019
3100 Clear 11 1023 53 16093 2.1 290 02:32 03.12.2019
3101 Clear 11 1023 53 16093 2.1 300 01:58 03.12.2019
3102 Clear 12 1022 46 16093 0.69 15 01:38 03.12.2019
3103 Clouds 12 1021 32 16093 0.69 15 01:18 03.12.2019
3104 Clear 13 1022 42 16093 0.76 335 00:41 03.12.2019
3105 Clear 13 1022 42 16093 0.76 335 00:41 03.12.2019
3106 Clouds 13 1021 28 16093 1.5 330 00:23 03.12.2019
3107 Clear 13 1022 37 16093 0.76 335 23:44 02.12.2019
3108 Clouds 12 1022 28 16093 2.1 70 23:22 02.12.2019
3109 Clear 11 1022 35 16093 2.1 230 22:56 02.12.2019
3110 Clear 12 1023 37 16093 2.6 310 22:37 02.12.2019
3111 Clouds 12 1022 30 16093 1.52 17 22:19 02.12.2019
3112 Clear 12 1023 37 16093 2.6 0 21:39 02.12.2019
3113 Clouds 12 1023 32 16093 1.5 350 21:20 02.12.2019
3114 Clear 11 1024 40 16093 3.6 310 20:57 02.12.2019
3115 Clear 11 1024 43 16093 1.52 17 20:39 02.12.2019
3116 Clouds 9 1024 37 16093 1.54 347 20:20 02.12.2019
3117 Clear 10 1024 46 16093 1.5 40 19:56 02.12.2019
3118 Clear 10 1025 40 16093 2.1 340 19:38 02.12.2019
3119 Clear 9 1026 39 16093 1.54 347 19:20 02.12.2019
3120 Clear 9 1025 52 16093 3.6 270 18:48 02.12.2019
3121 Clear 9 1025 52 16093 3.6 270 18:48 02.12.2019
3122 Clear 8 1025 52 16093 3.6 270 18:24 02.12.2019
3123 Clear 7 1025 56 16093 3.1 250 17:59 02.12.2019
3124 Clear 6 1025 38 16093 2.1 240 17:41 02.12.2019
3125 Clouds 5 1024 56 16093 0.67 301 17:20 02.12.2019
3126 Clear 4 1025 50 16093 0.67 301 16:57 02.12.2019
3127 Clouds 4 1024 69 16093 0.67 301 16:39 02.12.2019
3128 Clouds 4 1024 60 16093 1.5 200 16:18 02.12.2019
3129 Clouds 4 1024 60 16093 3.1 350 15:56 02.12.2019
3130 Clouds 3 1024 64 16093 0.67 301 15:38 02.12.2019
3131 Clouds 4 1024 69 16093 0.67 301 15:19 02.12.2019
3132 Clear 3 1024 64 16093 3.6 350 14:41 02.12.2019
3133 Clouds 4 1023 60 16093 1.5 220 14:20 02.12.2019
3134 Clear 4 1024 64 16093 2.6 330 13:59 02.12.2019
3135 Clear 4 1023 60 16093 2.1 320 13:41 02.12.2019
3136 Clouds 4 1023 65 16093 0.96 304 13:20 02.12.2019
3137 Clouds 4 1023 65 16093 0.96 304 13:20 02.12.2019
3138 Clear 4 1024 56 16093 2.1 330 12:59 02.12.2019
3139 Clear 4 1024 60 16093 0.96 304 12:40 02.12.2019
3140 Clouds 4 1023 56 16093 0.96 304 12:20 02.12.2019
3141 Clear 4 1024 60 16093 0.96 304 11:56 02.12.2019
3142 Clear 4 1024 60 16093 0.96 304 11:37 02.12.2019
3143 Clouds 4 1023 56 16093 2.1 270 11:18 02.12.2019
3144 Clear 4 1024 56 16093 0.74 303 10:55 02.12.2019
3145 Clear 4 1024 69 16093 0.74 303 10:37 02.12.2019
3146 Clouds 4 1023 56 16093 0.74 303 10:19 02.12.2019
3147 Clear 5 1024 60 16093 0.74 303 09:41 02.12.2019
3148 Clouds 5 1023 56 16093 0.74 303 09:19 02.12.2019
3149 Clear 5 1024 56 16093 0.74 303 08:57 02.12.2019
3150 Clear 5 1024 56 16093 0.74 303 08:39 02.12.2019
3151 Clouds 5 1023 52 16093 1.5 230 08:21 02.12.2019
3152 Clear 5 1024 56 16093 1.01 306 07:44 02.12.2019
3153 Clouds 5 1023 52 16093 1.5 210 07:21 02.12.2019
3154 Clouds 5 1023 52 16093 1.5 210 07:21 02.12.2019
3155 Clear 5 1024 60 16093 1.01 306 06:56 02.12.2019
3156 Clear 5 1024 65 16093 1.01 306 06:38 02.12.2019
3157 Clear 5 1024 56 16093 2.1 230 05:34 02.12.2019
3158 Clear 6 1024 60 16093 3.1 310 04:27 02.12.2019
3159 Clear 7 1023 49 16093 0.88 349 02:54 02.12.2019
3160 Clear 8 1023 52 16093 1.5 310 02:31 02.12.2019
3161 Clear 9 1023 42 16093 2.1 350 01:26 02.12.2019
3162 Clear 9 1023 39 16093 2.1 30 00:58 02.12.2019
3163 Clear 9 1023 37 16093 4.1 40 00:25 02.12.2019
3164 Clear 9 1023 37 16093 3.6 40 23:55 01.12.2019
3165 Clear 9 1023 37 16093 3.1 320 23:37 01.12.2019
3166 Clouds 9 1022 29 16093 2.6 360 23:19 01.12.2019
3167 Clear 9 1023 37 16093 2.6 330 22:55 01.12.2019
3168 Clear 9 1023 37 16093 2.1 350 22:36 01.12.2019
3169 Clouds 9 1022 34 16093 3.1 30 22:18 01.12.2019
3170 Clouds 9 1022 34 16093 3.1 30 22:18 01.12.2019
3171 Clouds 9 1022 34 16093 3.1 30 22:18 01.12.2019
3172 Clear 8 1023 37 16093 2.1 30 21:54 01.12.2019
3173 Clouds 9 1023 39 16093 3.6 40 21:36 01.12.2019
3174 Clouds 9 1024 45 16093 3.1 20 21:18 01.12.2019
3175 Clear 8 1023 39 16093 3.1 50 20:54 01.12.2019
3176 Clear 8 1024 42 16093 3.1 310 20:36 01.12.2019
3177 Clear 8 1024 42 16093 3.1 310 20:36 01.12.2019
3178 Clouds 8 1024 42 16093 2.16 13 20:18 01.12.2019
3179 Clouds 7 1024 42 16093 3.1 330 19:54 01.12.2019
3180 Clear 8 1025 49 16093 2.1 330 19:36 01.12.2019
3181 Clouds 7 1024 48 16093 1.5 90 19:18 01.12.2019
3182 Clouds 7 1025 49 16093 3.1 320 18:54 01.12.2019
3183 Clouds 6 1025 52 16093 4.6 310 18:36 01.12.2019
3184 Clouds 6 1025 48 16093 2.6 20 18:18 01.12.2019
3185 Clear 5 1025 56 16093 4.1 320 17:41 01.12.2019
3186 Clouds 5 1024 52 16093 2.1 30 17:23 01.12.2019
3187 Clear 5 1025 56 16093 2.6 320 16:57 01.12.2019
3188 Clouds 5 1024 60 16093 3.1 340 16:39 01.12.2019
3189 Clouds 4 1023 60 16093 1.24 353 16:20 01.12.2019
3190 Clouds 4 1022 64 16093 3.6 120 15:50 01.12.2019
3191 Clouds 4 1024 60 16093 4.6 350 15:31 01.12.2019
3192 Clouds 5 1023 65 16093 2.1 330 14:44 01.12.2019
3193 Clouds 5 1023 60 16093 1.96 6 14:20 01.12.2019
3194 Clouds 5 1023 60 16093 2.1 350 13:59 01.12.2019
3195 Clouds 5 1023 65 16093 3.6 320 13:39 01.12.2019
3196 Clouds 5 1022 60 16093 2.6 360 13:20 01.12.2019
3197 Clouds 5 1023 56 16093 2.1 40 12:44 01.12.2019
3198 Clouds 4 1023 65 16093 1.79 10 11:59 01.12.2019
3199 Clouds 5 1023 60 16093 2.1 310 11:40 01.12.2019
3200 Clouds 5 1022 56 16093 1.5 350 11:21 01.12.2019
3201 Clouds 5 1023 65 16093 1.5 300 10:43 01.12.2019
3202 Clouds 5 1022 56 16093 2.1 10 10:21 01.12.2019
3203 Clouds 5 1022 60 16093 1.95 352 09:57 01.12.2019
3204 Clouds 5 1023 56 16093 2.1 320 09:39 01.12.2019
3205 Clouds 5 1022 56 16093 3.6 40 09:20 01.12.2019
3206 Clouds 5 1022 56 16093 3.6 40 09:20 01.12.2019
3207 Clouds 5 1023 48 16093 4.6 20 08:44 01.12.2019
3208 Clouds 5 1023 52 16093 3.6 20 08:20 01.12.2019
3209 Clouds 6 1023 48 16093 3.6 20 07:51 01.12.2019
3210 Clouds 6 1023 48 16093 3.6 20 07:30 01.12.2019
3211 Clouds 6 1023 52 16093 4.1 30 06:56 01.12.2019
3212 Clouds 6 1023 49 16093 4.1 30 06:34 01.12.2019
3213 Clouds 6 1023 52 16093 3.6 30 05:48 01.12.2019
3214 Clouds 7 1024 52 16093 2.6 340 04:50 01.12.2019
3215 Clouds 7 1024 52 16093 3.1 360 02:54 01.12.2019
3216 Clouds 7 1023 52 16093 4.1 10 02:36 01.12.2019
3217 Clouds 7 1023 42 16093 3.1 30 02:18 01.12.2019
3218 Clear 7 1023 49 16093 2.6 10 01:50 01.12.2019
3219 Clouds 8 1022 39 16093 4.1 80 01:19 01.12.2019
3220 Clear 8 1023 45 16093 3.1 40 00:40 01.12.2019
3221 Clouds 8 1022 39 16093 3.1 70 00:22 01.12.2019
3222 Clear 9 1022 42 16093 2.12 30 23:42 30.11.2019
3223 Clouds 8 1022 42 16093 2.6 90 23:23 30.11.2019
3224 Clear 8 1022 45 16093 3.6 60 22:50 30.11.2019
3225 Clear 8 1022 45 16093 3.6 60 22:30 30.11.2019
3226 Clear 8 1022 42 16093 2.1 70 21:59 30.11.2019
3227 Clear 8 1023 42 16093 1.5 150 21:40 30.11.2019
3228 Clouds 8 1022 42 16093 1.89 33 21:20 30.11.2019
3229 Clear 7 1023 45 16093 1.89 33 20:55 30.11.2019
3230 Clear 7 1023 49 16093 1.89 33 20:37 30.11.2019
3231 Clouds 7 1023 45 16093 2.6 70 20:19 30.11.2019
3232 Clear 6 1024 56 16093 1.44 40 19:55 30.11.2019
3233 Clear 6 1024 56 16093 1.44 40 19:36 30.11.2019
3234 Clear 6 1024 48 16093 1.44 40 19:18 30.11.2019
3235 Clear 6 1023 56 16093 1.44 40 18:55 30.11.2019
3236 Clear 5 1023 60 16093 1.44 40 18:37 30.11.2019
3237 Clouds 5 1022 52 16093 1.44 40 18:18 30.11.2019
3238 Clear 4 1023 64 16093 1.44 40 17:56 30.11.2019
3239 Clear 4 1023 64 16093 1.44 40 17:56 30.11.2019
3240 Clear 3 1022 64 16093 1.5 130 17:37 30.11.2019
3241 Clouds 3 1022 64 16093 0.28 156 17:19 30.11.2019
3242 Clear 2 1022 74 16093 0.28 156 16:42 30.11.2019
3243 Clouds 1 1021 69 16093 0.28 156 16:23 30.11.2019
3244 Clear 1 1022 59 16093 0.28 156 15:58 30.11.2019
3245 Clear 1 1021 59 16093 1.5 40 15:40 30.11.2019
3246 Clouds 0 1020 64 16093 2.1 150 15:19 30.11.2019
3247 Clear 0 1021 59 16093 2.1 10 14:56 30.11.2019
3248 Clear 1 1020 59 16093 0.28 156 14:37 30.11.2019
3249 Clear 1 1020 59 16093 0.28 156 14:37 30.11.2019
3250 Clear 1 1019 59 16093 1.24 214 14:18 30.11.2019
3251 Clear 1 1019 56 16093 2.1 50 13:56 30.11.2019
3252 Clear 1 1019 69 16093 1.5 70 13:36 30.11.2019
3253 Clouds 1 1018 59 16093 1.37 218 13:18 30.11.2019
3254 Clear 2 1018 69 16093 2.1 60 12:42 30.11.2019
3255 Clear 2 1018 69 16093 2.1 60 12:24 30.11.2019
3256 Clear 2 1017 64 16093 2.1 70 11:43 30.11.2019
3257 Clouds 2 1016 51 16093 1.5 230 11:20 30.11.2019
3258 Clear 2 1017 74 16093 1.5 80 10:56 30.11.2019
3259 Clear 2 1017 64 16093 2.1 100 10:38 30.11.2019
3260 Clouds 2 1015 51 16093 2.6 190 10:19 30.11.2019
3261 Clear 2 1016 69 16093 2.47 230 09:46 30.11.2019
3262 Clear 3 1016 69 16093 2.47 230 09:27 30.11.2019
3263 Clear 3 1015 64 16093 1.5 70 08:44 30.11.2019
3264 Clouds 3 1014 48 16093 4.1 220 08:22 30.11.2019
3265 Clear 3 1015 64 16093 2.6 60 07:58 30.11.2019
3266 Clear 4 1015 55 16093 2.6 190 07:39 30.11.2019
3267 Clear 4 1014 51 16093 2.6 200 06:59 30.11.2019
3268 Clear 4 1014 51 16093 2.6 190 06:29 30.11.2019
3269 Clear 5 1013 48 16093 1.5 0 05:52 30.11.2019
3270 Clear 5 1012 52 16093 3.6 150 03:53 30.11.2019
3271 Clear 6 1010 52 16093 4.1 210 02:47 30.11.2019
3272 Clouds 6 1009 45 16093 6.2 200 02:22 30.11.2019
3273 Clear 7 1008 52 16093 9.3 240 01:25 30.11.2019
3274 Clouds 8 1008 45 16093 10.3 220 00:51 30.11.2019
3275 Clouds 8 1008 45 16093 10.3 220 00:32 30.11.2019
3276 Clouds 8 1008 45 16093 9.8 220 23:59 29.11.2019
3277 Clouds 8 1007 42 16093 10.3 230 23:41 29.11.2019
3278 Rain 8 1005 42 16093 8.7 240 23:23 29.11.2019
3279 Clouds 8 1006 45 16093 10.3 230 22:46 29.11.2019
3280 Clouds 8 1006 45 16093 10.3 230 22:46 29.11.2019
3281 Clouds 8 1006 45 16093 10.3 230 22:26 29.11.2019
3282 Clouds 8 1006 49 16093 7.7 230 21:45 29.11.2019
3283 Clouds 8 1006 49 16093 7.7 230 21:25 29.11.2019
3284 Clouds 8 1005 49 16093 9.8 230 20:59 29.11.2019
3285 Clouds 8 1005 45 16093 7.7 250 20:39 29.11.2019
3286 Clouds 8 1004 49 16093 6.7 210 20:20 29.11.2019
3287 Clouds 8 1005 49 16093 9.8 220 19:58 29.11.2019
3288 Clouds 8 1005 49 16093 9.3 220 19:39 29.11.2019
3289 Clouds 8 1005 49 16093 9.3 220 19:39 29.11.2019
3290 Clouds 8 1003 52 16093 8.7 230 19:20 29.11.2019
3291 Clouds 7 1005 51 16093 8.2 220 18:57 29.11.2019
3292 Clouds 7 1004 51 16093 10.3 210 18:38 29.11.2019
3293 Clouds 7 1002 51 16093 5.7 220 18:19 29.11.2019
3294 Clouds 6 1003 70 16093 6.7 210 17:43 29.11.2019
3295 Clouds 6 1003 70 16093 6.7 210 17:24 29.11.2019
3296 Clouds 5 1002 80 16093 4.1 220 16:57 29.11.2019
3297 Clouds 4 1002 80 16093 2.6 220 16:39 29.11.2019
3298 Clouds 4 1000 70 16093 2.6 210 16:19 29.11.2019
3299 Clear 4 1001 86 16093 2.6 170 15:41 29.11.2019
3300 Clouds 4 1000 86 16093 4.46 204 15:23 29.11.2019
3301 Clouds 4 1000 86 16093 4.46 204 15:23 29.11.2019
3302 Clouds 4 1001 86 16093 4.46 204 14:56 29.11.2019
3303 Clouds 4 1001 87 16093 4.46 204 14:38 29.11.2019
3304 Clouds 4 1000 81 16093 1.5 300 14:20 29.11.2019
3305 Clouds 5 1001 87 16093 2.41 219 13:41 29.11.2019
3306 Clouds 5 1000 81 16093 4.87 189 13:21 29.11.2019
3307 Clouds 5 1000 81 16093 4.87 189 13:21 29.11.2019
3308 Clouds 4 1001 87 16093 4.87 189 12:57 29.11.2019
3309 Clouds 4 1001 87 16093 4.87 189 12:39 29.11.2019
3310 Clouds 4 1000 81 16093 3.6 210 12:21 29.11.2019
3311 Clouds 5 1001 87 16093 1.5 170 11:54 29.11.2019
3312 Clouds 5 1001 87 16093 2.1 120 11:36 29.11.2019
3313 Clouds 5 1000 87 16093 2.43 172 11:18 29.11.2019
3314 Clouds 5 1001 87 16093 2.43 172 10:55 29.11.2019
3315 Clouds 5 1000 87 16093 2.43 172 10:37 29.11.2019
3316 Clouds 5 1000 75 16093 2.43 172 10:18 29.11.2019
3317 Clouds 5 1001 87 16093 1.5 360 09:55 29.11.2019
3318 Clouds 5 1001 93 16093 2.43 172 09:36 29.11.2019
3319 Clouds 5 1000 87 16093 2.1 170 09:18 29.11.2019
3320 Clouds 5 1001 87 16093 2.43 172 08:39 29.11.2019
3321 Rain 5 1000 87 16093 1.5 290 08:20 29.11.2019
3322 Rain 5 1001 93 16093 2.52 193 07:56 29.11.2019
3323 Clouds 5 1001 86 4828 2.52 193 07:38 29.11.2019
3324 Clouds 5 1001 86 4828 2.52 193 07:19 29.11.2019
3325 Clouds 5 999 100 16093 1.5 210 06:42 29.11.2019
3326 Rain 5 1000 74 16093 4.1 50 05:48 29.11.2019
3327 Rain 5 1000 74 16093 4.1 50 05:24 29.11.2019
3328 Rain 5 1000 85 16093 2.15 235 04:31 29.11.2019
3329 Rain 6 999 100 16093 1.5 120 03:22 29.11.2019
3330 Rain 6 999 85 16093 2.15 235 02:30 29.11.2019
3331 Rain 6 1000 88 8047 2.74 317 01:52 29.11.2019
3332 Rain 6 1000 81 4828 2.1 140 01:26 29.11.2019
3333 Rain 7 1000 87 4828 3.6 280 00:43 29.11.2019
3334 Rain 7 1000 87 4828 4.1 270 00:21 29.11.2019
3335 Rain 7 1000 62 16093 4.6 140 23:56 28.11.2019
3336 Rain 7 1000 100 11265 10.3 10 23:36 28.11.2019
3337 Rain 7 1000 93 16093 5.7 290 23:18 28.11.2019
3338 Rain 8 1001 87 16093 8.7 20 22:38 28.11.2019
3339 Rain 9 1001 87 16093 8.7 20 22:20 28.11.2019
3340 Rain 9 1002 66 16093 5.1 150 21:59 28.11.2019
3341 Rain 9 1002 71 16093 6.7 140 21:40 28.11.2019
3342 Clouds 10 1002 61 16093 5.1 80 21:20 28.11.2019
3343 Clouds 10 1003 71 16093 5.1 110 20:56 28.11.2019
3344 Clouds 10 1004 66 16093 4.1 60 20:38 28.11.2019
3345 Clouds 9 1004 57 16093 3.6 40 20:18 28.11.2019
3346 Clouds 9 1004 76 16093 5.1 100 19:55 28.11.2019
3347 Clouds 9 1005 76 16093 3.6 90 19:36 28.11.2019
3348 Clouds 8 1004 57 16093 2.6 50 19:18 28.11.2019
3349 Clouds 8 1005 76 16093 3.1 80 18:55 28.11.2019
3350 Clouds 8 1005 81 16093 1.74 82 18:37 28.11.2019
3351 Clouds 7 1004 52 16093 2.1 360 18:18 28.11.2019
3352 Clouds 6 1005 70 16093 1.74 82 17:41 28.11.2019
3353 Clouds 5 1004 56 16093 1.74 82 17:23 28.11.2019
3354 Clouds 4 1005 81 16093 2.1 30 16:58 28.11.2019
3355 Clouds 4 1005 80 16093 1.5 30 16:38 28.11.2019
3356 Clouds 3 1004 60 16093 2.6 200 16:19 28.11.2019
3357 -273 0 0 0 0 0 15:55 28.11.2019
3358 -273 0 0 0 0 0 15:55 28.11.2019
3359 Clouds 3 1004 86 16093 2.1 40 15:36 28.11.2019
3360 Clouds 3 1003 60 16093 3.6 200 15:18 28.11.2019
3361 Clear 4 1004 86 16093 0.43 193 14:41 28.11.2019
3362 Clouds 4 1003 60 16093 3.1 170 14:22 28.11.2019
3363 Clear 4 1004 86 16093 3.19 205 13:59 28.11.2019
3364 Clear 4 1004 86 16093 3.19 205 13:59 28.11.2019
3365 Clear 4 1004 93 16093 3.19 205 13:41 28.11.2019
3366 Clouds 4 1003 57 16093 2.6 190 13:22 28.11.2019
3367 Clear 5 1004 93 16093 2.1 60 12:49 28.11.2019
3368 Clear 5 1004 93 16093 2.1 60 12:29 28.11.2019
3369 Clear 5 1004 93 16093 2.5 205 11:59 28.11.2019
3370 Clear 5 1004 93 16093 2.5 205 11:59 28.11.2019
3371 Clear 5 1004 93 16093 2.6 60 11:41 28.11.2019
3372 Clouds 5 1003 52 16093 2.6 220 11:21 28.11.2019
3373 Clear 6 1004 93 16093 2.6 60 10:59 28.11.2019
3374 Clear 6 1003 86 16093 3.1 20 10:40 28.11.2019
3375 Clouds 5 1002 52 16093 6.2 220 10:20 28.11.2019
3376 Clear 6 1003 81 16093 3.1 80 09:41 28.11.2019
3377 Clouds 6 1002 61 16093 4.1 200 09:23 28.11.2019
3378 Clear 6 1003 87 16093 3.36 218 08:59 28.11.2019
3379 Clouds 6 1003 81 16093 1.5 340 08:39 28.11.2019
3380 Clouds 6 1002 61 16093 4.6 200 08:21 28.11.2019
3381 Clouds 7 1003 87 16093 2.1 350 07:42 28.11.2019
3382 Clouds 7 1003 87 16093 2.1 350 07:24 28.11.2019
3383 Rain 7 1003 87 14484 6.18 189 06:51 28.11.2019
3384 Rain 7 1003 87 14484 6.18 189 06:31 28.11.2019
3385 Clouds 7 1001 87 16093 6.2 140 05:51 28.11.2019
3386 Clouds 7 1001 61 16093 3.1 170 05:18 28.11.2019
3387 Rain 9 999 86 16093 4.6 170 02:50 28.11.2019
3388 Rain 10 999 93 16093 4.6 270 01:50 28.11.2019
3389 Clouds 10 999 37 16093 7.7 280 00:48 28.11.2019
3390 Clouds 10 999 24 16093 9.8 180 00:24 28.11.2019
3391 Clouds 11 998 30 16093 8.7 230 23:56 27.11.2019
3392 Clouds 11 999 20 16093 10.8 150 23:38 27.11.2019
3393 Rain 12 997 22 16093 7.2 160 23:19 27.11.2019
3394 Clouds 13 999 20 16093 10.3 180 22:39 27.11.2019
3395 Rain 13 997 22 16093 5.7 160 22:20 27.11.2019
3396 Clouds 14 1000 19 16093 12.9 160 21:56 27.11.2019
3397 Clouds 13 1000 22 14484 12.3 170 21:38 27.11.2019
3398 Clouds 13 1000 22 14484 12.3 170 21:38 27.11.2019
3399 Rain 13 998 24 16093 8.7 150 21:19 27.11.2019
3400 Clear 13 1000 22 16093 11.3 170 20:59 27.11.2019
3401 Clouds 12 1001 20 16093 10.3 160 20:40 27.11.2019
3402 Clouds 12 1000 23 16093 5.7 160 20:21 27.11.2019
3403 Clear 12 1002 20 16093 11.8 170 19:58 27.11.2019
3404 Clear 12 1003 20 16093 9.3 190 19:40 27.11.2019
3405 Clouds 11 1001 23 16093 12.3 160 19:21 27.11.2019
3406 Clear 10 1003 20 16093 9.8 170 18:59 27.11.2019
3407 Clear 10 1003 20 16093 9.8 170 18:37 27.11.2019
3408 Clouds 9 1002 23 16093 11.3 160 18:19 27.11.2019
3409 Clear 9 1004 20 16093 5.7 190 17:58 27.11.2019
3410 Clear 9 1004 21 16093 8.2 180 17:40 27.11.2019
3411 Rain 8 1002 26 16093 3.6 160 17:20 27.11.2019
3412 Clear 8 1004 23 16093 9.8 160 16:56 27.11.2019
3413 Clear 8 1004 23 16093 9.8 160 16:56 27.11.2019
3414 Clear 8 1004 26 16093 3.1 160 16:37 27.11.2019
3415 Clouds 7 1002 26 16093 5.7 160 16:19 27.11.2019
3416 Clear 7 1004 26 16093 3.6 150 15:57 27.11.2019
3417 Clouds 7 1005 26 16093 5.7 150 15:38 27.11.2019
3418 Clouds 7 1005 26 16093 5.7 150 15:38 27.11.2019
3419 Clouds 7 1003 26 16093 6.07 158 15:20 27.11.2019
3420 Clouds 7 1005 30 16093 4.6 160 14:56 27.11.2019
3421 Clouds 7 1005 28 16093 6.7 170 14:38 27.11.2019
3422 Clouds 7 1003 26 16093 4.1 170 14:20 27.11.2019
3423 Clear 7 1005 26 16093 6.2 170 13:56 27.11.2019
3424 Clouds 7 1005 26 16093 2.6 140 13:37 27.11.2019
3425 Clouds 7 1004 28 16093 8.2 160 13:18 27.11.2019
3426 Clouds 7 1006 28 16093 5.1 180 12:41 27.11.2019
3427 Clouds 7 1005 28 16093 2.6 260 12:22 27.11.2019
3428 Clouds 7 1005 28 16093 2.6 260 11:57 27.11.2019
3429 Clear 7 1006 30 16093 3.1 170 11:37 27.11.2019
3430 Clouds 6 1005 28 16093 5.7 200 11:18 27.11.2019
3431 Clouds 6 1007 24 16093 5.1 180 10:46 27.11.2019
3432 Clouds 6 1007 24 16093 5.1 180 10:46 27.11.2019
3433 Clouds 6 1006 28 16093 4.1 180 10:24 27.11.2019
3434 Clouds 6 1007 24 16093 5.1 180 09:58 27.11.2019
3435 Clear 6 1008 30 16093 2.1 0 09:40 27.11.2019
3436 Clear 6 1008 33 16093 6.2 170 09:22 27.11.2019
3437 Clear 6 1009 38 16093 6.38 149 08:42 27.11.2019
3438 Clouds 6 1008 28 16093 2.1 0 08:23 27.11.2019
3439 Clouds 6 1008 28 16093 2.1 0 08:23 27.11.2019
3440 Clear 6 1010 44 16093 4.8 152 07:51 27.11.2019
3441 Clear 6 1010 44 16093 4.8 152 07:30 27.11.2019
3442 Clear 7 1011 38 16093 1.5 180 06:55 27.11.2019
3443 Clear 7 1011 38 16093 1.5 180 06:55 27.11.2019
3444 Clear 7 1011 38 16093 1.5 180 06:37 27.11.2019
3445 Clouds 7 1009 28 16093 3.1 170 05:53 27.11.2019
3446 Clouds 7 1010 31 16093 2.1 170 05:26 27.11.2019
3447 Clear 6 1012 38 16093 3.56 146 04:49 27.11.2019
3448 Clear 6 1012 38 16093 3.56 146 04:31 27.11.2019
3449 Clear 6 1012 33 16093 2.1 100 03:43 27.11.2019
3450 Clouds 6 1011 28 16093 2.1 120 03:20 27.11.2019
3451 Clear 7 1012 31 16093 2.1 100 02:32 27.11.2019
3452 Clear 9 1012 19 16093 2.1 150 00:50 27.11.2019
3453 Clear 9 1012 19 16093 2.1 150 00:31 27.11.2019
3454 Clear 10 1012 25 16093 2.1 130 23:56 26.11.2019
3455 Clear 10 1013 19 16093 3.05 145 23:38 26.11.2019
3456 Clear 10 1013 19 16093 1.5 180 23:19 26.11.2019
3457 Clear 10 1014 19 16093 2.6 70 22:40 26.11.2019
3458 Clear 10 1014 19 16093 2.6 70 22:40 26.11.2019
3459 Clouds 9 1013 21 16093 0.74 98 22:20 26.11.2019
3460 Clear 9 1014 19 16093 3.6 80 21:59 26.11.2019
3461 Clear 10 1014 21 16093 3.6 110 21:39 26.11.2019
3462 Clouds 10 1014 21 16093 1.5 50 21:21 26.11.2019
3463 Clear 9 1015 23 16093 2.1 0 20:57 26.11.2019
3464 Clear 9 1015 23 16093 3.6 80 20:37 26.11.2019
3465 Clouds 9 1015 18 16093 3.6 360 20:19 26.11.2019
3466 Clear 9 1016 23 16093 2.6 350 19:56 26.11.2019
3467 Clear 9 1016 23 16093 2.6 350 19:37 26.11.2019
3468 Clear 9 1016 28 16093 2.6 0 19:19 26.11.2019
3469 Clear 8 1016 26 16093 3.1 330 18:57 26.11.2019
3470 Clear 8 1016 26 16093 3.1 330 18:39 26.11.2019
3471 Clouds 8 1016 23 16093 5.7 340 18:21 26.11.2019
3472 Clouds 7 1016 23 16093 5.7 340 17:58 26.11.2019
3473 Clear 7 1017 33 16093 4.6 320 17:39 26.11.2019
3474 Clear 6 1016 28 16093 4.1 350 17:21 26.11.2019
3475 Clear 6 1015 35 16093 4.6 340 16:57 26.11.2019
3476 Clear 5 1015 35 16093 4.6 340 16:37 26.11.2019
3477 Clear 5 1014 26 16093 6.2 330 16:18 26.11.2019
3478 Clear 5 1015 38 16093 5.7 360 15:58 26.11.2019
3479 Clear 5 1015 38 16093 6.2 330 15:37 26.11.2019
3480 Clouds 5 1014 26 16093 8.2 330 15:19 26.11.2019
3481 Clear 5 1014 38 16093 4.6 320 14:47 26.11.2019
3482 Clear 5 1014 38 16093 4.6 320 14:25 26.11.2019
3483 Clear 5 1014 38 16093 5.1 330 13:56 26.11.2019
3484 Clear 5 1013 35 16093 6.7 330 13:38 26.11.2019
3485 Clear 5 1013 33 16093 4.6 360 13:18 26.11.2019
3486 Clear 5 1013 35 16093 6.7 330 12:38 26.11.2019
3487 Clouds 6 1012 30 16093 4.6 360 12:20 26.11.2019
3488 Clouds 6 1012 30 16093 4.6 360 11:58 26.11.2019
3489 Clear 6 1012 30 16093 9.3 330 11:38 26.11.2019
3490 Clear 6 1012 33 16093 3.1 10 11:19 26.11.2019
3491 Clear 6 1012 33 16093 3.1 10 11:19 26.11.2019
3492 Clear 6 1012 28 16093 7.7 330 10:57 26.11.2019
3493 Clear 6 1012 28 16093 7.7 330 10:39 26.11.2019
3494 Clear 6 1012 28 16093 7.7 330 10:39 26.11.2019
3495 Clouds 7 1011 24 16093 8.2 320 10:20 26.11.2019
3496 Clear 7 1012 24 16093 5.1 330 09:45 26.11.2019
3497 Clear 7 1012 24 16093 5.1 330 09:27 26.11.2019
3498 Clear 7 1012 24 16093 6.2 330 08:59 26.11.2019
3499 Clear 7 1011 22 16093 5.1 320 08:38 26.11.2019
3500 Clouds 7 1011 23 16093 7.7 330 08:20 26.11.2019
3501 Clear 8 1011 20 16093 5.1 360 07:43 26.11.2019
3502 Clouds 8 1011 23 16093 8.7 340 07:24 26.11.2019
3503 Clear 8 1011 22 16093 5.1 10 06:54 26.11.2019
3504 Clouds 8 1010 19 16093 11.3 350 06:21 26.11.2019
3505 Clear 9 1011 19 16093 4.6 360 05:38 26.11.2019
3506 Clear 10 1007 18 16093 10.8 320 03:43 26.11.2019
3507 Clear 12 1005 17 16093 13.4 320 01:53 26.11.2019
3508 Clouds 13 1006 17 16093 9.3 330 01:28 26.11.2019
3509 Clear 14 1004 10 16093 14.4 320 00:48 26.11.2019
3510 Clouds 14 1004 9 16093 11.3 340 00:21 26.11.2019
3511 Clouds 15 1004 13 16093 12.9 320 23:39 25.11.2019
3512 Clouds 15 1004 19 16093 11.8 350 23:19 25.11.2019
3513 Clouds 15 1004 19 16093 11.8 350 23:19 25.11.2019
3514 Clouds 16 1003 23 16093 12.3 270 22:56 25.11.2019
3515 Clouds 16 1003 23 16093 8.7 300 22:37 25.11.2019
3516 Clouds 16 1003 22 16093 10.8 350 22:18 25.11.2019
3517 Clear 15 1004 21 16093 7.7 330 21:55 25.11.2019
3518 Clear 15 1004 21 16093 7.7 330 21:36 25.11.2019
3519 Clouds 15 1004 21 16093 8.2 10 21:18 25.11.2019
3520 Clouds 15 1004 21 16093 8.2 10 21:18 25.11.2019
3521 Clouds 15 1004 21 16093 8.2 10 21:18 25.11.2019
3522 Clear 13 1004 44 16093 2.6 80 20:54 25.11.2019
3523 Clear 13 1004 44 16093 2.6 80 20:54 25.11.2019
3524 Clear 13 1004 44 16093 2.6 80 20:36 25.11.2019
3525 Clear 13 1004 44 16093 2.6 80 20:36 25.11.2019
3526 Clear 12 1005 57 16093 5.1 340 20:18 25.11.2019
3527 Clear 12 1005 57 16093 5.1 340 20:18 25.11.2019
3528 Clear 12 1005 57 16093 5.1 340 20:18 25.11.2019
3529 Clouds 11 1004 57 16093 5.1 40 19:54 25.11.2019
3530 Clouds 11 1004 57 16093 5.1 40 19:36 25.11.2019
3531 Clear 10 1004 50 16093 4.68 214 19:18 25.11.2019
3532 Clear 10 1005 50 16093 3.1 150 18:54 25.11.2019
3533 Clear 9 1005 50 16093 3.1 150 18:36 25.11.2019
3534 Clouds 9 1005 57 16093 2.1 100 18:18 25.11.2019
3535 Clouds 8 1005 57 16093 2.1 100 17:55 25.11.2019
3536 Clouds 8 1005 57 16093 2.1 100 17:55 25.11.2019
3537 Clear 7 1007 81 16093 4.68 214 17:36 25.11.2019
3538 Clear 7 1007 81 16093 4.68 214 17:36 25.11.2019
3539 Clear 6 1008 47 16093 2.1 140 17:18 25.11.2019
3540 Clear 5 1009 75 16093 0.74 145 16:41 25.11.2019
3541 Clouds 4 1009 70 16093 1.5 150 16:23 25.11.2019
3542 Clear 4 1009 86 16093 0.74 145 15:57 25.11.2019
3543 Clear 3 1011 75 16093 0.74 145 15:38 25.11.2019
3544 Clear 4 1010 70 16093 1.5 330 15:19 25.11.2019
3545 Clear 4 1012 86 16093 2.1 360 14:56 25.11.2019
3546 Clear 4 1011 86 16093 0.74 145 14:56 25.11.2019
3547 Clear 4 1012 86 16093 2.1 360 14:37 25.11.2019
3548 Clear 4 1011 70 16093 1.5 220 14:19 25.11.2019
3549 Clear 5 1012 80 16093 1.06 148 13:39 25.11.2019
3550 Clear 5 1012 65 16093 1.47 163 13:20 25.11.2019
3551 Clear 5 1012 70 16093 1.5 30 12:59 25.11.2019
3552 Clear 5 1013 75 16093 1.5 330 12:40 25.11.2019
3553 Clear 5 1013 43 16093 2.1 230 12:20 25.11.2019
3554 Clear 5 1013 80 16093 2.6 310 11:55 25.11.2019
3555 Clear 5 1013 80 16093 2.6 310 11:55 25.11.2019
3556 Clear 5 1013 80 16093 2.6 310 11:37 25.11.2019
3557 Clear 6 1014 70 16093 4.1 200 11:18 25.11.2019
3558 Clear 6 1015 65 16093 0.57 44 10:41 25.11.2019
3559 Haze 6 1014 65 16093 2.6 200 10:20 25.11.2019
3560 Clear 7 1015 61 16093 3.6 30 09:45 25.11.2019
3561 Clear 7 1015 61 16093 3.6 30 09:26 25.11.2019
3562 Clear 7 1015 65 16093 2.1 330 08:58 25.11.2019
3563 Clear 8 1016 65 16093 2.1 310 08:39 25.11.2019
3564 Haze 7 1015 53 16093 1.5 330 08:20 25.11.2019
3565 Clear 8 1016 70 16093 0.64 146 07:41 25.11.2019
3566 Clear 8 1016 70 16093 4.6 200 07:18 25.11.2019
3567 Clear 8 1017 65 16093 0.64 146 06:43 25.11.2019
3568 Clouds 8 1016 61 16093 2.1 210 06:19 25.11.2019
3569 Clouds 8 1016 61 16093 2.1 210 06:19 25.11.2019
3570 Clear 9 1017 65 16093 0.64 146 05:37 25.11.2019
3571 Clear 9 1017 53 16093 2.1 290 04:50 25.11.2019
3572 Clear 12 1018 50 16093 3.6 360 02:48 25.11.2019
3573 Clouds 12 1017 35 16093 1.5 120 02:18 25.11.2019
3574 Clear 14 1018 35 16093 1.5 340 01:38 25.11.2019
3575 Clear 15 1019 33 16093 0.86 40 01:19 25.11.2019
3576 Clear 16 1018 29 16093 1.5 80 00:21 25.11.2019
3577 Clear 16 1019 31 16093 3.1 330 23:46 24.11.2019
3578 Clear 16 1019 29 16093 1.5 0 23:21 24.11.2019
3579 Clear 16 1019 29 16093 2.6 40 22:59 24.11.2019
3580 Clear 15 1020 38 16093 2.3 2 22:40 24.11.2019
3581 Clear 15 1020 31 16093 2.3 2 22:21 24.11.2019
3582 Clear 15 1020 38 16093 2.6 40 21:59 24.11.2019
3583 Clear 15 1021 38 16093 2.3 2 21:40 24.11.2019
3584 Clear 15 1021 31 16093 1.5 360 21:21 24.11.2019
3585 Clear 14 1021 41 16093 2.1 0 20:58 24.11.2019
3586 Clear 14 1022 29 16093 2.1 0 20:38 24.11.2019
3587 Clouds 14 1022 33 16093 2.1 50 20:19 24.11.2019
3588 Clear 13 1022 34 16093 3.6 20 19:56 24.11.2019
3589 Clear 13 1023 34 16093 3.6 300 19:38 24.11.2019
3590 Clear 12 1024 40 16093 2.6 20 19:20 24.11.2019
3591 Clear 12 1023 34 16093 2.1 30 18:58 24.11.2019
3592 Clear 12 1024 37 16093 3.6 320 18:37 24.11.2019
3593 Clouds 11 1023 50 16093 1.84 350 18:19 24.11.2019
3594 Clouds 11 1023 50 16093 1.84 350 18:19 24.11.2019
3595 Clouds 10 1023 50 16093 1.84 350 17:56 24.11.2019
3596 Clouds 10 1023 50 16093 1.84 350 17:56 24.11.2019
3597 Clear 10 1024 34 16093 3.6 360 17:38 24.11.2019
3598 Clear 8 1024 57 16093 2.1 110 17:19 24.11.2019
3599 Clear 6 1024 51 16093 2.6 340 16:57 24.11.2019
3600 Clear 6 1024 51 16093 2.6 340 16:38 24.11.2019
3601 Clouds 6 1023 65 16093 1 336 16:20 24.11.2019
3602 Clear 5 1023 51 16093 1 336 15:44 24.11.2019
3603 Clear 5 1023 51 16093 1 336 15:26 24.11.2019
3604 Clear 5 1023 51 16093 1.5 320 14:58 24.11.2019
3605 Clear 5 1023 51 16093 3.1 0 14:38 24.11.2019
3606 Clouds 5 1022 70 16093 2.1 210 14:18 24.11.2019
3607 Clear 5 1023 51 16093 0.94 327 13:54 24.11.2019
3608 Clear 5 1023 51 16093 0.94 327 13:36 24.11.2019
3609 Clear 5 1024 86 16093 3.1 170 13:18 24.11.2019
3610 Clear 5 1023 61 16093 4.1 310 12:42 24.11.2019
3611 Clear 6 1023 65 16093 1.5 200 12:19 24.11.2019
3612 Clear 6 1023 65 16093 1.5 200 11:57 24.11.2019
3613 Clear 6 1023 57 16093 4.1 320 11:37 24.11.2019
3614 Clear 6 1024 75 16093 1.5 170 11:18 24.11.2019
3615 Clear 6 1023 57 16093 1.01 345 10:47 24.11.2019
3616 Clear 7 1023 57 16093 1.01 345 10:29 24.11.2019
3617 Clear 7 1023 61 16093 1.01 345 09:58 24.11.2019
3618 Clear 7 1024 57 16093 2.6 310 09:37 24.11.2019
3619 Clear 7 1023 61 16093 2.1 180 09:19 24.11.2019
3620 Clear 8 1024 45 16093 3.1 350 08:45 24.11.2019
3621 Clear 8 1024 61 16093 2.1 210 08:22 24.11.2019
3622 Clear 8 1024 53 16093 3.6 350 07:58 24.11.2019
3623 Clear 8 1024 53 16093 2.1 360 07:38 24.11.2019
3624 Clear 8 1025 75 16093 2.6 160 07:19 24.11.2019
3625 Clouds 8 1023 61 16093 2.1 210 06:20 24.11.2019
3626 Clouds 8 1023 61 16093 2.1 210 06:20 24.11.2019
3627 Clouds 8 1023 61 16093 2.1 210 06:20 24.11.2019
3628 Clouds 8 1023 61 16093 2.1 210 06:20 24.11.2019
3629 Clear 10 1023 42 16093 3.1 310 04:49 24.11.2019
3630 Clear 11 1023 42 16093 2.6 40 03:38 24.11.2019
3631 Clear 12 1023 46 16093 1.22 318 02:26 24.11.2019
3632 Clear 13 1023 35 16093 3.1 360 01:41 24.11.2019
3633 Clouds 14 1022 31 16093 2.1 30 01:22 24.11.2019
3634 Clear 14 1023 33 16093 4.1 360 00:47 24.11.2019
3635 Clouds 15 1023 31 16093 2.1 40 00:24 24.11.2019
3636 Clear 15 1023 33 16093 6.2 340 23:46 23.11.2019
3637 Clouds 15 1023 31 16093 2.6 30 23:23 23.11.2019
3638 Clear 15 1023 34 16093 5.7 350 22:59 23.11.2019
3639 Clear 15 1024 33 16093 4.6 10 22:40 23.11.2019
3640 Clouds 15 1024 33 16093 3.6 40 22:22 23.11.2019
3641 Clouds 15 1024 33 16093 3.6 40 22:22 23.11.2019
3642 Clear 14 1024 34 16093 5.1 350 21:59 23.11.2019
3643 Clear 14 1025 34 16093 3.6 360 21:41 23.11.2019
3644 Clouds 14 1025 35 16093 2.6 30 21:22 23.11.2019
3645 Clear 14 1025 34 16093 5.7 360 20:58 23.11.2019
3646 Clear 13 1026 34 16093 5.1 20 20:37 23.11.2019
3647 Clear 13 1027 46 16093 3.6 20 20:18 23.11.2019
3648 Clear 12 1027 46 16093 6.2 350 19:55 23.11.2019
3649 Clear 12 1027 46 16093 6.2 350 19:36 23.11.2019
3650 Clear 12 1028 53 16093 3.1 10 19:18 23.11.2019
3651 Clear 11 1027 50 16093 6.2 340 18:40 23.11.2019
3652 Clear 11 1027 50 16093 6.2 340 18:40 23.11.2019
3653 Clouds 11 1027 50 16093 2.6 40 18:20 23.11.2019
3654 Clouds 10 1027 50 16093 2.6 40 17:55 23.11.2019
3655 Clear 9 1027 50 16093 3.76 21 17:37 23.11.2019
3656 Clear 8 1028 81 16093 1.71 19 17:19 23.11.2019
3657 Clear 7 1026 65 16093 3.6 350 16:55 23.11.2019
3658 Clear 7 1026 65 16093 3.6 350 16:36 23.11.2019
3659 Clear 7 1026 65 16093 3.6 350 16:36 23.11.2019
3660 Clouds 6 1026 75 16093 1.5 260 16:18 23.11.2019
3661 Clear 5 1026 61 16093 4.1 350 15:56 23.11.2019
3662 Clear 5 1025 61 16093 3.6 350 15:37 23.11.2019
3663 Clouds 5 1025 75 16093 1.5 100 15:18 23.11.2019
3664 Clear 5 1024 75 16093 1.5 210 14:42 23.11.2019
3665 Clear 6 1024 75 16093 1.5 210 14:21 23.11.2019
3666 Clear 6 1025 57 16093 3.1 10 13:57 23.11.2019
3667 Clear 6 1025 65 16093 4.1 340 13:39 23.11.2019
3668 Clear 6 1025 93 16093 1.02 345 13:18 23.11.2019
3669 Clear 6 1024 81 16093 2.6 330 12:43 23.11.2019
3670 Clear 6 1024 75 16093 1.02 345 12:24 23.11.2019
3671 Clear 6 1024 81 16093 1.02 345 11:45 23.11.2019
3672 Clear 7 1024 75 16093 2.1 280 11:24 23.11.2019
3673 Clear 7 1024 75 16093 1.22 10 10:57 23.11.2019
3674 Clear 7 1024 75 16093 1.22 10 10:39 23.11.2019
3675 Clear 7 1023 75 16093 1.5 260 10:18 23.11.2019
3676 Clear 7 1024 75 16093 2.1 340 09:41 23.11.2019
3677 Clear 7 1024 81 16093 2.1 180 09:18 23.11.2019
3678 Clear 7 1024 76 16093 3.1 310 08:41 23.11.2019
3679 Clear 7 1024 76 16093 3.1 310 08:41 23.11.2019
3680 Clear 7 1024 76 16093 3.1 310 08:41 23.11.2019
3681 Clear 7 1024 76 16093 3.1 310 08:41 23.11.2019
3682 Clear 8 1024 87 16093 2.1 150 08:19 23.11.2019
3683 Clear 8 1024 76 16093 0.56 52 07:42 23.11.2019
3684 Clear 8 1024 81 16093 0.56 52 07:00 23.11.2019
3685 Clear 8 1024 81 16093 0.56 52 06:41 23.11.2019
3686 Clear 8 1023 100 16093 0.56 52 06:19 23.11.2019
3687 Clear 9 1024 62 16093 2.6 20 05:41 23.11.2019
3688 Clear 9 1024 87 16093 2.6 170 05:22 23.11.2019
3689 Clear 9 1023 71 16093 3.6 350 04:34 23.11.2019
3690 Clear 10 1023 76 16093 2.6 10 03:32 23.11.2019
3691 Clear 11 1022 71 16093 3.1 330 02:39 23.11.2019
3692 Clear 12 1022 58 16093 2.1 20 01:41 23.11.2019
3693 Clear 13 1022 58 16093 2.1 30 00:49 23.11.2019
3694 -273 0 0 0 0 0 00:23 23.11.2019
3695 Clouds 13 1021 50 16093 1.65 10 00:23 23.11.2019
3696 Clouds 13 1021 50 16093 1.65 10 00:22 23.11.2019
3697 Clouds 13 1021 50 16093 1.65 10 00:22 23.11.2019
3698 Clouds 14 1021 50 16093 1.65 10 23:56 22.11.2019
3699 Clear 14 1022 54 16093 3.1 20 23:37 22.11.2019
3700 Clear 13 1022 54 16093 3.1 30 23:18 22.11.2019
3701 Clear 13 1022 54 16093 3.6 50 22:56 22.11.2019
3702 Clear 13 1022 54 16093 3.6 50 22:37 22.11.2019
3703 Clouds 13 1022 58 16093 1.5 0 22:18 22.11.2019
3704 Clear 13 1023 58 16093 3.6 40 21:41 22.11.2019
3705 Clouds 13 1022 58 16093 3.1 80 21:21 22.11.2019
3706 Clear 13 1023 58 16093 4.1 40 20:56 22.11.2019
3707 Clear 12 1024 66 16093 3.6 50 20:38 22.11.2019
3708 Clouds 12 1023 66 16093 1.48 3 20:20 22.11.2019
3709 Clear 11 1024 81 16093 1.48 3 19:40 22.11.2019
3710 Clouds 11 1024 71 16093 1.5 10 19:21 22.11.2019
3711 Clear 10 1024 81 16093 1.48 3 18:59 22.11.2019
3712 Clouds 10 1024 87 16093 1.48 3 18:38 22.11.2019
3713 Fog 9 1024 76 14484 1.5 80 18:20 22.11.2019
3714 Clear 8 1024 93 14484 3.1 60 17:42 22.11.2019
3715 Fog 7 1023 70 16093 0.97 14 17:23 22.11.2019
3716 Clear 6 1024 93 11265 0.97 14 16:56 22.11.2019
3717 Mist 6 1023 100 6437 0.97 14 16:37 22.11.2019
3718 Fog 5 1023 81 16093 0.97 14 16:19 22.11.2019
3719 Mist 5 1023 93 4828 2.1 310 15:39 22.11.2019
3720 Clouds 5 1022 87 16093 2.6 220 15:20 22.11.2019
3721 Mist 5 1023 100 6437 3.1 310 14:55 22.11.2019
3722 Mist 5 1023 100 6437 3.1 310 14:55 22.11.2019
3723 Clouds 5 1022 93 16093 0.97 14 14:37 22.11.2019
3724 Clouds 5 1021 87 16093 1.5 220 14:18 22.11.2019
3725 Clear 5 1022 93 16093 0.88 18 13:39 22.11.2019
3726 Clouds 5 1021 81 16093 1.06 17 13:20 22.11.2019
3727 Clear 5 1021 100 16093 2.1 30 12:58 22.11.2019
3728 Clear 5 1021 93 16093 1.06 17 12:40 22.11.2019
3729 Clouds 5 1020 81 16093 1.06 17 12:20 22.11.2019
3730 Clear 5 1021 93 16093 2.1 210 11:58 22.11.2019
3731 Clouds 5 1021 93 16093 1.06 17 11:37 22.11.2019
3732 Clouds 6 1020 81 16093 2.1 230 11:19 22.11.2019
3733 Clouds 6 1021 93 16093 1.5 20 10:55 22.11.2019
3734 Clouds 6 1021 87 16093 0.53 23 10:37 22.11.2019
3735 Clouds 6 1020 81 16093 1.5 200 10:18 22.11.2019
3736 Clouds 6 1020 87 16093 0.53 23 09:41 22.11.2019
3737 Clouds 6 1020 87 16093 0.53 23 09:41 22.11.2019
3738 Clouds 6 1020 87 16093 1.5 210 09:22 22.11.2019
3739 Clear 6 1020 93 16093 0.53 23 08:59 22.11.2019
3740 Clear 6 1020 87 16093 2.1 40 08:39 22.11.2019
3741 Clouds 6 1019 81 16093 1.15 51 08:21 22.11.2019
3742 Clear 6 1019 87 16093 1.15 51 07:43 22.11.2019
3743 Clear 6 1019 87 16093 1.15 51 07:43 22.11.2019
3744 Clear 6 1019 93 16093 2.6 360 07:21 22.11.2019
3745 Clear 7 1019 87 16093 3.1 30 06:48 22.11.2019
3746 Clear 7 1019 87 16093 3.1 30 06:27 22.11.2019
3747 Clouds 7 1018 81 16093 2.6 50 05:37 22.11.2019
3748 Clouds 8 1016 87 16093 0.46 13 03:26 22.11.2019
3749 Clear 9 1015 81 16093 1.5 60 02:43 22.11.2019
3750 Clouds 9 1014 71 16093 3.1 80 02:23 22.11.2019
3751 Clouds 10 1015 81 16093 3.1 40 01:43 22.11.2019
3752 Clouds 10 1014 71 16093 3.1 90 01:18 22.11.2019
3753 Clouds 11 1014 81 16093 3.6 50 00:43 22.11.2019
3754 Clouds 11 1013 66 16093 4.1 80 00:22 22.11.2019
3755 Clouds 11 1013 62 16093 1.5 0 23:43 21.11.2019
3756 Clouds 11 1013 62 16093 1.5 0 23:24 21.11.2019
3757 Clouds 10 1013 66 16093 1.5 0 22:56 21.11.2019
3758 Clouds 10 1013 71 16093 2.16 260 22:38 21.11.2019
3759 Clouds 10 1012 62 16093 2.6 230 22:19 21.11.2019
3760 Clouds 10 1013 71 16093 2.16 260 21:54 21.11.2019
3761 Clouds 10 1013 71 16093 2.6 240 21:36 21.11.2019
3762 Clouds 10 1013 70 16093 4.6 220 21:18 21.11.2019
3763 Clouds 10 1013 76 16093 2.1 250 20:57 21.11.2019
3764 Clouds 10 1013 76 16093 2.1 250 20:57 21.11.2019
3765 Clouds 10 1013 76 16093 1.5 320 20:37 21.11.2019
3766 Rain 9 1012 66 16093 2.1 230 20:18 21.11.2019
3767 Clouds 9 1013 81 16093 2.1 290 19:55 21.11.2019
3768 Clouds 9 1013 81 16093 2.1 290 19:55 21.11.2019
3769 Drizzle 9 1013 87 14484 2.1 270 19:36 21.11.2019
3770 Clouds 9 1012 81 16093 1.5 260 19:18 21.11.2019
3771 Clouds 9 1013 81 16093 0.71 311 18:41 21.11.2019
3772 Clouds 8 1012 81 16093 0.71 311 18:21 21.11.2019
3773 Clouds 8 1012 81 16093 0.71 311 17:58 21.11.2019
3774 Clouds 8 1012 93 16093 0.71 311 17:39 21.11.2019
3775 Clouds 8 1012 93 16093 0.71 311 17:39 21.11.2019
3776 Rain 8 1011 87 16093 1.5 120 17:21 21.11.2019
3777 Rain 7 1012 93 16093 0.66 223 16:57 21.11.2019
3778 Rain 7 1011 93 16093 0.66 223 16:39 21.11.2019
3779 Rain 7 1010 87 16093 0.66 223 16:20 21.11.2019
3780 Clouds 7 1010 100 16093 0.66 223 15:43 21.11.2019
3781 Rain 7 1009 87 16093 0.66 223 15:21 21.11.2019
3782 Rain 7 1010 100 16093 1.5 20 14:57 21.11.2019
3783 Rain 7 1010 100 16093 1.5 20 14:57 21.11.2019
3784 Rain 7 1009 93 16093 2.1 10 14:38 21.11.2019
3785 Rain 7 1008 87 16093 2.6 90 14:19 21.11.2019
3786 Clouds 7 1009 93 16093 0.86 196 13:57 21.11.2019
3787 Clouds 7 1009 93 16093 0.86 196 13:37 21.11.2019
3788 Clouds 7 1008 87 16093 2.6 90 13:18 21.11.2019
3789 Rain 7 1009 93 16093 1.5 340 12:40 21.11.2019
3790 Rain 7 1008 81 16093 2.6 150 12:22 21.11.2019
3791 Clouds 7 1009 100 16093 1.96 265 11:55 21.11.2019
3792 Clouds 7 1008 93 16093 1.96 265 11:37 21.11.2019
3793 Clouds 7 1007 81 16093 2.1 160 11:19 21.11.2019
3794 Clouds 7 1007 81 16093 2.1 160 11:19 21.11.2019
3795 Rain 7 1008 93 11265 1.46 172 10:42 21.11.2019
3796 Rain 7 1008 93 11265 1.46 172 10:24 21.11.2019
3797 Rain 7 1008 93 16093 1.46 172 09:58 21.11.2019
3798 Rain 7 1007 93 16093 2.6 90 09:39 21.11.2019
3799 Rain 7 1007 93 16093 2.6 90 09:21 21.11.2019
3800 Rain 7 1007 93 8047 1.46 172 08:44 21.11.2019
3801 Rain 7 1006 87 16093 4.1 180 08:23 21.11.2019
3802 Rain 8 1007 93 6437 3.6 200 07:45 21.11.2019
3803 Rain 8 1006 87 16093 3.6 200 07:20 21.11.2019
3804 Rain 8 1007 87 11265 2.6 210 06:58 21.11.2019
3805 Rain 8 1006 87 11265 5.1 270 06:34 21.11.2019
3806 Rain 10 1004 76 16093 5.7 210 05:50 21.11.2019
3807 Clouds 11 1003 62 16093 1.5 0 03:36 21.11.2019
3808 Clouds 11 1002 66 16093 2.1 130 02:42 21.11.2019
3809 Clouds 11 1001 47 16093 2.1 240 02:24 21.11.2019
3810 Clouds 12 1000 54 16093 2.6 280 01:49 21.11.2019
3811 Clouds 12 1000 54 16093 2.6 280 01:49 21.11.2019
3812 Clouds 12 1000 54 16093 2.6 280 01:20 21.11.2019
3813 Thunderstorm 13 1000 50 16093 6.2 260 00:38 21.11.2019
3814 Thunderstorm 13 1000 50 16093 6.2 260 00:20 21.11.2019
3815 Rain 14 999 62 16093 5.1 260 23:42 20.11.2019
3816 Thunderstorm 14 999 47 16093 7.7 200 23:21 20.11.2019
3817 Clear 15 999 48 16093 9.3 180 22:58 20.11.2019
3818 Clouds 15 999 55 16093 9.3 150 22:38 20.11.2019
3819 Rain 15 998 82 16093 3.1 40 22:19 20.11.2019
3820 Rain 15 998 82 16093 3.1 40 22:19 20.11.2019
3821 Rain 14 999 63 16093 8.2 140 21:58 20.11.2019
3822 Rain 14 1000 55 16093 8.7 170 21:39 20.11.2019
3823 Rain 13 999 100 16093 2.1 30 21:20 20.11.2019
3824 Rain 13 1000 55 16093 8.2 150 20:57 20.11.2019
3825 Rain 12 1000 100 16093 2.6 30 20:38 20.11.2019
3826 Rain 13 1000 100 16093 2.6 30 20:20 20.11.2019
3827 Rain 13 1000 100 16093 2.6 30 20:20 20.11.2019
3828 Rain 12 1001 87 16093 1.5 310 19:56 20.11.2019
3829 Rain 12 1000 100 3219 3.6 100 19:37 20.11.2019
3830 Rain 12 1000 100 3219 3.6 100 19:18 20.11.2019
3831 Rain 11 1001 93 9656 6.2 160 18:58 20.11.2019
3832 Rain 11 1001 87 16093 3.32 96 18:38 20.11.2019
3833 Rain 11 1001 87 16093 3.32 96 18:20 20.11.2019
3834 Drizzle 11 1001 93 12874 4.1 100 17:55 20.11.2019
3835 Rain 11 1000 100 16093 4.1 80 17:37 20.11.2019
3836 Rain 11 1000 93 9656 5.1 90 17:19 20.11.2019
3837 Rain 11 1000 93 11265 4.6 100 16:43 20.11.2019
3838 Rain 11 1000 93 11265 4.6 100 16:20 20.11.2019
3839 Drizzle 11 1000 93 11265 4.1 60 15:58 20.11.2019
3840 Rain 11 1000 93 12874 2.82 81 15:40 20.11.2019
3841 Rain 11 1000 93 12874 2.82 81 15:20 20.11.2019
3842 Rain 12 1000 93 9656 2.6 70 14:57 20.11.2019
3843 Rain 12 1000 93 9656 2.6 70 14:57 20.11.2019
3844 Rain 12 999 93 16093 2.6 80 14:38 20.11.2019
3845 Rain 12 999 93 16093 2.6 80 14:20 20.11.2019
3846 Rain 12 999 87 16093 3.1 110 13:56 20.11.2019
3847 Rain 12 998 93 16093 6.2 70 13:37 20.11.2019
3848 Rain 12 998 93 16093 6.2 70 13:18 20.11.2019
3849 Rain 12 999 87 9656 3.1 70 12:42 20.11.2019
3850 Rain 12 998 87 16093 4.6 80 12:24 20.11.2019
3851 Rain 13 999 87 8047 3.1 90 11:57 20.11.2019
3852 Rain 13 999 87 8047 3.1 90 11:57 20.11.2019
3853 Rain 13 1001 93 9656 4.6 130 11:37 20.11.2019
3854 Rain 13 998 87 16093 2.1 210 11:18 20.11.2019
3855 Rain 13 998 87 16093 2.1 210 11:18 20.11.2019
3856 Rain 13 1000 93 9656 4.1 100 10:55 20.11.2019
3857 Rain 14 1001 93 3219 4.1 60 10:36 20.11.2019
3858 Rain 14 999 93 16093 4.1 70 10:18 20.11.2019
3859 Rain 14 999 71 16093 6.7 150 10:18 20.11.2019
3860 Rain 14 1001 93 4023 4.6 120 09:42 20.11.2019
3861 Rain 14 999 93 16093 1.5 120 09:21 20.11.2019
3862 Rain 14 1000 93 16093 3.1 120 08:48 20.11.2019
3863 Rain 14 1000 100 16093 7.2 90 08:28 20.11.2019
3864 Rain 14 1001 93 9656 4.6 110 07:59 20.11.2019
3865 Rain 15 1002 93 9656 4.1 130 07:38 20.11.2019
3866 Rain 15 1000 63 16093 4.6 230 07:20 20.11.2019
3867 Drizzle 16 1000 63 16093 5.1 120 06:45 20.11.2019
3868 Rain 16 1000 67 16093 5.1 170 06:19 20.11.2019
3869 Clouds 21 999 33 16093 4.6 170 04:50 20.11.2019
3870 Clouds 21 999 33 16093 4.6 170 04:50 20.11.2019
3871 Clouds 23 1002 33 16093 5.1 190 02:29 20.11.2019
3872 Clear 23 1002 26 16093 6.2 160 01:39 20.11.2019
3873 Clear 23 1002 26 16093 8.2 160 00:59 20.11.2019
3874 Clear 23 1002 40 16093 9.8 160 00:34 20.11.2019
3875 Clear 24 1002 16 16093 9.8 160 23:43 19.11.2019
3876 Clouds 24 1002 16 16093 1.5 0 23:23 19.11.2019
3877 Clear 24 1003 15 16093 10.8 150 22:56 19.11.2019
3878 Clear 23 1003 13 16093 8.2 150 22:38 19.11.2019
3879 Clouds 23 1003 18 16093 2.1 60 22:18 19.11.2019
3880 Clear 23 1004 13 16093 8.7 140 21:55 19.11.2019
3881 Clear 22 1005 13 16093 11.8 160 21:36 19.11.2019
3882 Clouds 22 1004 21 16093 2.1 0 21:18 19.11.2019
3883 Clear 21 1005 12 16093 7.7 160 20:55 19.11.2019
3884 Clear 21 1007 13 16093 7.7 170 20:36 19.11.2019
3885 Clouds 20 1006 22 16093 3.56 191 20:18 19.11.2019
3886 Clear 19 1008 14 16093 6.7 160 19:42 19.11.2019
3887 Clouds 18 1008 23 16093 1.5 10 19:20 19.11.2019
3888 Clear 17 1008 12 16093 6.7 110 18:58 19.11.2019
3889 Clear 17 1009 18 16093 2.6 40 18:40 19.11.2019
3890 Clouds 16 1009 29 16093 3.56 191 18:20 19.11.2019
3891 Clear 16 1009 16 16093 1.5 110 17:58 19.11.2019
3892 Clouds 15 1010 17 16093 2.6 130 17:39 19.11.2019
3893 Clouds 14 1009 33 16093 1.74 178 17:20 19.11.2019
3894 Clouds 13 1010 18 16093 3.6 110 16:59 19.11.2019
3895 Clear 12 1010 21 16093 2.6 90 16:39 19.11.2019
3896 Clouds 12 1009 34 16093 1.5 240 16:19 19.11.2019
3897 Clear 11 1010 28 16093 3.6 50 15:47 19.11.2019
3898 Clear 11 1010 28 16093 3.6 50 15:26 19.11.2019
3899 Clear 11 1010 28 16093 3.6 50 15:26 19.11.2019
3900 Clear 11 1010 30 16093 3.6 40 14:58 19.11.2019
3901 Clear 11 1009 30 16093 2.6 40 14:39 19.11.2019
3902 Clouds 11 1009 34 16093 1.75 178 14:20 19.11.2019
3903 Clear 11 1010 28 16093 4.1 50 13:42 19.11.2019
3904 Clouds 11 1009 37 16093 1.55 178 13:21 19.11.2019
3905 Clear 11 1010 28 16093 4.6 50 12:56 19.11.2019
3906 Clear 11 1011 28 16093 4.6 60 12:38 19.11.2019
3907 Clouds 11 1009 32 16093 1.5 240 12:20 19.11.2019
3908 Clear 11 1011 32 16093 4.6 50 11:55 19.11.2019
3909 Clear 11 1011 28 16093 4.1 70 11:36 19.11.2019
3910 Clouds 11 1010 32 16093 1.5 210 11:18 19.11.2019
3911 Clear 11 1012 43 16093 1.5 50 10:44 19.11.2019
3912 Clouds 12 1011 30 16093 1.5 220 10:20 19.11.2019
3913 Clear 12 1012 30 16093 1.56 171 09:43 19.11.2019
3914 Clouds 12 1011 33 16093 2.1 260 09:21 19.11.2019
3915 Clear 12 1012 37 16093 2.6 40 08:57 19.11.2019
3916 Clear 13 1012 35 16093 1.5 50 08:39 19.11.2019
3917 Clouds 13 1012 28 16093 1.5 230 08:20 19.11.2019
3918 Clear 13 1013 35 16093 2.1 60 07:42 19.11.2019
3919 Clear 13 1013 35 16093 2.1 60 07:24 19.11.2019
3920 Clear 14 1013 35 16093 2.6 50 06:58 19.11.2019
3921 Clear 14 1013 33 16093 2.6 50 06:37 19.11.2019
3922 Clear 15 1013 30 16093 2.1 80 05:52 19.11.2019
3923 Clear 15 1014 30 16093 2.6 190 05:18 19.11.2019
3924 Clear 19 1013 22 16093 2.6 50 03:39 19.11.2019
3925 Clouds 19 1013 21 16093 0.64 148 03:19 19.11.2019
3926 Clear 21 1013 22 16093 3.1 50 02:39 19.11.2019
3927 Clear 22 1013 17 16093 2.6 50 01:47 19.11.2019
3928 Clear 24 1013 15 16093 2.6 30 00:41 19.11.2019
3929 Clouds 24 1013 14 16093 2.1 100 00:19 19.11.2019
3930 Clear 24 1014 13 16093 0.63 57 23:38 18.11.2019
3931 Clouds 24 1014 13 16093 1.5 160 23:19 18.11.2019
3932 Clear 24 1015 14 16093 1.07 355 22:46 18.11.2019
3933 Clear 24 1015 14 16093 1.07 355 22:46 18.11.2019
3934 Clear 24 1015 14 16093 1.07 355 22:24 18.11.2019
3935 Clear 23 1015 14 16093 1.07 355 21:57 18.11.2019
3936 Clear 23 1016 13 16093 2.6 70 21:39 18.11.2019
3937 Clear 23 1016 13 16093 1.5 0 21:20 18.11.2019
3938 Clear 22 1016 13 16093 2.1 0 20:57 18.11.2019
3939 Clear 22 1016 13 16093 2.1 0 20:57 18.11.2019
3940 Clear 22 1017 13 16093 2.6 200 20:39 18.11.2019
3941 Clear 22 1017 14 16093 1.5 80 20:18 18.11.2019
3942 Clear 20 1017 14 16093 1.88 351 19:56 18.11.2019
3943 Clear 20 1018 15 16093 2.1 220 19:37 18.11.2019
3944 Clear 19 1018 15 16093 1.88 351 19:19 18.11.2019
3945 Clear 18 1018 16 16093 1.88 351 18:55 18.11.2019
3946 Clear 18 1019 16 16093 1.5 360 18:37 18.11.2019
3947 Clear 18 1019 22 16093 1.88 351 18:19 18.11.2019
3948 Clear 16 1019 22 16093 1.88 351 17:40 18.11.2019
3949 Clear 14 1019 21 16093 0.64 272 17:21 18.11.2019
3950 Clear 10 1019 22 16093 0.64 272 16:58 18.11.2019
3951 Clear 12 1019 24 16093 1.5 300 16:40 18.11.2019
3952 Clouds 10 1018 26 16093 0.64 272 16:22 18.11.2019
3953 Clear 10 1019 27 16093 0.64 272 15:56 18.11.2019
3954 Clear 10 1018 29 16093 1.5 0 15:37 18.11.2019
3955 Clouds 8 1018 26 16093 1.5 0 15:19 18.11.2019
3956 Clouds 8 1018 27 16093 0.64 272 14:42 18.11.2019
3957 Clouds 10 1018 27 16093 0.64 272 14:24 18.11.2019
3958 Clear 10 1018 31 16093 1.28 294 13:56 18.11.2019
3959 Clear 10 1018 29 16093 1.28 294 13:37 18.11.2019
3960 Clouds 10 1018 25 16093 2.6 210 13:19 18.11.2019
3961 Clear 11 1018 26 16093 1.35 296 12:39 18.11.2019
3962 Clouds 11 1018 26 16093 2.1 220 12:19 18.11.2019
3963 Clear 11 1019 22 16093 3.1 210 11:45 18.11.2019
3964 Clear 11 1019 22 16093 3.1 210 11:27 18.11.2019
3965 Clear 11 1019 22 16093 3.1 210 11:27 18.11.2019
3966 Clear 13 1018 20 16093 4.6 10 10:59 18.11.2019
3967 Clear 13 1019 19 16093 3.1 350 10:40 18.11.2019
3968 Clouds 13 1018 19 16093 0.91 344 10:22 18.11.2019
3969 Clear 13 1019 24 16093 0.91 344 09:56 18.11.2019
3970 Clear 12 1019 30 16093 2.6 20 09:37 18.11.2019
3971 Clouds 13 1018 19 16093 0.91 344 09:18 18.11.2019
3972 Clouds 13 1018 19 16093 0.91 344 09:18 18.11.2019
3973 Clear 13 1019 20 16093 0.91 344 08:44 18.11.2019
3974 Clouds 14 1018 17 16093 2.6 220 08:21 18.11.2019
3975 Clear 14 1019 24 16093 2.1 330 07:48 18.11.2019
3976 Clear 15 1019 24 16093 2.1 330 07:29 18.11.2019
3977 Clear 14 1019 24 16093 0.73 220 06:56 18.11.2019
3978 Clear 14 1019 24 16093 0.73 220 06:37 18.11.2019
3979 Clear 15 1019 21 16093 1.5 190 06:18 18.11.2019
3980 Clear 16 1019 20 16093 0.93 252 04:58 18.11.2019
3981 Clear 20 1019 20 16093 2.6 330 02:59 18.11.2019
3982 Clear 22 1019 12 16093 2.1 280 01:31 18.11.2019
3983 Clear 23 1019 13 16093 3.6 310 00:35 18.11.2019
3984 Clear 23 1019 12 16093 3.1 40 23:45 17.11.2019
3985 Clear 23 1019 12 16093 3.1 40 23:25 17.11.2019
3986 Clear 23 1019 13 16093 2.6 60 22:59 17.11.2019
3987 Clear 23 1019 15 16093 2.73 359 22:40 17.11.2019
3988 Clouds 23 1019 15 16093 2.73 359 22:22 17.11.2019
3989 Clear 22 1019 15 16093 2.6 0 21:59 17.11.2019
3990 Clear 22 1020 15 16093 2.6 0 21:40 17.11.2019
3991 Clouds 22 1020 16 16093 2.73 359 21:19 17.11.2019
3992 Clear 22 1020 15 16093 4.1 330 20:57 17.11.2019
3993 Clear 21 1021 15 16093 6.2 360 20:38 17.11.2019
3994 Clear 21 1022 18 16093 1.5 0 20:19 17.11.2019
3995 Clear 20 1022 17 16093 6.2 20 19:56 17.11.2019
3996 Clear 20 1022 18 16093 6.2 350 19:37 17.11.2019
3997 Clear 19 1023 18 16093 6.2 20 19:19 17.11.2019
3998 Clear 19 1023 18 16093 5.7 20 18:55 17.11.2019
3999 Clear 18 1023 19 16093 4.6 360 18:37 17.11.2019
4000 Clear 18 1023 19 16093 2.79 6 18:18 17.11.2019
4001 Clear 17 1023 20 16093 4.6 350 17:57 17.11.2019
4002 Clear 16 1023 22 16093 6.7 350 17:38 17.11.2019
4003 Clear 15 1023 23 16093 1.5 270 17:20 17.11.2019
4004 Clear 14 1023 23 16093 0.43 10 16:57 17.11.2019
4005 Clear 13 1023 23 16093 0.43 10 16:39 17.11.2019
4006 Clear 12 1022 27 16093 2.6 220 16:21 17.11.2019
4007 Clear 12 1023 25 16093 5.1 350 15:55 17.11.2019
4008 Clear 13 1023 25 16093 5.1 350 15:36 17.11.2019
4009 Clouds 12 1022 27 16093 3.1 210 15:18 17.11.2019
4010 Clear 12 1022 25 16093 5.7 350 14:55 17.11.2019
4011 Clear 12 1022 23 16093 7.7 350 14:37 17.11.2019
4012 Clear 13 1022 24 16093 1.55 13 14:18 17.11.2019
4013 Clear 12 1022 25 16093 4.1 350 13:41 17.11.2019
4014 Clear 12 1022 24 16093 2.1 260 13:22 17.11.2019
4015 Clear 11 1021 23 16093 6.2 350 13:00 17.11.2019
4016 Clear 12 1021 23 16093 7.2 350 12:38 17.11.2019
4017 Clear 11 1021 28 16093 2.1 210 12:19 17.11.2019
4018 Clear 12 1021 26 16093 1.5 0 11:56 17.11.2019
4019 Clear 12 1021 24 16093 1.71 13 11:38 17.11.2019
4020 Clear 13 1021 28 16093 2.6 190 11:19 17.11.2019
4021 Clear 14 1021 19 16093 6.7 30 10:41 17.11.2019
4022 Clear 13 1021 25 16093 1.5 320 10:23 17.11.2019
4023 Clear 14 1021 22 16093 1.72 41 09:43 17.11.2019
4024 Clear 14 1021 22 16093 1.72 41 09:43 17.11.2019
4025 Clear 14 1020 26 16093 1.72 41 09:24 17.11.2019
4026 Clear 14 1021 21 16093 1.72 41 08:58 17.11.2019
4027 Clear 14 1020 19 16093 3.6 30 08:37 17.11.2019
4028 Clear 15 1020 25 16093 2.6 200 08:19 17.11.2019
4029 Clear 15 1020 23 16093 1.5 260 07:42 17.11.2019
4030 Clear 15 1020 23 16093 1.5 260 07:22 17.11.2019
4031 Clear 16 1020 20 16093 5.1 20 06:55 17.11.2019
4032 Clear 16 1019 19 16093 5.7 340 06:30 17.11.2019
4033 Clear 16 1019 26 16093 2.54 323 05:39 17.11.2019
4034 Clear 18 1018 20 16093 2.6 230 04:20 17.11.2019
4035 Clear 19 1018 18 16093 2.1 20 03:40 17.11.2019
4036 Clear 19 1018 17 16093 2.6 240 03:22 17.11.2019
4037 Smoke 21 1017 16 16093 1.84 288 02:19 17.11.2019
4038 Clear 24 1017 15 16093 1.67 305 01:22 17.11.2019
4039 Clear 25 1017 11 16093 5.1 350 00:41 17.11.2019
4040 Clear 25 1017 12 16093 2.1 90 00:21 17.11.2019
4041 Clear 24 1017 11 16093 4.6 10 23:42 16.11.2019
4042 Clear 24 1017 13 16093 1.5 60 23:19 16.11.2019
4043 Clear 24 1017 13 16093 3.1 0 22:55 16.11.2019
4044 Clear 24 1017 13 16093 3.1 0 22:36 16.11.2019
4045 Clear 24 1017 14 16093 3.11 359 22:18 16.11.2019
4046 Clear 23 1018 12 16093 3.6 360 21:41 16.11.2019
4047 Clear 23 1018 15 16093 3.11 359 21:23 16.11.2019
4048 Clear 22 1019 13 16093 2.1 0 20:58 16.11.2019
4049 Clear 22 1019 13 16093 2.1 0 20:58 16.11.2019
4050 Clear 22 1019 13 16093 3.1 310 20:39 16.11.2019
4051 Clear 21 1020 14 16093 2.1 60 20:19 16.11.2019
4052 Clear 20 1020 13 16093 3.6 20 19:54 16.11.2019
4053 Clear 19 1021 16 16093 1.32 356 19:36 16.11.2019
4054 Clear 19 1021 17 16093 1.32 356 19:18 16.11.2019
4055 Clear 18 1021 16 16093 4.6 280 18:40 16.11.2019
4056 Clouds 18 1020 22 16093 1.32 356 18:20 16.11.2019
4057 Clear 15 1021 17 16093 5.1 300 17:55 16.11.2019
4058 Clear 14 1020 18 16093 5.1 320 17:37 16.11.2019
4059 Clear 13 1021 28 16093 2.6 180 17:18 16.11.2019
4060 Clear 12 1020 28 16093 1.25 299 16:45 16.11.2019
4061 Clear 11 1020 28 16093 1.25 299 16:26 16.11.2019
4062 Clear 10 1020 26 16093 3.6 300 15:56 16.11.2019
4063 Clear 11 1019 32 16093 1.25 299 15:37 16.11.2019
4064 Clouds 10 1019 32 16093 2.6 240 15:18 16.11.2019
4065 Clear 10 1019 30 16093 1.25 299 14:40 16.11.2019
4066 Clouds 11 1019 32 16093 1.5 220 14:21 16.11.2019
4067 Clear 11 1019 28 16093 2.6 290 13:57 16.11.2019
4068 Clear 11 1019 34 16093 0.71 288 13:38 16.11.2019
4069 Clouds 11 1018 32 16093 3.1 230 13:19 16.11.2019
4070 Clear 11 1019 32 16093 0.96 299 12:58 16.11.2019
4071 Clear 11 1019 30 16093 0.96 299 12:40 16.11.2019
4072 Clouds 11 1018 32 16093 2.1 270 12:20 16.11.2019
4073 Clear 12 1018 23 16093 0.96 299 11:45 16.11.2019
4074 Clear 12 1018 23 16093 0.96 299 11:26 16.11.2019
4075 Clear 13 1019 24 16093 3.1 300 10:57 16.11.2019
4076 Clear 13 1018 26 16093 1.5 0 10:39 16.11.2019
4077 Clouds 13 1018 30 16093 2.6 320 10:21 16.11.2019
4078 Clear 13 1018 32 16093 1.02 294 09:43 16.11.2019
4079 Clouds 13 1018 30 16093 1.5 200 09:21 16.11.2019
4080 Clear 14 1019 28 16093 1.02 294 08:58 16.11.2019
4081 Clear 14 1019 25 16093 1.02 294 08:38 16.11.2019
4082 Clouds 14 1018 26 16093 0.78 327 08:19 16.11.2019
4083 Clear 14 1018 33 16093 0.78 327 07:43 16.11.2019
4084 Clouds 15 1018 25 16093 2.6 220 07:21 16.11.2019
4085 Clear 15 1018 26 16093 1.5 230 06:52 16.11.2019
4086 Clear 15 1018 26 16093 1.5 230 06:33 16.11.2019
4087 Clear 16 1018 27 16093 4.1 10 05:30 16.11.2019
4088 Clear 18 1017 24 16093 3.6 360 03:44 16.11.2019
4089 Clear 18 1017 24 16093 3.6 360 03:25 16.11.2019
4090 Clear 21 1017 18 16093 2.1 50 01:51 16.11.2019
4091 Clouds 22 1017 17 16093 1.68 338 01:20 16.11.2019
4092 Clear 23 1017 16 16093 3.1 80 00:44 16.11.2019
4093 Clear 21 1017 16 16093 3.1 80 00:25 16.11.2019
4094 Clear 23 1017 14 16093 3.1 0 23:40 15.11.2019
4095 Clear 23 1018 19 16093 2.1 0 23:21 15.11.2019
4096 Clear 23 1017 14 16093 3.1 90 22:55 15.11.2019
4097 Clear 23 1018 15 16093 3.6 40 22:37 15.11.2019
4098 Clouds 22 1018 16 16093 2.1 330 22:18 15.11.2019
4099 Clear 22 1018 15 16093 3.6 70 21:42 15.11.2019
4100 Clouds 22 1019 17 16093 1.67 348 21:21 15.11.2019
4101 Clear 22 1019 15 16093 2.6 0 20:59 15.11.2019
4102 Clear 21 1019 16 16093 2.6 0 20:40 15.11.2019
4103 Clouds 21 1019 18 16093 2.1 70 20:22 15.11.2019
4104 Clear 20 1020 17 16093 2.1 60 19:59 15.11.2019
4105 Clear 20 1020 16 16093 2.1 100 19:40 15.11.2019
4106 Clouds 20 1020 20 16093 2.1 40 19:21 15.11.2019
4107 Clear 19 1020 16 16093 2.1 90 18:58 15.11.2019
4108 Clear 19 1021 20 16093 1.05 60 18:40 15.11.2019
4109 Clouds 19 1020 22 16093 1.05 60 18:21 15.11.2019
4110 Clear 16 1021 24 16093 1.05 60 17:43 15.11.2019
4111 Clear 16 1021 24 16093 1.05 60 17:25 15.11.2019
4112 Clear 13 1020 30 16093 0.62 325 16:58 15.11.2019
4113 Clear 13 1020 30 16093 0.62 325 16:58 15.11.2019
4114 Clear 13 1020 32 16093 0.62 325 16:39 15.11.2019
4115 Clouds 12 1019 30 16093 0.62 325 16:20 15.11.2019
4116 Clear 12 1020 32 16093 0.62 325 15:39 15.11.2019
4117 Clouds 11 1019 30 16093 0.62 325 15:20 15.11.2019
4118 Clear 12 1019 30 16093 3.1 30 14:58 15.11.2019
4119 Clear 11 1019 28 16093 2.1 20 14:40 15.11.2019
4120 Clouds 12 1019 30 16093 1.5 210 14:21 15.11.2019
4121 Clear 12 1019 32 16093 2.1 40 13:59 15.11.2019
4122 Clear 12 1019 32 16093 2.1 40 13:59 15.11.2019
4123 Clear 13 1019 26 16093 0.52 340 13:40 15.11.2019
4124 Clouds 12 1019 28 16093 2.6 290 13:21 15.11.2019
4125 Clouds 12 1019 28 16093 2.6 290 13:21 15.11.2019
4126 Clear 13 1019 25 16093 1.5 60 12:59 15.11.2019
4127 Clear 13 1019 28 16093 3.1 40 12:40 15.11.2019
4128 Clouds 13 1018 28 16093 2.1 280 12:20 15.11.2019
4129 Clear 14 1019 25 16093 3.1 60 11:58 15.11.2019
4130 Clear 13 1019 23 16093 2.6 70 11:38 15.11.2019
4131 Clouds 14 1019 26 16093 2.1 280 11:20 15.11.2019
4132 Clear 14 1019 26 16093 3.1 60 10:56 15.11.2019
4133 Clear 14 1019 26 16093 3.1 60 10:56 15.11.2019
4134 Clear 14 1019 26 16093 3.1 60 10:38 15.11.2019
4135 Clouds 14 1019 26 16093 1.5 210 10:18 15.11.2019
4136 Clear 15 1020 29 16093 3.1 50 09:41 15.11.2019
4137 Clouds 15 1019 27 16093 2.1 270 09:20 15.11.2019
4138 Clear 14 1020 26 16093 2.6 40 08:44 15.11.2019
4139 Clear 14 1020 26 16093 2.6 40 08:44 15.11.2019
4140 Clouds 14 1019 26 16093 1.53 182 08:23 15.11.2019
4141 Clouds 15 1019 23 16093 1.5 230 07:49 15.11.2019
4142 Clouds 15 1019 23 16093 1.5 230 07:28 15.11.2019
4143 Clear 16 1019 29 16093 3.6 50 06:50 15.11.2019
4144 Clear 15 1019 29 16093 3.6 50 06:31 15.11.2019
4145 Clear 16 1019 29 16093 3.1 60 05:42 15.11.2019
4146 Clouds 16 1018 23 16093 2.1 220 05:23 15.11.2019
4147 Clear 18 1019 17 16093 2.6 70 03:53 15.11.2019
4148 Clouds 18 1018 18 16093 1.3 231 03:23 15.11.2019
4149 Clouds 19 1018 18 16093 1.5 130 02:19 15.11.2019
4150 Clear 21 1018 15 16093 4.1 60 01:33 15.11.2019
4151 Clear 22 1018 13 16093 3.6 110 00:51 15.11.2019
4152 Clear 22 1018 13 16093 3.6 110 00:32 15.11.2019
4153 Clear 22 1018 12 16093 4.1 110 23:52 14.11.2019
4154 Clouds 22 1018 15 16093 2.1 20 23:28 14.11.2019
4155 Clear 22 1018 15 16093 3.1 50 22:59 14.11.2019
4156 Clear 22 1018 15 16093 3.1 50 22:39 14.11.2019
4157 Clouds 21 1018 15 16093 3.1 70 22:21 14.11.2019
4158 Clear 21 1019 16 16093 3.6 30 21:55 14.11.2019
4159 Clear 21 1019 19 16093 3.6 40 21:37 14.11.2019
4160 Clouds 21 1019 16 16093 2.6 80 21:18 14.11.2019
4161 Clear 20 1020 24 16093 1.34 117 20:42 14.11.2019
4162 Clouds 20 1020 18 16093 1.5 40 20:23 14.11.2019
4163 Clear 19 1020 22 16093 1.5 80 19:59 14.11.2019
4164 Clear 19 1021 18 16093 0.72 77 19:40 14.11.2019
4165 Clear 18 1021 19 16093 0.72 77 19:18 14.11.2019
4166 Clear 18 1021 19 16093 0.72 77 19:18 14.11.2019
4167 Clear 18 1021 19 16093 0.72 77 19:18 14.11.2019
4168 Clear 17 1021 21 16093 0.72 77 18:55 14.11.2019
4169 Clear 17 1021 21 16093 0.72 77 18:37 14.11.2019
4170 Clouds 16 1020 23 16093 0.72 77 18:18 14.11.2019
4171 Clear 15 1021 24 16093 0.72 77 17:39 14.11.2019
4172 Clear 14 1021 30 16093 1.5 180 17:20 14.11.2019
4173 Clear 12 1020 34 16093 0.3 300 16:58 14.11.2019
4174 Clear 11 1020 34 16093 0.3 300 16:39 14.11.2019
4175 Clouds 11 1019 30 16093 1.5 210 16:21 14.11.2019
4176 Clear 11 1020 31 16093 0.3 300 15:59 14.11.2019
4177 Clear 11 1019 37 16093 0.3 300 15:41 14.11.2019
4178 Clouds 10 1018 30 16093 1.5 210 15:22 14.11.2019
4179 Clear 11 1019 39 16093 0.3 300 14:58 14.11.2019
4180 Clear 11 1019 39 16093 0.3 300 14:58 14.11.2019
4181 Clear 11 1019 32 16093 0.3 300 14:40 14.11.2019
4182 Clear 11 1019 32 16093 0.3 300 14:40 14.11.2019
4183 Clear 11 1019 32 16093 0.3 300 14:40 14.11.2019
4184 Clouds 10 1018 30 16093 0.14 5 14:22 14.11.2019
4185 Clear 10 1018 37 16093 0.14 5 13:55 14.11.2019
4186 Clear 10 1018 37 16093 0.14 5 13:36 14.11.2019
4187 Clouds 10 1017 30 16093 1.5 230 13:18 14.11.2019
4188 Clear 10 1018 34 16093 0.17 53 12:45 14.11.2019
4189 Clear 11 1018 34 16093 0.17 53 12:25 14.11.2019
4190 Clear 11 1018 29 16093 0.17 53 11:56 14.11.2019
4191 Clear 11 1018 37 16093 1.5 40 11:38 14.11.2019
4192 Clouds 11 1017 32 16093 0.37 341 11:19 14.11.2019
4193 Clear 11 1018 37 16093 0.37 341 10:57 14.11.2019
4194 Clear 11 1018 37 16093 0.37 341 10:37 14.11.2019
4195 Clouds 11 1017 30 16093 1.5 240 10:19 14.11.2019
4196 Clear 11 1018 34 16093 0.37 341 09:54 14.11.2019
4197 Clear 11 1018 34 16093 0.37 341 09:54 14.11.2019
4198 Clear 11 1018 34 16093 0.37 341 09:36 14.11.2019
4199 Clear 12 1017 32 16093 0.37 341 09:18 14.11.2019
4200 Clear 12 1017 32 16093 0.37 341 08:41 14.11.2019
4201 Clouds 12 1016 24 16093 2.1 200 08:23 14.11.2019
4202 Clear 12 1017 34 16093 2.1 50 07:42 14.11.2019
4203 Clouds 12 1016 24 16093 1.5 220 07:24 14.11.2019
4204 Clear 13 1017 32 16093 0.48 120 06:46 14.11.2019
4205 Clouds 13 1016 25 16093 0.48 120 06:21 14.11.2019
4206 Clear 15 1016 28 16093 0.48 120 05:40 14.11.2019
4207 Clear 16 1016 26 16093 2.6 20 04:38 14.11.2019
4208 Clear 19 1016 23 16093 1.5 150 03:28 14.11.2019
4209 Clear 20 1015 20 16093 2.6 40 02:38 14.11.2019
4210 Clear 22 1015 18 16093 3.1 40 01:41 14.11.2019
4211 Clouds 23 1015 13 16093 1.1 46 00:57 14.11.2019
4212 Clear 23 1015 15 16093 2.6 30 00:38 14.11.2019
4213 Clouds 23 1015 13 16093 1.1 46 00:19 14.11.2019
4214 Clouds 23 1015 13 16093 2.6 80 23:38 13.11.2019
4215 Clouds 23 1015 13 16093 2.6 80 23:20 13.11.2019
4216 Clear 22 1016 13 16093 0.86 24 22:55 13.11.2019
4217 Clear 22 1016 13 16093 3.1 50 22:37 13.11.2019
4218 Clear 22 1017 15 16093 3.1 40 22:19 13.11.2019
4219 Clear 22 1016 13 16093 1.5 10 21:55 13.11.2019
4220 Clear 21 1017 16 16093 1.5 50 21:36 13.11.2019
4221 Clouds 21 1017 15 16093 2.1 70 21:18 13.11.2019
4222 Clear 21 1017 18 16093 3.6 30 20:54 13.11.2019
4223 Clear 21 1018 20 16093 2.1 90 20:36 13.11.2019
4224 Clear 20 1019 16 16093 2.6 10 20:18 13.11.2019
4225 Clear 19 1019 16 16093 1.25 17 19:42 13.11.2019
4226 Clouds 19 1018 16 16093 1.25 17 19:19 13.11.2019
4227 Clear 19 1019 18 16093 1.25 17 18:56 13.11.2019
4228 Clear 19 1019 18 16093 1.25 17 18:56 13.11.2019
4229 Clear 17 1019 19 16093 1.25 17 18:38 13.11.2019
4230 Clouds 17 1018 18 16093 1.25 17 18:19 13.11.2019
4231 Clear 16 1019 22 16093 1.25 17 17:57 13.11.2019
4232 Clear 15 1019 22 16093 1.25 17 17:38 13.11.2019
4233 Clouds 14 1018 26 16093 0.65 300 17:19 13.11.2019
4234 Clear 12 1019 25 16093 0.65 300 16:57 13.11.2019
4235 Clear 10 1018 32 16093 0.65 300 16:39 13.11.2019
4236 Clouds 11 1018 28 16093 1.5 220 16:21 13.11.2019
4237 Clear 9 1018 29 16093 0.65 300 15:57 13.11.2019
4238 Clear 9 1018 36 16093 0.65 300 15:38 13.11.2019
4239 Clouds 9 1018 34 16093 2.1 270 15:19 13.11.2019
4240 Clear 9 1018 39 16093 0.48 319 14:42 13.11.2019
4241 Clouds 9 1017 30 16093 1.5 220 14:21 13.11.2019
4242 Clear 10 1018 45 16093 0.37 31 13:56 13.11.2019
4243 Clear 9 1018 45 16093 0.37 31 13:36 13.11.2019
4244 Clear 10 1018 31 16093 3.6 180 13:18 13.11.2019
4245 Clear 10 1018 39 16093 0.37 31 12:42 13.11.2019
4246 Clouds 10 1017 27 16093 0.37 31 12:24 13.11.2019
4247 Clear 10 1018 32 16093 0.37 31 11:58 13.11.2019
4248 Clear 10 1018 37 16093 0.37 31 11:38 13.11.2019
4249 Clouds 11 1017 25 16093 1.5 250 11:19 13.11.2019
4250 Clear 11 1018 37 16093 0.62 188 10:56 13.11.2019
4251 Clear 11 1018 39 16093 0.62 188 10:38 13.11.2019
4252 Clouds 11 1017 26 16093 2.1 210 10:19 13.11.2019
4253 Clouds 11 1017 24 16093 2.1 230 09:43 13.11.2019
4254 Clouds 11 1017 24 16093 2.1 230 09:43 13.11.2019
4255 Clear 12 1019 27 16093 3.6 190 09:21 13.11.2019
4256 Clear 12 1019 27 16093 3.6 190 09:21 13.11.2019
4257 Clear 12 1018 30 16093 0.62 188 08:44 13.11.2019
4258 Clear 12 1018 30 16093 0.69 162 08:25 13.11.2019
4259 Clear 12 1018 28 16093 0.44 200 07:59 13.11.2019
4260 Clear 13 1019 25 16093 4.1 180 07:40 13.11.2019
4261 Clear 13 1019 25 16093 4.1 180 07:19 13.11.2019
4262 Clear 13 1019 28 16093 0.44 200 06:42 13.11.2019
4263 Clouds 14 1018 21 16093 2.1 240 06:19 13.11.2019
4264 Clear 13 1019 26 16093 0.44 200 05:48 13.11.2019
4265 Clouds 14 1018 20 16093 2.1 230 05:22 13.11.2019
4266 Clear 17 1018 21 16093 2.1 340 03:57 13.11.2019
4267 Clear 21 1019 14 16093 2.6 50 01:52 13.11.2019
4268 Clear 22 1019 14 16093 2.6 50 01:27 13.11.2019
4269 Clear 22 1019 14 16093 2.6 50 01:27 13.11.2019
4270 Clear 22 1019 12 16093 2.1 40 00:43 13.11.2019
4271 Clear 22 1019 12 16093 2.1 60 23:56 12.11.2019
4272 Clear 22 1019 13 16093 2.6 30 23:38 12.11.2019
4273 Clouds 22 1019 13 16093 1.5 0 23:18 12.11.2019
4274 Clear 22 1020 13 16093 2.6 40 22:42 12.11.2019
4275 Clear 22 1021 16 16093 1.53 2 22:18 12.11.2019
4276 Clear 22 1021 16 16093 1.53 2 22:18 12.11.2019
4277 Clear 21 1020 13 16093 3.6 30 21:56 12.11.2019
4278 Clear 21 1021 13 16093 1.53 2 21:36 12.11.2019
4279 Clouds 21 1021 14 16093 2.6 30 21:18 12.11.2019
4280 Clear 21 1021 15 16093 1.53 2 20:55 12.11.2019
4281 Clear 21 1022 14 16093 1.5 0 20:36 12.11.2019
4282 Clouds 20 1022 15 16093 2.16 356 20:18 12.11.2019
4283 Clouds 20 1022 15 16093 2.16 356 20:18 12.11.2019
4284 Clear 19 1022 14 16093 3.1 0 19:54 12.11.2019
4285 Clear 19 1022 14 16093 3.1 0 19:54 12.11.2019
4286 Clear 19 1023 15 16093 2.1 0 19:36 12.11.2019
4287 Clouds 18 1023 17 16093 2.16 356 19:18 12.11.2019
4288 Clear 18 1023 16 16093 4.1 320 18:54 12.11.2019
4289 Clear 17 1023 16 16093 3.6 340 18:36 12.11.2019
4290 Clouds 17 1023 18 16093 2.16 356 18:18 12.11.2019
4291 Clear 16 1023 17 16093 3.6 330 17:55 12.11.2019
4292 Clear 15 1023 17 16093 5.1 330 17:36 12.11.2019
4293 Clear 13 1024 26 16093 2.6 180 17:18 12.11.2019
4294 Clear 12 1023 19 16093 6.2 340 16:41 12.11.2019
4295 Clouds 10 1023 27 16093 1.5 220 16:23 12.11.2019
4296 Clear 10 1023 23 16093 3.1 320 15:42 12.11.2019
4297 Clouds 10 1022 27 16093 2.1 240 15:23 12.11.2019
4298 Clear 10 1022 20 16093 3.1 360 14:58 12.11.2019
4299 Clear 10 1022 23 16093 3.6 320 14:39 12.11.2019
4300 Clouds 10 1022 25 16093 2.1 240 14:19 12.11.2019
4301 Clear 10 1022 19 16093 2.6 350 13:58 12.11.2019
4302 Clear 10 1022 19 16093 5.1 350 13:39 12.11.2019
4303 Clouds 11 1022 25 16093 1.35 337 13:19 12.11.2019
4304 Clear 11 1022 19 16093 4.6 360 12:55 12.11.2019
4305 -273 0 0 0 0 0 12:55 12.11.2019
4306 Clear 11 1022 16 16093 5.1 40 12:37 12.11.2019
4307 Clouds 11 1021 25 16093 2.6 220 12:18 12.11.2019
4308 Clear 12 1022 19 16093 5.7 350 11:42 12.11.2019
4309 Clouds 12 1022 26 16093 2.1 220 11:22 12.11.2019
4310 Clear 13 1022 25 16093 3.6 350 10:57 12.11.2019
4311 Clear 14 1022 19 16093 1.83 18 10:39 12.11.2019
4312 Clouds 13 1022 22 16093 1.87 6 10:21 12.11.2019
4313 Clear 13 1022 26 16093 1.87 6 09:57 12.11.2019
4314 Clear 14 1022 26 16093 1.83 18 09:38 12.11.2019
4315 Clear 14 1022 17 16093 4.6 60 09:18 12.11.2019
4316 Clear 14 1021 21 16093 1.87 6 08:46 12.11.2019
4317 Clear 14 1021 21 16093 1.87 6 08:27 12.11.2019
4318 Clear 15 1021 18 16093 2.1 90 07:42 12.11.2019
4319 Clouds 15 1021 16 16093 2.13 33 07:23 12.11.2019
4320 Clear 15 1021 13 16093 3.6 10 06:48 12.11.2019
4321 Clouds 15 1020 22 16093 2.13 33 06:23 12.11.2019
4322 Clouds 15 1020 22 16093 2.13 33 06:23 12.11.2019
4323 Clear 18 1020 15 16093 5.1 30 05:49 12.11.2019
4324 Clear 17 1020 18 16093 4.1 40 04:50 12.11.2019
4325 Clear 19 1019 14 16093 4.6 20 03:53 12.11.2019
4326 Clear 19 1019 14 16093 4.6 20 03:53 12.11.2019
4327 Clear 23 1019 14 16093 5.7 10 01:49 12.11.2019
4328 Clouds 24 1018 12 16093 4.1 50 01:23 12.11.2019
4329 Clear 25 1019 13 16093 6.7 40 00:51 12.11.2019
4330 Clear 25 1019 13 16093 6.7 40 00:32 12.11.2019
4331 Clouds 25 1018 11 16093 5.7 60 23:47 11.11.2019
4332 Clouds 25 1018 11 16093 5.7 60 23:24 11.11.2019
4333 Clear 25 1019 12 16093 5.7 20 22:58 11.11.2019
4334 Clear 25 1019 12 16093 6.2 40 22:37 11.11.2019
4335 Clouds 25 1019 11 16093 3.1 70 22:18 11.11.2019
4336 Clear 24 1019 12 16093 5.1 40 21:57 11.11.2019
4337 Clear 24 1019 12 16093 5.1 40 21:38 11.11.2019
4338 Clouds 24 1019 11 16093 3.6 50 21:19 11.11.2019
4339 Clear 23 1020 11 16093 4.1 40 20:43 11.11.2019
4340 Clouds 22 1020 11 16093 3.1 50 20:21 11.11.2019
4341 Clear 21 1021 11 16093 5.7 40 19:59 11.11.2019
4342 Clear 21 1021 11 16093 5.1 40 19:41 11.11.2019
4343 Clear 20 1020 11 16093 2.1 20 19:19 11.11.2019
4344 Clear 19 1021 10 16093 4.1 30 18:56 11.11.2019
4345 Clear 19 1021 11 16093 4.6 310 18:38 11.11.2019
4346 Clear 18 1021 11 16093 4.88 21 18:19 11.11.2019
4347 Clear 17 1021 15 16093 4.88 21 17:42 11.11.2019
4348 Clear 15 1020 16 16093 1.5 250 17:24 11.11.2019
4349 Clear 12 1020 17 16093 1.21 315 16:44 11.11.2019
4350 Clear 11 1020 17 16093 1.21 315 16:24 11.11.2019
4351 Clear 11 1019 18 16093 1.21 315 15:59 11.11.2019
4352 Clear 11 1019 23 16093 1.5 70 15:40 11.11.2019
4353 Clear 10 1018 18 16093 2.1 220 15:20 11.11.2019
4354 Clear 10 1018 16 16093 1.21 315 14:45 11.11.2019
4355 Clear 11 1018 20 16093 2.6 210 14:25 11.11.2019
4356 Clear 10 1018 17 16093 2.1 300 13:58 11.11.2019
4357 Clear 10 1018 26 16093 1.31 322 13:38 11.11.2019
4358 Clear 10 1017 21 16093 2.6 210 13:20 11.11.2019
4359 Clear 10 1018 21 16093 1.23 328 12:57 11.11.2019
4360 Clear 10 1017 24 16093 1.23 328 12:39 11.11.2019
4361 Clear 10 1017 17 16093 2.1 250 12:21 11.11.2019
4362 Clear 11 1017 27 16093 1.5 100 11:43 11.11.2019
4363 Clear 10 1017 22 16093 2.6 240 11:22 11.11.2019
4364 Clear 11 1017 25 16093 0.56 334 10:58 11.11.2019
4365 Clear 12 1017 22 16093 0.56 334 10:39 11.11.2019
4366 Clear 12 1017 20 16093 2.1 260 10:18 11.11.2019
4367 Clear 12 1017 22 16093 0.56 334 09:55 11.11.2019
4368 Clear 12 1017 22 16093 0.56 334 09:36 11.11.2019
4369 Clouds 12 1016 19 16093 2.6 290 09:18 11.11.2019
4370 Clear 12 1017 19 16093 1.5 310 08:39 11.11.2019
4371 Clouds 12 1016 16 16093 2.6 220 08:20 11.11.2019
4372 Clear 12 1017 23 16093 0.58 199 07:55 11.11.2019
4373 Clear 13 1017 18 16093 2.6 40 07:36 11.11.2019
4374 Clear 13 1017 20 16093 4.1 170 07:18 11.11.2019
4375 Clouds 13 1016 26 16093 0.58 199 06:41 11.11.2019
4376 Clouds 14 1016 17 16093 2.1 180 06:21 11.11.2019
4377 Clouds 13 1016 26 16093 0.58 199 05:50 11.11.2019
4378 Clouds 17 1016 14 16093 2.6 20 04:00 11.11.2019
4379 Clouds 18 1015 13 16093 1.5 200 03:22 11.11.2019
4380 Clouds 20 1015 13 16093 0.36 67 02:20 11.11.2019
4381 Clear 21 1015 12 16093 4.1 30 01:53 11.11.2019
4382 Clear 22 1015 11 16093 2.6 30 01:33 11.11.2019
4383 Clear 24 1015 10 16093 2.6 70 00:47 11.11.2019
4384 Clear 24 1015 10 16093 2.6 40 23:59 10.11.2019
4385 Clear 24 1015 7 16093 0.29 75 23:39 10.11.2019
4386 Clouds 23 1015 8 16093 2.1 0 23:19 10.11.2019
4387 Clear 23 1016 7 16093 0.98 5 22:57 10.11.2019
4388 Clear 23 1016 8 16093 0.98 5 22:38 10.11.2019
4389 Clouds 23 1016 10 16093 1.5 90 22:20 10.11.2019
4390 Clear 23 1016 8 16093 0.98 5 21:57 10.11.2019
4391 Clear 22 1017 10 16093 0.98 5 21:38 10.11.2019
4392 Clear 22 1018 9 12874 2.1 0 21:20 10.11.2019
4393 Clear 21 1018 11 16093 0.98 5 20:42 10.11.2019
4394 Clear 21 1018 11 16093 1.7 344 20:22 10.11.2019
4395 Clear 21 1018 11 16093 1.7 344 20:22 10.11.2019
4396 Clear 21 1018 11 16093 1.7 344 20:22 10.11.2019
4397 Clear 20 1018 11 16093 1.31 351 19:56 10.11.2019
4398 Clear 19 1019 10 16093 1.31 351 19:38 10.11.2019
4399 Clear 19 1019 10 16093 1.31 351 19:38 10.11.2019
4400 Clear 19 1019 10 16093 1.31 351 19:38 10.11.2019
4401 Clouds 19 1019 13 16093 2.1 40 19:19 10.11.2019
4402 Clear 18 1019 12 16093 1.31 351 18:58 10.11.2019
4403 Clear 18 1019 12 16093 1.31 351 18:58 10.11.2019
4404 Clear 18 1019 12 16093 1.31 351 18:58 10.11.2019
4405 Clear 17 1019 13 16093 1.31 351 18:40 10.11.2019
4406 Clear 17 1019 13 16093 1.31 351 18:40 10.11.2019
4407 Clouds 16 1018 16 16093 1.5 0 18:19 10.11.2019
4408 Clear 14 1019 15 16093 1.31 351 17:57 10.11.2019
4409 Clear 13 1019 15 16093 1.31 351 17:38 10.11.2019
4410 Clear 12 1019 18 16093 0.22 286 17:20 10.11.2019
4411 Clear 10 1019 18 16093 0.22 286 16:58 10.11.2019
4412 Clear 10 1019 24 16093 0.22 286 16:39 10.11.2019
4413 Clouds 10 1018 21 16093 0.22 286 16:21 10.11.2019
4414 Clear 8 1019 29 16093 0.22 286 15:56 10.11.2019
4415 Clear 8 1018 23 16093 0.22 286 15:36 10.11.2019
4416 Clouds 9 1018 24 16093 2.1 230 15:18 10.11.2019
4417 Clouds 9 1018 21 16093 0.22 286 14:55 10.11.2019
4418 Clouds 9 1018 36 16093 0.22 286 14:36 10.11.2019
4419 Clear 8 1019 25 16093 0.3 250 14:18 10.11.2019
4420 Clouds 9 1018 31 16093 0.3 250 13:41 10.11.2019
4421 Clear 9 1017 20 16093 3.1 210 13:20 10.11.2019
4422 Clouds 10 1018 24 16093 0.47 239 12:54 10.11.2019
4423 Clouds 9 1018 26 16093 0.47 239 12:36 10.11.2019
4424 Clear 9 1017 20 16093 0.47 239 12:18 10.11.2019
4425 Clouds 10 1018 26 16093 0.47 239 11:54 10.11.2019
4426 Clouds 10 1018 29 16093 0.47 239 11:36 10.11.2019
4427 Clouds 10 1017 17 16093 2.6 230 11:18 10.11.2019
4428 Clouds 10 1018 23 16093 0.33 248 10:41 10.11.2019
4429 Clouds 11 1018 17 16093 2.1 230 10:20 10.11.2019
4430 Clouds 11 1018 23 16093 0.33 248 09:44 10.11.2019
4431 Clouds 11 1018 23 16093 0.33 248 09:24 10.11.2019
4432 Clouds 11 1018 29 16093 0.33 248 08:56 10.11.2019
4433 Clouds 11 1018 23 16093 0.33 248 08:36 10.11.2019
4434 Clouds 12 1018 16 16093 1.5 220 08:18 10.11.2019
4435 Clouds 13 1018 22 16093 0.82 237 07:42 10.11.2019
4436 Clouds 13 1018 22 16093 0.82 237 07:23 10.11.2019
4437 Clouds 13 1018 19 16093 0.82 237 06:31 10.11.2019
4438 Clouds 14 1018 17 16093 2.1 350 05:32 10.11.2019
4439 Clouds 18 1017 12 16093 1.5 220 03:22 10.11.2019
4440 Clear 23 1018 11 16093 1 12 01:45 10.11.2019
4441 Clouds 25 1017 7 16093 1.04 303 01:19 10.11.2019
4442 Clear 25 1018 6 16093 1.5 0 00:40 10.11.2019
4443 Clear 25 1018 9 16093 3.6 30 23:46 09.11.2019
4444 Clouds 25 1018 7 16093 1.97 352 23:21 09.11.2019
4445 Clear 24 1018 9 16093 3.6 40 22:59 09.11.2019
4446 Clear 24 1019 9 16093 3.6 50 22:40 09.11.2019
4447 Clouds 24 1019 9 16093 1.97 352 22:20 09.11.2019
4448 Clear 24 1019 7 16093 3.1 40 21:55 09.11.2019
4449 Clear 24 1020 9 16093 1.97 352 21:37 09.11.2019
4450 Clouds 24 1020 9 16093 1.5 360 21:19 09.11.2019
4451 Clear 23 1021 10 16093 1.5 100 20:41 09.11.2019
4452 Clouds 21 1021 11 16093 1.5 80 20:22 09.11.2019
4453 Clear 21 1021 10 16093 2.6 110 19:57 09.11.2019
4454 Clear 20 1022 11 16093 1.93 354 19:38 09.11.2019
4455 Clouds 20 1022 11 16093 1.93 354 19:20 09.11.2019
4456 Clear 18 1022 13 16093 1.93 354 18:41 09.11.2019
4457 Clouds 18 1022 13 16093 1.93 354 18:19 09.11.2019
4458 Clear 16 1022 13 16093 1.93 354 17:59 09.11.2019
4459 Clear 14 1023 15 16093 1.93 354 17:40 09.11.2019
4460 Clouds 13 1022 16 16093 2.1 220 17:22 09.11.2019
4461 Clear 11 1022 19 16093 1 320 16:43 09.11.2019
4462 Clouds 10 1022 20 16093 3.6 210 16:22 09.11.2019
4463 Clear 10 1022 24 16093 1 320 15:58 09.11.2019
4464 Clear 10 1022 19 16093 2.6 170 15:40 09.11.2019
4465 Clouds 9 1021 23 16093 2.6 200 15:21 09.11.2019
4466 Clear 9 1021 18 16093 1 320 14:42 09.11.2019
4467 Clear 9 1021 22 16093 2.6 260 14:22 09.11.2019
4468 Clear 9 1021 18 16093 1.07 343 13:57 09.11.2019
4469 Clouds 10 1021 14 16093 4.6 310 13:38 09.11.2019
4470 Clear 10 1021 18 16093 1.5 240 13:19 09.11.2019
4471 Clouds 11 1021 14 16093 3.6 320 12:55 09.11.2019
4472 Clouds 10 1021 22 16093 1.19 348 12:37 09.11.2019
4473 Clear 11 1021 17 16093 2.1 220 12:18 09.11.2019
4474 Clouds 11 1021 20 16093 1.19 348 11:44 09.11.2019
4475 Clear 11 1021 19 16093 2.1 250 11:20 09.11.2019
4476 Clear 12 1022 22 16093 0.5 312 10:42 09.11.2019
4477 Clear 12 1021 16 16093 3.6 220 10:20 09.11.2019
4478 Clouds 13 1022 22 16093 1.5 90 10:00 09.11.2019
4479 Clouds 12 1022 16 16093 0.5 312 09:41 09.11.2019
4480 Clear 13 1022 16 16093 2.1 230 09:20 09.11.2019
4481 Clouds 14 1022 27 16093 0.5 312 08:43 09.11.2019
4482 Clouds 13 1022 27 16093 0.57 316 08:25 09.11.2019
4483 Clouds 14 1022 18 16093 1.5 330 07:55 09.11.2019
4484 Clouds 14 1022 18 16093 1.5 330 07:37 09.11.2019
4485 Clear 14 1022 15 16093 2.6 200 07:18 09.11.2019
4486 Clear 15 1022 19 16093 1.5 290 06:42 09.11.2019
4487 Clear 15 1022 13 16093 1.5 230 06:23 09.11.2019
4488 Clear 16 1022 16 16093 1.5 320 05:39 09.11.2019
4489 Clear 17 1022 12 16093 1.5 290 04:29 09.11.2019
4490 Clear 23 1022 10 16093 1.5 40 02:47 09.11.2019
4491 Clouds 22 1021 11 16093 2.1 290 02:24 09.11.2019
4492 Clear 26 1023 9 16093 1.98 318 01:18 09.11.2019
4493 Clear 26 1022 7 16093 4.1 320 00:39 09.11.2019
4494 Clear 25 1022 9 16093 1.98 318 00:21 09.11.2019
4495 Clear 25 1022 9 16093 3.1 50 23:40 08.11.2019
4496 Clear 25 1022 9 16093 2.28 351 23:22 08.11.2019
4497 Clear 25 1023 9 16093 2.28 351 22:56 08.11.2019
4498 Clear 25 1022 9 16093 3.6 40 22:56 08.11.2019
4499 Clear 25 1023 9 16093 2.28 351 22:38 08.11.2019
4500 Clear 24 1023 9 16093 2.28 351 22:19 08.11.2019
4501 Clear 24 1024 11 16093 2.28 351 21:41 08.11.2019
4502 Clear 24 1024 11 16093 2.28 351 21:23 08.11.2019
4503 Clear 23 1024 12 16093 2.28 351 20:57 08.11.2019
4504 Clear 22 1025 12 16093 2.28 351 20:38 08.11.2019
4505 Clear 22 1025 12 16093 1.81 357 20:19 08.11.2019
4506 Clear 20 1026 12 16093 1.5 0 19:40 08.11.2019
4507 Clear 20 1025 14 16093 1.73 352 19:19 08.11.2019
4508 Clear 19 1026 12 16093 2.1 150 18:57 08.11.2019
4509 Clear 18 1026 13 16093 1.73 352 18:39 08.11.2019
4510 Clear 18 1026 13 16093 1.73 352 18:39 08.11.2019
4511 Clear 18 1026 13 16093 1.73 352 18:39 08.11.2019
4512 Clear 18 1026 15 16093 1.73 352 18:21 08.11.2019
4513 Clear 16 1026 16 16093 1.73 352 17:56 08.11.2019
4514 Clear 16 1026 17 16093 1.5 210 17:38 08.11.2019
4515 Clear 13 1025 19 16093 1.5 190 17:20 08.11.2019
4516 Clear 12 1026 17 16093 0.9 325 16:59 08.11.2019
4517 Clear 12 1025 20 16093 2.1 250 16:40 08.11.2019
4518 Clear 11 1025 22 16093 2.6 210 16:21 08.11.2019
4519 Clear 10 1025 29 16093 0.9 325 15:59 08.11.2019
4520 Clear 9 1025 27 16093 2.1 110 15:40 08.11.2019
4521 Clear 10 1024 25 16093 1.5 230 15:22 08.11.2019
4522 Clear 10 1024 25 16093 1.5 230 15:22 08.11.2019
4523 Clear 10 1025 25 16093 0.9 325 14:56 08.11.2019
4524 Clouds 10 1024 21 16093 3.6 300 14:37 08.11.2019
4525 Clear 10 1023 22 16093 1.5 240 14:19 08.11.2019
4526 Clear 10 1024 31 16093 0.83 322 13:58 08.11.2019
4527 Clear 10 1024 31 16093 0.83 322 13:58 08.11.2019
4528 Clear 10 1024 22 16093 0.83 322 13:39 08.11.2019
4529 Clear 9 1023 22 16093 2.1 210 13:20 08.11.2019
4530 Clear 11 1023 20 16093 1.5 0 12:44 08.11.2019
4531 Clear 11 1023 20 16093 1.5 0 12:26 08.11.2019
4532 Clear 11 1023 23 16093 1.5 310 11:57 08.11.2019
4533 Clear 10 1023 25 16093 0.65 318 11:39 08.11.2019
4534 Clear 11 1023 20 16093 2.6 210 11:20 08.11.2019
4535 Clear 12 1023 23 16093 0.56 351 10:57 08.11.2019
4536 Clear 12 1023 20 16093 0.56 351 10:39 08.11.2019
4537 Clear 12 1023 20 16093 1.5 230 10:21 08.11.2019
4538 Clear 13 1023 20 16093 2.6 320 09:55 08.11.2019
4539 Clear 13 1023 22 16093 0.56 351 09:36 08.11.2019
4540 Clear 13 1023 20 16093 3.1 210 09:18 08.11.2019
4541 Clear 12 1024 26 16093 0.56 351 08:38 08.11.2019
4542 Clear 12 1023 18 16093 0.75 287 08:19 08.11.2019
4543 Clouds 13 1023 32 16093 2.1 10 07:41 08.11.2019
4544 Clear 14 1023 17 16093 2.1 240 07:22 08.11.2019
4545 Clear 14 1023 17 16093 2.1 240 07:22 08.11.2019
4546 Clear 14 1023 21 16093 0.75 287 06:43 08.11.2019
4547 Clouds 14 1022 17 16093 2.1 210 06:24 08.11.2019
4548 Clear 15 1023 17 16093 1.5 300 05:56 08.11.2019
4549 Clouds 15 1022 16 16093 2.1 220 05:24 08.11.2019
4550 Clear 18 1022 17 16093 2.1 40 03:58 08.11.2019
4551 Clear 18 1022 17 16093 2.1 350 03:36 08.11.2019
4552 Clear 22 1021 13 16093 2.1 340 02:52 08.11.2019
4553 Clear 24 1021 12 16093 1.46 295 01:49 08.11.2019
4554 Clear 24 1021 12 16093 1.46 295 01:30 08.11.2019
4555 Clear 24 1021 10 16093 3.1 40 00:37 08.11.2019
4556 Clear 24 1022 12 16093 2.1 50 00:18 08.11.2019
4557 Clear 24 1021 9 16093 3.6 40 23:43 07.11.2019
4558 Clear 24 1021 10 16093 1.12 288 23:24 07.11.2019
4559 Clear 24 1021 9 16093 2.6 0 22:43 07.11.2019
4560 Clear 24 1021 10 16093 2.1 360 22:22 07.11.2019
4561 Clear 24 1021 9 16093 3.6 50 21:58 07.11.2019
4562 Clear 24 1022 11 16093 3.6 50 21:38 07.11.2019
4563 Clear 24 1022 11 16093 1.88 352 21:19 07.11.2019
4564 Clear 23 1022 11 16093 4.1 50 20:58 07.11.2019
4565 Clear 23 1023 11 16093 4.1 60 20:39 07.11.2019
4566 Clear 22 1022 12 16093 2.39 4 20:21 07.11.2019
4567 Clear 21 1023 11 16093 3.6 40 19:56 07.11.2019
4568 Clear 20 1023 13 16093 2.57 4 19:37 07.11.2019
4569 Clear 20 1023 14 16093 1.5 100 19:18 07.11.2019
4570 Clear 20 1023 13 16093 2.6 0 18:56 07.11.2019
4571 Clear 19 1023 13 16093 2.6 0 18:37 07.11.2019
4572 Clear 19 1023 13 16093 2.6 0 18:37 07.11.2019
4573 Clear 18 1023 17 16093 2.57 4 18:19 07.11.2019
4574 Clear 17 1023 20 16093 1.5 250 17:40 07.11.2019
4575 Clear 15 1023 20 16093 1.5 250 17:22 07.11.2019
4576 Clear 11 1023 25 16093 1.07 339 16:59 07.11.2019
4577 Clear 11 1022 29 16093 1.07 339 16:40 07.11.2019
4578 Clear 11 1022 29 16093 1.07 339 16:20 07.11.2019
4579 Clear 10 1022 27 16093 1.07 339 15:58 07.11.2019
4580 Clear 10 1021 27 16093 1.07 339 15:39 07.11.2019
4581 Clear 10 1021 27 16093 1.07 339 15:19 07.11.2019
4582 Clear 10 1021 36 16093 1.5 70 14:45 07.11.2019
4583 Clear 10 1020 29 16093 1.07 339 14:27 07.11.2019
4584 Clouds 11 1020 36 16093 0.84 339 13:57 07.11.2019
4585 Clear 11 1020 31 16093 0.84 339 13:39 07.11.2019
4586 Clear 11 1020 31 16093 0.97 338 13:20 07.11.2019
4587 Clear 10 1020 34 16093 0.97 338 12:58 07.11.2019
4588 Clear 11 1019 37 16093 0.97 338 12:40 07.11.2019
4589 Clear 11 1019 37 16093 0.97 338 12:21 07.11.2019
4590 Clear 11 1019 37 16093 2.1 130 11:58 07.11.2019
4591 Clear 11 1019 37 16093 2.1 130 11:58 07.11.2019
4592 Clear 11 1019 32 16093 0.97 338 11:39 07.11.2019
4593 Clear 11 1019 32 16093 0.71 337 11:20 07.11.2019
4594 Clear 12 1019 26 16093 0.71 337 10:40 07.11.2019
4595 Clear 12 1019 26 16093 0.71 337 10:19 07.11.2019
4596 Clear 12 1019 34 16093 0.71 337 09:43 07.11.2019
4597 Clear 12 1019 34 16093 2.1 10 09:22 07.11.2019
4598 Clear 12 1018 26 16093 0.71 337 08:57 07.11.2019
4599 Clouds 13 1017 19 16093 2.1 240 08:38 07.11.2019
4600 Clouds 13 1017 19 16093 2.1 240 08:19 07.11.2019
4601 Clouds 13 1017 19 16093 2.1 240 08:19 07.11.2019
4602 Clouds 13 1017 19 16093 2.1 240 08:19 07.11.2019
4603 Clear 14 1018 28 16093 0.97 271 07:42 07.11.2019
4604 Clear 14 1018 28 16093 0.97 271 07:42 07.11.2019
4605 Clear 14 1018 33 16093 0.97 271 07:22 07.11.2019
4606 Clear 14 1017 30 16093 1.5 350 06:49 07.11.2019
4607 Clear 14 1017 33 16093 2.1 360 06:29 07.11.2019
4608 -273 0 0 0 0 0 05:58 07.11.2019
4609 Clear 16 1017 25 16093 2.1 340 05:39 07.11.2019
4610 -273 0 0 0 0 0 05:21 07.11.2019
4611 Clear 17 1016 17 16093 2.6 310 04:42 07.11.2019
4612 Clear 22 1015 19 16093 2.6 350 02:59 07.11.2019
4613 -273 0 0 0 0 0 02:58 07.11.2019
4614 Clear 24 1015 12 16093 0.38 333 00:57 07.11.2019
4615 Clear 25 1015 12 16093 0.38 333 00:21 07.11.2019
4616 Clear 25 1015 12 16093 0.38 333 00:21 07.11.2019
4617 Clear 25 1015 12 16093 0.38 333 23:48 06.11.2019
4618 Clear 25 1015 12 16093 2.17 340 23:22 06.11.2019
4619 Clear 24 1015 12 16093 1.5 0 22:57 06.11.2019
4620 Clear 24 1015 13 16093 2.1 40 22:38 06.11.2019
4621 Clear 24 1015 13 16093 2.1 40 22:19 06.11.2019
4622 Clear 23 1016 13 16093 2.6 60 21:42 06.11.2019
4623 Clear 23 1016 14 16093 3.6 80 21:21 06.11.2019
4624 Clear 23 1017 14 16093 2.17 340 20:59 06.11.2019
4625 Clear 22 1017 14 16093 2.17 340 20:41 06.11.2019
4626 Clear 22 1017 14 16093 2.1 0 20:22 06.11.2019
4627 Clear 21 1017 14 16093 3.1 80 19:59 06.11.2019
4628 Clear 21 1018 15 16093 1.82 352 19:40 06.11.2019
4629 Clear 20 1018 15 16093 1.82 352 19:21 06.11.2019
4630 Clear 20 1018 14 16093 1.82 352 18:58 06.11.2019
4631 Clear 19 1018 14 16093 1.82 352 18:39 06.11.2019
4632 Clear 18 1019 15 16093 1.5 0 18:19 06.11.2019
4633 Clear 16 1018 16 16093 1.82 352 17:56 06.11.2019
4634 Clear 16 1018 16 16093 1.82 352 17:56 06.11.2019
4635 Haze 15 1018 17 8047 1.82 352 17:37 06.11.2019
4636 Clear 14 1019 22 16093 2.1 180 17:18 06.11.2019
4637 Clear 11 1018 19 16093 0.75 323 16:55 06.11.2019
4638 Clear 12 1018 22 16093 0.75 323 16:37 06.11.2019
4639 Clouds 11 1017 26 16093 2.6 200 16:18 06.11.2019
4640 Clear 10 1018 22 16093 0.75 323 15:54 06.11.2019
4641 Clear 10 1018 23 16093 1.5 110 15:36 06.11.2019
4642 Clouds 10 1017 27 16093 2.1 270 15:18 06.11.2019
4643 Clear 11 1017 23 16093 0.75 323 14:55 06.11.2019
4644 Clear 10 1017 25 16093 0.75 323 14:36 06.11.2019
4645 Clouds 9 1017 25 16093 1.04 330 14:18 06.11.2019
4646 Clear 9 1017 25 16093 1.04 330 13:38 06.11.2019
4647 Clear 9 1017 23 16093 2.1 230 13:20 06.11.2019
4648 Clear 10 1017 23 16093 1.12 324 12:57 06.11.2019
4649 Clear 10 1017 27 16093 1.12 324 12:39 06.11.2019
4650 Clear 10 1017 23 16093 2.6 210 12:20 06.11.2019
4651 Clear 11 1017 27 16093 1.12 324 11:58 06.11.2019
4652 Clear 11 1017 31 16093 1.12 324 11:37 06.11.2019
4653 Clear 11 1017 24 16093 2.6 190 11:18 06.11.2019
4654 Clear 11 1017 25 16093 0.53 13 10:56 06.11.2019
4655 Clear 11 1017 29 16093 2.1 20 10:37 06.11.2019
4656 Clear 12 1017 20 16093 1.5 240 10:19 06.11.2019
4657 Clear 13 1018 19 16093 0.53 13 09:43 06.11.2019
4658 Clear 13 1017 19 16093 2.6 220 09:21 06.11.2019
4659 Clear 13 1018 19 16093 0.53 13 08:57 06.11.2019
4660 Clear 13 1018 19 16093 2.1 20 08:38 06.11.2019
4661 Clear 13 1017 18 16093 3.1 220 08:19 06.11.2019
4662 Clear 14 1018 24 16093 0.78 250 07:47 06.11.2019
4663 Clear 14 1018 24 16093 0.78 250 07:29 06.11.2019
4664 Clear 15 1018 17 16093 0.78 250 06:59 06.11.2019
4665 Clear 14 1018 22 16093 0.78 250 06:38 06.11.2019
4666 Clear 15 1017 16 16093 2.6 220 06:20 06.11.2019
4667 Clear 19 1017 16 16093 1.46 257 03:52 06.11.2019
4668 Clear 21 1018 16 16093 1.61 311 02:18 06.11.2019
4669 Clear 25 1017 12 16093 2.1 40 00:55 06.11.2019
4670 Clear 25 1017 10 16093 2.6 40 00:27 06.11.2019
4671 Clear 24 1018 10 16093 3.1 30 23:57 05.11.2019
4672 Clear 25 1018 11 16093 3.6 50 23:37 05.11.2019
4673 Clear 25 1018 11 16093 3.6 50 23:37 05.11.2019
4674 Clear 24 1018 9 16093 1.5 0 23:18 05.11.2019
4675 Clear 24 1018 12 16093 4.1 60 22:42 05.11.2019
4676 Clear 24 1018 10 16093 2.09 346 22:19 05.11.2019
4677 Clear 24 1018 10 16093 2.09 346 22:19 05.11.2019
4678 Clear 23 1019 11 16093 3.1 30 21:57 05.11.2019
4679 Clear 23 1019 11 16093 1.5 40 21:39 05.11.2019
4680 Clear 23 1019 9 16093 2.09 346 21:20 05.11.2019
4681 Clear 23 1019 12 16093 2.09 346 20:56 05.11.2019
4682 Clear 23 1020 11 16093 2.09 346 20:38 05.11.2019
4683 Clear 22 1020 10 16093 2.1 70 20:20 05.11.2019
4684 Clear 20 1020 11 16093 1.88 354 19:54 05.11.2019
4685 Clear 20 1020 11 16093 1.88 354 19:54 05.11.2019
4686 Clear 20 1021 10 16093 1.5 130 19:36 05.11.2019
4687 Clear 19 1022 14 16093 2.6 50 19:18 05.11.2019
4688 Clear 20 1021 9 16093 2.6 160 18:55 05.11.2019
4689 Clear 19 1021 11 16093 1.88 354 18:37 05.11.2019
4690 Clear 18 1021 12 16093 1.88 354 18:18 05.11.2019
4691 Clear 14 1021 13 16093 1.88 354 17:39 05.11.2019
4692 Clear 14 1021 15 16093 0.97 322 17:21 05.11.2019
4693 Clear 10 1021 13 16093 0.97 322 16:59 05.11.2019
4694 Clear 11 1021 17 16093 1.5 270 16:41 05.11.2019
4695 Clear 10 1020 23 16093 2.6 280 16:20 05.11.2019
4696 Clear 9 1020 26 16093 0.97 322 15:41 05.11.2019
4697 Clear 9 1020 20 16093 2.6 210 15:20 05.11.2019
4698 Clear 9 1020 33 16093 0.97 322 14:59 05.11.2019
4699 Clear 9 1020 26 16093 0.97 322 14:41 05.11.2019
4700 Clear 9 1019 20 16093 2.1 230 14:22 05.11.2019
4701 Clear 9 1020 26 16093 1.23 343 13:58 05.11.2019
4702 Clear 9 1019 19 16093 1.23 343 13:40 05.11.2019
4703 Clear 9 1019 18 16093 1.05 339 13:22 05.11.2019
4704 Clear 9 1019 23 16093 1.05 339 12:41 05.11.2019
4705 Clear 10 1018 17 16093 2.6 210 12:22 05.11.2019
4706 Clear 10 1019 15 16093 1.05 339 11:57 05.11.2019
4707 Clear 9 1019 23 16093 1.05 339 11:38 05.11.2019
4708 Clear 10 1018 17 16093 0.68 360 11:20 05.11.2019
4709 Clear 10 1018 20 16093 1.5 230 10:48 05.11.2019
4710 Clear 11 1018 20 16093 1.5 230 10:27 05.11.2019
4711 Clear 11 1019 21 16093 0.68 360 09:59 05.11.2019
4712 Clear 11 1019 21 16093 0.68 360 09:41 05.11.2019
4713 Clear 11 1018 19 16093 1.5 240 09:21 05.11.2019
4714 Clear 11 1018 19 16093 1.5 240 09:21 05.11.2019
4715 Clear 12 1019 20 16093 0.68 360 08:59 05.11.2019
4716 Clear 12 1019 20 16093 0.68 360 08:59 05.11.2019
4717 Clear 12 1018 11 16093 1.5 330 08:37 05.11.2019
4718 Clear 12 1018 16 16093 1.5 230 08:19 05.11.2019
4719 Clear 12 1018 15 16093 0.44 189 07:55 05.11.2019
4720 Clear 12 1018 19 16093 1.5 30 07:36 05.11.2019
4721 Clear 12 1019 13 16093 4.1 190 07:18 05.11.2019
4722 Clear 12 1018 17 16093 2.1 360 06:40 05.11.2019
4723 Clear 14 1018 16 16093 0.44 189 05:51 05.11.2019
4724 Clear 14 1017 12 16093 2.1 230 05:21 05.11.2019
4725 Clear 15 1018 16 16093 3.6 180 04:23 05.11.2019
4726 Clear 18 1017 17 16093 2.1 30 03:32 05.11.2019
4727 Clear 21 1016 11 16093 3.1 360 02:43 05.11.2019
4728 Clear 21 1016 10 16093 3.6 40 01:56 05.11.2019
4729 Clear 24 1016 7 16093 3.6 30 00:48 05.11.2019
4730 Clear 24 1016 7 16093 3.6 30 00:27 05.11.2019
4731 Clear 24 1016 8 16093 4.1 40 23:43 04.11.2019
4732 Clear 23 1016 8 16093 1.5 100 23:19 04.11.2019
4733 Clear 24 1016 8 16093 3.6 50 22:57 04.11.2019
4734 Clear 23 1016 8 16093 4.1 50 22:39 04.11.2019
4735 Clear 23 1016 8 16093 2.1 50 22:20 04.11.2019
4736 Clear 23 1017 10 16093 2.1 50 21:55 04.11.2019
4737 Clear 22 1017 10 16093 2.6 0 21:37 04.11.2019
4738 Clear 22 1017 9 16093 2.1 0 21:18 04.11.2019
4739 Clear 22 1017 10 16093 2.6 60 20:55 04.11.2019
4740 Clear 21 1018 9 12874 1.27 351 20:37 04.11.2019
4741 Clear 21 1019 9 16093 1.5 320 20:18 04.11.2019
4742 Clear 20 1018 10 16093 0.99 350 19:43 04.11.2019
4743 Clear 19 1018 10 16093 0.99 350 19:25 04.11.2019
4744 Clear 19 1019 9 16093 2.1 250 18:59 04.11.2019
4745 Clear 17 1019 11 16093 0.99 350 18:41 04.11.2019
4746 Clear 16 1018 12 16093 0.99 350 18:23 04.11.2019
4747 Clear 13 1019 11 16093 0.99 350 17:59 04.11.2019
4748 Clear 13 1019 14 16093 0.99 350 17:37 04.11.2019
4749 Clear 9 1019 19 16093 2.1 160 17:19 04.11.2019
4750 Clear 10 1018 21 16093 0.7 340 16:44 04.11.2019
4751 Clear 9 1018 21 16093 0.7 340 16:25 04.11.2019
4752 Clear 9 1018 21 16093 0.7 340 16:25 04.11.2019
4753 Clear 8 1018 26 16093 0.7 340 15:59 04.11.2019
4754 Clear 8 1017 24 16093 0.7 340 15:41 04.11.2019
4755 Clear 7 1017 21 16093 1.5 210 15:21 04.11.2019
4756 Clear 8 1017 30 16093 0.7 340 14:58 04.11.2019
4757 Clear 8 1017 28 16093 0.7 340 14:40 04.11.2019
4758 Clear 8 1016 21 16093 1.5 240 14:20 04.11.2019
4759 Clear 7 1017 30 16093 0.33 324 13:58 04.11.2019
4760 Clear 8 1017 33 16093 0.33 324 13:39 04.11.2019
4761 Clear 8 1016 16 16093 1.5 280 13:21 04.11.2019
4762 Clear 9 1017 33 16093 0.31 333 12:55 04.11.2019
4763 Clear 9 1017 21 16093 0.31 333 12:37 04.11.2019
4764 Clear 9 1016 18 16093 2.1 270 12:18 04.11.2019
4765 Clear 9 1016 36 16093 0.31 333 11:42 04.11.2019
4766 Clear 10 1016 18 16093 1.5 230 11:23 04.11.2019
4767 Clear 10 1016 18 16093 1.5 230 11:23 04.11.2019
4768 Clear 10 1016 29 16093 0.12 250 10:58 04.11.2019
4769 Clear 10 1016 29 16093 1.5 40 10:39 04.11.2019
4770 Clear 10 1016 18 16093 0.12 250 10:20 04.11.2019
4771 Clear 10 1016 37 16093 2.1 50 09:45 04.11.2019
4772 Clear 10 1016 37 16093 2.1 50 09:27 04.11.2019
4773 Clear 10 1016 42 16093 0.12 250 08:56 04.11.2019
4774 Clear 10 1016 34 16093 0.12 250 08:37 04.11.2019
4775 Clear 11 1015 15 16093 2.1 210 08:18 04.11.2019
4776 Clear 12 1016 29 16093 0.56 164 07:42 04.11.2019
4777 Clear 12 1015 14 16093 2.6 210 07:20 04.11.2019
4778 Clear 12 1016 25 16093 0.56 164 06:49 04.11.2019
4779 Clear 12 1016 25 16093 0.56 164 06:49 04.11.2019
4780 Clear 12 1016 25 16093 0.56 164 06:49 04.11.2019
4781 Clear 13 1016 17 16093 3.1 150 06:18 04.11.2019
4782 Clear 13 1015 24 16093 1.5 340 05:37 04.11.2019
4783 Clear 15 1015 13 16093 1.5 340 04:37 04.11.2019
4784 Clear 17 1015 11 16093 2.6 20 03:42 04.11.2019
4785 Clear 21 1015 8 16093 3.1 40 01:45 04.11.2019
4786 Clear 22 1015 8 16093 1.5 90 01:19 04.11.2019
4787 Clear 23 1015 7 16093 3.1 30 00:39 04.11.2019
4788 Clear 23 1015 8 16093 0.5 341 00:19 04.11.2019
4789 Clear 23 1016 8 16093 3.1 60 23:39 03.11.2019
4790 Clouds 23 1015 8 16093 1.5 90 23:20 03.11.2019
4791 Clear 23 1016 8 16093 2.6 40 22:57 03.11.2019
4792 Clear 23 1016 10 16093 3.1 50 22:39 03.11.2019
4793 Clouds 23 1016 8 16093 0.98 356 22:19 03.11.2019
4794 Clear 22 1017 7 16093 1.5 0 21:43 03.11.2019
4795 Clouds 22 1017 7 16093 2.1 30 21:22 03.11.2019
4796 Clouds 22 1017 7 16093 2.1 30 21:22 03.11.2019
4797 Clear 21 1017 7 16093 0.98 356 20:59 03.11.2019
4798 Clear 21 1018 7 16093 0.98 356 20:38 03.11.2019
4799 Clouds 20 1018 10 16093 1.94 358 20:19 03.11.2019
4800 Clear 19 1018 6 16093 1.5 220 19:57 03.11.2019
4801 Clear 19 1019 7 16093 2.1 150 19:39 03.11.2019
4802 Clouds 19 1019 11 16093 1.93 360 19:20 03.11.2019
4803 Clear 18 1019 7 16093 1.93 360 18:58 03.11.2019
4804 Clear 17 1019 9 16093 1.93 360 18:37 03.11.2019
4805 Clouds 17 1019 13 16093 1.93 360 18:18 03.11.2019
4806 Haze 13 1019 14 2615 1.93 360 17:43 03.11.2019
4807 Haze 12 1019 14 2615 0.79 303 17:23 03.11.2019
4808 Clear 9 1019 13 16093 2.6 180 16:59 03.11.2019
4809 Clear 10 1019 14 16093 2.1 230 16:41 03.11.2019
4810 Clear 10 1019 14 16093 2.1 230 16:41 03.11.2019
4811 Clouds 9 1019 17 16093 2.6 290 16:22 03.11.2019
4812 Clear 9 1019 21 16093 0.79 303 15:58 03.11.2019
4813 Clear 7 1019 17 16093 2.1 350 15:40 03.11.2019
4814 Clouds 7 1018 19 16093 2.1 190 15:22 03.11.2019
4815 Clear 7 1019 15 16093 0.79 303 14:54 03.11.2019
4816 Clear 8 1019 16 16093 0.79 303 14:36 03.11.2019
4817 Clear 8 1018 19 16093 1.5 260 14:18 03.11.2019
4818 Clear 8 1018 22 16093 0.83 320 13:41 03.11.2019
4819 Clear 8 1018 19 16093 2.1 240 13:18 03.11.2019
4820 Clear 8 1018 19 16093 2.1 240 13:18 03.11.2019
4821 Clear 8 1019 26 16093 0.8 313 12:55 03.11.2019
4822 Clear 8 1019 16 16093 0.8 313 12:36 03.11.2019
4823 Clear 8 1018 19 16093 2.1 240 12:18 03.11.2019
4824 Clear 9 1019 15 16093 0.8 313 11:42 03.11.2019
4825 Clear 9 1018 15 16093 2.1 220 11:22 03.11.2019
4826 Clear 10 1019 15 16093 0.8 332 10:55 03.11.2019
4827 Clear 10 1019 12 16093 0.8 332 10:37 03.11.2019
4828 Clear 9 1019 14 16093 2.1 220 10:19 03.11.2019
4829 Clear 9 1019 14 16093 2.1 220 10:19 03.11.2019
4830 Clear 10 1019 15 16093 0.8 332 09:43 03.11.2019
4831 Clear 10 1019 15 16093 0.8 332 09:25 03.11.2019
4832 Clear 10 1019 14 16093 0.8 332 08:56 03.11.2019
4833 Clear 10 1019 12 16093 0.8 332 08:37 03.11.2019
4834 Clear 11 1019 13 16093 3.1 220 08:19 03.11.2019
4835 Clear 11 1019 18 16093 0.53 231 07:45 03.11.2019
4836 Clear 11 1019 18 16093 0.53 231 07:45 03.11.2019
4837 Clear 11 1019 15 16093 2.1 190 07:22 03.11.2019
4838 Clear 11 1019 18 16093 0.53 231 06:39 03.11.2019
4839 Clear 13 1019 17 16093 0.53 231 05:55 03.11.2019
4840 Clear 13 1019 16 16093 0.53 231 05:37 03.11.2019
4841 Clear 14 1019 11 16093 1.25 285 04:55 03.11.2019
4842 Clear 14 1019 12 16093 2.6 20 04:26 03.11.2019
4843 Clouds 16 1019 11 16093 1.5 220 03:23 03.11.2019
4844 Clouds 18 1019 9 16093 1.5 240 02:23 03.11.2019
4845 Clear 20 1019 12 16093 2.6 30 01:55 03.11.2019
4846 Clear 21 1019 7 16093 1.5 50 01:36 03.11.2019
4847 Clouds 22 1019 6 16093 1.94 304 01:18 03.11.2019
4848 Haze 23 1020 6 4828 2.1 240 00:38 03.11.2019
4849 Haze 22 1020 6 4828 2.1 240 00:20 03.11.2019
4850 Clear 22 1020 6 16093 2.1 50 23:55 02.11.2019
4851 Haze 22 1020 7 3621 1.5 240 23:36 02.11.2019
4852 Clear 22 1022 8 16093 2.1 60 23:18 02.11.2019
4853 Clear 22 1021 6 16093 4.1 50 22:54 02.11.2019
4854 Clear 22 1021 7 16093 3.1 60 22:36 02.11.2019
4855 Clouds 21 1021 7 16093 2.6 0 22:18 02.11.2019
4856 Clear 21 1021 7 16093 2.6 50 21:55 02.11.2019
4857 Clear 21 1022 7 16093 2.6 70 21:36 02.11.2019
4858 Clear 20 1024 9 16093 3.1 30 21:18 02.11.2019
4859 Clear 20 1024 9 16093 3.1 30 21:18 02.11.2019
4860 Clear 19 1023 7 16093 1.5 0 20:42 02.11.2019
4861 Clouds 19 1024 8 16093 1.5 0 20:22 02.11.2019
4862 Clear 18 1024 7 16093 2.1 30 19:59 02.11.2019
4863 Clear 18 1025 8 16093 2.1 60 19:38 02.11.2019
4864 Clouds 17 1024 9 16093 1.5 80 19:19 02.11.2019
4865 Clear 16 1025 8 16093 2.6 40 18:54 02.11.2019
4866 Clear 16 1025 9 16093 2.46 358 18:36 02.11.2019
4867 Clear 16 1025 9 16093 2.46 358 18:18 02.11.2019
4868 Clear 14 1025 8 16093 3.6 350 17:55 02.11.2019
4869 Clear 14 1025 10 16093 2.46 358 17:36 02.11.2019
4870 Clear 10 1026 11 16093 2.1 200 17:18 02.11.2019
4871 Clear 9 1025 10 16093 1.5 320 16:39 02.11.2019
4872 Clear 8 1025 14 16093 1.39 335 16:20 02.11.2019
4873 Clear 7 1025 11 16093 3.6 310 15:44 02.11.2019
4874 Clear 7 1024 15 16093 2.6 220 15:22 02.11.2019
4875 Clear 6 1024 12 16093 3.6 340 14:58 02.11.2019
4876 Clear 7 1024 10 16093 2.1 10 14:40 02.11.2019
4877 Clear 6 1024 15 16093 1.5 240 14:21 02.11.2019
4878 Clear 6 1024 11 16093 1.35 344 13:40 02.11.2019
4879 Clear 6 1024 16 16093 2.1 230 13:21 02.11.2019
4880 Clear 7 1024 14 16093 2.6 10 12:59 02.11.2019
4881 Clear 7 1024 10 16093 1.32 343 12:40 02.11.2019
4882 Clear 7 1024 16 16093 1.32 343 12:21 02.11.2019
4883 Clear 7 1024 13 16093 3.1 360 11:55 02.11.2019
4884 Clear 7 1024 20 16093 1.5 10 11:36 02.11.2019
4885 Clear 7 1024 15 16093 1.77 17 11:18 02.11.2019
4886 Clear 7 1024 10 16093 1.77 17 10:42 02.11.2019
4887 Clear 7 1024 14 16093 1.5 110 10:23 02.11.2019
4888 Clear 8 1024 8 16093 1.77 17 09:43 02.11.2019
4889 Clear 9 1024 13 16093 1.77 17 09:22 02.11.2019
4890 Clear 9 1024 13 16093 1.77 17 09:22 02.11.2019
4891 Clear 9 1024 13 16093 4.1 330 08:57 02.11.2019
4892 Clear 9 1024 9 16093 1.77 17 08:37 02.11.2019
4893 Clear 10 1025 13 16093 3.1 150 08:18 02.11.2019
4894 Clear 10 1025 13 16093 3.1 150 08:18 02.11.2019
4895 Clear 9 1024 8 16093 4.6 340 07:43 02.11.2019
4896 Clear 9 1024 8 16093 4.6 340 07:25 02.11.2019
4897 Clear 9 1024 16 16093 0.9 352 06:52 02.11.2019
4898 Clear 9 1023 8 16093 2.1 210 06:24 02.11.2019
4899 Clear 11 1023 8 16093 3.1 360 05:44 02.11.2019
4900 Clear 12 1023 9 16093 3.1 360 04:26 02.11.2019
4901 Clear 14 1023 6 16093 3.1 340 03:52 02.11.2019
4902 Clear 14 1023 6 16093 3.1 340 03:31 02.11.2019
4903 Clear 14 1023 6 16093 3.1 340 03:31 02.11.2019
4904 Clear 18 1022 6 16093 2.6 240 02:31 02.11.2019
4905 Clear 19 1022 3 16093 1.66 304 01:36 02.11.2019
4906 Clear 19 1023 4 16093 1.98 308 01:18 02.11.2019
4907 Clear 20 1022 4 16093 1.98 308 00:42 02.11.2019
4908 Clear 19 1022 4 16093 2.1 300 00:21 02.11.2019
4909 Clear 19 1023 4 16093 1.98 308 23:42 01.11.2019
4910 Clear 19 1023 4 16093 1.98 308 23:42 01.11.2019
4911 Clear 20 1022 4 16093 2.13 357 23:19 01.11.2019
4912 Clear 19 1023 5 16093 2.6 40 22:42 01.11.2019
4913 Clear 19 1023 5 16093 2.13 357 22:21 01.11.2019
4914 Clear 18 1023 6 16093 3.6 50 21:55 01.11.2019
4915 Clear 18 1023 7 16093 2.13 357 21:36 01.11.2019
4916 Clear 17 1024 5 16093 2.13 357 21:18 01.11.2019
4917 Clear 16 1024 11 16093 1.5 170 20:42 01.11.2019
4918 Clear 16 1024 6 16093 2.6 50 20:23 01.11.2019
4919 Clear 15 1025 10 16093 1.5 170 19:59 01.11.2019
4920 Clear 15 1025 7 16093 2.05 344 19:41 01.11.2019
4921 Clear 14 1025 6 16093 2.1 90 19:21 01.11.2019
4922 Clear 13 1025 6 16093 2.05 344 18:41 01.11.2019
4923 Clear 12 1025 9 16093 2.05 344 18:21 01.11.2019
4924 Clear 11 1025 7 12874 2.05 344 17:59 01.11.2019
4925 Clear 10 1025 8 14484 2.05 344 17:41 01.11.2019
4926 Clear 9 1025 10 16093 0.66 294 17:22 01.11.2019
4927 Clear 5 1025 10 16093 0.66 294 16:40 01.11.2019
4928 Clear 3 1024 12 16093 0.66 294 16:20 01.11.2019
4929 Clear 3 1025 18 16093 0.66 294 15:58 01.11.2019
4930 Clear 2 1024 9 16093 2.1 70 15:40 01.11.2019
4931 Clear 3 1023 13 16093 1.5 230 15:22 01.11.2019
4932 Clear 3 1023 22 16093 0.66 294 14:44 01.11.2019
4933 Clear 2 1023 22 16093 0.66 294 14:25 01.11.2019
4934 Clear 2 1024 21 16093 0.83 332 13:59 01.11.2019
4935 Clear 3 1023 15 16093 0.83 332 13:40 01.11.2019
4936 Clear 3 1023 14 16093 2.1 220 13:21 01.11.2019
4937 Clear 3 1023 14 16093 2.1 220 13:21 01.11.2019
4938 Clear 3 1023 14 16093 0.74 334 12:55 01.11.2019
4939 Clear 3 1023 14 16093 0.74 334 12:55 01.11.2019
4940 Clear 3 1023 19 16093 0.74 334 12:37 01.11.2019
4941 Clear 3 1023 13 16093 2.1 220 12:19 01.11.2019
4942 Clear 4 1023 25 16093 0.74 334 11:41 01.11.2019
4943 Clear 3 1023 13 16093 2.1 200 11:23 01.11.2019
4944 Clear 3 1024 21 16093 0.3 311 10:43 01.11.2019
4945 Clear 4 1024 21 16093 0.3 311 10:25 01.11.2019
4946 Clear 4 1024 15 16093 0.3 311 09:58 01.11.2019
4947 Clear 4 1023 17 16093 0.3 311 09:40 01.11.2019
4948 Clear 4 1023 11 16093 2.1 220 09:21 01.11.2019
4949 Clear 4 1023 21 16093 0.3 311 08:46 01.11.2019
4950 Clear 5 1023 9 16093 1.5 220 08:23 01.11.2019
4951 Clear 5 1023 17 16093 0.67 245 07:58 01.11.2019
4952 Clear 5 1023 16 16093 0.67 245 07:40 01.11.2019
4953 Clear 5 1023 11 16093 1.5 200 07:20 01.11.2019
4954 Clear 6 1024 14 16093 0.67 245 06:49 01.11.2019
4955 Clear 6 1023 9 16093 2.1 210 06:22 01.11.2019
4956 Clear 7 1023 12 16093 0.67 245 05:44 01.11.2019
4957 Clear 8 1023 9 16093 3.1 320 04:29 01.11.2019
4958 Clear 11 1023 10 16093 3.6 340 03:26 01.11.2019
4959 Clear 14 1023 6 16093 1.51 350 01:37 01.11.2019
4960 Clear 15 1023 5 16093 3.1 60 00:42 01.11.2019
4961 Clear 15 1023 5 16093 1.72 354 00:19 01.11.2019
4962 Clear 15 1024 6 16093 4.6 50 23:43 31.10.2019
4963 Clear 15 1024 5 16093 1.5 30 23:23 31.10.2019
4964 Clear 14 1024 6 16093 4.1 30 22:57 31.10.2019
4965 Clear 14 1024 6 16093 4.1 20 22:39 31.10.2019
4966 Clear 14 1024 6 16093 2.1 0 22:21 31.10.2019
4967 Clear 14 1025 5 16093 4.6 360 21:44 31.10.2019
4968 Clear 13 1026 7 16093 2.1 30 21:21 31.10.2019
4969 Clear 12 1026 6 16093 4.6 30 20:57 31.10.2019
4970 Clear 12 1027 5 16093 5.1 350 20:39 31.10.2019
4971 Clear 11 1027 8 16093 2.6 0 20:21 31.10.2019
4972 Clear 11 1028 6 16093 4.6 360 19:42 31.10.2019
4973 Clear 10 1028 8 16093 1.5 10 19:22 31.10.2019
4974 Clear 10 1028 7 16093 4.1 320 18:57 31.10.2019
4975 Clear 10 1028 7 16093 4.1 320 18:57 31.10.2019
4976 Clear 9 1029 7 16093 4.1 330 18:39 31.10.2019
4977 Clear 9 1029 9 16093 3.15 7 18:20 31.10.2019
4978 Clear 7 1029 8 16093 3.6 310 17:42 31.10.2019
4979 Clear 7 1029 8 16093 3.6 310 17:42 31.10.2019
4980 Clear 6 1029 11 16093 1.53 344 17:22 31.10.2019
4981 Clear 5 1029 8 16093 3.6 330 16:59 31.10.2019
4982 Clear 4 1029 10 16093 4.6 350 16:40 31.10.2019
4983 Clear 2 1029 16 16093 1.53 344 16:20 31.10.2019
4984 Clear 1 1029 12 16093 4.1 340 15:56 31.10.2019
4985 Clear 1 1029 12 16093 4.1 320 15:38 31.10.2019
4986 Clear 0 1029 17 16093 1.53 344 15:19 31.10.2019
4987 Clear 0 1029 17 16093 1.53 344 15:19 31.10.2019
4988 Clear 1 1029 11 16093 4.1 340 14:56 31.10.2019
4989 Clear 0 1029 14 16093 2.6 340 14:37 31.10.2019
4990 Clear 0 1028 16 16093 2.1 210 14:19 31.10.2019
4991 -273 0 0 0 0 0 13:54 31.10.2019
4992 Clear -1 1029 12 16093 4.6 350 13:36 31.10.2019
4993 Clear -1 1029 15 16093 1.5 240 13:18 31.10.2019
4994 Clear -1 1029 16 16093 2.6 10 12:43 31.10.2019
4995 Clear 1 1029 15 16093 2.6 220 12:23 31.10.2019
4996 Clear 1 1029 12 16093 3.6 350 11:55 31.10.2019
4997 Clear 1 1029 13 16093 2.6 310 11:36 31.10.2019
4998 Clear 1 1029 19 16093 3.1 210 11:18 31.10.2019
4999 Clouds 1 1029 13 16093 4.6 320 10:40 31.10.2019
5000 Clear 1 1029 21 16093 1.11 27 10:22 31.10.2019
5001 Clear 2 1029 12 16093 3.1 340 09:59 31.10.2019
5002 Clouds 2 1029 14 16093 2.6 310 09:39 31.10.2019
5003 Clear 2 1029 17 16093 1.11 27 09:18 31.10.2019
5004 Clouds 3 1029 11 16093 3.1 240 08:48 31.10.2019
5005 Clouds 3 1029 11 16093 3.1 240 08:29 31.10.2019
5006 Clouds 3 1029 11 16093 4.6 350 07:54 31.10.2019
5007 Clouds 3 1029 11 16093 4.6 350 07:36 31.10.2019
5008 Clear 4 1030 24 16093 2.6 170 07:18 31.10.2019
5009 Clouds 4 1029 12 16093 2.1 10 06:33 31.10.2019
5010 Clouds 4 1029 13 16093 1.51 2 05:58 31.10.2019
5011 Clear 7 1029 9 16093 3.6 30 03:30 31.10.2019
5012 Clear 9 1028 8 16093 3.1 20 02:38 31.10.2019
5013 Clear 10 1028 7 16093 5.7 10 01:50 31.10.2019
5014 Clear 10 1028 7 16093 7.7 360 00:36 31.10.2019
5015 Clear 10 1029 7 16093 5.7 360 23:56 30.10.2019
5016 Clear 10 1029 8 16093 5.7 10 23:28 30.10.2019
5017 Clear 10 1029 9 16093 7.2 30 22:43 30.10.2019
5018 Clear 10 1029 9 16093 6.2 20 22:21 30.10.2019
5019 Clear 9 1029 9 16093 6.2 340 21:55 30.10.2019
5020 Clear 9 1030 11 16093 5.1 40 21:37 30.10.2019
5021 Clear 9 1030 11 16093 6.7 70 21:18 30.10.2019
5022 Clear 8 1030 11 16093 5.7 30 20:58 30.10.2019
5023 Clear 8 1031 13 16093 5.1 360 20:40 30.10.2019
5024 Clear 7 1031 12 16093 8.2 50 20:22 30.10.2019
5025 Clear 7 1031 14 16093 5.1 40 19:57 30.10.2019
5026 Clear 7 1031 14 16093 5.1 40 19:57 30.10.2019
5027 Clear 6 1031 15 16093 6.7 10 19:38 30.10.2019
5028 Clear 6 1031 14 16093 7.2 40 19:19 30.10.2019
5029 Clear 5 1032 17 16093 5.1 350 18:39 30.10.2019
5030 Clear 5 1032 17 16093 5.1 350 18:39 30.10.2019
5031 Clear 5 1031 15 16093 8.2 50 18:20 30.10.2019
5032 Clear 4 1032 18 16093 5.7 20 17:59 30.10.2019
5033 Clear 4 1032 16 16093 5.1 30 17:41 30.10.2019
5034 Clear 3 1031 19 16093 4.6 40 17:19 30.10.2019
5035 Clear 3 1031 17 16093 4.1 20 16:55 30.10.2019
5036 Clear 3 1030 17 16093 9.3 10 16:37 30.10.2019
5037 Clear 2 1030 19 16093 5.7 60 16:19 30.10.2019
5038 Clear 1 1030 19 16093 9.3 10 15:55 30.10.2019
5039 Clear 1 1030 19 16093 9.3 10 15:37 30.10.2019
5040 Clear 1 1030 21 16093 4.1 70 15:19 30.10.2019
5041 Clear 1 1029 21 16093 7.7 360 14:42 30.10.2019
5042 Clear 1 1029 21 16093 5.7 60 14:22 30.10.2019
5043 Clear 2 1029 22 16093 5.1 20 13:58 30.10.2019
5044 Clear 2 1029 21 16093 8.2 10 13:40 30.10.2019
5045 Clear 2 1029 24 16093 5.7 90 13:20 30.10.2019
5046 Clear 2 1029 22 16093 8.2 10 12:56 30.10.2019
5047 Clear 2 1029 21 16093 4.6 20 12:37 30.10.2019
5048 Clear 2 1028 21 16093 7.2 50 12:19 30.10.2019
5049 Clear 3 1028 21 16093 8.2 10 11:41 30.10.2019
5050 Clear 3 1028 19 16093 7.2 60 11:22 30.10.2019
5051 Clear 3 1028 21 16093 3.6 360 10:45 30.10.2019
5052 Clear 3 1028 21 16093 3.6 360 10:45 30.10.2019
5053 Clear 3 1028 21 16093 3.6 360 10:26 30.10.2019
5054 Clear 3 1027 21 16093 4.6 360 09:58 30.10.2019
5055 Clear 3 1027 21 16093 4.6 360 09:58 30.10.2019
5056 Clear 3 1027 21 16093 4.6 360 09:58 30.10.2019
5057 Clear 4 1026 21 16093 8.7 10 09:39 30.10.2019
5058 Clear 4 1026 18 16093 5.7 50 09:19 30.10.2019
5059 Clear 5 1025 21 16093 9.3 30 08:41 30.10.2019
5060 Clear 5 1025 14 16093 8.7 50 08:22 30.10.2019
5061 Clear 6 1024 22 16093 8.7 40 07:51 30.10.2019
5062 Clear 6 1024 22 16093 8.7 40 07:33 30.10.2019
5063 Clouds 8 1023 14 16093 11.8 20 06:43 30.10.2019
5064 Dust 8 1022 9 12874 11.3 40 06:23 30.10.2019
5065 Clear 9 1021 9 16093 5.7 350 05:50 30.10.2019
5066 Dust 9 1021 11 6437 17.5 360 05:32 30.10.2019
5067 Squall 14 1015 12 11265 18 360 03:46 30.10.2019
5068 Clear 14 1014 10 16093 8.7 40 03:18 30.10.2019
5069 Clear 15 1013 8 16093 4.6 40 02:19 30.10.2019
5070 Clear 16 1012 9 16093 5.7 30 01:34 30.10.2019
5071 Clear 17 1012 9 16093 5.1 50 00:31 30.10.2019
5072 Clear 17 1012 9 16093 9.8 350 23:46 29.10.2019
5073 Clear 17 1011 9 16093 4.6 30 23:27 29.10.2019
5074 Clear 17 1011 9 16093 3.6 70 22:55 29.10.2019
5075 Clear 17 1011 7 16093 2.6 0 22:37 29.10.2019
5076 Clear 17 1011 7 16093 2.6 0 22:37 29.10.2019
5077 Clear 17 1010 8 16093 2.1 0 22:18 29.10.2019
5078 Clear 16 1011 6 16093 3.1 70 21:54 29.10.2019
5079 Clear 16 1011 6 16093 3.1 70 21:36 29.10.2019
5080 Clear 15 1012 11 16093 3.1 20 21:18 29.10.2019
5081 Clear 15 1012 7 16093 2.6 0 20:41 29.10.2019
5082 Clear 14 1011 12 16093 4.1 40 20:21 29.10.2019
5083 Clear 14 1012 7 16093 2.1 90 19:57 29.10.2019
5084 Clear 13 1012 7 16093 1.5 80 19:38 29.10.2019
5085 Clear 13 1012 10 16093 2.1 50 19:20 29.10.2019
5086 Clear 12 1012 8 16093 1.55 33 18:56 29.10.2019
5087 Clear 12 1012 8 16093 1.55 33 18:56 29.10.2019
5088 Clear 11 1012 9 16093 1.55 33 18:37 29.10.2019
5089 Clear 11 1012 12 16093 1.55 33 18:19 29.10.2019
5090 Clear 10 1012 9 16093 1.55 33 17:54 29.10.2019
5091 Clear 9 1012 9 16093 1.55 33 17:36 29.10.2019
5092 Clear 8 1013 17 16093 1.5 240 17:18 29.10.2019
5093 Clear 6 1012 12 16093 0.77 21 16:39 29.10.2019
5094 Clear 6 1011 24 16093 2.1 30 16:21 29.10.2019
5095 Clear 4 1012 13 16093 3.6 40 15:56 29.10.2019
5096 Clear 4 1011 17 16093 3.6 40 15:38 29.10.2019
5097 Clear 4 1010 25 16093 4.1 10 15:20 29.10.2019
5098 Clouds 4 1011 17 16093 3.6 50 14:55 29.10.2019
5099 Clouds 4 1011 17 16093 3.6 50 14:37 29.10.2019
5100 Clear 3 1010 17 16093 0.55 160 14:18 29.10.2019
5101 Clouds 3 1011 21 16093 1.5 0 13:40 29.10.2019
5102 Clear 3 1011 14 16093 3.6 230 13:22 29.10.2019
5103 Clouds 4 1012 23 16093 0.69 35 12:45 29.10.2019
5104 Clouds 4 1012 23 16093 0.69 35 12:26 29.10.2019
5105 Clouds 4 1012 25 16093 1.5 10 11:59 29.10.2019
5106 Clouds 4 1012 15 16093 0.69 35 11:41 29.10.2019
5107 Clear 4 1013 12 16093 2.1 160 11:19 29.10.2019
5108 Clear 4 1013 12 16093 2.1 160 11:19 29.10.2019
5109 Clouds 4 1012 23 16093 1.57 169 10:57 29.10.2019
5110 Clouds 4 1013 19 16093 2.1 350 10:38 29.10.2019
5111 Clear 4 1013 16 16093 2.1 300 10:20 29.10.2019
5112 Clouds 4 1013 32 16093 1.5 10 09:55 29.10.2019
5113 Clouds 4 1013 15 16093 1.57 169 09:36 29.10.2019
5114 Clear 5 1014 11 16093 2.6 190 09:18 29.10.2019
5115 Clouds 5 1014 35 16093 1.57 169 08:43 29.10.2019
5116 Clear 5 1013 17 16093 2.1 270 08:23 29.10.2019
5117 Clouds 6 1014 32 16093 1.5 10 07:49 29.10.2019
5118 Clear 6 1015 11 16093 2.1 210 07:22 29.10.2019
5119 Clouds 6 1015 35 16093 1.5 360 06:59 29.10.2019
5120 Clouds 6 1015 30 16093 0.78 119 06:41 29.10.2019
5121 Clear 7 1014 14 16093 2.1 270 06:19 29.10.2019
5122 Clouds 8 1015 26 16093 2.6 320 05:49 29.10.2019
5123 Clear 7 1015 10 16093 4.6 160 05:18 29.10.2019
5124 Clouds 10 1016 13 16093 0.93 109 03:55 29.10.2019
5125 Clear 12 1017 10 16093 3.6 40 02:32 29.10.2019
5126 Clear 12 1017 5 16093 2.1 60 01:43 29.10.2019
5127 Clear 13 1017 5 16093 3.1 50 00:57 29.10.2019
5128 Clear 13 1018 6 16093 3.1 80 00:30 29.10.2019
5129 Clear 13 1018 7 16093 2.6 50 23:41 28.10.2019
5130 Clouds 13 1018 8 16093 1.5 0 23:20 28.10.2019
5131 Clear 13 1019 7 16093 2.5 13 22:57 28.10.2019
5132 Clear 13 1019 7 16093 3.1 0 22:37 28.10.2019
5133 Clouds 13 1019 8 16093 2.1 70 22:18 28.10.2019
5134 Clear 13 1019 6 16093 1.5 0 21:54 28.10.2019
5135 Clear 13 1019 6 16093 1.5 0 21:54 28.10.2019
5136 Clear 13 1020 7 16093 4.1 60 21:36 28.10.2019
5137 Clouds 12 1020 8 16093 1.5 40 21:18 28.10.2019
5138 Clear 12 1022 8 16093 6.7 350 20:41 28.10.2019
5139 Clear 11 1022 8 16093 6.7 350 20:23 28.10.2019
5140 Clear 10 1022 9 16093 6.7 40 19:55 28.10.2019
5141 Clear 10 1023 8 16093 7.2 20 19:37 28.10.2019
5142 Clouds 10 1023 8 16093 5.1 90 19:19 28.10.2019
5143 Clear 9 1023 12 16093 5.1 360 18:58 28.10.2019
5144 Clear 9 1023 12 16093 5.1 360 18:58 28.10.2019
5145 Clear 9 1023 12 16093 5.1 360 18:58 28.10.2019
5146 Clouds 9 1024 15 16093 2.6 0 18:38 28.10.2019
5147 Clouds 9 1024 15 16093 2.6 0 18:38 28.10.2019
5148 Clouds 9 1024 15 16093 2.6 0 18:20 28.10.2019
5149 Clear 9 1024 9 16093 6.2 360 17:56 28.10.2019
5150 Clear 9 1024 9 16093 6.2 360 17:38 28.10.2019
5151 Clouds 8 1023 16 16093 5.1 50 17:18 28.10.2019
5152 Clear 7 1023 11 16093 9.3 360 16:55 28.10.2019
5153 Clear 7 1023 14 16093 8.7 360 16:37 28.10.2019
5154 Clear 6 1023 16 16093 4.1 40 16:19 28.10.2019
5155 Clear 6 1023 17 16093 4.1 10 15:56 28.10.2019
5156 Clear 5 1023 17 16093 4.1 10 15:37 28.10.2019
5157 Clear 5 1022 17 16093 4.6 60 15:18 28.10.2019
5158 Clear 5 1022 15 16093 6.2 10 14:55 28.10.2019
5159 Clouds 5 1022 15 16093 6.2 10 14:36 28.10.2019
5160 Clear 6 1022 18 16093 5.7 50 14:18 28.10.2019
5161 Clear 5 1021 17 16093 4.6 50 14:18 28.10.2019
5162 Clouds 6 1021 15 16093 5.1 350 13:41 28.10.2019
5163 Clear 6 1020 16 16093 5.1 40 13:19 28.10.2019
5164 Clouds 6 1020 14 16093 5.7 350 12:59 28.10.2019
5165 Clouds 7 1020 14 16093 9.3 20 12:40 28.10.2019
5166 Clear 7 1019 16 16093 8.7 40 12:19 28.10.2019
5167 Clouds 8 1019 13 16093 10.3 20 11:38 28.10.2019
5168 Clear 8 1019 15 16093 7.7 50 11:20 28.10.2019
5169 Clouds 8 1019 12 16093 10.3 10 10:43 28.10.2019
5170 Clouds 8 1019 12 16093 10.3 10 10:24 28.10.2019
5171 Clouds 9 1018 12 16093 13.9 20 09:59 28.10.2019
5172 Clouds 9 1018 14 16093 11.3 20 09:41 28.10.2019
5173 Clouds 9 1018 14 16093 5.7 30 09:20 28.10.2019
5174 Clouds 10 1017 15 16093 8.2 30 08:58 28.10.2019
5175 Clouds 10 1017 15 16093 8.2 30 08:58 28.10.2019
5176 Clouds 10 1017 14 16093 8.7 20 08:39 28.10.2019
5177 Clouds 10 1017 14 16093 8.2 50 08:19 28.10.2019
5178 Clouds 11 1017 14 16093 9.3 20 07:59 28.10.2019
5179 Clouds 11 1016 14 16093 9.3 10 07:40 28.10.2019
5180 Clouds 11 1016 16 16093 9.3 20 07:20 28.10.2019
5181 Clouds 12 1015 14 16093 13.9 20 06:40 28.10.2019
5182 Clouds 12 1015 14 16093 11.3 360 06:19 28.10.2019
5183 Clouds 14 1012 15 16093 8.7 360 04:39 28.10.2019
5184 Clouds 14 1011 14 16093 8.2 360 03:43 28.10.2019
5185 Clouds 15 1011 14 16093 9.8 360 02:45 28.10.2019
5186 Clear 16 1010 12 16093 9.3 20 01:27 28.10.2019
5187 Clear 17 1009 11 16093 9.3 30 00:46 28.10.2019
5188 Clouds 18 1009 12 16093 9.3 340 00:22 28.10.2019
5189 Clear 19 1008 10 16093 7.7 360 23:43 27.10.2019
5190 Clouds 19 1008 11 16093 9.3 350 23:21 27.10.2019
5191 Clear 19 1008 10 16093 8.2 360 22:55 27.10.2019
5192 Clear 19 1008 11 16093 10.3 10 22:36 27.10.2019
5193 Clear 19 1008 11 16093 10.3 10 22:36 27.10.2019
5194 Clear 19 1010 12 16093 5.7 360 22:18 27.10.2019
5195 Clear 19 1009 12 16093 7.7 360 21:40 27.10.2019
5196 Clouds 19 1009 12 16093 9.3 350 21:21 27.10.2019
5197 Clear 18 1009 12 16093 9.3 10 20:59 27.10.2019
5198 Clear 18 1009 13 16093 7.2 10 20:40 27.10.2019
5199 Clear 18 1009 12 16093 7.7 360 20:22 27.10.2019
5200 Clear 18 1010 13 16093 7.7 10 19:56 27.10.2019
5201 Clear 18 1009 13 16093 9.3 350 19:37 27.10.2019
5202 Clear 17 1009 13 16093 11.8 360 19:19 27.10.2019
5203 Clear 17 1009 13 16093 9.8 350 18:56 27.10.2019
5204 Clear 17 1009 13 16093 9.8 350 18:56 27.10.2019
5205 Clear 17 1009 14 16093 11.3 350 18:37 27.10.2019
5206 Clear 16 1009 13 16093 13.4 10 18:19 27.10.2019
5207 Clear 16 1008 15 16093 12.3 340 17:41 27.10.2019
5208 Clear 16 1008 16 16093 11.8 360 17:21 27.10.2019
5209 Clear 16 1008 17 11265 12.3 360 16:59 27.10.2019
5210 Clear 16 1006 17 14484 12.3 330 16:40 27.10.2019
5211 Clouds 16 1006 16 16093 10.8 360 16:22 27.10.2019
5212 Clear 15 1006 17 16093 10.8 340 15:57 27.10.2019
5213 Clear 15 1005 17 16093 10.8 320 15:39 27.10.2019
5214 Clouds 15 1004 16 16093 6.2 340 15:20 27.10.2019
5215 Clouds 15 1003 17 16093 7.62 341 14:43 27.10.2019
5216 Clear 16 1003 18 16093 4.1 320 14:24 27.10.2019
5217 Clouds 16 1003 15 16093 7.36 194 13:58 27.10.2019
5218 Clouds 17 1002 15 16093 6.7 170 13:40 27.10.2019
5219 Clouds 16 1001 14 16093 2.6 0 13:21 27.10.2019
5220 Clouds 16 1002 14 16093 7.7 160 12:59 27.10.2019
5221 Clouds 16 1002 14 16093 5.1 150 12:40 27.10.2019
5222 Clouds 16 1002 14 16093 5.1 150 12:40 27.10.2019
5223 Clouds 16 1001 14 16093 8.2 200 12:22 27.10.2019
5224 Clouds 17 1003 14 16093 7.2 150 11:41 27.10.2019
5225 Clouds 17 1001 13 16093 4.6 210 11:23 27.10.2019
5226 Clouds 17 1003 14 16093 6.2 200 10:45 27.10.2019
5227 Clouds 17 1003 14 16093 6.2 200 10:26 27.10.2019
5228 Clouds 17 1003 13 16093 4.1 210 09:58 27.10.2019
5229 Clouds 17 1003 12 16093 5.7 180 09:39 27.10.2019
5230 Clouds 17 1002 12 16093 6.7 200 09:19 27.10.2019
5231 Clouds 17 1004 12 16093 5.7 180 08:56 27.10.2019
5232 Clouds 17 1004 11 16093 6.2 160 08:37 27.10.2019
5233 Clouds 18 1003 13 16093 5.31 184 08:18 27.10.2019
5234 Clouds 18 1003 13 16093 5.31 184 08:18 27.10.2019
5235 Clouds 19 1005 14 16093 3.1 310 07:45 27.10.2019
5236 Clouds 19 1005 14 16093 3.1 310 07:24 27.10.2019
5237 Clouds 19 1005 12 16093 2.1 200 06:51 27.10.2019
5238 Clouds 19 1005 12 16093 2.1 200 06:27 27.10.2019
5239 Clouds 20 1005 12 16093 2.6 220 05:45 27.10.2019
5240 Clouds 20 1005 11 16093 5.1 170 04:55 27.10.2019
5241 Clouds 22 1004 14 16093 1.5 190 03:24 27.10.2019
5242 Clear 24 1007 15 16093 1.5 330 02:21 27.10.2019
5243 Clear 27 1007 9 16093 5.7 160 01:51 27.10.2019
5244 Clouds 26 1006 11 16093 3.1 70 01:23 27.10.2019
5245 Clear 27 1007 8 16093 5.1 150 00:48 27.10.2019
5246 Clear 26 1007 8 16093 5.1 150 00:28 27.10.2019
5247 Clear 26 1008 8 16093 2.6 130 23:57 26.10.2019
5248 Clear 26 1009 10 16093 4.6 150 23:38 26.10.2019
5249 Clear 26 1008 13 16093 2.1 100 23:20 26.10.2019
5250 Clear 25 1009 10 16093 4.6 100 22:56 26.10.2019
5251 Clear 25 1010 11 16093 4.6 110 22:37 26.10.2019
5252 Clear 24 1010 15 16093 2.1 10 22:18 26.10.2019
5253 Clear 23 1012 13 16093 4.1 60 21:43 26.10.2019
5254 Clear 23 1012 15 16093 1.5 40 21:21 26.10.2019
5255 Clear 22 1012 13 16093 4.1 90 20:57 26.10.2019
5256 Clear 22 1013 13 16093 0.61 115 20:36 26.10.2019
5257 Clear 22 1013 13 16093 0.61 115 20:36 26.10.2019
5258 Clear 21 1013 15 16093 0.61 115 20:18 26.10.2019
5259 Clear 20 1014 15 16093 0.61 115 19:42 26.10.2019
5260 Clear 19 1013 17 16093 1.5 50 19:20 26.10.2019
5261 Clear 18 1014 15 16093 0.61 115 18:57 26.10.2019
5262 Clear 17 1014 18 16093 0.61 115 18:38 26.10.2019
5263 Clear 17 1014 23 16093 1.5 150 18:19 26.10.2019
5264 Clear 15 1014 19 16093 0.43 180 17:56 26.10.2019
5265 Clear 14 1014 24 16093 0.43 180 17:37 26.10.2019
5266 Clear 13 1013 22 16093 0.43 180 17:19 26.10.2019
5267 Clear 12 1014 37 16093 0.43 180 16:43 26.10.2019
5268 Clear 11 1014 37 16093 0.43 180 16:24 26.10.2019
5269 Clouds 11 1014 29 16093 0.43 180 15:44 26.10.2019
5270 Clear 11 1014 26 16093 2.1 210 15:21 26.10.2019
5271 Clouds 11 1014 34 16093 0.03 185 14:58 26.10.2019
5272 Clouds 11 1014 39 16093 0.03 185 14:37 26.10.2019
5273 Clear 12 1014 24 16093 0.2 170 14:18 26.10.2019
5274 Clear 14 1013 22 0 0.2 170 13:42 26.10.2019
5275 Clear 14 1013 22 0 0.2 170 13:22 26.10.2019
5276 Clear 14 1013 22 0 0.2 170 13:22 26.10.2019
5277 Clear 13 1014 32 0 0.2 170 12:49 26.10.2019
5278 Clouds 12 1015 34 16093 0.2 170 12:26 26.10.2019
5279 Clear 13 1015 21 16093 0.89 196 11:56 26.10.2019
5280 Clear 13 1015 21 16093 0.89 196 11:37 26.10.2019
5281 Clear 13 1015 21 16093 0.89 196 11:18 26.10.2019
5282 Clouds 13 1016 20 16093 0.89 196 10:44 26.10.2019
5283 Clear 13 1016 19 16093 2.1 220 10:24 26.10.2019
5284 Clouds 14 1017 35 16093 0.89 196 09:48 26.10.2019
5285 Clouds 14 1017 35 16093 0.85 193 09:28 26.10.2019
5286 Clouds 15 1017 35 16093 0.94 225 08:44 26.10.2019
5287 Clouds 15 1017 35 16093 0.94 225 08:26 26.10.2019
5288 Clouds 15 1018 30 16093 0.94 225 07:56 26.10.2019
5289 Clear 15 1018 30 16093 0.94 225 07:33 26.10.2019
5290 Clear 17 1018 26 16093 0.94 225 06:48 26.10.2019
5291 Clear 17 1018 26 16093 0.94 225 06:29 26.10.2019
5292 Clear 18 1018 14 16093 2.1 230 05:21 26.10.2019
5293 Clear 21 1019 16 16093 1.01 267 04:44 26.10.2019
5294 Clear 22 1018 11 16093 1.5 330 03:22 26.10.2019
5295 Clear 24 1019 10 16093 2.6 40 01:58 26.10.2019
5296 Clear 24 1020 9 16093 3.1 40 01:37 26.10.2019
5297 Clear 24 1020 9 16093 4.6 40 00:27 26.10.2019
5298 Clear 24 1021 9 16093 4.6 40 23:47 25.10.2019
5299 Clear 24 1022 9 16093 1.5 0 23:21 25.10.2019
5300 Clear 23 1023 9 16093 5.1 40 22:43 25.10.2019
5301 Clear 23 1023 9 16093 5.1 40 22:25 25.10.2019
5302 Clear 22 1023 8 16093 4.1 40 21:58 25.10.2019
5303 Clear 22 1024 9 16093 2.6 40 21:40 25.10.2019
5304 Clear 21 1025 10 16093 2.1 10 21:22 25.10.2019
5305 Clear 20 1025 9 16093 3.6 40 20:57 25.10.2019
5306 Clear 20 1026 9 16093 4.1 40 20:39 25.10.2019
5307 Clear 20 1026 9 16093 3.6 50 20:19 25.10.2019
5308 Clear 19 1027 10 16093 1.5 30 19:45 25.10.2019
5309 Clear 19 1027 10 16093 1.5 30 19:26 25.10.2019
5310 Clear 19 1027 10 16093 1.5 30 19:26 25.10.2019
5311 Clear 17 1027 10 16093 3.39 19 18:46 25.10.2019
5312 Clear 16 1027 13 16093 1.1 341 18:24 25.10.2019
5313 Clear 14 1027 11 16093 1.1 341 17:42 25.10.2019
5314 Clear 12 1026 18 16093 2.6 140 17:22 25.10.2019
5315 Clear 12 1027 12 16093 3.6 340 16:59 25.10.2019
5316 Clear 11 1026 16 16093 2.6 340 16:41 25.10.2019
5317 Clear 11 1026 16 16093 2.1 230 16:19 25.10.2019
5318 Clouds 11 1026 14 16093 3.1 10 15:41 25.10.2019
5319 Clouds 11 1026 17 16093 1.5 230 15:23 25.10.2019
5320 Clouds 11 1026 12 16093 2.1 360 14:59 25.10.2019
5321 Clouds 11 1026 14 16093 5.1 10 14:40 25.10.2019
5322 Clouds 11 1026 14 16093 5.1 10 14:40 25.10.2019
5323 Clouds 11 1026 15 16093 1.5 30 14:21 25.10.2019
5324 Clouds 12 1026 16 16093 0.93 9 13:44 25.10.2019
5325 Clouds 12 1026 16 16093 0.93 9 13:44 25.10.2019
5326 Clouds 12 1026 16 16093 0.93 9 13:44 25.10.2019
5327 Clouds 11 1026 16 16093 0.93 9 13:25 25.10.2019
5328 Clouds 12 1026 13 16093 0.93 9 12:58 25.10.2019
5329 Clouds 12 1026 14 16093 0.93 9 12:39 25.10.2019
5330 Clear 12 1027 19 16093 2.6 300 12:20 25.10.2019
5331 Clouds 13 1026 14 16093 1.57 48 11:41 25.10.2019
5332 Clouds 13 1026 15 16093 3.1 210 11:23 25.10.2019
5333 Clouds 13 1026 13 16093 1.57 48 10:59 25.10.2019
5334 Clouds 12 1026 17 16093 5.1 40 10:39 25.10.2019
5335 Clouds 13 1026 18 16093 1.57 48 10:20 25.10.2019
5336 Clouds 13 1026 12 16093 5.1 20 09:55 25.10.2019
5337 Clouds 13 1026 12 16093 5.1 20 09:36 25.10.2019
5338 Clear 14 1027 23 16093 1.92 57 09:18 25.10.2019
5339 Clouds 14 1026 13 16093 2.6 20 08:43 25.10.2019
5340 Clouds 15 1025 15 16093 1.92 57 08:23 25.10.2019
5341 Clouds 15 1025 14 16093 4.6 40 07:51 25.10.2019
5342 Clouds 15 1025 14 16093 4.6 40 07:32 25.10.2019
5343 Clouds 16 1025 16 16093 5.1 40 06:39 25.10.2019
5344 Clouds 18 1025 18 16093 2.1 30 05:51 25.10.2019
5345 Clouds 17 1025 18 16093 2.1 30 05:32 25.10.2019
5346 Clouds 18 1024 16 16093 1.5 360 04:38 25.10.2019
5347 Clear 21 1023 11 16093 5.7 30 02:44 25.10.2019
5348 Clear 22 1024 9 16093 5.7 40 01:53 25.10.2019
5349 Clear 22 1024 8 16093 7.7 10 00:41 25.10.2019
5350 Clear 22 1024 9 16093 5.1 10 23:57 24.10.2019
5351 Clear 22 1024 8 16093 7.2 350 23:37 24.10.2019
5352 Clear 22 1024 8 16093 7.2 350 23:37 24.10.2019
5353 Clouds 22 1024 10 16093 5.7 60 23:19 24.10.2019
5354 Clear 22 1025 10 16093 7.7 30 22:54 24.10.2019
5355 Clear 21 1025 12 16093 6.7 40 22:36 24.10.2019
5356 Clear 21 1026 12 16093 6.7 50 22:18 24.10.2019
5357 Clear 20 1026 11 16093 4.6 20 21:54 24.10.2019
5358 Clear 20 1026 11 16093 4.6 20 21:54 24.10.2019
5359 Clear 20 1026 11 16093 4.6 20 21:54 24.10.2019
5360 Clear 20 1026 11 16093 4.6 20 21:54 24.10.2019
5361 Clear 20 1026 11 16093 4.6 20 21:36 24.10.2019
5362 Clear 20 1027 14 16093 5.7 30 21:18 24.10.2019
5363 Clear 20 1026 11 16093 5.7 10 20:54 24.10.2019
5364 Clear 19 1027 11 16093 6.2 10 20:36 24.10.2019
5365 Clouds 19 1026 10 16093 10.8 40 20:18 24.10.2019
5366 Clear 19 1027 12 16093 5.7 330 19:41 24.10.2019
5367 Clouds 18 1026 12 16093 5.7 20 19:22 24.10.2019
5368 Clear 18 1027 13 16093 6.7 340 18:58 24.10.2019
5369 Clear 17 1027 14 16093 7.2 350 18:38 24.10.2019
5370 Clouds 17 1026 15 16093 7.2 40 18:20 24.10.2019
5371 Clear 16 1026 14 16093 7.2 360 17:42 24.10.2019
5372 Clear 15 1025 14 16093 6.7 40 17:21 24.10.2019
5373 Clear 14 1025 16 16093 7.7 360 16:58 24.10.2019
5374 Clear 14 1025 16 16093 7.7 360 16:40 24.10.2019
5375 Clouds 14 1024 15 16093 6.2 40 16:22 24.10.2019
5376 Clear 14 1025 17 16093 6.2 10 15:58 24.10.2019
5377 Clouds 14 1024 16 16093 4.1 350 15:40 24.10.2019
5378 Clouds 15 1024 14 16093 8.2 60 15:22 24.10.2019
5379 Clouds 15 1024 14 16093 8.2 60 15:22 24.10.2019
5380 Clouds 15 1024 16 16093 4.6 360 14:58 24.10.2019
5381 Clouds 15 1024 16 16093 4.6 360 14:58 24.10.2019
5382 Clouds 15 1023 15 16093 6.7 10 14:40 24.10.2019
5383 Clouds 15 1023 15 16093 5.1 90 14:20 24.10.2019
5384 Clouds 16 1022 14 16093 4.6 40 13:42 24.10.2019
5385 Clouds 16 1022 16 16093 5.1 60 13:20 24.10.2019
5386 Clouds 16 1021 16 16093 8.2 20 12:58 24.10.2019
5387 Clear 16 1020 17 16093 13.4 20 12:40 24.10.2019
5388 Clear 17 1021 16 16093 8.2 60 12:19 24.10.2019
5389 Clouds 17 1020 16 16093 9.8 20 11:57 24.10.2019
5390 Clear 17 1020 18 16093 8.7 20 11:38 24.10.2019
5391 Clear 17 1020 16 16093 5.7 50 11:19 24.10.2019
5392 Clear 18 1020 17 16093 8.2 20 10:58 24.10.2019
5393 Clear 18 1019 17 16093 8.2 10 10:38 24.10.2019
5394 Clear 18 1019 9 16093 7.7 20 10:20 24.10.2019
5395 Clouds 21 1018 10 16093 6.7 20 09:38 24.10.2019
5396 Clear 20 1018 8 16093 5.7 340 09:19 24.10.2019
5397 Clear 19 1018 7 16093 8.2 350 08:55 24.10.2019
5398 Clear 19 1017 10 16093 5.1 350 08:36 24.10.2019
5399 Clear 19 1018 23 16093 4.1 160 08:18 24.10.2019
5400 Clouds 19 1017 16 16093 5.1 340 07:45 24.10.2019
5401 Clear 19 1017 9 16093 5.1 350 07:22 24.10.2019
5402 Clouds 19 1016 20 16093 3.49 356 06:40 24.10.2019
5403 Clear 20 1016 18 16093 1.5 210 06:20 24.10.2019
5404 Clouds 21 1016 22 16093 3.1 350 05:48 24.10.2019
5405 Clouds 21 1016 22 16093 3.1 350 05:28 24.10.2019
5406 Clear 25 1016 15 16093 2.1 40 03:37 24.10.2019
5407 Clear 26 1016 14 16093 2.6 20 02:55 24.10.2019
5408 Clear 26 1015 10 16093 5.1 20 02:25 24.10.2019
5409 Clear 27 1015 10 16093 5.7 30 01:49 24.10.2019
5410 Clear 27 1015 10 16093 5.7 30 01:27 24.10.2019
5411 Clear 28 1016 11 16093 6.2 60 00:41 24.10.2019
5412 Clouds 28 1015 11 16093 3.1 40 00:18 24.10.2019
5413 Clear 28 1016 12 16093 6.2 350 23:43 23.10.2019
5414 Clear 28 1016 12 16093 6.2 350 23:23 23.10.2019
5415 Clear 27 1017 11 16093 6.2 30 22:57 23.10.2019
5416 Clear 27 1017 11 16093 6.2 30 22:57 23.10.2019
5417 Clouds 27 1017 13 16093 3.6 40 22:38 23.10.2019
5418 Clouds 27 1017 13 16093 3.6 40 22:18 23.10.2019
5419 Clear 27 1017 12 16093 5.1 40 21:57 23.10.2019
5420 Clear 27 1017 12 16093 5.1 40 21:57 23.10.2019
5421 Clear 26 1018 13 16093 5.1 20 21:38 23.10.2019
5422 Clear 25 1019 16 16093 3.6 30 21:19 23.10.2019
5423 Clear 25 1018 14 16093 4.6 30 20:56 23.10.2019
5424 Clear 25 1018 14 16093 4.6 30 20:56 23.10.2019
5425 Clear 25 1018 14 16093 5.1 10 20:37 23.10.2019
5426 Clear 25 1018 14 16093 5.1 10 20:37 23.10.2019
5427 Clouds 25 1019 16 16093 3.6 40 20:19 23.10.2019
5428 Clear 24 1019 15 16093 4.6 30 19:55 23.10.2019
5429 Clear 23 1019 15 16093 4.1 340 19:36 23.10.2019
5430 Clear 22 1020 19 16093 3.6 20 19:18 23.10.2019
5431 Clear 21 1019 16 16093 3.6 320 18:40 23.10.2019
5432 Clouds 20 1018 24 16093 1.03 323 18:19 23.10.2019
5433 Clear 18 1019 17 16093 3.1 20 17:59 23.10.2019
5434 Clear 17 1018 22 16093 2.6 210 17:41 23.10.2019
5435 Clouds 17 1018 23 16093 2.1 230 17:19 23.10.2019
5436 Clouds 17 1018 23 16093 2.1 230 17:19 23.10.2019
5437 Clear 16 1018 25 16093 1.03 323 16:54 23.10.2019
5438 Clear 15 1018 24 16093 1.03 323 16:36 23.10.2019
5439 Clear 15 1019 32 16093 3.6 170 16:18 23.10.2019
5440 Clear 15 1018 23 16093 2.1 270 15:40 23.10.2019
5441 Clear 15 1017 26 16093 2.1 210 15:21 23.10.2019
5442 Clear 15 1018 25 16093 1.18 328 14:57 23.10.2019
5443 Clear 14 1017 26 16093 3.1 300 14:38 23.10.2019
5444 Clear 15 1017 26 16093 2.1 210 14:19 23.10.2019
5445 Clear 14 1017 28 16093 1.18 335 13:54 23.10.2019
5446 Clouds 14 1017 26 16093 1.18 335 13:36 23.10.2019
5447 Clear 14 1018 30 16093 4.1 180 13:18 23.10.2019
5448 Clear 14 1017 26 16093 1.18 335 12:41 23.10.2019
5449 Clear 15 1017 23 16093 1.5 90 12:20 23.10.2019
5450 Clear 15 1017 24 16093 0.72 351 11:58 23.10.2019
5451 Clear 16 1018 23 16093 0.72 351 11:40 23.10.2019
5452 Clear 16 1017 23 16093 2.1 230 11:21 23.10.2019
5453 Clouds 15 1018 23 16093 0.72 351 10:59 23.10.2019
5454 Clouds 16 1018 31 16093 1.5 330 10:40 23.10.2019
5455 Clear 16 1017 22 16093 2.1 200 10:22 23.10.2019
5456 Clear 17 1018 22 16093 0.57 48 09:41 23.10.2019
5457 Clear 17 1018 22 16093 0.72 351 09:41 23.10.2019
5458 Clear 16 1018 22 16093 1.21 266 09:22 23.10.2019
5459 Clouds 17 1018 22 16093 1.21 266 08:56 23.10.2019
5460 Clear 17 1018 22 16093 1.21 266 08:38 23.10.2019
5461 Clear 17 1018 22 16093 2.6 290 08:18 23.10.2019
5462 Clear 17 1018 29 16093 1.21 266 07:45 23.10.2019
5463 Clear 17 1019 22 16093 5.1 180 07:21 23.10.2019
5464 Clear 18 1018 24 16093 1.21 266 06:45 23.10.2019
5465 Clear 18 1018 18 16093 2.1 220 06:19 23.10.2019
5466 Clear 19 1020 24 16093 2.6 180 05:20 23.10.2019
5467 Clear 22 1019 17 16093 3.6 20 04:33 23.10.2019
5468 Clear 26 1019 11 16093 2.1 330 02:44 23.10.2019
5469 Clear 27 1019 11 16093 3.1 40 01:56 23.10.2019
5470 Clouds 26 1019 12 16093 1.5 110 01:19 23.10.2019
5471 Clear 27 1020 11 16093 3.6 20 00:35 23.10.2019
5472 Clear 26 1020 10 16093 5.1 360 23:57 22.10.2019
5473 Clear 26 1021 11 16093 3.1 340 23:38 22.10.2019
5474 Clear 26 1021 12 16093 1.5 0 23:18 22.10.2019
5475 Clear 26 1021 12 16093 1.5 0 23:18 22.10.2019
5476 Clear 25 1021 11 16093 3.6 20 22:54 22.10.2019
5477 Clear 25 1022 11 16093 5.7 360 22:36 22.10.2019
5478 Clear 25 1023 15 16093 2.6 360 22:18 22.10.2019
5479 Clear 25 1022 12 16093 3.6 350 21:55 22.10.2019
5480 Clear 24 1023 12 16093 3.6 40 21:36 22.10.2019
5481 Clear 24 1024 14 16093 2.27 5 21:18 22.10.2019
5482 Clear 23 1024 13 16093 4.6 30 20:42 22.10.2019
5483 Clear 22 1024 15 16093 2.27 5 20:23 22.10.2019
5484 Clear 22 1024 13 16093 4.1 30 19:59 22.10.2019
5485 Clear 22 1025 14 16093 2.1 50 19:41 22.10.2019
5486 Clear 21 1025 18 16093 2.1 100 19:23 22.10.2019
5487 Clear 20 1025 14 16093 2.1 0 18:57 22.10.2019
5488 Clear 20 1025 15 16093 5.1 10 18:39 22.10.2019
5489 Clear 18 1026 22 16093 1.7 356 18:20 22.10.2019
5490 Clear 16 1025 17 16093 1.7 356 17:56 22.10.2019
5491 Clear 15 1025 25 16093 1.7 356 17:37 22.10.2019
5492 Clear 14 1026 30 16093 1.5 190 17:18 22.10.2019
5493 Clear 13 1025 22 16093 1.5 40 16:55 22.10.2019
5494 Clear 13 1024 21 16093 1.7 356 16:36 22.10.2019
5495 Clear 13 1025 29 16093 4.1 180 16:18 22.10.2019
5496 Clear 13 1025 29 16093 4.1 180 16:18 22.10.2019
5497 Clouds 13 1024 21 16093 2.6 350 15:42 22.10.2019
5498 Clear 12 1024 28 16093 0.96 330 15:20 22.10.2019
5499 Clouds 12 1024 32 16093 1.5 30 14:47 22.10.2019
5500 Clear 12 1023 26 16093 3.1 220 14:22 22.10.2019
5501 Clouds 13 1024 37 16093 1.5 360 13:59 22.10.2019
5502 Clouds 13 1024 30 16093 0.83 352 13:41 22.10.2019
5503 Clear 13 1023 26 16093 2.1 150 13:18 22.10.2019
5504 Clouds 14 1023 26 16093 0.83 352 12:55 22.10.2019
5505 Clouds 13 1023 28 16093 0.83 352 12:37 22.10.2019
5506 Clear 14 1023 25 16093 2.1 270 12:19 22.10.2019
5507 Clouds 14 1023 22 16093 2.6 110 11:40 22.10.2019
5508 Clear 15 1023 22 16093 2.04 32 11:22 22.10.2019
5509 Clouds 14 1024 20 16093 2.04 32 10:58 22.10.2019
5510 Clouds 15 1023 25 16093 2.1 340 10:38 22.10.2019
5511 Clear 15 1023 23 16093 2.6 240 10:19 22.10.2019
5512 Clear 15 1023 23 16093 2.6 240 10:19 22.10.2019
5513 Clear 15 1023 25 16093 2.04 32 09:57 22.10.2019
5514 Clear 15 1023 30 16093 2.22 31 09:38 22.10.2019
5515 Clear 15 1022 21 16093 2.1 230 09:20 22.10.2019
5516 Clouds 16 1023 21 16093 0.98 301 08:43 22.10.2019
5517 Clear 16 1022 22 16093 2.6 210 08:22 22.10.2019
5518 Clear 17 1023 29 16093 0.98 301 07:55 22.10.2019
5519 Clear 17 1023 29 16093 0.98 301 07:55 22.10.2019
5520 Clear 17 1022 19 16093 0.98 301 07:37 22.10.2019
5521 Clear 17 1023 25 16093 2.6 180 07:18 22.10.2019
5522 Clear 17 1022 29 16093 0.98 301 06:36 22.10.2019
5523 Clear 18 1023 20 16093 2.6 160 06:18 22.10.2019
5524 Clear 19 1021 27 16093 2.1 0 05:27 22.10.2019
5525 Clear 24 1020 15 16093 0.86 330 03:38 22.10.2019
5526 Clear 25 1020 10 16093 0.87 192 02:29 22.10.2019
5527 Clear 25 1020 10 16093 2.1 40 01:32 22.10.2019
5528 Clear 25 1020 10 16093 1.5 90 00:59 22.10.2019
5529 Clear 25 1020 10 16093 1.5 0 00:41 22.10.2019
5530 Clouds 25 1019 13 16093 3.1 100 00:21 22.10.2019
5531 Clear 25 1020 10 16093 2.6 50 23:57 21.10.2019
5532 Clear 24 1020 11 16093 3.6 50 23:37 21.10.2019
5533 Clouds 24 1020 12 16093 2.6 50 23:19 21.10.2019
5534 Clear 24 1020 11 16093 3.6 50 22:57 21.10.2019
5535 Clear 24 1021 11 16093 1.77 359 22:38 21.10.2019
5536 Clouds 23 1020 12 16093 2.1 90 22:19 21.10.2019
5537 Clear 23 1021 11 16093 1.5 0 21:55 21.10.2019
5538 Clear 23 1021 11 16093 1.5 0 21:55 21.10.2019
5539 Clear 23 1022 10 16093 1.61 7 21:37 21.10.2019
5540 Clouds 22 1021 11 16093 2.6 100 21:19 21.10.2019
5541 Clear 21 1022 10 16093 1.56 1 20:56 21.10.2019
5542 Clear 21 1022 10 16093 1.56 1 20:37 21.10.2019
5543 Clear 20 1023 15 16093 1.56 1 20:18 21.10.2019
5544 Clear 19 1022 11 16093 1.56 1 19:41 21.10.2019
5545 Clouds 18 1022 14 16093 1.56 1 19:22 21.10.2019
5546 Clear 17 1022 12 16093 1.5 250 18:57 21.10.2019
5547 Clear 17 1022 12 16093 1.5 250 18:57 21.10.2019
5548 Clear 17 1022 15 16093 2.1 180 18:38 21.10.2019
5549 Clouds 16 1021 18 16093 1.05 308 18:19 21.10.2019
5550 Clouds 16 1021 18 16093 1.05 308 18:19 21.10.2019
5551 Clear 15 1022 15 16093 1.05 308 17:59 21.10.2019
5552 Clear 14 1021 20 16093 1.05 308 17:38 21.10.2019
5553 Clouds 13 1021 22 16093 2.1 210 17:19 21.10.2019
5554 Clear 12 1021 20 16093 1.05 308 16:57 21.10.2019
5555 Clear 11 1020 25 16093 1.05 308 16:39 21.10.2019
5556 Clouds 11 1019 24 16093 1.5 210 16:20 21.10.2019
5557 Clouds 10 1019 29 16093 1.5 40 15:47 21.10.2019
5558 Clouds 10 1019 29 16093 1.5 40 15:27 21.10.2019
5559 Clouds 11 1019 21 16093 1.9 23 14:58 21.10.2019
5560 Clouds 11 1019 23 16093 1.07 5 14:39 21.10.2019
5561 Clouds 11 1018 20 16093 1.5 200 14:21 21.10.2019
5562 Clouds 11 1019 29 16093 1.07 5 13:57 21.10.2019
5563 Clouds 10 1018 29 16093 1.07 5 13:39 21.10.2019
5564 Clouds 11 1018 22 16093 2.1 260 13:19 21.10.2019
5565 Clouds 11 1019 23 16093 1.07 5 12:42 21.10.2019
5566 Clouds 12 1018 20 16093 2.1 240 12:22 21.10.2019
5567 Clouds 12 1018 20 16093 2.1 240 12:22 21.10.2019
5568 Clouds 12 1018 20 16093 0.4 302.128 11:57 21.10.2019
5569 Clouds 12 1019 27 16093 3.1 340 11:39 21.10.2019
5570 Clouds 12 1018 19 16093 2.1 180 11:20 21.10.2019
5571 Clouds 12 1018 34 16093 0.4 302.128 10:57 21.10.2019
5572 Clouds 12 1018 25 16093 0.4 302.128 10:38 21.10.2019
5573 Clear 12 1018 19 16093 2.1 300 10:19 21.10.2019
5574 Clouds 12 1018 25 16093 1.5 10 09:48 21.10.2019
5575 Clouds 13 1018 25 16093 1.5 10 09:26 21.10.2019
5576 Clouds 13 1018 17 16093 0.41 63.746 08:58 21.10.2019
5577 Clouds 13 1018 15 16093 2.1 300 08:39 21.10.2019
5578 Clear 13 1018 13 16093 1.5 210 08:21 21.10.2019
5579 Clouds 14 1018 28 16093 2.1 320 07:44 21.10.2019
5580 Clear 15 1018 16 16093 2.1 240 07:21 21.10.2019
5581 Clouds 15 1018 30 16093 0.41 63.746 06:57 21.10.2019
5582 Clouds 15 1018 28 16093 0.41 63.746 06:39 21.10.2019
5583 Clouds 16 1018 21 16093 1.5 340 05:57 21.10.2019
5584 Clouds 16 1018 21 16093 1.5 340 05:57 21.10.2019
5585 Clouds 16 1018 21 16093 1.5 340 05:57 21.10.2019
5586 Clouds 18 1017 16 16093 2.1 50 04:49 21.10.2019
5587 Clear 21 1017 11 16093 1.71 64.995 03:38 21.10.2019
5588 Clear 21 1017 11 16093 1.71 64.995 03:38 21.10.2019
5589 Clear 21 1017 9 16093 4.1 40 02:25 21.10.2019
5590 Clear 22 1017 9 16093 4.1 10 01:59 21.10.2019
5591 Clear 22 1017 10 16093 4.6 40 01:37 21.10.2019
5592 Clear 22 1017 10 16093 5.7 50 00:50 21.10.2019
5593 Clear 22 1017 10 16093 5.7 50 00:27 21.10.2019
5594 Clear 22 1017 11 16093 4.6 20 23:43 20.10.2019
5595 Clouds 22 1017 11 16093 5.1 30 23:22 20.10.2019
5596 Clear 22 1017 13 16093 6.2 340 22:57 20.10.2019
5597 Clear 22 1017 13 16093 6.7 30 22:39 20.10.2019
5598 Clouds 22 1018 13 16093 3.6 60 22:19 20.10.2019
5599 Clear 21 1018 12 16093 6.7 40 21:58 20.10.2019
5600 Clear 21 1018 14 16093 6.7 50 21:39 20.10.2019
5601 Clouds 21 1018 14 16093 4.1 60 21:21 20.10.2019
5602 Clear 20 1018 14 16093 6.7 30 20:42 20.10.2019
5603 Clouds 20 1018 15 16093 7.2 60 20:20 20.10.2019
5604 Clear 19 1018 14 16093 8.2 40 19:57 20.10.2019
5605 Clear 19 1018 14 16093 8.2 40 19:57 20.10.2019
5606 Clear 19 1018 15 16093 7.2 30 19:39 20.10.2019
5607 Clouds 19 1018 16 16093 8.7 60 19:20 20.10.2019
5608 Clear 18 1018 15 16093 8.2 40 18:56 20.10.2019
5609 Clear 18 1018 15 16093 8.2 40 18:56 20.10.2019
5610 Clear 18 1018 16 16093 8.2 10 18:38 20.10.2019
5611 Clouds 18 1017 18 16093 8.2 70 18:20 20.10.2019
5612 Clear 17 1017 20 16093 6.2 40 17:54 20.10.2019
5613 Clear 17 1017 20 16093 6.2 40 17:36 20.10.2019
5614 Clouds 16 1016 23 16093 7.7 50 17:18 20.10.2019
5615 Clear 16 1015 23 16093 5.1 20 16:41 20.10.2019
5616 Clouds 15 1015 27 16093 3.6 50 16:23 20.10.2019
5617 Clear 16 1015 23 16093 7.7 360 15:57 20.10.2019
5618 Clouds 16 1014 23 16093 6.7 20 15:38 20.10.2019
5619 Clouds 16 1014 23 16093 7.7 20 15:19 20.10.2019
5620 Clouds 16 1014 23 16093 6.2 30 14:57 20.10.2019
5621 Clear 16 1013 25 16093 5.1 310 14:37 20.10.2019
5622 Clouds 16 1013 25 16093 4.6 100 14:19 20.10.2019
5623 Clouds 16 1013 23 16093 5.7 20 13:55 20.10.2019
5624 Clouds 17 1012 22 16093 7.2 350 13:36 20.10.2019
5625 Clear 16 1013 21 16093 1.5 50 13:18 20.10.2019
5626 Clouds 16 1012 16 16093 5.1 10 12:55 20.10.2019
5627 Clouds 16 1011 14 16093 6.2 330 12:37 20.10.2019
5628 Clouds 16 1011 15 16093 8.7 340 12:19 20.10.2019
5629 Clear 16 1010 14 16093 6.7 300 11:41 20.10.2019
5630 Clear 17 1010 14 16093 6.7 300 11:23 20.10.2019
5631 Clouds 17 1011 9 16093 4.6 330 10:59 20.10.2019
5632 Clouds 17 1011 10 16093 5.1 330 10:39 20.10.2019
5633 Clouds 17 1010 10 16093 4.1 330 10:21 20.10.2019
5634 Clouds 17 1011 10 16093 3.6 310 09:56 20.10.2019
5635 Clouds 17 1011 15 16093 1.62 75.181 09:38 20.10.2019
5636 Clouds 18 1010 9 16093 3.6 300 09:20 20.10.2019
5637 Clouds 17 1011 22 16093 1.43 272.408 08:44 20.10.2019
5638 Clouds 18 1010 9 16093 2.1 0 08:22 20.10.2019
5639 Clouds 18 1010 17 16093 2.1 50 07:49 20.10.2019
5640 Clouds 18 1010 17 16093 2.1 50 07:29 20.10.2019
5641 Clear 19 1010 8 16093 1.43 272.408 06:31 20.10.2019
5642 Clear 21 1009 7 16093 2.1 180 04:41 20.10.2019
5643 Clear 22 1009 7 16093 2.1 270 03:59 20.10.2019
5644 Clear 23 1009 8 16093 3.1 160 03:39 20.10.2019
5645 Clouds 23 1008 10 16093 3.22 258.725 03:18 20.10.2019
5646 Clear 24 1009 5 16093 5.1 160 02:28 20.10.2019
5647 Clear 25 1009 6 16093 5.7 150 01:54 20.10.2019
5648 Clouds 25 1009 7 16093 2.6 80 01:23 20.10.2019
5649 Clear 25 1011 5 16093 2.1 150 00:53 20.10.2019
5650 Clouds 25 1011 7 16093 2.1 50 00:21 20.10.2019
5651 Clear 25 1012 5 16093 3.61 239.227 23:55 19.10.2019
5652 Clear 25 1012 6 16093 1.5 0 23:37 19.10.2019
5653 Clouds 25 1011 8 16093 3.1 50 23:19 19.10.2019
5654 Clear 24 1013 7 16093 2.6 0 22:41 19.10.2019
5655 Clouds 24 1013 11 16093 2.6 90 22:23 19.10.2019
5656 Clear 23 1013 8 16093 2.6 140 21:58 19.10.2019
5657 Clear 23 1014 9 16093 2.1 50 21:40 19.10.2019
5658 Clear 23 1014 9 16093 2.1 50 21:40 19.10.2019
5659 Clouds 22 1014 10 16093 2.6 90 21:20 19.10.2019
5660 Clear 21 1015 14 16093 2.1 110 20:43 19.10.2019
5661 Clouds 21 1014 10 16093 2.1 90 20:21 19.10.2019
5662 Clear 20 1015 12 16093 1.94 217.852 19:56 19.10.2019
5663 Clear 19 1015 11 16093 1.94 217.852 19:37 19.10.2019
5664 Clear 18 1015 12 16093 1.94 217.852 19:19 19.10.2019
5665 Clear 17 1015 14 16093 2.1 160 18:41 19.10.2019
5666 Clouds 16 1015 12 16093 1.5 180 18:22 19.10.2019
5667 Clear 13 1015 14 16093 0.95 320.886 17:41 19.10.2019
5668 Clear 13 1015 15 16093 1.5 250 17:23 19.10.2019
5669 Clear 12 1015 17 16093 0.95 320.886 16:59 19.10.2019
5670 Clear 11 1015 25 16093 0.95 320.886 16:38 19.10.2019
5671 Clear 11 1015 25 16093 0.95 320.886 16:38 19.10.2019
5672 Clear 11 1014 18 16093 2.1 210 16:19 19.10.2019
5673 Clouds 11 1014 23 16093 2.1 340 15:43 19.10.2019
5674 Clouds 11 1014 23 16093 2.1 340 15:25 19.10.2019
5675 Clouds 11 1014 23 16093 2.1 340 15:25 19.10.2019
5676 Clear 11 1014 21 16093 2.1 320 14:40 19.10.2019
5677 Clear 11 1014 21 16093 2.1 320 14:40 19.10.2019
5678 Clear 11 1013 16 16093 2.6 200 14:21 19.10.2019
5679 Clear 11 1014 26 16093 1.5 360 13:59 19.10.2019
5680 Clouds 11 1014 19 16093 0.5 279.519 13:41 19.10.2019
5681 Clear 11 1013 16 16093 1.5 210 13:21 19.10.2019
5682 Clouds 12 1014 25 16093 0.69 296.789 12:58 19.10.2019
5683 Clouds 11 1014 21 16093 0.69 296.789 12:38 19.10.2019
5684 Clouds 12 1013 16 16093 1.5 230 12:20 19.10.2019
5685 Clouds 12 1014 25 16093 2.6 10 11:41 19.10.2019
5686 Clouds 13 1013 15 16093 2.6 240 11:23 19.10.2019
5687 Clouds 13 1013 15 16093 2.6 240 11:23 19.10.2019
5688 Clear 13 1013 12 16093 4.1 280 10:58 19.10.2019
5689 Clouds 13 1013 32 16093 1.5 40 10:40 19.10.2019
5690 Clouds 13 1013 32 16093 1.5 40 10:22 19.10.2019
5691 Clouds 13 1013 23 16093 1.5 20 09:55 19.10.2019
5692 Clouds 13 1013 25 16093 1.5 340 09:37 19.10.2019
5693 Clouds 14 1013 25 16093 1.5 340 09:18 19.10.2019
5694 Clouds 14 1014 28 16093 1.5 350 08:40 19.10.2019
5695 Clouds 14 1014 28 16093 1.5 350 08:21 19.10.2019
5696 Clouds 14 1014 26 16093 0.91 305.127 07:45 19.10.2019
5697 Clouds 15 1014 26 16093 0.91 305.127 07:25 19.10.2019
5698 Clouds 15 1014 26 16093 0.91 305.127 07:25 19.10.2019
5699 Clouds 16 1014 22 16093 1.5 330 06:48 19.10.2019
5700 Clouds 16 1014 22 16093 1.5 330 06:48 19.10.2019
5701 Clouds 16 1014 19 16093 2.1 310 06:28 19.10.2019
5702 Clouds 16 1014 19 16093 2.1 310 06:28 19.10.2019
5703 Clouds 17 1013 23 16093 2.1 40 05:34 19.10.2019
5704 Clouds 20 1013 16 16093 1.5 60 04:24 19.10.2019
5705 Clear 23 1013 10 16093 2.6 40 02:49 19.10.2019
5706 Clear 23 1013 9 16093 2.6 20 01:54 19.10.2019
5707 Clear 23 1013 6 16093 3.1 350 01:33 19.10.2019
5708 Clear 24 1013 7 16093 4.6 340 00:49 19.10.2019
5709 Clear 24 1013 7 16093 4.6 340 00:27 19.10.2019
5710 Clear 23 1013 8 16093 3.1 0 23:56 18.10.2019
5711 Clear 23 1013 8 16093 1.5 0 23:36 18.10.2019
5712 Clear 23 1013 8 16093 1.5 0 23:18 18.10.2019
5713 Clear 23 1014 11 16093 5.7 360 22:43 18.10.2019
5714 Clear 23 1013 9 16093 5.1 60 22:20 18.10.2019
5715 Clear 23 1013 9 16093 5.1 60 22:20 18.10.2019
5716 Clear 23 1013 9 16093 5.1 60 22:20 18.10.2019
5717 Clear 22 1014 10 16093 5.1 340 21:59 18.10.2019
5718 Clear 22 1015 10 16093 6.2 350 21:39 18.10.2019
5719 Clear 22 1014 10 16093 5.1 50 21:20 18.10.2019
5720 Clear 21 1015 10 16093 6.7 330 20:58 18.10.2019
5721 Clear 21 1015 14 16093 4.1 20 20:40 18.10.2019
5722 Clear 21 1015 10 16093 6.2 20 20:21 18.10.2019
5723 Clear 21 1015 10 16093 6.2 20 20:21 18.10.2019
5724 Clear 20 1015 14 16093 6.7 340 19:57 18.10.2019
5725 Clear 20 1015 19 16093 8.7 10 19:39 18.10.2019
5726 Clear 20 1015 10 16093 7.7 10 19:20 18.10.2019
5727 Clear 19 1015 16 16093 7.2 350 18:56 18.10.2019
5728 Clear 19 1015 17 16093 6.7 350 18:38 18.10.2019
5729 Clear 18 1014 13 16093 8.2 20 18:20 18.10.2019
5730 Clear 18 1014 12 16093 4.6 10 17:39 18.10.2019
5731 Clear 17 1013 14 16093 7.2 350 17:20 18.10.2019
5732 Clear 17 1013 12 16093 4.6 20 16:58 18.10.2019
5733 Clear 16 1013 13 16093 4.1 350 16:37 18.10.2019
5734 Clouds 16 1012 15 16093 9.3 360 16:19 18.10.2019
5735 Clear 18 1012 12 16093 4.1 350 15:41 18.10.2019
5736 Clouds 17 1011 14 16093 11.8 350 15:21 18.10.2019
5737 Clouds 17 1011 13 16093 6.7 10 14:59 18.10.2019
5738 Clouds 18 1010 14 16093 7.7 360 14:40 18.10.2019
5739 Clouds 17 1009 14 16093 5.1 360 14:22 18.10.2019
5740 Clouds 18 1009 13 16093 8.2 350 13:59 18.10.2019
5741 Clouds 18 1009 13 16093 8.2 350 13:59 18.10.2019
5742 Clouds 18 1009 15 16093 6.7 350 13:41 18.10.2019
5743 Clouds 18 1008 16 16093 7.2 340 13:23 18.10.2019
5744 Clouds 18 1009 16 16093 5.1 360 12:56 18.10.2019
5745 Clouds 18 1008 22 16093 3.6 350 12:38 18.10.2019
5746 Clouds 18 1007 21 16093 3.6 340 12:20 18.10.2019
5747 Clouds 19 1007 24 16093 5.1 360 11:56 18.10.2019
5748 Clouds 18 1007 25 16093 4.1 340 11:38 18.10.2019
5749 Clouds 18 1006 19 16093 7.7 330 11:19 18.10.2019
5750 Clouds 19 1006 24 16093 5.1 330 10:43 18.10.2019
5751 Clouds 19 1006 21 16093 7.7 340 10:23 18.10.2019
5752 Dust 19 1006 22 16093 6.2 320 09:59 18.10.2019
5753 Dust 20 1005 19 16093 9.3 320 09:41 18.10.2019
5754 Dust 20 1005 21 16093 5.1 310 09:21 18.10.2019
5755 Dust 20 1005 21 16093 5.1 310 09:21 18.10.2019
5756 Dust 20 1005 19 16093 8.2 300 08:58 18.10.2019
5757 Dust 20 1005 19 16093 8.2 300 08:58 18.10.2019
5758 Dust 20 1005 19 16093 8.2 300 08:58 18.10.2019
5759 Dust 20 1005 19 16093 8.2 300 08:58 18.10.2019
5760 Dust 20 1005 24 16093 3.1 0 08:40 18.10.2019
5761 Dust 21 1004 22 16093 2.6 0 08:21 18.10.2019
5762 Dust 21 1004 41 16093 6.2 250 07:42 18.10.2019
5763 Dust 21 1003 21 16093 5.7 240 07:21 18.10.2019
5764 Clouds 22 1003 21 11265 6.2 220 06:39 18.10.2019
5765 Clouds 22 1002 18 16093 7.7 240 06:21 18.10.2019
5766 Clouds 22 1003 21 16093 2.6 250 05:56 18.10.2019
5767 Clouds 22 1001 16 16093 9.8 230 05:23 18.10.2019
5768 Dust 24 1002 17 16093 8.7 210 04:25 18.10.2019
5769 Dust 26 1001 13 16093 7.2 230 03:29 18.10.2019
5770 Dust 26 1001 11 16093 8.2 200 02:33 18.10.2019
5771 Dust 27 1002 9 14484 11.8 230 01:44 18.10.2019
5772 Dust 28 1002 9 14484 11.8 230 01:26 18.10.2019
5773 Dust 28 1001 12 16093 7.7 230 00:44 18.10.2019
5774 Dust 28 1001 12 16093 7.7 230 00:20 18.10.2019
5775 Dust 28 1001 12 16093 7.7 230 00:20 18.10.2019
5776 Dust 28 1003 12 16093 5.7 230 23:54 17.10.2019
5777 Dust 29 1003 12 16093 5.7 230 23:36 17.10.2019
5778 Dust 29 1004 14 16093 10.8 220 23:18 17.10.2019
5779 Dust 28 1002 8 16093 3.6 320 22:54 17.10.2019
5780 Dust 28 1004 14 16093 7.2 200 22:36 17.10.2019
5781 Clear 28 1005 14 16093 12.9 210 22:18 17.10.2019
5782 Clouds 27 1005 14 16093 6.2 200 21:54 17.10.2019
5783 Clear 27 1005 14 16093 4.6 190 21:36 17.10.2019
5784 Clear 27 1005 14 16093 4.6 190 21:36 17.10.2019
5785 Clouds 27 1005 20 16093 6.2 200 21:18 17.10.2019
5786 Clouds 26 1005 19 16093 4.6 190 20:54 17.10.2019
5787 Clouds 26 1005 19 16093 4.6 190 20:36 17.10.2019
5788 Clear 26 1007 19 16093 8.2 210 20:18 17.10.2019
5789 Clear 25 1007 17 16093 7.53 232.285 19:41 17.10.2019
5790 Clouds 25 1006 20 16093 5.1 200 19:20 17.10.2019
5791 Clouds 25 1006 20 16093 5.1 200 19:20 17.10.2019
5792 Clouds 25 1006 20 16093 5.1 200 19:20 17.10.2019
5793 Clear 23 1007 17 16093 7.53 232.285 18:58 17.10.2019
5794 Clear 23 1007 20 16093 7.53 232.285 18:38 17.10.2019
5795 Clouds 21 1006 23 16093 4.6 200 18:20 17.10.2019
5796 Clear 20 1008 24 16093 4.926 198 17:43 17.10.2019
5797 Clouds 19 1006 23 16093 4.6 200 17:24 17.10.2019
5798 Clear 18 1007 25 16093 4.926 198 16:58 17.10.2019
5799 Clear 18 1007 33 16093 4.926 198 16:39 17.10.2019
5800 Clouds 18 1007 24 16093 2.6 200 16:18 17.10.2019
5801 Clear 17 1008 38 16093 4.926 198 15:56 17.10.2019
5802 Clouds 18 1008 29 16093 4.926 198 15:38 17.10.2019
5803 Clouds 17 1007 24 16093 2.6 190 15:20 17.10.2019
5804 Clouds 17 1008 27 16093 3.484 202 14:55 17.10.2019
5805 Clouds 17 1008 28 16093 3.136 196 14:37 17.10.2019
5806 Clear 17 1009 29 16093 3.6 200 14:18 17.10.2019
5807 Clouds 17 1008 28 16093 3.136 196 13:39 17.10.2019
5808 Clouds 18 1007 25 16093 1.5 200 13:19 17.10.2019
5809 Clouds 18 1009 28 16093 1.5 360 12:55 17.10.2019
5810 Clouds 18 1009 28 16093 1.5 360 12:55 17.10.2019
5811 Clouds 18 1009 28 16093 1.5 360 12:55 17.10.2019
5812 Clouds 18 1009 28 16093 1.5 360 12:36 17.10.2019
5813 Clear 18 1010 25 16093 5.1 160 12:18 17.10.2019
5814 Clouds 18 1009 31 16093 2.743 211 11:41 17.10.2019
5815 Clouds 18 1009 22 16093 1.5 210 11:21 17.10.2019
5816 Clouds 19 1009 31 16093 2.743 211 10:58 17.10.2019
5817 Clouds 19 1010 36 16093 2.743 211 10:39 17.10.2019
5818 Clouds 19 1009 19 16093 2.1 240 10:19 17.10.2019
5819 -273 0 0 0 0 0 09:55 17.10.2019
5820 -273 0 0 0 0 0 09:55 17.10.2019
5821 Clouds 19 1010 22 16093 1.5 350 09:36 17.10.2019
5822 Clear 20 1011 25 16093 3.6 190 09:18 17.10.2019
5823 Clear 20 1011 25 16093 3.6 190 09:18 17.10.2019
5824 Clouds 21 1011 26 16093 3.6 50 08:46 17.10.2019
5825 Clouds 21 1011 26 16093 3.6 50 08:26 17.10.2019
5826 Clear 22 1011 24 16093 2.1 320 07:56 17.10.2019
5827 Clouds 22 1011 20 16093 2.1 320 07:38 17.10.2019
5828 Clouds 22 1011 15 16093 2.6 240 07:19 17.10.2019
5829 Clouds 22 1011 24 16093 2.135 207 06:40 17.10.2019
5830 Clear 22 1012 17 16093 3.1 190 06:21 17.10.2019
5831 Clear 22 1011 28 16093 1.5 40 05:58 17.10.2019
5832 Clear 22 1011 26 16093 2.1 50 05:32 17.10.2019
5833 Clear 24 1011 23 16093 1.5 60 04:57 17.10.2019
5834 Clear 27 1011 12 16093 3.1 50 03:55 17.10.2019
5835 Clear 28 1012 11 16093 3.6 40 02:53 17.10.2019
5836 Clear 29 1013 11 16093 2.6 40 01:39 17.10.2019
5837 Clear 29 1013 9 16093 2.6 60 00:40 17.10.2019
5838 Clouds 29 1013 9 16093 2.1 70 00:19 17.10.2019
5839 Clear 29 1015 9 16093 1.5 70 23:42 16.10.2019
5840 Clouds 29 1015 9 16093 2.6 60 23:21 16.10.2019
5841 Clear 28 1015 9 16093 1.5 0 22:56 16.10.2019
5842 Clear 28 1015 9 16093 1.5 0 22:56 16.10.2019
5843 Clear 28 1016 9 16093 3.1 70 22:37 16.10.2019
5844 Clear 28 1016 9 16093 3.1 70 22:37 16.10.2019
5845 Clouds 28 1016 8 16093 2.1 20 22:19 16.10.2019
5846 Clouds 28 1016 8 16093 2.1 20 22:19 16.10.2019
5847 Clouds 28 1016 8 16093 2.1 20 22:19 16.10.2019
5848 Clear 28 1016 9 16093 4.1 60 21:57 16.10.2019
5849 Clear 27 1017 10 16093 3.6 40 21:37 16.10.2019
5850 Clouds 26 1017 9 16093 1.5 0 21:19 16.10.2019
5851 Clear 26 1018 10 16093 3.6 40 20:58 16.10.2019
5852 Clear 25 1018 11 16093 1.862 3 20:39 16.10.2019
5853 Clouds 25 1018 10 16093 2.1 100 20:20 16.10.2019
5854 Clear 24 1019 12 16093 2.1 0 19:58 16.10.2019
5855 Clear 24 1019 13 16093 1.862 3 19:38 16.10.2019
5856 Clouds 23 1019 12 16093 1.862 3 19:20 16.10.2019
5857 Clouds 23 1019 12 16093 1.862 3 19:20 16.10.2019
5858 Clear 21 1019 19 16093 2.1 180 18:39 16.10.2019
5859 Clouds 19 1019 18 16093 2.1 180 18:20 16.10.2019
5860 -273 0 0 0 0 0 17:58 16.10.2019
5861 Clear 16 1019 31 16093 0.573 3 17:39 16.10.2019
5862 Clouds 16 1019 20 16093 2.6 220 17:21 16.10.2019
5863 Clear 15 1019 33 16093 2.1 130 16:59 16.10.2019
5864 Clear 14 1019 33 16093 0.573 3 16:41 16.10.2019
5865 Clear 14 1019 33 16093 0.573 3 16:41 16.10.2019
5866 Clouds 14 1018 21 16093 1.5 230 16:20 16.10.2019
5867 Clear 14 1019 37 16093 0.573 3 15:56 16.10.2019
5868 Clear 14 1019 37 16093 0.573 3 15:56 16.10.2019
5869 Clouds 14 1019 28 16093 0.573 3 15:37 16.10.2019
5870 Clouds 14 1018 23 16093 0.482 351 15:18 16.10.2019
5871 Clouds 14 1018 30 16093 1.5 40 14:56 16.10.2019
5872 Clouds 14 1018 30 16093 1.5 40 14:38 16.10.2019
5873 Clouds 14 1017 23 16093 1.5 230 14:18 16.10.2019
5874 Clear 15 1018 21 16093 2.1 290 13:56 16.10.2019
5875 Clouds 15 1017 33 16093 0.501 345 13:37 16.10.2019
5876 Clouds 15 1017 23 16093 1.5 230 13:18 16.10.2019
5877 Clouds 15 1018 35 16093 0.501 345 12:40 16.10.2019
5878 Clouds 15 1017 21 16093 1.5 220 12:18 16.10.2019
5879 Clouds 15 1017 21 16093 1.5 220 12:18 16.10.2019
5880 Clouds 15 1018 29 16093 0.532 299 11:43 16.10.2019
5881 Clouds 15 1018 23 16093 2.6 290 11:18 16.10.2019
5882 Clouds 16 1018 19 16093 1.5 220 10:39 16.10.2019
5883 Clouds 17 1018 19 16093 1.5 220 10:20 16.10.2019
5884 Clear 17 1018 23 16093 2.1 350 09:56 16.10.2019
5885 Clouds 18 1018 25 16093 0.532 299 09:38 16.10.2019
5886 Clear 18 1018 20 16093 3.6 230 09:19 16.10.2019
5887 Clear 18 1018 24 16093 1.5 0 08:43 16.10.2019
5888 Clear 18 1018 24 16093 1.5 0 08:24 16.10.2019
5889 Clear 18 1018 22 16093 2.1 320 07:46 16.10.2019
5890 Clear 20 1018 22 16093 2.1 320 07:25 16.10.2019
5891 -273 0 0 0 0 0 07:25 16.10.2019
5892 Clear 20 1018 16 16093 4.6 310 06:59 16.10.2019
5893 Clear 20 1017 21 16093 2.1 230 06:39 16.10.2019
5894 Clear 20 1017 21 16093 2.1 230 06:39 16.10.2019
5895 Clear 20 1017 21 16093 2.1 310 05:54 16.10.2019
5896 Clear 26 1017 17 16093 3.1 10 03:26 16.10.2019
5897 Clear 27 1017 14 16093 3.1 40 02:49 16.10.2019
5898 Clear 28 1017 14 16093 1.5 0 01:19 16.10.2019
5899 Clear 28 1017 11 16093 4.1 40 00:50 16.10.2019
5900 Clear 28 1017 11 16093 4.1 40 00:28 16.10.2019
5901 Clear 28 1018 11 16093 4.1 50 23:41 15.10.2019
5902 Clear 27 1018 11 16093 1.608 354 23:22 15.10.2019
5903 Clear 27 1018 12 16093 1.5 0 22:56 15.10.2019
5904 Clear 27 1019 11 16093 1.5 0 22:38 15.10.2019
5905 Clear 27 1019 11 16093 1.5 0 22:38 15.10.2019
5906 Clear 27 1019 12 16093 2.1 90 22:20 15.10.2019
5907 -273 0 0 0 0 0 21:56 15.10.2019
5908 Clear 27 1019 11 16093 1.608 354 21:56 15.10.2019
5909 Clear 27 1019 11 16093 1.608 354 21:56 15.10.2019
5910 Clear 26 1019 12 16093 2.1 30 21:38 15.10.2019
5911 Clear 25 1019 11 16093 1.5 80 21:20 15.10.2019
5912 Clear 24 1020 12 16093 1.859 348 20:57 15.10.2019
5913 Clear 24 1020 13 16093 2.1 0 20:39 15.10.2019
5914 Clouds 23 1020 16 16093 1.5 0 20:20 15.10.2019
5915 Clear 23 1020 13 16093 1.859 348 19:58 15.10.2019
5916 Clear 22 1021 14 16093 1.859 348 19:40 15.10.2019
5917 Clouds 22 1020 15 16093 2.1 180 19:20 15.10.2019
5918 Clear 20 1021 20 16093 3.1 230 18:47 15.10.2019
5919 Clear 19 1021 20 16093 3.1 230 18:29 15.10.2019
5920 Clear 13 1021 20 16093 0.904 331 17:59 15.10.2019
5921 Clear 14 1020 30 16093 0.904 331 17:40 15.10.2019
5922 Clear 14 1020 30 16093 0.904 331 17:40 15.10.2019
5923 Clear 15 1020 26 16093 2.1 210 17:20 15.10.2019
5924 Clear 14 1020 19 16093 2.6 270 16:55 15.10.2019
5925 Clear 14 1020 19 16093 2.6 270 16:55 15.10.2019
5926 Clear 13 1019 23 16093 0.904 331 16:37 15.10.2019
5927 Clear 13 1019 28 16093 2.6 230 16:19 15.10.2019
5928 Clouds 13 1019 35 16093 0.904 331 15:42 15.10.2019
5929 Clear 12 1019 26 16093 0.638 321 15:20 15.10.2019
5930 Clear 12 1019 21 16093 2.1 330 14:58 15.10.2019
5931 Clouds 12 1018 23 16093 1.5 50 14:38 15.10.2019
5932 Clouds 12 1018 23 16093 1.5 50 14:38 15.10.2019
5933 Clouds 12 1018 23 16093 1.5 50 14:38 15.10.2019
5934 Clear 13 1018 26 16093 0.412 333 14:20 15.10.2019
5935 Clear 13 1018 24 16093 1.5 230 13:55 15.10.2019
5936 Clouds 14 1018 35 16093 0.412 333 13:37 15.10.2019
5937 Clear 14 1017 26 16093 3.6 210 13:18 15.10.2019
5938 Clouds 14 1017 29 16093 0.412 333 12:42 15.10.2019
5939 Clear 14 1017 26 16093 2.1 220 12:21 15.10.2019
5940 Clouds 15 1017 22 16093 0.526 267 11:56 15.10.2019
5941 Clouds 15 1017 22 16093 0.526 267 11:56 15.10.2019
5942 Clouds 14 1017 33 16093 0.526 267 11:37 15.10.2019
5943 Clear 15 1017 25 16093 2.1 230 11:18 15.10.2019
5944 Clouds 15 1017 41 16093 1.5 90 10:43 15.10.2019
5945 Clear 15 1016 23 16093 2.1 200 10:19 15.10.2019
5946 Clear 15 1016 31 16093 2.1 270 09:57 15.10.2019
5947 Clouds 15 1016 38 16093 1.72 351.124 09:37 15.10.2019
5948 Clouds 15 1016 38 16093 1.72 351.124 09:37 15.10.2019
5949 Clear 16 1016 22 16093 2.6 220 09:19 15.10.2019
5950 Clouds 17 1016 29 16093 1.22 349.997 08:43 15.10.2019
5951 Clear 17 1015 20 16093 2.6 190 08:22 15.10.2019
5952 Clear 17 1016 25 16093 2.6 270 07:58 15.10.2019
5953 Clouds 18 1016 27 16093 1.5 340 07:39 15.10.2019
5954 Clear 18 1015 22 16093 1.5 190 07:19 15.10.2019
5955 Clouds 18 1015 31 16093 3.1 30 06:44 15.10.2019
5956 Clouds 18 1015 31 16093 3.1 30 06:26 15.10.2019
5957 Clouds 19 1015 29 16093 3.6 10 05:41 15.10.2019
5958 Clear 19 1015 24 16093 2.1 180 05:23 15.10.2019
5959 Clear 23 1014 26 16093 3.1 30 04:25 15.10.2019
5960 Clear 25 1013 22 16093 3.1 30 03:37 15.10.2019
5961 Clouds 26 1013 12 16093 0.65 158.622 02:24 15.10.2019
5962 Clear 26 1013 15 16093 2.6 0 01:48 15.10.2019
5963 Clouds 26 1013 14 16093 1.5 0 01:19 15.10.2019
5964 Clear 26 1013 13 16093 3.1 30 00:49 15.10.2019
5965 Clouds 26 1013 15 16093 2.6 10 00:21 15.10.2019
5966 Clouds 26 1013 15 16093 2.6 10 00:21 15.10.2019
5967 Clear 26 1013 14 16093 2.1 0 23:44 14.10.2019
5968 Clouds 26 1013 16 16093 1.93 138.892 23:20 14.10.2019
5969 Clear 25 1013 17 16093 1.5 0 22:55 14.10.2019
5970 Clear 25 1014 14 16093 2.1 50 22:37 14.10.2019
5971 Clear 25 1014 16 16093 2.6 70 22:18 14.10.2019
5972 Clear 24 1014 17 16093 2.1 20 21:41 14.10.2019
5973 Clear 24 1014 17 16093 2.1 20 21:41 14.10.2019
5974 Clear 24 1014 12 16093 1.5 0 21:22 14.10.2019
5975 Clear 23 1015 10 16093 2.6 90 20:59 14.10.2019
5976 Clear 23 1015 16 16093 2.1 0 20:40 14.10.2019
5977 Clear 23 1015 11 16093 2.1 40 20:21 14.10.2019
5978 Clear 22 1015 12 16093 1.5 140 19:59 14.10.2019
5979 Clear 21 1015 14 16093 1.019 10 19:40 14.10.2019
5980 Clouds 21 1015 13 16093 1.019 10 19:22 14.10.2019
5981 Clear 20 1015 16 16093 2.12 105.317 18:58 14.10.2019
5982 Clear 20 1015 16 16093 2.12 105.317 18:58 14.10.2019
5983 Clear 20 1015 16 16093 2.12 105.317 18:58 14.10.2019
5984 Clear 19 1015 16 16093 2.12 105.317 18:38 14.10.2019
5985 Clouds 18 1014 16 16093 2 48.979 18:19 14.10.2019
5986 Clear 15 1014 21 16093 2 48.979 17:44 14.10.2019
5987 Clear 15 1014 21 16093 2 48.979 17:26 14.10.2019
5988 Clear 13 1014 26 16093 2 48.979 16:59 14.10.2019
5989 Clear 11 1013 37 16093 2 48.979 16:40 14.10.2019
5990 Clouds 11 1013 22 16093 2.6 200 16:21 14.10.2019
5991 Clouds 12 1013 34 16093 2 48.979 15:42 14.10.2019
5992 Clear 12 1012 22 16093 2.1 230 15:22 14.10.2019
5993 Clouds 12 1013 26 16093 0.66 38.972 14:56 14.10.2019
5994 Clouds 12 1012 32 16093 0.66 38.972 14:38 14.10.2019
5995 Clear 13 1013 29 16093 3.1 170 14:19 14.10.2019
5996 Clouds 13 1012 30 16093 0.66 38.972 13:43 14.10.2019
5997 Clear 13 1011 19 16093 2.6 220 13:21 14.10.2019
5998 Clouds 13 1012 30 16093 1.19 55.439 12:55 14.10.2019
5999 Clouds 13 1012 30 16093 1.19 55.439 12:55 14.10.2019
6000 Clouds 13 1012 34 16093 1.5 360 12:36 14.10.2019
6001 Clear 13 1012 22 16093 2.6 180 12:18 14.10.2019
6002 Clouds 14 1012 26 16093 0.73 336.976 11:44 14.10.2019
6003 Clear 14 1013 22 16093 3.6 170 11:24 14.10.2019
6004 Clouds 15 1012 28 16093 0.73 336.976 10:55 14.10.2019
6005 Clouds 14 1012 28 16093 0.73 336.976 10:37 14.10.2019
6006 Clear 15 1011 16 16093 1.5 140 10:18 14.10.2019
6007 Clear 15 1011 16 16093 1.5 140 10:18 14.10.2019
6008 Clouds 15 1011 26 16093 1.5 350 09:41 14.10.2019
6009 Clouds 15 1011 26 16093 1.5 350 09:41 14.10.2019
6010 Clouds 15 1011 26 16093 1.5 350 09:41 14.10.2019
6011 Clear 15 1011 13 16093 2.1 250 09:21 14.10.2019
6012 Clouds 16 1012 26 16093 2.1 350 08:50 14.10.2019
6013 Clear 16 1011 15 16093 0.48 262.288 08:23 14.10.2019
6014 Clouds 17 1011 23 16093 0.48 262.288 07:47 14.10.2019
6015 -273 0 0 0 0 0 07:25 14.10.2019
6016 Clouds 18 1011 20 16093 0.48 262.288 06:59 14.10.2019
6017 Clouds 19 1011 17 16093 0.48 262.288 06:28 14.10.2019
6018 Clouds 22 1011 11 16093 0.86 252.22 05:57 14.10.2019
6019 Clouds 21 1011 11 16093 0.86 252.22 05:26 14.10.2019
6020 Clear 25 1010 10 16093 4.6 130 03:50 14.10.2019
6021 Clear 24 1010 10 16093 4.6 130 03:26 14.10.2019
6022 Clear 25 1010 8 16093 6.2 150 02:31 14.10.2019
6023 Clouds 26 1011 6 16093 2.6 0 01:21 14.10.2019
6024 Clear 26 1011 6 16093 5.1 150 00:42 14.10.2019
6025 Clear 25 1012 7 16093 2.6 50 00:18 14.10.2019
6026 Clear 25 1012 7 16093 3.6 30 23:41 13.10.2019
6027 Clouds 25 1012 6 16093 1.5 0 23:19 13.10.2019
6028 Clear 24 1012 7 16093 3.1 20 22:57 13.10.2019
6029 Clear 24 1012 7 16093 3.1 20 22:57 13.10.2019
6030 Clear 24 1013 7 16093 3.1 60 22:39 13.10.2019
6031 Clouds 24 1013 6 16093 3.1 50 22:20 13.10.2019
6032 Clouds 24 1013 6 16093 3.1 50 22:20 13.10.2019
6033 Clear 23 1013 8 16093 2.6 0 21:57 13.10.2019
6034 Clear 22 1014 9 16093 4.17 179.148 21:36 13.10.2019
6035 Clouds 21 1014 7 16093 2.1 0 21:18 13.10.2019
6036 Clear 21 1014 10 16093 1.5 120 20:56 13.10.2019
6037 Clear 21 1015 9 16093 2.21 149.508 20:37 13.10.2019
6038 Clear 21 1015 9 16093 2.21 149.508 20:37 13.10.2019
6039 Clear 21 1015 9 16093 2.21 149.508 20:37 13.10.2019
6040 Clouds 20 1015 7 16093 1.5 30 20:18 13.10.2019
6041 Clear 20 1015 7 16093 2.21 149.508 19:55 13.10.2019
6042 Clear 19 1015 7 16093 2.21 149.508 19:36 13.10.2019
6043 Clear 19 1015 7 16093 2.21 149.508 19:36 13.10.2019
6044 Clear 18 1016 8 16093 2.21 149.508 19:18 13.10.2019
6045 Clear 17 1015 9 16093 2.21 149.508 18:41 13.10.2019
6046 Clouds 16 1015 12 16093 1.11 44.307 18:21 13.10.2019
6047 Clear 13 1015 10 16093 1.11 44.307 17:59 13.10.2019
6048 Clear 13 1015 11 16093 1.11 44.307 17:41 13.10.2019
6049 Clear 13 1015 11 16093 1.11 44.307 17:41 13.10.2019
6050 Clear 13 1015 11 16093 1.11 44.307 17:41 13.10.2019
6051 Clouds 12 1014 12 16093 1.11 44.307 17:23 13.10.2019
6052 Clear 9 1014 33 16093 1.11 44.307 16:44 13.10.2019
6053 Clouds 9 1014 14 16093 2.6 220 16:20 13.10.2019
6054 Clear 9 1014 26 16093 1.11 44.307 15:58 13.10.2019
6055 Clear 9 1014 26 16093 1.11 44.307 15:58 13.10.2019
6056 Clouds 9 1014 24 16093 1.5 100 15:39 13.10.2019
6057 Clouds 9 1014 24 16093 1.5 100 15:39 13.10.2019
6058 Clear 9 1013 15 16093 2.6 210 15:20 13.10.2019
6059 Clear 10 1014 11 16093 1.5 30 14:58 13.10.2019
6060 Clouds 10 1014 23 16093 0.56 54.616 14:39 13.10.2019
6061 Clouds 10 1014 23 16093 0.56 54.616 14:39 13.10.2019
6062 Clear 10 1013 13 16093 1.5 250 14:21 13.10.2019
6063 Clouds 9 1014 26 16093 0.56 54.616 13:56 13.10.2019
6064 Clouds 10 1014 21 16093 0.56 54.616 13:37 13.10.2019
6065 Clear 11 1013 14 16093 0.94 45.432 13:19 13.10.2019
6066 Clouds 11 1014 23 16093 0.94 45.432 12:56 13.10.2019
6067 Clouds 11 1014 25 16093 0.94 45.432 12:37 13.10.2019
6068 Clear 10 1014 13 16093 4.1 180 12:18 13.10.2019
6069 Clouds 11 1014 29 16093 1.17 18.682 11:55 13.10.2019
6070 Clouds 11 1014 29 16093 1.17 18.682 11:37 13.10.2019
6071 Clear 11 1014 13 16093 4.1 190 11:18 13.10.2019
6072 Clear 11 1014 13 16093 4.1 190 11:18 13.10.2019
6073 Clouds 11 1014 23 16093 1.17 18.682 10:41 13.10.2019
6074 Clouds 11 1014 23 16093 1.17 18.682 10:41 13.10.2019
6075 Clear 12 1013 12 16093 1.5 230 10:22 13.10.2019
6076 Clouds 12 1014 21 16093 1.17 18.682 09:41 13.10.2019
6077 Clear 13 1013 11 16093 2.1 200 09:21 13.10.2019
6078 Clouds 13 1014 14 16093 0.7 358.771 08:58 13.10.2019
6079 Clouds 13 1014 17 16093 0.7 358.771 08:38 13.10.2019
6080 Clear 13 1014 11 16093 3.6 190 08:19 13.10.2019
6081 Clear 13 1014 12 16093 3.1 180 07:46 13.10.2019
6082 Clear 14 1013 8 16093 1.5 250 07:21 13.10.2019
6083 Clouds 15 1013 14 16093 2.1 310 06:41 13.10.2019
6084 Clouds 16 1013 22 16093 1.5 20 05:39 13.10.2019
6085 Clouds 18 1013 13 16093 2.1 40 04:46 13.10.2019
6086 Clear 24 1012 4 16093 0.62 23.539 03:51 13.10.2019
6087 Clear 23 1013 4 16093 2.6 40 02:41 13.10.2019
6088 Clear 24 1014 3 16093 2.6 50 01:53 13.10.2019
6089 Clear 24 1014 3 16093 2.6 50 01:30 13.10.2019
6090 Clear 24 1014 3 16093 2.6 30 00:47 13.10.2019
6091 Clear 24 1014 3 16093 2.6 30 00:47 13.10.2019
6092 Clear 24 1014 4 16093 2.1 360 00:21 13.10.2019
6093 Clear 23 1014 3 16093 1.6 109.44 23:56 12.10.2019
6094 Clear 23 1014 4 16093 1.5 0 23:37 12.10.2019
6095 Clear 23 1014 5 16093 2.1 360 23:19 12.10.2019
6096 Clear 23 1014 4 16093 3.6 50 22:57 12.10.2019
6097 Clear 23 1015 4 16093 2.6 60 22:38 12.10.2019
6098 Clear 23 1015 4 16093 3.1 360 22:19 12.10.2019
6099 Clear 21 1016 5 16093 3.1 50 21:54 12.10.2019
6100 Clear 21 1016 5 16093 3.1 50 21:36 12.10.2019
6101 Clear 20 1017 7 16093 1.5 0 21:18 12.10.2019
6102 Clear 20 1017 5 16093 1.84 93.951 20:39 12.10.2019
6103 Clear 19 1016 7 16093 1.84 93.951 20:21 12.10.2019
6104 Clear 18 1017 7 16093 1.5 0 19:37 12.10.2019
6105 Clear 18 1017 7 16093 1.84 93.951 19:19 12.10.2019
6106 Clear 17 1017 7 16093 1.84 93.951 18:56 12.10.2019
6107 Clear 16 1017 7 16093 1.84 93.951 18:36 12.10.2019
6108 Clear 14 1018 9 16093 2.17 51.601 18:18 12.10.2019
6109 Clear 12 1017 11 16093 2.17 51.601 17:42 12.10.2019
6110 Clear 11 1016 12 16093 2.1 260 17:19 12.10.2019
6111 Clear 9 1016 10 16093 2.17 51.601 16:41 12.10.2019
6112 Clear 9 1016 10 16093 2.17 51.601 16:41 12.10.2019
6113 Clear 9 1016 13 16093 2.1 190 16:21 12.10.2019
6114 Clear 9 1016 9 16093 2.6 310 15:59 12.10.2019
6115 Clouds 9 1016 8 16093 2.6 300 15:39 12.10.2019
6116 Clear 8 1016 12 16093 2.1 250 15:21 12.10.2019
6117 Clouds 8 1016 9 16093 1.96 52.727 14:41 12.10.2019
6118 Clear 9 1016 12 16093 1.5 240 14:21 12.10.2019
6119 Clouds 9 1016 11 16093 1.96 52.727 13:53 12.10.2019
6120 Clouds 9 1016 11 16093 1.96 52.727 13:53 12.10.2019
6121 Clouds 9 1016 11 16093 1.96 52.727 13:33 12.10.2019
6122 Clouds 9 1016 8 16093 3.6 340 12:59 12.10.2019
6123 Clouds 9 1016 8 16093 1.95 53.354 12:38 12.10.2019
6124 Clear 9 1016 11 16093 3.1 220 12:20 12.10.2019
6125 Clouds 10 1017 21 16093 2.11 53.179 11:47 12.10.2019
6126 Clouds 11 1017 21 16093 2.11 53.179 11:26 12.10.2019
6127 Clouds 11 1017 6 16093 2.11 53.179 10:59 12.10.2019
6128 Clouds 11 1017 6 16093 2.11 53.179 10:40 12.10.2019
6129 Clear 11 1016 10 16093 2.1 240 10:21 12.10.2019
6130 Clouds 11 1017 6 16093 2.11 53.179 09:57 12.10.2019
6131 Clouds 11 1017 6 16093 2.11 53.179 09:57 12.10.2019
6132 Clouds 12 1017 9 16093 2.11 53.179 09:38 12.10.2019
6133 Clear 12 1016 9 16093 2.1 200 09:20 12.10.2019
6134 Clouds 12 1017 5 16093 2.1 290 08:45 12.10.2019
6135 Clear 12 1017 7 16093 2.1 210 08:25 12.10.2019
6136 Clouds 12 1017 5 16093 2.1 310 07:59 12.10.2019
6137 Clouds 12 1017 7 16093 2.6 320 07:31 12.10.2019
6138 Clouds 13 1017 5 16093 1.5 0 06:37 12.10.2019
6139 Clouds 14 1017 10 16093 2.98 35.913 05:44 12.10.2019
6140 Clouds 17 1017 5 16093 1.5 360 04:43 12.10.2019
6141 Clouds 19 1017 7 16093 1.5 20 03:54 12.10.2019
6142 Clear 20 1017 3 16093 2.6 360 02:50 12.10.2019
6143 Clear 21 1018 3 16093 3.6 30 01:33 12.10.2019
6144 Clear 21 1019 3 16093 2.6 0 00:56 12.10.2019
6145 Clear 21 1019 4 16093 4.6 40 00:37 12.10.2019
6146 Clear 21 1020 4 16093 4.6 50 23:55 11.10.2019
6147 Clear 20 1020 4 16093 4.6 50 23:36 11.10.2019
6148 Clear 20 1021 6 16093 3.6 10 23:18 11.10.2019
6149 Clear 19 1022 6 16093 5.7 40 22:38 11.10.2019
6150 Clear 19 1023 6 16093 4.1 30 22:19 11.10.2019
6151 Clear 18 1023 6 16093 4.6 30 21:43 11.10.2019
6152 Clouds 17 1023 7 16093 2.6 0 21:22 11.10.2019
6153 Clear 16 1023 7 16093 5.7 40 20:57 11.10.2019
6154 Clear 16 1024 7 16093 7.2 30 20:39 11.10.2019
6155 Clouds 15 1024 8 16093 2.6 0 20:20 11.10.2019
6156 Clouds 15 1024 8 16093 2.6 0 20:20 11.10.2019
6157 Clear 15 1024 7 16093 7.2 340 19:55 11.10.2019
6158 Clear 14 1024 11 16093 5.7 30 19:37 11.10.2019
6159 Clear 14 1026 12 16093 3.6 60 19:18 11.10.2019
6160 Clear 14 1026 12 16093 3.6 60 19:18 11.10.2019
6161 Clear 14 1026 12 16093 3.6 60 19:18 11.10.2019
6162 Clear 14 1026 12 16093 3.6 60 19:18 11.10.2019
6163 Clear 14 1026 12 16093 3.6 60 19:18 11.10.2019
6164 Clear 13 1025 10 16093 6.2 20 18:56 11.10.2019
6165 Clear 13 1025 10 16093 6.2 20 18:37 11.10.2019
6166 Clear 12 1026 13 16093 4.6 30 18:18 11.10.2019
6167 Clear 11 1025 10 16093 1.5 0 17:55 11.10.2019
6168 Clear 10 1025 10 16093 1.5 0 17:36 11.10.2019
6169 Clear 10 1026 15 16093 2.6 50 17:18 11.10.2019
6170 Clear 8 1024 10 16093 1.5 0 16:40 11.10.2019
6171 Clouds 8 1024 16 16093 1.5 140 16:20 11.10.2019
6172 Clear 8 1024 10 16093 4.46 63.303 15:58 11.10.2019
6173 Clouds 9 1024 15 16093 2.6 70 15:38 11.10.2019
6174 Clouds 9 1024 15 16093 2.6 70 15:18 11.10.2019
6175 Clouds 9 1024 10 16093 7.2 20 14:46 11.10.2019
6176 Clouds 9 1024 10 16093 7.2 20 14:28 11.10.2019
6177 Clouds 10 1023 11 16093 7.2 20 13:56 11.10.2019
6178 Thunderstorm 10 1023 10 16093 7.7 10 13:37 11.10.2019
6179 Clear 10 1024 15 16093 6.7 30 13:18 11.10.2019
6180 Clouds 10 1023 10 16093 10.3 20 12:42 11.10.2019
6181 Clouds 10 1023 14 16093 4.6 50 12:22 11.10.2019
6182 Clouds 11 1023 11 16093 10.3 10 12:00 11.10.2019
6183 Clouds 11 1023 11 16093 7.2 20 11:40 11.10.2019
6184 Clouds 11 1024 14 16093 4.1 100 11:21 11.10.2019
6185 Clouds 11 1023 12 16093 7.7 10 10:56 11.10.2019
6186 Clouds 11 1023 12 16093 8.7 20 10:38 11.10.2019
6187 Clouds 11 1023 13 16093 5.1 80 10:20 11.10.2019
6188 Clouds 12 1023 12 16093 8.2 20 09:54 11.10.2019
6189 Clouds 12 1023 12 16093 8.2 20 09:54 11.10.2019
6190 Clouds 12 1023 12 16093 8.2 20 09:36 11.10.2019
6191 Clear 12 1024 14 16093 5.7 40 09:18 11.10.2019
6192 Clouds 13 1023 13 16093 7.7 350 08:39 11.10.2019
6193 Clouds 13 1023 12 16093 4.6 40 08:21 11.10.2019
6194 Clouds 13 1023 13 16093 5.7 350 07:59 11.10.2019
6195 Clouds 14 1023 14 16093 4.6 20 07:40 11.10.2019
6196 Clouds 14 1022 13 16093 4.6 40 07:20 11.10.2019
6197 Clouds 14 1022 15 16093 7.2 20 06:43 11.10.2019
6198 Clear 14 1023 14 16093 4.1 40 06:21 11.10.2019
6199 Clouds 15 1021 15 16093 6.7 30 05:32 11.10.2019
6200 Clouds 16 1021 13 16093 6.2 40 04:59 11.10.2019
6201 Clear 16 1020 11 16093 4.6 60 04:24 11.10.2019
6202 Clear 18 1020 8 16093 5.7 30 01:58 11.10.2019
6203 Clear 19 1020 8 16093 7.2 10 00:42 11.10.2019
6204 Clear 19 1020 8 16093 7.2 10 00:42 11.10.2019
6205 Clear 19 1020 8 16093 7.2 60 00:23 11.10.2019
6206 Clear 18 1020 7 16093 9.3 60 23:42 10.10.2019
6207 Clear 18 1020 7 16093 9.3 60 23:20 10.10.2019
6208 Clear 17 1021 7 16093 8.2 40 22:57 10.10.2019
6209 Clear 17 1021 9 16093 8.7 40 22:38 10.10.2019
6210 Clear 17 1021 9 16093 6.7 50 22:19 10.10.2019
6211 Clear 16 1022 10 16093 8.2 330 21:54 10.10.2019
6212 Clear 16 1022 10 16093 9.3 40 21:36 10.10.2019
6213 Clear 16 1023 10 16093 8.7 20 21:18 10.10.2019
6214 Clear 15 1022 11 16093 9.8 30 20:41 10.10.2019
6215 Clear 15 1022 9 16093 8.7 10 20:21 10.10.2019
6216 Clear 15 1022 9 16093 8.7 10 20:21 10.10.2019
6217 Clear 15 1022 9 16093 8.7 10 20:21 10.10.2019
6218 Clear 14 1022 11 16093 8.7 350 19:57 10.10.2019
6219 Clear 14 1022 12 16093 10.3 10 19:39 10.10.2019
6220 Clear 14 1022 10 16093 7.2 360 19:19 10.10.2019
6221 Clear 13 1022 15 16093 10.8 10 18:54 10.10.2019
6222 Clear 13 1022 15 16093 10.8 10 18:54 10.10.2019
6223 Clear 13 1022 15 16093 10.8 10 18:54 10.10.2019
6224 Clear 13 1022 15 16093 10.8 10 18:54 10.10.2019
6225 Clear 13 1022 15 16093 10.8 10 18:36 10.10.2019
6226 Clear 12 1023 13 16093 6.7 30 18:18 10.10.2019
6227 Clear 12 1021 13 16093 10.8 350 17:40 10.10.2019
6228 Clear 12 1021 10 16093 8.7 30 17:20 10.10.2019
6229 Clear 11 1021 13 16093 9.8 360 16:58 10.10.2019
6230 Clear 11 1020 14 16093 9.3 10 16:38 10.10.2019
6231 Clear 11 1020 11 16093 7.7 50 16:20 10.10.2019
6232 Clouds 12 1019 13 16093 6.2 20 15:42 10.10.2019
6233 Clear 12 1018 10 16093 9.3 10 15:23 10.10.2019
6234 Clouds 12 1018 12 16093 10.3 10 14:59 10.10.2019
6235 Clouds 13 1017 11 16093 12.3 20 14:37 10.10.2019
6236 Dust 13 1018 12 16093 8.7 30 14:19 10.10.2019
6237 Dust 13 1017 10 16093 10.8 20 13:58 10.10.2019
6238 Dust 13 1016 10 16093 12.9 20 13:39 10.10.2019
6239 Dust 13 1017 10 16093 9.3 30 13:18 10.10.2019
6240 Dust 14 1015 8 14484 10.3 20 12:42 10.10.2019
6241 Dust 15 1015 8 16093 14.4 30 12:21 10.10.2019
6242 Dust 15 1015 7 16093 9.8 30 11:58 10.10.2019
6243 Dust 16 1014 6 16093 10.3 20 11:40 10.10.2019
6244 Dust 16 1014 8 16093 12.9 10 11:19 10.10.2019
6245 Dust 17 1013 6 16093 11.8 20 10:57 10.10.2019
6246 Dust 17 1012 6 16093 12.3 20 10:39 10.10.2019
6247 Dust 17 1012 8 14484 14.9 360 10:20 10.10.2019
6248 Dust 19 1010 11 16093 12.9 10 09:41 10.10.2019
6249 Dust 19 1011 9 14484 12.9 20 09:23 10.10.2019
6250 Dust 20 1010 12 16093 12.3 20 08:59 10.10.2019
6251 Dust 20 1009 12 14484 12.9 20 08:40 10.10.2019
6252 Dust 21 1009 12 14484 12.9 20 08:21 10.10.2019
6253 Dust 23 1007 12 12874 7.2 50 07:48 10.10.2019
6254 Dust 23 1007 12 12874 7.2 50 07:26 10.10.2019
6255 Clear 25 1006 10 16093 6.2 20 06:56 10.10.2019
6256 Clear 26 1005 11 8047 12.9 360 06:38 10.10.2019
6257 Clouds 25 1004 13 16093 1.3 299.444 05:50 10.10.2019
6258 Clear 25 1003 11 16093 2.1 290 05:19 10.10.2019
6259 Clouds 27 1003 9 16093 2.6 330 04:35 10.10.2019
6260 Haze 30 1003 7 16093 5.7 250 02:29 10.10.2019
6261 Haze 31 1003 7 16093 6.7 240 01:37 10.10.2019
6262 Haze 31 1004 9 16093 8.2 210 01:18 10.10.2019
6263 Haze 31 1003 6 16093 6.7 260 00:33 10.10.2019
6264 Haze 31 1003 7 16093 5.7 180 23:42 09.10.2019
6265 Haze 31 1003 8 16093 2.1 50 23:24 09.10.2019
6266 Haze 31 1003 8 16093 2.1 50 23:24 09.10.2019
6267 Haze 30 1003 7 16093 3.6 180 22:59 09.10.2019
6268 Haze 30 1004 8 16093 4.6 200 22:41 09.10.2019
6269 Haze 30 1004 9 16093 1.5 110 22:22 09.10.2019
6270 Clear 28 1005 8 16093 2.1 0 21:57 09.10.2019
6271 Clear 28 1005 10 16093 3.6 160 21:38 09.10.2019
6272 Clouds 28 1005 11 16093 4.56 220.965 21:19 09.10.2019
6273 -273 0 0 0 0 0 20:55 09.10.2019
6274 Clear 28 1006 9 16093 4.6 160 20:36 09.10.2019
6275 Clear 27 1007 12 16093 6.7 210 20:18 09.10.2019
6276 Clear 27 1007 12 16093 6.7 210 20:18 09.10.2019
6277 Clear 27 1007 12 16093 6.7 210 20:18 09.10.2019
6278 Clear 26 1006 10 16093 3.1 0 19:43 09.10.2019
6279 Clouds 26 1006 12 16093 3.6 200 19:22 09.10.2019
6280 Clear 24 1007 11 16093 3.1 0 18:39 09.10.2019
6281 Clouds 21 1006 15 16093 2.6 190 18:21 09.10.2019
6282 Clear 21 1007 12 16093 3.1 170 17:58 09.10.2019
6283 Clear 20 1007 13 16093 1.5 110 17:40 09.10.2019
6284 Clouds 19 1006 18 16093 1.5 150 17:22 09.10.2019
6285 Clear 20 1007 16 16093 2.1 80 16:57 09.10.2019
6286 Clear 19 1006 15 16093 1.5 240 16:39 09.10.2019
6287 Clouds 17 1006 19 16093 2.6 270 16:21 09.10.2019
6288 Clouds 17 1006 19 16093 2.6 270 16:21 09.10.2019
6289 Clear 18 1006 20 16093 2.6 0 15:57 09.10.2019
6290 Clouds 18 1006 13 16093 3.6 190 15:38 09.10.2019
6291 Clouds 19 1005 16 16093 3.1 260 15:19 09.10.2019
6292 Clouds 18 1006 12 16093 3.6 160 14:55 09.10.2019
6293 Clouds 18 1006 12 16093 3.6 160 14:36 09.10.2019
6294 Clear 19 1007 14 16093 5.1 180 14:18 09.10.2019
6295 Clouds 18 1006 12 16093 2.6 160 13:38 09.10.2019
6296 Clear 19 1005 11 16093 5.7 200 13:19 09.10.2019
6297 Clouds 19 1006 11 16093 4.1 130 12:55 09.10.2019
6298 Clouds 20 1006 11 16093 5.1 160 12:37 09.10.2019
6299 Clear 21 1007 12 16093 5.1 170 12:18 09.10.2019
6300 Clouds 20 1006 12 16093 3.1 180 11:40 09.10.2019
6301 Clouds 20 1005 13 16093 5.1 180 11:20 09.10.2019
6302 Clouds 20 1007 22 16093 3.01 231.156 10:59 09.10.2019
6303 Clouds 20 1007 18 16093 3.1 90 10:40 09.10.2019
6304 Clouds 20 1005 14 16093 4.6 200 10:19 09.10.2019
6305 Clouds 20 1005 14 16093 4.6 200 10:19 09.10.2019
6306 Clouds 21 1007 12 16093 2.1 120 09:43 09.10.2019
6307 Clear 20 1008 14 16093 4.6 220 09:20 09.10.2019
6308 Clouds 22 1007 25 16093 2.6 10 08:58 09.10.2019
6309 Clouds 22 1007 14 16093 2.44 222.811 08:38 09.10.2019
6310 Clouds 22 1006 13 16093 1.5 170 08:19 09.10.2019
6311 Clouds 22 1006 13 16093 1.5 170 08:19 09.10.2019
6312 Clouds 23 1008 15 16093 1.5 130 07:47 09.10.2019
6313 Clouds 23 1008 15 16093 1.5 130 07:47 09.10.2019
6314 Clouds 23 1007 10 16093 1.5 0 07:24 09.10.2019
6315 Clouds 24 1008 24 16093 2.1 50 06:57 09.10.2019
6316 Clouds 24 1008 24 16093 2.1 50 06:34 09.10.2019
6317 Clouds 25 1008 7 16093 2.1 190 05:51 09.10.2019
6318 Clouds 27 1008 7 16093 2.5 248.531 04:50 09.10.2019
6319 Clear 30 1008 7 16093 5.1 150 03:47 09.10.2019
6320 Clear 31 1008 6 16093 6.2 160 02:27 09.10.2019
6321 Clouds 31 1008 7 16093 3.1 100 01:24 09.10.2019
6322 Clear 31 1008 6 16093 3.6 90 00:59 09.10.2019
6323 Clear 31 1009 5 16093 1.5 0 00:40 09.10.2019
6324 Clouds 31 1009 7 16093 2.1 0 00:22 09.10.2019
6325 Smoke 31 1009 5 16093 3.1 180 23:58 08.10.2019
6326 Smoke 30 1010 6 16093 2.6 90 23:38 08.10.2019
6327 Clear 30 1011 9 16093 3.1 20 23:18 08.10.2019
6328 Clear 30 1011 9 16093 3.1 20 23:18 08.10.2019
6329 Clear 30 1011 7 16093 1.5 170 22:41 08.10.2019
6330 Clear 29 1011 9 16093 2.1 40 22:22 08.10.2019
6331 Clear 29 1011 7 16093 3.26 237.888 21:58 08.10.2019
6332 Clear 28 1012 8 16093 3.26 237.888 21:39 08.10.2019
6333 Clear 28 1012 10 16093 2.6 0 21:20 08.10.2019
6334 Clear 27 1012 8 16093 2.1 212.67 20:58 08.10.2019
6335 Clear 27 1013 9 14484 1.93 207.869 20:39 08.10.2019
6336 Clear 26 1012 11 16093 2.1 60 20:21 08.10.2019
6337 Clear 26 1013 9 16093 1.93 207.869 19:59 08.10.2019
6338 Clear 25 1013 11 16093 1.93 207.869 19:41 08.10.2019
6339 Clear 25 1013 12 16093 1.5 80 19:23 08.10.2019
6340 -273 0 0 0 0 0 18:55 08.10.2019
6341 -273 0 0 0 0 0 18:55 08.10.2019
6342 Clear 22 1013 12 16093 1.93 207.869 18:37 08.10.2019
6343 Clear 21 1013 15 16093 0.52 1.214 18:19 08.10.2019
6344 Haze 18 1013 15 16093 0.52 1.214 17:55 08.10.2019
6345 Haze 18 1013 15 16093 0.52 1.214 17:55 08.10.2019
6346 Haze 19 1013 15 16093 0.52 1.214 17:36 08.10.2019
6347 Haze 18 1013 15 16093 0.52 1.214 17:36 08.10.2019
6348 Haze 18 1014 18 16093 2.6 170 17:18 08.10.2019
6349 Clear 15 1012 20 16093 1.5 360 16:40 08.10.2019
6350 Clear 15 1012 20 16093 1.5 360 16:22 08.10.2019
6351 Clouds 15 1013 20 16093 0.52 1.214 15:41 08.10.2019
6352 Clear 14 1012 20 16093 2.1 210 15:22 08.10.2019
6353 Clear 14 1012 20 16093 2.1 210 15:22 08.10.2019
6354 Clouds 15 1013 30 16093 0.77 323.984 14:59 08.10.2019
6355 Clouds 15 1012 30 16093 0.77 323.984 14:41 08.10.2019
6356 Clear 15 1012 20 16093 1.5 250 14:21 08.10.2019
6357 Clouds 15 1012 30 16093 0.77 323.984 13:57 08.10.2019
6358 Clouds 16 1012 28 16093 0.77 323.984 13:39 08.10.2019
6359 Clear 16 1012 20 16093 2.6 210 13:19 08.10.2019
6360 Clouds 17 1012 23 16093 0.8 316.523 12:59 08.10.2019
6361 Clouds 17 1012 25 16093 0.8 316.523 12:38 08.10.2019
6362 Clear 17 1013 16 16093 3.6 170 12:18 08.10.2019
6363 Clouds 17 1013 26 16093 1.43 311.31 11:42 08.10.2019
6364 Clouds 17 1012 17 16093 1.5 240 11:24 08.10.2019
6365 Clouds 17 1012 17 16093 1.5 240 11:24 08.10.2019
6366 Clouds 17 1013 23 16093 1.43 311.31 10:58 08.10.2019
6367 Clouds 18 1013 25 16093 1.43 311.31 10:37 08.10.2019
6368 Clear 18 1014 16 16093 4.1 170 10:19 08.10.2019
6369 Clouds 18 1013 25 16093 1.43 311.31 09:55 08.10.2019
6370 Clouds 18 1013 18 16093 1.43 311.31 09:37 08.10.2019
6371 Clear 19 1014 15 16093 3.6 190 09:19 08.10.2019
6372 Clouds 18 1013 25 16093 0.92 281.689 08:42 08.10.2019
6373 Clouds 19 1013 12 16093 1.5 200 08:23 08.10.2019
6374 Clouds 19 1013 12 16093 1.5 200 08:23 08.10.2019
6375 Clear 20 1014 24 16093 0.92 281.689 07:44 08.10.2019
6376 Clouds 20 1013 12 16093 2.6 240 07:21 08.10.2019
6377 Clouds 21 1013 16 16093 0.92 281.689 06:51 08.10.2019
6378 Clouds 21 1013 16 16093 0.92 281.689 06:28 08.10.2019
6379 Clouds 22 1013 21 16093 3.1 40 05:46 08.10.2019
6380 Clear 22 1014 16 16093 2.6 190 05:26 08.10.2019
6381 Clear 25 1013 12 16093 3.1 20 04:31 08.10.2019
6382 Clear 29 1013 10 16093 3.1 30 03:28 08.10.2019
6383 Clear 29 1013 7 16093 2.6 40 02:37 08.10.2019
6384 Clear 29 1014 6 16093 3.1 60 01:47 08.10.2019
6385 Clear 29 1014 6 16093 3.1 60 01:27 08.10.2019
6386 Clear 29 1015 7 16093 2.6 0 00:46 08.10.2019
6387 Clear 29 1015 7 16093 2.6 80 00:21 08.10.2019
6388 Clear 29 1016 7 16093 4.1 60 23:40 07.10.2019
6389 Clear 28 1016 8 16093 1.5 70 23:20 07.10.2019
6390 Clear 28 1016 7 16093 3.1 50 22:56 07.10.2019
6391 Clear 28 1017 7 16093 3.1 80 22:38 07.10.2019
6392 Clear 27 1017 8 16093 2.1 0 22:20 07.10.2019
6393 Clear 27 1017 7 16093 3.1 10 21:56 07.10.2019
6394 Clear 27 1018 9 16093 3.6 60 21:37 07.10.2019
6395 Clear 27 1018 9 16093 3.6 60 21:37 07.10.2019
6396 Clear 26 1018 9 16093 3.6 60 21:19 07.10.2019
6397 Clear 26 1018 9 16093 3.6 60 21:19 07.10.2019
6398 Clear 26 1018 9 16093 3.6 60 21:19 07.10.2019
6399 Clear 26 1018 8 16093 2.6 0 20:57 07.10.2019
6400 Clear 25 1019 8 16093 4.6 300 20:39 07.10.2019
6401 Clear 25 1019 10 16093 1.5 0 20:19 07.10.2019
6402 Clear 24 1019 9 16093 4.6 310 19:56 07.10.2019
6403 Clear 24 1019 9 16093 2.6 0 19:38 07.10.2019
6404 Clear 24 1019 9 16093 2.6 0 19:38 07.10.2019
6405 Clear 23 1021 14 16093 3.1 40 19:18 07.10.2019
6406 Clear 22 1020 10 16093 3.6 350 18:43 07.10.2019
6407 Clear 20 1021 15 16093 2.1 40 18:20 07.10.2019
6408 Clear 19 1020 10 16093 3.6 350 17:59 07.10.2019
6409 Clear 19 1020 11 16093 3.1 340 17:41 07.10.2019
6410 Clouds 18 1019 18 16093 1.5 220 17:19 07.10.2019
6411 Clear 16 1019 13 16093 4.6 330 16:46 07.10.2019
6412 Clear 16 1019 13 16093 4.6 330 16:46 07.10.2019
6413 Clear 16 1019 13 16093 4.6 330 16:28 07.10.2019
6414 Clear 15 1019 13 16093 4.6 320 15:59 07.10.2019
6415 Clear 15 1019 20 16093 2.6 220 15:40 07.10.2019
6416 Clear 14 1019 20 16093 2.6 220 15:21 07.10.2019
6417 Clouds 15 1019 12 16093 3.1 340 14:42 07.10.2019
6418 Clear 15 1019 20 16093 2.23 52.15 14:23 07.10.2019
6419 Clouds 15 1019 13 16093 3.6 350 13:45 07.10.2019
6420 Clear 15 1018 20 16093 1.5 240 13:21 07.10.2019
6421 Clear 15 1018 20 16093 1.5 240 13:21 07.10.2019
6422 Clouds 16 1019 11 16093 2.6 320 12:59 07.10.2019
6423 Clouds 16 1019 12 16093 2.1 360 12:41 07.10.2019
6424 Clear 16 1019 20 16093 1.5 210 12:21 07.10.2019
6425 Haze 16 1019 18 16093 3.1 210 11:59 07.10.2019
6426 Haze 16 1019 10 16093 4.1 360 11:41 07.10.2019
6427 Clear 17 1019 18 16093 3.1 210 11:22 07.10.2019
6428 Clouds 18 1019 10 16093 4.1 350 10:58 07.10.2019
6429 Clouds 18 1019 10 16093 4.1 350 10:58 07.10.2019
6430 Clouds 18 1019 10 16093 4.1 350 10:39 07.10.2019
6431 Clear 18 1019 17 16093 2.6 220 10:20 07.10.2019
6432 Clouds 18 1019 10 16093 5.1 350 09:40 07.10.2019
6433 Clouds 19 1019 13 16093 5.7 350 09:22 07.10.2019
6434 Clouds 19 1019 15 16093 3.6 330 08:44 07.10.2019
6435 Clear 19 1021 25 16093 1.5 200 08:21 07.10.2019
6436 Clouds 20 1019 24 16093 4.1 330 07:59 07.10.2019
6437 Clouds 20 1019 15 16093 2.1 0 07:40 07.10.2019
6438 Clear 20 1019 15 16093 3.6 270 07:20 07.10.2019
6439 Clouds 20 1019 18 16093 2.1 20 06:44 07.10.2019
6440 Clear 21 1020 22 16093 2.57 44.449 06:22 07.10.2019
6441 Clear 22 1019 18 16093 2.57 44.449 05:27 07.10.2019
6442 Clear 24 1019 10 16093 2.6 360 04:56 07.10.2019
6443 Clouds 25 1018 10 16093 2.6 30 04:19 07.10.2019
6444 Clear 27 1018 9 16093 3.1 360 03:39 07.10.2019
6445 Clear 27 1018 9 16093 3.1 360 03:39 07.10.2019
6446 Clear 27 1019 9 16093 4.1 30 02:55 07.10.2019
6447 Clouds 28 1019 9 16093 3.6 20 02:20 07.10.2019
6448 Clear 28 1020 11 16093 2.6 50 02:20 07.10.2019
6449 Clouds 28 1019 10 16093 1.5 0 01:24 07.10.2019
6450 Clear 28 1019 9 16093 5.7 50 00:55 07.10.2019
6451 Clear 28 1020 9 16093 5.7 50 00:27 07.10.2019
6452 Clear 28 1020 9 16093 5.1 50 23:59 06.10.2019
6453 Clear 28 1021 10 16093 4.1 40 23:40 06.10.2019
6454 Clear 27 1021 10 16093 5.1 70 23:20 06.10.2019
6455 Clear 27 1021 10 16093 4.6 40 22:58 06.10.2019
6456 Clear 27 1022 10 16093 5.1 20 22:39 06.10.2019
6457 Clear 27 1022 10 16093 5.1 60 22:21 06.10.2019
6458 Clear 27 1022 10 16093 4.6 50 21:56 06.10.2019
6459 Clear 26 1023 12 16093 5.1 30 21:37 06.10.2019
6460 Clear 26 1023 11 16093 6.7 50 21:19 06.10.2019
6461 Clear 25 1023 13 16093 4.6 30 20:56 06.10.2019
6462 Clear 25 1023 13 16093 6.7 30 20:38 06.10.2019
6463 Clear 24 1023 12 16093 7.2 50 20:19 06.10.2019
6464 Clear 24 1023 14 16093 4.6 30 19:57 06.10.2019
6465 Clear 23 1023 15 16093 6.2 20 19:37 06.10.2019
6466 Clear 23 1024 14 16093 5.7 40 19:18 06.10.2019
6467 Clear 22 1023 12 16093 6.2 30 18:55 06.10.2019
6468 Clear 22 1023 12 16093 4.6 20 18:37 06.10.2019
6469 Clear 21 1024 15 16093 4.1 50 18:18 06.10.2019
6470 Clear 21 1024 15 16093 4.1 50 18:18 06.10.2019
6471 Clear 19 1022 12 16093 3.1 20 17:43 06.10.2019
6472 Clear 18 1022 15 16093 2.6 110 17:20 06.10.2019
6473 Clear 17 1022 12 16093 3.79 66.591 16:56 06.10.2019
6474 Clear 17 1022 12 16093 3.79 66.591 16:56 06.10.2019
6475 Clear 16 1021 15 16093 2.1 360 16:37 06.10.2019
6476 Clear 16 1022 23 16093 1.5 200 16:19 06.10.2019
6477 Clouds 16 1020 16 16093 3.79 66.591 15:43 06.10.2019
6478 Clear 16 1020 15 16093 2.6 20 15:22 06.10.2019
6479 Clouds 16 1020 19 16093 2.1 0 14:56 06.10.2019
6480 Clouds 15 1019 12 16093 2.1 350 14:38 06.10.2019
6481 Clear 16 1019 16 16093 1.5 30 14:19 06.10.2019
6482 Clouds 15 1019 24 16093 1.71 51.309 13:42 06.10.2019
6483 Clouds 15 1019 24 16093 1.71 51.309 13:42 06.10.2019
6484 Clear 15 1018 17 16093 2.1 270 13:24 06.10.2019
6485 Clouds 15 1019 28 16093 1.82 50.963 12:59 06.10.2019
6486 Clouds 15 1018 30 16093 1.82 50.963 12:41 06.10.2019
6487 Clear 16 1018 12 16093 2.1 220 12:21 06.10.2019
6488 Clouds 17 1018 30 16093 1.04 340.176 11:59 06.10.2019
6489 Clouds 17 1018 30 16093 1.04 340.176 11:41 06.10.2019
6490 Clear 17 1017 12 16093 2.6 210 11:23 06.10.2019
6491 Clouds 17 1018 17 16093 1.5 320 10:55 06.10.2019
6492 Clouds 17 1018 23 16093 1.04 340.176 10:37 06.10.2019
6493 Clear 17 1017 14 16093 2.6 210 10:19 06.10.2019
6494 Clouds 17 1017 33 16093 1.5 360 09:41 06.10.2019
6495 Clear 18 1018 17 16093 3.1 170 09:19 06.10.2019
6496 Clouds 18 1017 25 16093 0.43 295.848 08:48 06.10.2019
6497 Clouds 18 1017 25 16093 0.43 295.848 08:48 06.10.2019
6498 Clear 18 1017 12 16093 0.48 301.866 08:22 06.10.2019
6499 Clouds 19 1017 23 16093 0.48 301.866 07:58 06.10.2019
6500 Clouds 18 1017 22 16093 1.5 340 07:39 06.10.2019
6501 Clouds 20 1017 18 16093 4.1 360 06:50 06.10.2019
6502 Clouds 21 1017 15 16093 3.6 20 05:41 06.10.2019
6503 Clouds 24 1016 15 16093 2.1 30 04:32 06.10.2019
6504 Clear 27 1016 7 16093 1.63 240.264 02:52 06.10.2019
6505 Clear 28 1016 7 16093 1.63 240.264 02:29 06.10.2019
6506 Clear 28 1017 7 16093 1.63 240.264 01:46 06.10.2019
6507 Clear 28 1017 7 16093 1.72 244.152 01:28 06.10.2019
6508 Clear 28 1017 7 16093 2.1 60 00:59 06.10.2019
6509 Clear 28 1017 7 16093 2.1 60 00:59 06.10.2019
6510 Clear 28 1017 7 16093 1.5 50 00:31 06.10.2019
6511 -273 0 0 0 0 0 23:54 05.10.2019
6512 Clear 27 1018 8 16093 2.1 90 23:36 05.10.2019
6513 Clear 27 1019 9 16093 2.1 250 23:18 05.10.2019
6514 Clear 26 1019 9 16093 4.1 50 22:54 05.10.2019
6515 Clear 26 1019 9 16093 4.1 50 22:54 05.10.2019
6516 Clear 26 1019 9 16093 4.1 50 22:36 05.10.2019
6517 Clear 26 1021 10 16093 2.1 0 22:18 05.10.2019
6518 Clear 25 1020 9 16093 5.1 50 21:40 05.10.2019
6519 Clear 24 1020 9 16093 2.1 350 21:21 05.10.2019
6520 Clear 23 1021 9 16093 2.6 40 20:56 05.10.2019
6521 Clear 23 1021 9 16093 2.6 40 20:38 05.10.2019
6522 Clear 23 1021 10 16093 2.6 10 20:19 05.10.2019
6523 Clear 22 1022 9 16093 3.6 340 19:40 05.10.2019
6524 Clear 22 1021 11 16093 1.8 112.956 19:22 05.10.2019
6525 Clear 21 1022 10 16093 3.1 340 18:57 05.10.2019
6526 Clear 21 1022 10 16093 3.1 340 18:39 05.10.2019
6527 Clear 19 1021 14 16093 2.05 51.218 18:20 05.10.2019
6528 Clear 18 1021 11 16093 5.7 360 17:55 05.10.2019
6529 Clear 18 1021 11 16093 5.7 360 17:55 05.10.2019
6530 Clear 18 1021 11 16093 5.7 360 17:37 05.10.2019
6531 Clear 17 1021 14 16093 2.6 220 17:18 05.10.2019
6532 Clear 15 1020 11 16093 5.7 340 16:42 05.10.2019
6533 Clear 15 1020 16 16093 2.1 210 16:21 05.10.2019
6534 Clouds 15 1020 11 16093 5.7 360 15:57 05.10.2019
6535 Clouds 15 1020 11 16093 5.7 360 15:39 05.10.2019
6536 Clear 15 1021 20 16093 3.1 80 15:21 05.10.2019
6537 Clouds 14 1019 11 16093 5.1 10 14:56 05.10.2019
6538 Clouds 14 1019 11 16093 5.1 10 14:56 05.10.2019
6539 Clouds 14 1019 11 16093 1.5 0 14:38 05.10.2019
6540 Clear 15 1019 13 16093 2.6 100 14:20 05.10.2019
6541 Clouds 15 1018 11 16093 3.6 320 13:41 05.10.2019
6542 Clear 15 1018 17 16093 1.75 69.712 13:22 05.10.2019
6543 Clouds 16 1018 11 16093 3.6 330 12:46 05.10.2019
6544 Clear 16 1019 18 16093 3.1 170 12:21 05.10.2019
6545 Clouds 16 1018 11 16093 2.1 320 11:58 05.10.2019
6546 Clouds 16 1018 11 16093 2.1 340 11:37 05.10.2019
6547 Clear 17 1018 16 16093 3.1 190 11:18 05.10.2019
6548 Clouds 17 1017 18 16093 2.1 360 10:44 05.10.2019
6549 Clear 18 1017 14 16093 2.1 0 10:25 05.10.2019
6550 Clouds 19 1017 18 16093 0.91 52.236 09:57 05.10.2019
6551 Clouds 19 1017 11 16093 0.91 52.236 09:38 05.10.2019
6552 Clear 19 1016 13 16093 1.5 210 09:20 05.10.2019
6553 Clouds 20 1017 25 16093 1.17 6.356 08:39 05.10.2019
6554 Clouds 20 1017 25 16093 1.17 6.356 08:39 05.10.2019
6555 Clear 19 1018 13 16093 4.1 210 08:19 05.10.2019
6556 Clouds 19 1017 26 16093 1.5 30 07:56 05.10.2019
6557 Clouds 21 1016 9 16093 1.5 170 07:33 05.10.2019
6558 Clouds 21 1016 14 16093 1.17 6.356 06:58 05.10.2019
6559 Clear 21 1016 15 16093 1.17 6.356 06:27 05.10.2019
6560 Clear 22 1015 18 16093 2.1 60 05:40 05.10.2019
6561 Clear 28 1014 12 16093 2.1 60 03:56 05.10.2019
6562 Clear 29 1014 8 16093 3.6 150 03:28 05.10.2019
6563 Haze 29 1014 5 6437 2.1 110 01:41 05.10.2019
6564 Clear 29 1015 5 16093 4.1 220 01:18 05.10.2019
6565 Clear 29 1014 3 16093 1.7 248.549 00:41 05.10.2019
6566 Clear 28 1014 7 16093 2.1 340 00:23 05.10.2019
6567 Clear 28 1014 4 16093 3.1 210 23:44 04.10.2019
6568 Clear 28 1014 4 16093 3.1 210 23:25 04.10.2019
6569 Clear 28 1014 4 16093 3.6 240 22:59 04.10.2019
6570 Clear 27 1015 5 16093 3.1 230 22:39 04.10.2019
6571 Clouds 27 1015 9 16093 3.6 320 22:19 04.10.2019
6572 Clear 27 1015 5 16093 4.1 240 21:55 04.10.2019
6573 Clear 27 1015 5 16093 4.1 240 21:36 04.10.2019
6574 Clear 26 1016 7 16093 6.7 230 21:18 04.10.2019
6575 Clear 25 1015 11 16093 2.6 0 20:42 04.10.2019
6576 Clear 25 1015 11 16093 2.6 0 20:23 04.10.2019
6577 Clear 24 1015 8 16093 2.1 0 19:58 04.10.2019
6578 Clear 24 1015 9 16093 3.1 240 19:39 04.10.2019
6579 Clear 24 1015 13 16093 3.6 200 19:21 04.10.2019
6580 Clear 23 1015 10 16093 1.5 230 18:56 04.10.2019
6581 Clear 22 1015 13 16093 3.05 231.771 18:37 04.10.2019
6582 Clear 21 1015 16 16093 6.2 220 18:18 04.10.2019
6583 Clear 20 1014 16 16093 2.1 10 17:41 04.10.2019
6584 Clear 20 1014 16 16093 2.1 10 17:41 04.10.2019
6585 Clear 19 1013 15 16093 3.1 200 17:22 04.10.2019
6586 Clear 19 1014 18 16093 2.1 200 16:59 04.10.2019
6587 Clear 19 1014 20 16093 1.5 190 16:41 04.10.2019
6588 Clouds 18 1012 16 16093 6.7 200 16:19 04.10.2019
6589 Clear 18 1014 19 16093 2.48 240.172 15:58 04.10.2019
6590 Clouds 18 1013 17 16093 2.6 240 15:39 04.10.2019
6591 Clear 18 1014 18 16093 4.6 160 15:20 04.10.2019
6592 Clouds 19 1013 21 16093 2.6 310 14:56 04.10.2019
6593 Clouds 18 1013 26 16093 2.1 30 14:38 04.10.2019
6594 Clear 17 1013 20 16093 7.2 200 14:19 04.10.2019
6595 Clouds 17 1012 18 16093 3.1 130 13:44 04.10.2019
6596 Clear 17 1012 19 16093 8.7 210 13:22 04.10.2019
6597 Clouds 17 1012 26 16093 2.61 248.252 12:54 04.10.2019
6598 Clouds 17 1012 26 16093 2.61 248.252 12:36 04.10.2019
6599 Clear 18 1012 19 16093 7.7 200 12:18 04.10.2019
6600 Clouds 19 1012 26 16093 2.1 10 11:42 04.10.2019
6601 Clouds 19 1012 26 16093 2.1 10 11:42 04.10.2019
6602 Clouds 19 1012 26 16093 2.1 10 11:42 04.10.2019
6603 Clear 19 1011 14 16093 3.6 160 11:21 04.10.2019
6604 Clouds 19 1012 25 16093 2.1 340 10:41 04.10.2019
6605 Clear 19 1011 13 16093 3.1 170 10:21 04.10.2019
6606 Clouds 19 1012 21 16093 3.09 244.522 09:50 04.10.2019
6607 Clouds 19 1012 21 16093 3.09 244.522 09:50 04.10.2019
6608 Clear 20 1011 14 16093 2.1 220 09:32 04.10.2019
6609 Clouds 20 1012 16 16093 2.18 223.772 08:59 04.10.2019
6610 Clouds 20 1012 33 16093 2.18 223.772 08:41 04.10.2019
6611 Clouds 20 1012 33 16093 2.18 223.772 08:41 04.10.2019
6612 Clear 20 1011 13 16093 1.5 170 08:23 04.10.2019
6613 Clouds 21 1012 24 16093 2.18 223.772 07:47 04.10.2019
6614 Clear 22 1011 12 16093 2.1 190 07:23 04.10.2019
6615 Clouds 23 1012 11 16093 2.1 190 06:48 04.10.2019
6616 Clouds 23 1012 11 16093 2.1 190 06:27 04.10.2019
6617 Clear 24 1012 15 16093 2.6 250 05:52 04.10.2019
6618 Clear 24 1011 9 16093 2.1 160 05:19 04.10.2019
6619 Clear 26 1010 8 16093 4.1 240 04:25 04.10.2019
6620 Clear 28 1010 13 16093 9.8 150 02:56 04.10.2019
6621 Clear 28 1010 13 16093 9.8 150 02:56 04.10.2019
6622 Clear 28 1010 11 16093 8.7 150 02:37 04.10.2019
6623 Clear 29 1011 10 16093 7.7 160 01:43 04.10.2019
6624 Clear 29 1011 9 16093 4.6 90 01:24 04.10.2019
6625 Clear 29 1012 9 16093 5.1 50 00:24 04.10.2019
6626 Clear 27 1012 9 16093 6.2 150 23:38 03.10.2019
6627 Clear 27 1014 10 16093 4.6 30 23:19 03.10.2019
6628 Clear 27 1013 9 16093 5.1 150 22:57 03.10.2019
6629 Clear 26 1014 9 16093 2.6 30 22:39 03.10.2019
6630 Clear 26 1014 8 16093 3.6 70 22:21 03.10.2019
6631 Clear 25 1015 12 16093 3.1 20 21:56 03.10.2019
6632 Clear 24 1015 12 16093 3.1 20 21:38 03.10.2019
6633 Clear 24 1015 10 16093 3.6 80 21:19 03.10.2019
6634 Clear 23 1015 14 16093 3.37 182.227 20:57 03.10.2019
6635 Clear 23 1016 10 16093 1.5 0 20:37 03.10.2019
6636 Clear 22 1017 10 16093 2.1 30 20:19 03.10.2019
6637 Clear 22 1016 10 16093 2.1 140 19:55 03.10.2019
6638 Clear 21 1016 10 16093 3.34 181.391 19:36 03.10.2019
6639 Clear 21 1017 9 16093 3.34 181.391 19:18 03.10.2019
6640 Clear 19 1017 11 16093 3.34 181.391 18:40 03.10.2019
6641 Clear 18 1016 12 16093 0.31 34.566 18:20 03.10.2019
6642 Clear 16 1017 13 16093 0.31 34.566 17:59 03.10.2019
6643 Clear 15 1016 19 16093 0.31 34.566 17:41 03.10.2019
6644 Clear 15 1016 17 16093 0.31 34.566 17:20 03.10.2019
6645 Clear 12 1016 27 16093 0.31 34.566 16:54 03.10.2019
6646 Clear 12 1016 27 16093 0.31 34.566 16:36 03.10.2019
6647 Clear 11 1017 19 16093 3.1 190 16:18 03.10.2019
6648 Clouds 10 1016 29 16093 0.31 34.566 15:41 03.10.2019
6649 Clear 12 1015 17 16093 0.24 340.733 15:23 03.10.2019
6650 Clouds 12 1015 25 16093 2.1 60 14:54 03.10.2019
6651 Clouds 12 1015 25 16093 2.1 60 14:36 03.10.2019
6652 Clear 12 1016 18 16093 3.6 190 14:18 03.10.2019
6653 Clouds 12 1015 22 16093 0.24 340.733 13:41 03.10.2019
6654 Clear 12 1015 16 16093 2.1 220 13:22 03.10.2019
6655 Clouds 12 1015 25 16093 1.5 100 12:58 03.10.2019
6656 Clouds 12 1015 25 16093 0.23 341.333 12:39 03.10.2019
6657 Clear 13 1015 16 16093 2.1 220 12:19 03.10.2019
6658 Clear 13 1015 16 16093 2.1 220 12:19 03.10.2019
6659 Clouds 13 1016 22 16093 0.44 4.796 11:55 03.10.2019
6660 Clouds 13 1016 22 16093 0.44 4.796 11:37 03.10.2019
6661 Clear 14 1016 13 16093 3.6 180 11:18 03.10.2019
6662 Clouds 14 1016 30 16093 0.44 4.796 10:41 03.10.2019
6663 Clear 14 1015 14 16093 1.5 220 10:19 03.10.2019
6664 Clouds 14 1016 35 16093 0.44 4.796 09:59 03.10.2019
6665 Clouds 15 1016 35 16093 0.44 4.796 09:40 03.10.2019
6666 Clear 15 1015 12 16093 2.6 220 09:21 03.10.2019
6667 Haze 15 1016 35 16093 1.5 70 08:55 03.10.2019
6668 Haze 15 1016 19 16093 0.28 335.168 08:36 03.10.2019
6669 Haze 16 1016 18 16093 4.6 160 08:18 03.10.2019
6670 Haze 17 1015 19 16093 3.1 340 07:41 03.10.2019
6671 Clear 17 1015 11 16093 1.5 220 07:19 03.10.2019
6672 Clouds 17 1015 20 16093 3.1 20 06:51 03.10.2019
6673 Clear 17 1015 10 16093 2.1 50 06:25 03.10.2019
6674 Clouds 19 1015 19 16093 3.1 30 05:47 03.10.2019
6675 Clear 18 1014 10 16093 2.6 340 05:20 03.10.2019
6676 Clear 21 1014 10 16093 2.6 20 04:31 03.10.2019
6677 Clear 24 1014 5 16093 0.89 66.43 03:24 03.10.2019
6678 Clear 25 1015 5 16093 1.5 0 02:39 03.10.2019
6679 Clear 25 1015 6 16093 1.97 132.739 01:59 03.10.2019
6680 Clear 25 1015 6 16093 2.1 0 01:35 03.10.2019
6681 Clear 25 1015 6 16093 2.37 145.685 00:51 03.10.2019
6682 Clear 25 1015 7 16093 1.5 0 00:23 03.10.2019
6683 Clear 25 1016 7 16093 2.6 60 23:44 02.10.2019
6684 Clear 24 1016 7 16093 2.6 60 23:22 02.10.2019
6685 Clear 24 1017 8 16093 1.76 110.911 22:46 02.10.2019
6686 Clear 24 1017 9 16093 1.5 0 22:23 02.10.2019
6687 Clear 24 1017 8 16093 2.6 0<